<?xml version="1.0" encoding="UTF-8"?>
<gpx
  version="1.0"
  creator="GPSBabel - http://www.gpsbabel.org"
  xmlns:xsi="http://www.w3.org/2001/XMLSchema-instance"
  xmlns="http://www.topografix.com/GPX/1/0"
  xsi:schemaLocation="http://www.topografix.com/GPX/1/0 http://www.topografix.com/GPX/1/0/gpx.xsd">
<time>2012-04-03T12:37:49Z</time>
<bounds minlat="39.663700000" minlon="-0.428084000" maxlat="39.714864000" maxlon="-0.325210000"/>
<wpt lat="39.667906000" lon="-0.417713000">
  <ele>260.300000</ele>
  <name>+ 21.60%</name>
  <cmt>+ 21.60%</cmt>
  <desc>+ 21.60%</desc>
  <sym>wpt</sym>
</wpt>
<wpt lat="39.714267000" lon="-0.348333000">
  <ele>129.300000</ele>
  <name>Estivella</name>
  <cmt>Estivella</cmt>
  <desc>Estivella</desc>
  <sym>wpt</sym>
</wpt>
<wpt lat="39.671425000" lon="-0.373489000">
  <ele>403.700000</ele>
  <name>La_Mola</name>
  <cmt>La_Mola</cmt>
  <desc>La_Mola</desc>
  <sym>wpt</sym>
</wpt>
<wpt lat="39.680806000" lon="-0.347001000">
  <ele>329.800000</ele>
  <name>Alt_de_la_Redona</name>
  <cmt>Alt_de_la_Redona</cmt>
  <desc>Alt_de_la_Redona</desc>
  <sym>wpt</sym>
</wpt>
<wpt lat="39.672035000" lon="-0.367613000">
  <ele>399.200000</ele>
  <name>Alt_del_Xocainet</name>
  <cmt>Alt_del_Xocainet</cmt>
  <desc>Alt_del_Xocainet</desc>
  <sym>wpt</sym>
</wpt>
<wpt lat="39.678836000" lon="-0.325210000">
  <ele>94.100000</ele>
  <name>Gilet_</name>
  <cmt>Gilet_</cmt>
  <desc>Gilet_</desc>
  <sym>wpt</sym>
</wpt>
<wpt lat="39.668811000" lon="-0.401307000">
  <ele>346.200000</ele>
  <name>Pi_del_Salt</name>
  <cmt>Pi_del_Salt</cmt>
  <desc>Pi_del_Salt</desc>
  <sym>wpt</sym>
</wpt>
<wpt lat="39.678734000" lon="-0.403624000">
  <ele>409.500000</ele>
  <name>Moncudio</name>
  <cmt>Moncudio</cmt>
  <desc>Moncudio</desc>
  <sym>wpt</sym>
</wpt>
<wpt lat="39.668293000" lon="-0.381159000">
  <ele>374.200000</ele>
  <name>El_Meliquet</name>
  <cmt>El_Meliquet</cmt>
  <desc>El_Meliquet</desc>
  <sym>wpt</sym>
</wpt>
<wpt lat="39.687481000" lon="-0.416178000">
  <ele>442.000000</ele>
  <name>Font_del_Cauets</name>
  <cmt>Font_del_Cauets</cmt>
  <desc>Font_del_Cauets</desc>
  <sym>wpt</sym>
</wpt>
<wpt lat="39.693162000" lon="-0.413595000">
  <ele>408.700000</ele>
  <name>Font_de_l&apos;Ombria</name>
  <cmt>Font_de_l&apos;Ombria</cmt>
  <desc>Font_de_l&apos;Ombria</desc>
  <sym>wpt</sym>
</wpt>
<wpt lat="39.685452000" lon="-0.426751000">
  <ele>338.700000</ele>
  <name>Serra_</name>
  <cmt>Serra_</cmt>
  <desc>Serra_</desc>
  <sym>wpt</sym>
</wpt>
<wpt lat="39.680417000" lon="-0.388116000">
  <ele>480.800000</ele>
  <name>La_Malla</name>
  <cmt>La_Malla</cmt>
  <desc>La_Malla</desc>
  <sym>wpt</sym>
</wpt>
<wpt lat="39.689156000" lon="-0.423271000">
  <ele>341.500000</ele>
  <name>Font_de_San_Josep</name>
  <cmt>Font_de_San_Josep</cmt>
  <desc>Font_de_San_Josep</desc>
  <sym>wpt</sym>
</wpt>
<wpt lat="39.682706000" lon="-0.413301000">
  <ele>471.700000</ele>
  <name>Castell_de_Serra</name>
  <cmt>Castell_de_Serra</cmt>
  <desc>Castell_de_Serra</desc>
  <sym>wpt</sym>
</wpt>
<wpt lat="39.702190000" lon="-0.337388000">
  <ele>82.500000</ele>
  <name>Albalat</name>
  <cmt>Albalat</cmt>
  <desc>Albalat</desc>
  <sym>wpt</sym>
</wpt>
<trk>
  <name>2011-10-22-01_0-250</name>
  <desc>C:\Users\farnau\Documents\My Dropbox\Tracks\2011-10-22-01.gpx</desc>
<trkseg>
<trkpt lat="39.714611000" lon="-0.350797000">
  <ele>130.800000</ele>
  <time>2011-10-22T06:05:26Z</time>
</trkpt>
<trkpt lat="39.714594000" lon="-0.350837000">
  <ele>128.700000</ele>
  <time>2011-10-22T06:05:56Z</time>
</trkpt>
<trkpt lat="39.714585000" lon="-0.350825000">
  <ele>128.700000</ele>
  <time>2011-10-22T06:05:58Z</time>
</trkpt>
<trkpt lat="39.714505000" lon="-0.350720000">
  <ele>129.500000</ele>
  <time>2011-10-22T06:06:04Z</time>
</trkpt>
<trkpt lat="39.714492000" lon="-0.350680000">
  <ele>129.100000</ele>
  <time>2011-10-22T06:06:06Z</time>
</trkpt>
<trkpt lat="39.714478000" lon="-0.350638000">
  <ele>128.600000</ele>
  <time>2011-10-22T06:06:08Z</time>
</trkpt>
<trkpt lat="39.714465000" lon="-0.350609000">
  <ele>129.000000</ele>
  <time>2011-10-22T06:06:09Z</time>
</trkpt>
<trkpt lat="39.714458000" lon="-0.350599000">
  <ele>129.500000</ele>
  <time>2011-10-22T06:06:09Z</time>
</trkpt>
<trkpt lat="39.714378000" lon="-0.350511000">
  <ele>130.800000</ele>
  <time>2011-10-22T06:06:15Z</time>
</trkpt>
<trkpt lat="39.714363000" lon="-0.350489000">
  <ele>131.000000</ele>
  <time>2011-10-22T06:06:16Z</time>
</trkpt>
<trkpt lat="39.714354000" lon="-0.350461000">
  <ele>130.600000</ele>
  <time>2011-10-22T06:06:17Z</time>
</trkpt>
<trkpt lat="39.714331000" lon="-0.350441000">
  <ele>130.000000</ele>
  <time>2011-10-22T06:06:18Z</time>
</trkpt>
<trkpt lat="39.714323000" lon="-0.350425000">
  <ele>130.500000</ele>
  <time>2011-10-22T06:06:19Z</time>
</trkpt>
<trkpt lat="39.714282000" lon="-0.350394000">
  <ele>132.800000</ele>
  <time>2011-10-22T06:06:23Z</time>
</trkpt>
<trkpt lat="39.714274000" lon="-0.350400000">
  <ele>133.600000</ele>
  <time>2011-10-22T06:06:25Z</time>
</trkpt>
<trkpt lat="39.714267000" lon="-0.350406000">
  <ele>134.100000</ele>
  <time>2011-10-22T06:06:25Z</time>
</trkpt>
<trkpt lat="39.714229000" lon="-0.350348000">
  <ele>131.100000</ele>
  <time>2011-10-22T06:06:28Z</time>
</trkpt>
<trkpt lat="39.714146000" lon="-0.350286000">
  <ele>128.500000</ele>
  <time>2011-10-22T06:06:31Z</time>
</trkpt>
<trkpt lat="39.714125000" lon="-0.350266000">
  <ele>128.300000</ele>
  <time>2011-10-22T06:06:33Z</time>
</trkpt>
<trkpt lat="39.714053000" lon="-0.350178000">
  <ele>128.100000</ele>
  <time>2011-10-22T06:06:36Z</time>
</trkpt>
<trkpt lat="39.714040000" lon="-0.350147000">
  <ele>128.500000</ele>
  <time>2011-10-22T06:06:38Z</time>
</trkpt>
<trkpt lat="39.714020000" lon="-0.350120000">
  <ele>128.800000</ele>
  <time>2011-10-22T06:06:39Z</time>
</trkpt>
<trkpt lat="39.713741000" lon="-0.349726000">
  <ele>130.800000</ele>
  <time>2011-10-22T06:06:52Z</time>
</trkpt>
<trkpt lat="39.713622000" lon="-0.349506000">
  <ele>128.500000</ele>
  <time>2011-10-22T06:06:57Z</time>
</trkpt>
<trkpt lat="39.713626000" lon="-0.349473000">
  <ele>128.600000</ele>
  <time>2011-10-22T06:06:58Z</time>
</trkpt>
<trkpt lat="39.713638000" lon="-0.349442000">
  <ele>128.600000</ele>
  <time>2011-10-22T06:07:00Z</time>
</trkpt>
<trkpt lat="39.713679000" lon="-0.349283000">
  <ele>128.500000</ele>
  <time>2011-10-22T06:07:06Z</time>
</trkpt>
<trkpt lat="39.713675000" lon="-0.349265000">
  <ele>128.600000</ele>
  <time>2011-10-22T06:07:06Z</time>
</trkpt>
<trkpt lat="39.713669000" lon="-0.349245000">
  <ele>128.600000</ele>
  <time>2011-10-22T06:07:08Z</time>
</trkpt>
<trkpt lat="39.713661000" lon="-0.349226000">
  <ele>128.600000</ele>
  <time>2011-10-22T06:07:09Z</time>
</trkpt>
<trkpt lat="39.713642000" lon="-0.349213000">
  <ele>129.100000</ele>
  <time>2011-10-22T06:07:10Z</time>
</trkpt>
<trkpt lat="39.713638000" lon="-0.349192000">
  <ele>129.100000</ele>
  <time>2011-10-22T06:07:11Z</time>
</trkpt>
<trkpt lat="39.713634000" lon="-0.349171000">
  <ele>129.300000</ele>
  <time>2011-10-22T06:07:11Z</time>
</trkpt>
<trkpt lat="39.713623000" lon="-0.349153000">
  <ele>129.300000</ele>
  <time>2011-10-22T06:07:13Z</time>
</trkpt>
<trkpt lat="39.713610000" lon="-0.349137000">
  <ele>129.300000</ele>
  <time>2011-10-22T06:07:13Z</time>
</trkpt>
<trkpt lat="39.713593000" lon="-0.349124000">
  <ele>129.600000</ele>
  <time>2011-10-22T06:07:14Z</time>
</trkpt>
<trkpt lat="39.713580000" lon="-0.349104000">
  <ele>129.300000</ele>
  <time>2011-10-22T06:07:16Z</time>
</trkpt>
<trkpt lat="39.713093000" lon="-0.348904000">
  <ele>127.000000</ele>
  <time>2011-10-22T06:07:26Z</time>
</trkpt>
<trkpt lat="39.712969000" lon="-0.348858000">
  <ele>126.000000</ele>
  <time>2011-10-22T06:07:29Z</time>
</trkpt>
<trkpt lat="39.712933000" lon="-0.348858000">
  <ele>126.800000</ele>
  <time>2011-10-22T06:07:30Z</time>
</trkpt>
<trkpt lat="39.712903000" lon="-0.348850000">
  <ele>127.800000</ele>
  <time>2011-10-22T06:07:30Z</time>
</trkpt>
<trkpt lat="39.712853000" lon="-0.348783000">
  <ele>127.900000</ele>
  <time>2011-10-22T06:07:35Z</time>
</trkpt>
<trkpt lat="39.712836000" lon="-0.348754000">
  <ele>127.600000</ele>
  <time>2011-10-22T06:07:37Z</time>
</trkpt>
<trkpt lat="39.712796000" lon="-0.348686000">
  <ele>127.500000</ele>
  <time>2011-10-22T06:07:38Z</time>
</trkpt>
<trkpt lat="39.712557000" lon="-0.348619000">
  <ele>125.000000</ele>
  <time>2011-10-22T06:07:41Z</time>
</trkpt>
<trkpt lat="39.712506000" lon="-0.348620000">
  <ele>125.300000</ele>
  <time>2011-10-22T06:07:44Z</time>
</trkpt>
<trkpt lat="39.712437000" lon="-0.348655000">
  <ele>128.600000</ele>
  <time>2011-10-22T06:07:45Z</time>
</trkpt>
<trkpt lat="39.712364000" lon="-0.348719000">
  <ele>130.800000</ele>
  <time>2011-10-22T06:07:46Z</time>
</trkpt>
<trkpt lat="39.712302000" lon="-0.348788000">
  <ele>132.300000</ele>
  <time>2011-10-22T06:07:48Z</time>
</trkpt>
<trkpt lat="39.712167000" lon="-0.348909000">
  <ele>132.800000</ele>
  <time>2011-10-22T06:07:51Z</time>
</trkpt>
<trkpt lat="39.712137000" lon="-0.348930000">
  <ele>130.600000</ele>
  <time>2011-10-22T06:07:51Z</time>
</trkpt>
<trkpt lat="39.712099000" lon="-0.348939000">
  <ele>129.800000</ele>
  <time>2011-10-22T06:07:53Z</time>
</trkpt>
<trkpt lat="39.711996000" lon="-0.348918000">
  <ele>129.500000</ele>
  <time>2011-10-22T06:07:56Z</time>
</trkpt>
<trkpt lat="39.711935000" lon="-0.348859000">
  <ele>129.100000</ele>
  <time>2011-10-22T06:07:57Z</time>
</trkpt>
<trkpt lat="39.711904000" lon="-0.348806000">
  <ele>128.600000</ele>
  <time>2011-10-22T06:07:59Z</time>
</trkpt>
<trkpt lat="39.711871000" lon="-0.348750000">
  <ele>128.300000</ele>
  <time>2011-10-22T06:08:00Z</time>
</trkpt>
<trkpt lat="39.711829000" lon="-0.348720000">
  <ele>128.500000</ele>
  <time>2011-10-22T06:08:01Z</time>
</trkpt>
<trkpt lat="39.711792000" lon="-0.348679000">
  <ele>128.300000</ele>
  <time>2011-10-22T06:08:02Z</time>
</trkpt>
<trkpt lat="39.711487000" lon="-0.348154000">
  <ele>128.000000</ele>
  <time>2011-10-22T06:08:13Z</time>
</trkpt>
<trkpt lat="39.711379000" lon="-0.348087000">
  <ele>127.000000</ele>
  <time>2011-10-22T06:08:15Z</time>
</trkpt>
<trkpt lat="39.711180000" lon="-0.348088000">
  <ele>124.500000</ele>
  <time>2011-10-22T06:08:17Z</time>
</trkpt>
<trkpt lat="39.711103000" lon="-0.348078000">
  <ele>124.300000</ele>
  <time>2011-10-22T06:08:18Z</time>
</trkpt>
<trkpt lat="39.710137000" lon="-0.348054000">
  <ele>121.800000</ele>
  <time>2011-10-22T06:08:34Z</time>
</trkpt>
<trkpt lat="39.710078000" lon="-0.348063000">
  <ele>121.800000</ele>
  <time>2011-10-22T06:08:35Z</time>
</trkpt>
<trkpt lat="39.709740000" lon="-0.348165000">
  <ele>122.000000</ele>
  <time>2011-10-22T06:08:42Z</time>
</trkpt>
<trkpt lat="39.709631000" lon="-0.348195000">
  <ele>120.400000</ele>
  <time>2011-10-22T06:08:45Z</time>
</trkpt>
<trkpt lat="39.709586000" lon="-0.348196000">
  <ele>120.300000</ele>
  <time>2011-10-22T06:08:47Z</time>
</trkpt>
<trkpt lat="39.709505000" lon="-0.348166000">
  <ele>119.400000</ele>
  <time>2011-10-22T06:08:48Z</time>
</trkpt>
<trkpt lat="39.709464000" lon="-0.348156000">
  <ele>119.300000</ele>
  <time>2011-10-22T06:08:50Z</time>
</trkpt>
<trkpt lat="39.709422000" lon="-0.348127000">
  <ele>118.900000</ele>
  <time>2011-10-22T06:08:51Z</time>
</trkpt>
<trkpt lat="39.709346000" lon="-0.348063000">
  <ele>118.300000</ele>
  <time>2011-10-22T06:08:53Z</time>
</trkpt>
<trkpt lat="39.709161000" lon="-0.347863000">
  <ele>117.500000</ele>
  <time>2011-10-22T06:08:58Z</time>
</trkpt>
<trkpt lat="39.709063000" lon="-0.347781000">
  <ele>117.400000</ele>
  <time>2011-10-22T06:09:01Z</time>
</trkpt>
<trkpt lat="39.709043000" lon="-0.347774000">
  <ele>117.000000</ele>
  <time>2011-10-22T06:09:03Z</time>
</trkpt>
<trkpt lat="39.709028000" lon="-0.347765000">
  <ele>116.500000</ele>
  <time>2011-10-22T06:09:04Z</time>
</trkpt>
<trkpt lat="39.708897000" lon="-0.347620000">
  <ele>113.000000</ele>
  <time>2011-10-22T06:09:11Z</time>
</trkpt>
<trkpt lat="39.708845000" lon="-0.347507000">
  <ele>109.600000</ele>
  <time>2011-10-22T06:09:15Z</time>
</trkpt>
<trkpt lat="39.708810000" lon="-0.347328000">
  <ele>102.800000</ele>
  <time>2011-10-22T06:09:22Z</time>
</trkpt>
<trkpt lat="39.708793000" lon="-0.347325000">
  <ele>101.400000</ele>
  <time>2011-10-22T06:09:29Z</time>
</trkpt>
<trkpt lat="39.708804000" lon="-0.347331000">
  <ele>101.000000</ele>
  <time>2011-10-22T06:09:30Z</time>
</trkpt>
<trkpt lat="39.708804000" lon="-0.347335000">
  <ele>100.900000</ele>
  <time>2011-10-22T06:09:31Z</time>
</trkpt>
<trkpt lat="39.708803000" lon="-0.347337000">
  <ele>100.500000</ele>
  <time>2011-10-22T06:09:31Z</time>
</trkpt>
<trkpt lat="39.708803000" lon="-0.347339000">
  <ele>100.400000</ele>
  <time>2011-10-22T06:09:33Z</time>
</trkpt>
<trkpt lat="39.708802000" lon="-0.347342000">
  <ele>100.800000</ele>
  <time>2011-10-22T06:09:33Z</time>
</trkpt>
<trkpt lat="39.708801000" lon="-0.347341000">
  <ele>100.600000</ele>
  <time>2011-10-22T06:09:35Z</time>
</trkpt>
<trkpt lat="39.708802000" lon="-0.347341000">
  <ele>100.600000</ele>
  <time>2011-10-22T06:09:36Z</time>
</trkpt>
<trkpt lat="39.708802000" lon="-0.347341000">
  <ele>100.600000</ele>
  <time>2011-10-22T06:09:36Z</time>
</trkpt>
<trkpt lat="39.708776000" lon="-0.347309000">
  <ele>100.500000</ele>
  <time>2011-10-22T06:11:02Z</time>
</trkpt>
<trkpt lat="39.708761000" lon="-0.347284000">
  <ele>100.500000</ele>
  <time>2011-10-22T06:11:04Z</time>
</trkpt>
<trkpt lat="39.708732000" lon="-0.347287000">
  <ele>100.000000</ele>
  <time>2011-10-22T06:11:05Z</time>
</trkpt>
<trkpt lat="39.708448000" lon="-0.347286000">
  <ele>96.800000</ele>
  <time>2011-10-22T06:11:21Z</time>
</trkpt>
<trkpt lat="39.708419000" lon="-0.347281000">
  <ele>96.900000</ele>
  <time>2011-10-22T06:11:23Z</time>
</trkpt>
<trkpt lat="39.708229000" lon="-0.347215000">
  <ele>97.100000</ele>
  <time>2011-10-22T06:11:30Z</time>
</trkpt>
<trkpt lat="39.708142000" lon="-0.347162000">
  <ele>97.100000</ele>
  <time>2011-10-22T06:11:32Z</time>
</trkpt>
<trkpt lat="39.707792000" lon="-0.346965000">
  <ele>96.300000</ele>
  <time>2011-10-22T06:11:43Z</time>
</trkpt>
<trkpt lat="39.707756000" lon="-0.346970000">
  <ele>95.900000</ele>
  <time>2011-10-22T06:11:45Z</time>
</trkpt>
<trkpt lat="39.707715000" lon="-0.346958000">
  <ele>96.500000</ele>
  <time>2011-10-22T06:11:46Z</time>
</trkpt>
<trkpt lat="39.704675000" lon="-0.346102000">
  <ele>97.400000</ele>
  <time>2011-10-22T06:13:13Z</time>
</trkpt>
<trkpt lat="39.704648000" lon="-0.346084000">
  <ele>97.500000</ele>
  <time>2011-10-22T06:13:14Z</time>
</trkpt>
<trkpt lat="39.704586000" lon="-0.346000000">
  <ele>97.800000</ele>
  <time>2011-10-22T06:13:17Z</time>
</trkpt>
<trkpt lat="39.704554000" lon="-0.345909000">
  <ele>97.600000</ele>
  <time>2011-10-22T06:13:19Z</time>
</trkpt>
<trkpt lat="39.704558000" lon="-0.345825000">
  <ele>97.000000</ele>
  <time>2011-10-22T06:13:21Z</time>
</trkpt>
<trkpt lat="39.704611000" lon="-0.345731000">
  <ele>98.000000</ele>
  <time>2011-10-22T06:13:22Z</time>
</trkpt>
<trkpt lat="39.704623000" lon="-0.345696000">
  <ele>97.100000</ele>
  <time>2011-10-22T06:13:24Z</time>
</trkpt>
<trkpt lat="39.704634000" lon="-0.345654000">
  <ele>97.000000</ele>
  <time>2011-10-22T06:13:25Z</time>
</trkpt>
<trkpt lat="39.704638000" lon="-0.345613000">
  <ele>97.100000</ele>
  <time>2011-10-22T06:13:25Z</time>
</trkpt>
<trkpt lat="39.704638000" lon="-0.345528000">
  <ele>98.000000</ele>
  <time>2011-10-22T06:13:28Z</time>
</trkpt>
<trkpt lat="39.704629000" lon="-0.345488000">
  <ele>97.600000</ele>
  <time>2011-10-22T06:13:29Z</time>
</trkpt>
<trkpt lat="39.704592000" lon="-0.345432000">
  <ele>97.400000</ele>
  <time>2011-10-22T06:13:31Z</time>
</trkpt>
<trkpt lat="39.704512000" lon="-0.345345000">
  <ele>96.800000</ele>
  <time>2011-10-22T06:13:33Z</time>
</trkpt>
<trkpt lat="39.704400000" lon="-0.345195000">
  <ele>95.100000</ele>
  <time>2011-10-22T06:13:38Z</time>
</trkpt>
<trkpt lat="39.704376000" lon="-0.345151000">
  <ele>94.500000</ele>
  <time>2011-10-22T06:13:40Z</time>
</trkpt>
<trkpt lat="39.704204000" lon="-0.344809000">
  <ele>94.500000</ele>
  <time>2011-10-22T06:13:47Z</time>
</trkpt>
<trkpt lat="39.704174000" lon="-0.344781000">
  <ele>94.500000</ele>
  <time>2011-10-22T06:13:48Z</time>
</trkpt>
<trkpt lat="39.704001000" lon="-0.344680000">
  <ele>94.100000</ele>
  <time>2011-10-22T06:13:54Z</time>
</trkpt>
<trkpt lat="39.703876000" lon="-0.344594000">
  <ele>94.000000</ele>
  <time>2011-10-22T06:13:59Z</time>
</trkpt>
<trkpt lat="39.703851000" lon="-0.344562000">
  <ele>93.600000</ele>
  <time>2011-10-22T06:14:00Z</time>
</trkpt>
<trkpt lat="39.703820000" lon="-0.344542000">
  <ele>93.400000</ele>
  <time>2011-10-22T06:14:00Z</time>
</trkpt>
<trkpt lat="39.703294000" lon="-0.344133000">
  <ele>93.800000</ele>
  <time>2011-10-22T06:14:19Z</time>
</trkpt>
<trkpt lat="39.703273000" lon="-0.344106000">
  <ele>93.300000</ele>
  <time>2011-10-22T06:14:21Z</time>
</trkpt>
<trkpt lat="39.703178000" lon="-0.344013000">
  <ele>90.000000</ele>
  <time>2011-10-22T06:14:24Z</time>
</trkpt>
<trkpt lat="39.703145000" lon="-0.344006000">
  <ele>90.000000</ele>
  <time>2011-10-22T06:14:26Z</time>
</trkpt>
<trkpt lat="39.702984000" lon="-0.343943000">
  <ele>89.600000</ele>
  <time>2011-10-22T06:14:31Z</time>
</trkpt>
<trkpt lat="39.702956000" lon="-0.343920000">
  <ele>89.500000</ele>
  <time>2011-10-22T06:14:32Z</time>
</trkpt>
<trkpt lat="39.702950000" lon="-0.343862000">
  <ele>90.800000</ele>
  <time>2011-10-22T06:14:32Z</time>
</trkpt>
<trkpt lat="39.702934000" lon="-0.343827000">
  <ele>90.500000</ele>
  <time>2011-10-22T06:14:34Z</time>
</trkpt>
<trkpt lat="39.702841000" lon="-0.343670000">
  <ele>90.500000</ele>
  <time>2011-10-22T06:14:39Z</time>
</trkpt>
<trkpt lat="39.702818000" lon="-0.343652000">
  <ele>90.000000</ele>
  <time>2011-10-22T06:14:40Z</time>
</trkpt>
<trkpt lat="39.702791000" lon="-0.343627000">
  <ele>89.800000</ele>
  <time>2011-10-22T06:14:41Z</time>
</trkpt>
<trkpt lat="39.702702000" lon="-0.343529000">
  <ele>90.000000</ele>
  <time>2011-10-22T06:14:45Z</time>
</trkpt>
<trkpt lat="39.702684000" lon="-0.343501000">
  <ele>90.500000</ele>
  <time>2011-10-22T06:14:45Z</time>
</trkpt>
<trkpt lat="39.702610000" lon="-0.343382000">
  <ele>90.500000</ele>
  <time>2011-10-22T06:14:50Z</time>
</trkpt>
<trkpt lat="39.702588000" lon="-0.343344000">
  <ele>90.400000</ele>
  <time>2011-10-22T06:14:51Z</time>
</trkpt>
<trkpt lat="39.702569000" lon="-0.343303000">
  <ele>90.900000</ele>
  <time>2011-10-22T06:14:51Z</time>
</trkpt>
<trkpt lat="39.702434000" lon="-0.343030000">
  <ele>91.300000</ele>
  <time>2011-10-22T06:14:59Z</time>
</trkpt>
<trkpt lat="39.702420000" lon="-0.343001000">
  <ele>91.400000</ele>
  <time>2011-10-22T06:15:01Z</time>
</trkpt>
<trkpt lat="39.701996000" lon="-0.342124000">
  <ele>90.500000</ele>
  <time>2011-10-22T06:15:25Z</time>
</trkpt>
<trkpt lat="39.701982000" lon="-0.342079000">
  <ele>90.000000</ele>
  <time>2011-10-22T06:15:26Z</time>
</trkpt>
<trkpt lat="39.701839000" lon="-0.341629000">
  <ele>89.300000</ele>
  <time>2011-10-22T06:15:36Z</time>
</trkpt>
<trkpt lat="39.701821000" lon="-0.341561000">
  <ele>89.500000</ele>
  <time>2011-10-22T06:15:39Z</time>
</trkpt>
<trkpt lat="39.701808000" lon="-0.341446000">
  <ele>88.500000</ele>
  <time>2011-10-22T06:15:42Z</time>
</trkpt>
<trkpt lat="39.701774000" lon="-0.341224000">
  <ele>88.600000</ele>
  <time>2011-10-22T06:15:47Z</time>
</trkpt>
<trkpt lat="39.701710000" lon="-0.340869000">
  <ele>88.900000</ele>
  <time>2011-10-22T06:15:55Z</time>
</trkpt>
<trkpt lat="39.701690000" lon="-0.340830000">
  <ele>89.000000</ele>
  <time>2011-10-22T06:15:55Z</time>
</trkpt>
<trkpt lat="39.701677000" lon="-0.340794000">
  <ele>89.000000</ele>
  <time>2011-10-22T06:15:57Z</time>
</trkpt>
<trkpt lat="39.701605000" lon="-0.340524000">
  <ele>87.500000</ele>
  <time>2011-10-22T06:16:04Z</time>
</trkpt>
<trkpt lat="39.701492000" lon="-0.340075000">
  <ele>85.800000</ele>
  <time>2011-10-22T06:16:16Z</time>
</trkpt>
<trkpt lat="39.701484000" lon="-0.340047000">
  <ele>85.800000</ele>
  <time>2011-10-22T06:16:17Z</time>
</trkpt>
<trkpt lat="39.701462000" lon="-0.340021000">
  <ele>85.900000</ele>
  <time>2011-10-22T06:16:17Z</time>
</trkpt>
<trkpt lat="39.701428000" lon="-0.339962000">
  <ele>85.600000</ele>
  <time>2011-10-22T06:16:20Z</time>
</trkpt>
<trkpt lat="39.701208000" lon="-0.339607000">
  <ele>84.500000</ele>
  <time>2011-10-22T06:16:32Z</time>
</trkpt>
<trkpt lat="39.701187000" lon="-0.339579000">
  <ele>84.800000</ele>
  <time>2011-10-22T06:16:33Z</time>
</trkpt>
<trkpt lat="39.700914000" lon="-0.339103000">
  <ele>83.100000</ele>
  <time>2011-10-22T06:16:48Z</time>
</trkpt>
<trkpt lat="39.700798000" lon="-0.338824000">
  <ele>82.500000</ele>
  <time>2011-10-22T06:16:57Z</time>
</trkpt>
<trkpt lat="39.700782000" lon="-0.338802000">
  <ele>82.800000</ele>
  <time>2011-10-22T06:16:58Z</time>
</trkpt>
<trkpt lat="39.700747000" lon="-0.338787000">
  <ele>83.300000</ele>
  <time>2011-10-22T06:16:59Z</time>
</trkpt>
<trkpt lat="39.700724000" lon="-0.338774000">
  <ele>83.900000</ele>
  <time>2011-10-22T06:17:00Z</time>
</trkpt>
<trkpt lat="39.700561000" lon="-0.338697000">
  <ele>88.100000</ele>
  <time>2011-10-22T06:17:07Z</time>
</trkpt>
<trkpt lat="39.700540000" lon="-0.338688000">
  <ele>88.000000</ele>
  <time>2011-10-22T06:17:08Z</time>
</trkpt>
<trkpt lat="39.700491000" lon="-0.338664000">
  <ele>88.800000</ele>
  <time>2011-10-22T06:17:10Z</time>
</trkpt>
<trkpt lat="39.700474000" lon="-0.338642000">
  <ele>88.400000</ele>
  <time>2011-10-22T06:17:11Z</time>
</trkpt>
<trkpt lat="39.700453000" lon="-0.338615000">
  <ele>88.000000</ele>
  <time>2011-10-22T06:17:11Z</time>
</trkpt>
<trkpt lat="39.700426000" lon="-0.338593000">
  <ele>87.500000</ele>
  <time>2011-10-22T06:17:13Z</time>
</trkpt>
<trkpt lat="39.700391000" lon="-0.338580000">
  <ele>87.800000</ele>
  <time>2011-10-22T06:17:14Z</time>
</trkpt>
<trkpt lat="39.700363000" lon="-0.338575000">
  <ele>87.500000</ele>
  <time>2011-10-22T06:17:15Z</time>
</trkpt>
<trkpt lat="39.700296000" lon="-0.338595000">
  <ele>87.000000</ele>
  <time>2011-10-22T06:17:17Z</time>
</trkpt>
<trkpt lat="39.700189000" lon="-0.338607000">
  <ele>86.000000</ele>
  <time>2011-10-22T06:17:19Z</time>
</trkpt>
<trkpt lat="39.700153000" lon="-0.338598000">
  <ele>85.800000</ele>
  <time>2011-10-22T06:17:21Z</time>
</trkpt>
<trkpt lat="39.699795000" lon="-0.338523000">
  <ele>87.500000</ele>
  <time>2011-10-22T06:17:32Z</time>
</trkpt>
<trkpt lat="39.699762000" lon="-0.338509000">
  <ele>87.900000</ele>
  <time>2011-10-22T06:17:33Z</time>
</trkpt>
<trkpt lat="39.699664000" lon="-0.338447000">
  <ele>88.100000</ele>
  <time>2011-10-22T06:17:35Z</time>
</trkpt>
<trkpt lat="39.699631000" lon="-0.338425000">
  <ele>88.100000</ele>
  <time>2011-10-22T06:17:37Z</time>
</trkpt>
<trkpt lat="39.699335000" lon="-0.338273000">
  <ele>87.900000</ele>
  <time>2011-10-22T06:17:46Z</time>
</trkpt>
<trkpt lat="39.699305000" lon="-0.338248000">
  <ele>87.400000</ele>
  <time>2011-10-22T06:17:46Z</time>
</trkpt>
<trkpt lat="39.699056000" lon="-0.338031000">
  <ele>88.500000</ele>
  <time>2011-10-22T06:17:54Z</time>
</trkpt>
<trkpt lat="39.699037000" lon="-0.338000000">
  <ele>88.000000</ele>
  <time>2011-10-22T06:17:56Z</time>
</trkpt>
<trkpt lat="39.699026000" lon="-0.337963000">
  <ele>87.500000</ele>
  <time>2011-10-22T06:17:56Z</time>
</trkpt>
<trkpt lat="39.698981000" lon="-0.337805000">
  <ele>86.500000</ele>
  <time>2011-10-22T06:18:01Z</time>
</trkpt>
<trkpt lat="39.698891000" lon="-0.337501000">
  <ele>84.900000</ele>
  <time>2011-10-22T06:18:09Z</time>
</trkpt>
<trkpt lat="39.698884000" lon="-0.337456000">
  <ele>84.300000</ele>
  <time>2011-10-22T06:18:10Z</time>
</trkpt>
<trkpt lat="39.698809000" lon="-0.337078000">
  <ele>83.500000</ele>
  <time>2011-10-22T06:18:20Z</time>
</trkpt>
<trkpt lat="39.698794000" lon="-0.337056000">
  <ele>83.000000</ele>
  <time>2011-10-22T06:18:21Z</time>
</trkpt>
<trkpt lat="39.698771000" lon="-0.337037000">
  <ele>82.900000</ele>
  <time>2011-10-22T06:18:21Z</time>
</trkpt>
<trkpt lat="39.698746000" lon="-0.337021000">
  <ele>83.000000</ele>
  <time>2011-10-22T06:18:23Z</time>
</trkpt>
<trkpt lat="39.698717000" lon="-0.337019000">
  <ele>83.000000</ele>
  <time>2011-10-22T06:18:24Z</time>
</trkpt>
<trkpt lat="39.698477000" lon="-0.336995000">
  <ele>83.400000</ele>
  <time>2011-10-22T06:18:31Z</time>
</trkpt>
<trkpt lat="39.698443000" lon="-0.336985000">
  <ele>83.500000</ele>
  <time>2011-10-22T06:18:31Z</time>
</trkpt>
<trkpt lat="39.698412000" lon="-0.336953000">
  <ele>83.500000</ele>
  <time>2011-10-22T06:18:33Z</time>
</trkpt>
<trkpt lat="39.698255000" lon="-0.336807000">
  <ele>83.600000</ele>
  <time>2011-10-22T06:18:37Z</time>
</trkpt>
<trkpt lat="39.698223000" lon="-0.336787000">
  <ele>83.600000</ele>
  <time>2011-10-22T06:18:39Z</time>
</trkpt>
<trkpt lat="39.697966000" lon="-0.336608000">
  <ele>85.000000</ele>
  <time>2011-10-22T06:18:47Z</time>
</trkpt>
<trkpt lat="39.697937000" lon="-0.336580000">
  <ele>85.100000</ele>
  <time>2011-10-22T06:18:47Z</time>
</trkpt>
<trkpt lat="39.697907000" lon="-0.336560000">
  <ele>85.300000</ele>
  <time>2011-10-22T06:18:49Z</time>
</trkpt>
<trkpt lat="39.697716000" lon="-0.336444000">
  <ele>84.500000</ele>
  <time>2011-10-22T06:18:55Z</time>
</trkpt>
<trkpt lat="39.697575000" lon="-0.336316000">
  <ele>83.500000</ele>
  <time>2011-10-22T06:19:00Z</time>
</trkpt>
<trkpt lat="39.697553000" lon="-0.336274000">
  <ele>83.000000</ele>
  <time>2011-10-22T06:19:01Z</time>
</trkpt>
<trkpt lat="39.697503000" lon="-0.336195000">
  <ele>83.500000</ele>
  <time>2011-10-22T06:19:03Z</time>
</trkpt>
<trkpt lat="39.697262000" lon="-0.335814000">
  <ele>83.000000</ele>
  <time>2011-10-22T06:19:12Z</time>
</trkpt>
<trkpt lat="39.697198000" lon="-0.335706000">
  <ele>83.000000</ele>
  <time>2011-10-22T06:19:16Z</time>
</trkpt>
<trkpt lat="39.697087000" lon="-0.335488000">
  <ele>81.500000</ele>
  <time>2011-10-22T06:19:22Z</time>
</trkpt>
<trkpt lat="39.697074000" lon="-0.335446000">
  <ele>81.400000</ele>
  <time>2011-10-22T06:19:22Z</time>
</trkpt>
<trkpt lat="39.697026000" lon="-0.335325000">
  <ele>82.400000</ele>
  <time>2011-10-22T06:19:25Z</time>
</trkpt>
<trkpt lat="39.696969000" lon="-0.335223000">
  <ele>82.500000</ele>
  <time>2011-10-22T06:19:28Z</time>
</trkpt>
<trkpt lat="39.696900000" lon="-0.335138000">
  <ele>82.500000</ele>
  <time>2011-10-22T06:19:32Z</time>
</trkpt>
<trkpt lat="39.696416000" lon="-0.334528000">
  <ele>84.100000</ele>
  <time>2011-10-22T06:19:52Z</time>
</trkpt>
<trkpt lat="39.696395000" lon="-0.334494000">
  <ele>83.600000</ele>
  <time>2011-10-22T06:19:53Z</time>
</trkpt>
<trkpt lat="39.696379000" lon="-0.334462000">
  <ele>83.400000</ele>
  <time>2011-10-22T06:19:54Z</time>
</trkpt>
<trkpt lat="39.696344000" lon="-0.334403000">
  <ele>83.000000</ele>
  <time>2011-10-22T06:19:55Z</time>
</trkpt>
<trkpt lat="39.696323000" lon="-0.334378000">
  <ele>82.600000</ele>
  <time>2011-10-22T06:19:57Z</time>
</trkpt>
<trkpt lat="39.696152000" lon="-0.334153000">
  <ele>81.300000</ele>
  <time>2011-10-22T06:20:05Z</time>
</trkpt>
<trkpt lat="39.696067000" lon="-0.334020000">
  <ele>81.000000</ele>
  <time>2011-10-22T06:20:09Z</time>
</trkpt>
<trkpt lat="39.696026000" lon="-0.333947000">
  <ele>80.900000</ele>
  <time>2011-10-22T06:20:11Z</time>
</trkpt>
<trkpt lat="39.695459000" lon="-0.333019000">
  <ele>83.000000</ele>
  <time>2011-10-22T06:20:38Z</time>
</trkpt>
<trkpt lat="39.695432000" lon="-0.332990000">
  <ele>83.100000</ele>
  <time>2011-10-22T06:20:38Z</time>
</trkpt>
<trkpt lat="39.694526000" lon="-0.331967000">
  <ele>81.000000</ele>
  <time>2011-10-22T06:21:13Z</time>
</trkpt>
<trkpt lat="39.694489000" lon="-0.331950000">
  <ele>81.400000</ele>
  <time>2011-10-22T06:21:13Z</time>
</trkpt>
<trkpt lat="39.694454000" lon="-0.331928000">
  <ele>81.600000</ele>
  <time>2011-10-22T06:21:15Z</time>
</trkpt>
<trkpt lat="39.694390000" lon="-0.331875000">
  <ele>82.300000</ele>
  <time>2011-10-22T06:21:17Z</time>
</trkpt>
<trkpt lat="39.694028000" lon="-0.331612000">
  <ele>80.900000</ele>
  <time>2011-10-22T06:21:29Z</time>
</trkpt>
<trkpt lat="39.693512000" lon="-0.331239000">
  <ele>79.500000</ele>
  <time>2011-10-22T06:21:45Z</time>
</trkpt>
<trkpt lat="39.693481000" lon="-0.331230000">
  <ele>79.000000</ele>
  <time>2011-10-22T06:21:45Z</time>
</trkpt>
<trkpt lat="39.693452000" lon="-0.331231000">
  <ele>79.000000</ele>
  <time>2011-10-22T06:21:47Z</time>
</trkpt>
<trkpt lat="39.693423000" lon="-0.331241000">
  <ele>78.800000</ele>
  <time>2011-10-22T06:21:48Z</time>
</trkpt>
<trkpt lat="39.693393000" lon="-0.331256000">
  <ele>79.100000</ele>
  <time>2011-10-22T06:21:48Z</time>
</trkpt>
<trkpt lat="39.693165000" lon="-0.331393000">
  <ele>80.400000</ele>
  <time>2011-10-22T06:21:58Z</time>
</trkpt>
<trkpt lat="39.693144000" lon="-0.331405000">
  <ele>80.600000</ele>
  <time>2011-10-22T06:21:58Z</time>
</trkpt>
<trkpt lat="39.693119000" lon="-0.331413000">
  <ele>80.900000</ele>
  <time>2011-10-22T06:22:00Z</time>
</trkpt>
<trkpt lat="39.693052000" lon="-0.331441000">
  <ele>80.600000</ele>
  <time>2011-10-22T06:22:03Z</time>
</trkpt>
<trkpt lat="39.693027000" lon="-0.331451000">
  <ele>81.500000</ele>
  <time>2011-10-22T06:22:04Z</time>
</trkpt>
<trkpt lat="39.693006000" lon="-0.331462000">
  <ele>81.100000</ele>
  <time>2011-10-22T06:22:04Z</time>
</trkpt>
<trkpt lat="39.692990000" lon="-0.331484000">
  <ele>81.500000</ele>
  <time>2011-10-22T06:22:06Z</time>
</trkpt>
<trkpt lat="39.692966000" lon="-0.331521000">
  <ele>82.500000</ele>
  <time>2011-10-22T06:22:08Z</time>
</trkpt>
<trkpt lat="39.692957000" lon="-0.331544000">
  <ele>82.400000</ele>
  <time>2011-10-22T06:22:09Z</time>
</trkpt>
<trkpt lat="39.692904000" lon="-0.331662000">
  <ele>83.300000</ele>
  <time>2011-10-22T06:22:14Z</time>
</trkpt>
<trkpt lat="39.692894000" lon="-0.331681000">
  <ele>83.500000</ele>
  <time>2011-10-22T06:22:14Z</time>
</trkpt>
<trkpt lat="39.692881000" lon="-0.331700000">
  <ele>83.600000</ele>
  <time>2011-10-22T06:22:15Z</time>
</trkpt>
<trkpt lat="39.692468000" lon="-0.332379000">
  <ele>87.100000</ele>
  <time>2011-10-22T06:22:44Z</time>
</trkpt>
<trkpt lat="39.692466000" lon="-0.332405000">
  <ele>86.600000</ele>
  <time>2011-10-22T06:22:45Z</time>
</trkpt>
<trkpt lat="39.692477000" lon="-0.332442000">
  <ele>86.400000</ele>
  <time>2011-10-22T06:22:46Z</time>
</trkpt>
<trkpt lat="39.692478000" lon="-0.332472000">
  <ele>86.300000</ele>
  <time>2011-10-22T06:22:47Z</time>
</trkpt>
<trkpt lat="39.692492000" lon="-0.332501000">
  <ele>86.000000</ele>
  <time>2011-10-22T06:22:47Z</time>
</trkpt>
<trkpt lat="39.692522000" lon="-0.332550000">
  <ele>85.500000</ele>
  <time>2011-10-22T06:22:49Z</time>
</trkpt>
<trkpt lat="39.692536000" lon="-0.332572000">
  <ele>85.600000</ele>
  <time>2011-10-22T06:22:50Z</time>
</trkpt>
<trkpt lat="39.692558000" lon="-0.332594000">
  <ele>85.500000</ele>
  <time>2011-10-22T06:22:52Z</time>
</trkpt>
<trkpt lat="39.692701000" lon="-0.332747000">
  <ele>86.900000</ele>
  <time>2011-10-22T06:23:00Z</time>
</trkpt>
<trkpt lat="39.692705000" lon="-0.332767000">
  <ele>86.900000</ele>
  <time>2011-10-22T06:23:01Z</time>
</trkpt>
<trkpt lat="39.692703000" lon="-0.332783000">
  <ele>87.000000</ele>
  <time>2011-10-22T06:23:02Z</time>
</trkpt>
<trkpt lat="39.692705000" lon="-0.332794000">
  <ele>86.800000</ele>
  <time>2011-10-22T06:23:03Z</time>
</trkpt>
<trkpt lat="39.692692000" lon="-0.332802000">
  <ele>87.300000</ele>
  <time>2011-10-22T06:23:03Z</time>
</trkpt>
<trkpt lat="39.692686000" lon="-0.332814000">
  <ele>87.000000</ele>
  <time>2011-10-22T06:23:05Z</time>
</trkpt>
</trkseg>
</trk>
<trk>
  <name>2011-10-22-01_249-499</name>
  <desc>C:\Users\farnau\Documents\My Dropbox\Tracks\2011-10-22-01.gpx</desc>
<trkseg>
<trkpt lat="39.692686000" lon="-0.332814000">
  <ele>87.000000</ele>
  <time>2011-10-22T06:23:05Z</time>
</trkpt>
<trkpt lat="39.692634000" lon="-0.332915000">
  <ele>88.300000</ele>
  <time>2011-10-22T06:23:08Z</time>
</trkpt>
<trkpt lat="39.692510000" lon="-0.333205000">
  <ele>89.100000</ele>
  <time>2011-10-22T06:23:18Z</time>
</trkpt>
<trkpt lat="39.692499000" lon="-0.333238000">
  <ele>89.500000</ele>
  <time>2011-10-22T06:23:19Z</time>
</trkpt>
<trkpt lat="39.692417000" lon="-0.333390000">
  <ele>90.600000</ele>
  <time>2011-10-22T06:23:24Z</time>
</trkpt>
<trkpt lat="39.692398000" lon="-0.333404000">
  <ele>90.900000</ele>
  <time>2011-10-22T06:23:26Z</time>
</trkpt>
<trkpt lat="39.692370000" lon="-0.333389000">
  <ele>90.600000</ele>
  <time>2011-10-22T06:23:27Z</time>
</trkpt>
<trkpt lat="39.692253000" lon="-0.333286000">
  <ele>90.000000</ele>
  <time>2011-10-22T06:23:33Z</time>
</trkpt>
<trkpt lat="39.692167000" lon="-0.333234000">
  <ele>90.500000</ele>
  <time>2011-10-22T06:23:37Z</time>
</trkpt>
<trkpt lat="39.692120000" lon="-0.333188000">
  <ele>91.100000</ele>
  <time>2011-10-22T06:23:38Z</time>
</trkpt>
<trkpt lat="39.692076000" lon="-0.333156000">
  <ele>91.000000</ele>
  <time>2011-10-22T06:23:40Z</time>
</trkpt>
<trkpt lat="39.691479000" lon="-0.332785000">
  <ele>94.500000</ele>
  <time>2011-10-22T06:24:02Z</time>
</trkpt>
<trkpt lat="39.691448000" lon="-0.332776000">
  <ele>94.500000</ele>
  <time>2011-10-22T06:24:04Z</time>
</trkpt>
<trkpt lat="39.691422000" lon="-0.332760000">
  <ele>95.000000</ele>
  <time>2011-10-22T06:24:05Z</time>
</trkpt>
<trkpt lat="39.691371000" lon="-0.332716000">
  <ele>95.100000</ele>
  <time>2011-10-22T06:24:07Z</time>
</trkpt>
<trkpt lat="39.691207000" lon="-0.332605000">
  <ele>95.500000</ele>
  <time>2011-10-22T06:24:13Z</time>
</trkpt>
<trkpt lat="39.691180000" lon="-0.332606000">
  <ele>94.900000</ele>
  <time>2011-10-22T06:24:13Z</time>
</trkpt>
<trkpt lat="39.691150000" lon="-0.332612000">
  <ele>95.000000</ele>
  <time>2011-10-22T06:24:15Z</time>
</trkpt>
<trkpt lat="39.691122000" lon="-0.332628000">
  <ele>94.800000</ele>
  <time>2011-10-22T06:24:15Z</time>
</trkpt>
<trkpt lat="39.691097000" lon="-0.332648000">
  <ele>94.600000</ele>
  <time>2011-10-22T06:24:16Z</time>
</trkpt>
<trkpt lat="39.691073000" lon="-0.332671000">
  <ele>95.000000</ele>
  <time>2011-10-22T06:24:18Z</time>
</trkpt>
<trkpt lat="39.691035000" lon="-0.332727000">
  <ele>95.300000</ele>
  <time>2011-10-22T06:24:20Z</time>
</trkpt>
<trkpt lat="39.691013000" lon="-0.332749000">
  <ele>95.600000</ele>
  <time>2011-10-22T06:24:21Z</time>
</trkpt>
<trkpt lat="39.690920000" lon="-0.332844000">
  <ele>95.600000</ele>
  <time>2011-10-22T06:24:24Z</time>
</trkpt>
<trkpt lat="39.690834000" lon="-0.332941000">
  <ele>95.100000</ele>
  <time>2011-10-22T06:24:29Z</time>
</trkpt>
<trkpt lat="39.690803000" lon="-0.332989000">
  <ele>94.500000</ele>
  <time>2011-10-22T06:24:31Z</time>
</trkpt>
<trkpt lat="39.690656000" lon="-0.333249000">
  <ele>95.000000</ele>
  <time>2011-10-22T06:24:40Z</time>
</trkpt>
<trkpt lat="39.690596000" lon="-0.333265000">
  <ele>96.500000</ele>
  <time>2011-10-22T06:24:44Z</time>
</trkpt>
<trkpt lat="39.690573000" lon="-0.333252000">
  <ele>97.000000</ele>
  <time>2011-10-22T06:24:45Z</time>
</trkpt>
<trkpt lat="39.690530000" lon="-0.333213000">
  <ele>98.400000</ele>
  <time>2011-10-22T06:24:47Z</time>
</trkpt>
<trkpt lat="39.690236000" lon="-0.333013000">
  <ele>102.100000</ele>
  <time>2011-10-22T06:24:59Z</time>
</trkpt>
<trkpt lat="39.685942000" lon="-0.330190000">
  <ele>98.800000</ele>
  <time>2011-10-22T06:26:54Z</time>
</trkpt>
<trkpt lat="39.685903000" lon="-0.330158000">
  <ele>98.800000</ele>
  <time>2011-10-22T06:26:54Z</time>
</trkpt>
<trkpt lat="39.685697000" lon="-0.329976000">
  <ele>98.500000</ele>
  <time>2011-10-22T06:27:00Z</time>
</trkpt>
<trkpt lat="39.685659000" lon="-0.329933000">
  <ele>98.100000</ele>
  <time>2011-10-22T06:27:00Z</time>
</trkpt>
<trkpt lat="39.684787000" lon="-0.328899000">
  <ele>93.000000</ele>
  <time>2011-10-22T06:27:21Z</time>
</trkpt>
<trkpt lat="39.684736000" lon="-0.328868000">
  <ele>93.000000</ele>
  <time>2011-10-22T06:27:22Z</time>
</trkpt>
<trkpt lat="39.684632000" lon="-0.328821000">
  <ele>92.900000</ele>
  <time>2011-10-22T06:27:24Z</time>
</trkpt>
<trkpt lat="39.684524000" lon="-0.328794000">
  <ele>93.000000</ele>
  <time>2011-10-22T06:27:26Z</time>
</trkpt>
<trkpt lat="39.682151000" lon="-0.328330000">
  <ele>92.500000</ele>
  <time>2011-10-22T06:28:15Z</time>
</trkpt>
<trkpt lat="39.682109000" lon="-0.328310000">
  <ele>92.500000</ele>
  <time>2011-10-22T06:28:17Z</time>
</trkpt>
<trkpt lat="39.681369000" lon="-0.327938000">
  <ele>94.000000</ele>
  <time>2011-10-22T06:28:34Z</time>
</trkpt>
<trkpt lat="39.681343000" lon="-0.327894000">
  <ele>93.800000</ele>
  <time>2011-10-22T06:28:36Z</time>
</trkpt>
<trkpt lat="39.681278000" lon="-0.327822000">
  <ele>93.000000</ele>
  <time>2011-10-22T06:28:38Z</time>
</trkpt>
<trkpt lat="39.681244000" lon="-0.327794000">
  <ele>92.900000</ele>
  <time>2011-10-22T06:28:39Z</time>
</trkpt>
<trkpt lat="39.681205000" lon="-0.327769000">
  <ele>92.900000</ele>
  <time>2011-10-22T06:28:39Z</time>
</trkpt>
<trkpt lat="39.679739000" lon="-0.327013000">
  <ele>92.400000</ele>
  <time>2011-10-22T06:29:17Z</time>
</trkpt>
<trkpt lat="39.679675000" lon="-0.326979000">
  <ele>92.500000</ele>
  <time>2011-10-22T06:29:19Z</time>
</trkpt>
<trkpt lat="39.679639000" lon="-0.326971000">
  <ele>92.900000</ele>
  <time>2011-10-22T06:29:20Z</time>
</trkpt>
<trkpt lat="39.679575000" lon="-0.326973000">
  <ele>93.800000</ele>
  <time>2011-10-22T06:29:22Z</time>
</trkpt>
<trkpt lat="39.679538000" lon="-0.326997000">
  <ele>94.100000</ele>
  <time>2011-10-22T06:29:23Z</time>
</trkpt>
<trkpt lat="39.679479000" lon="-0.327103000">
  <ele>94.400000</ele>
  <time>2011-10-22T06:29:25Z</time>
</trkpt>
<trkpt lat="39.679438000" lon="-0.327173000">
  <ele>94.400000</ele>
  <time>2011-10-22T06:29:27Z</time>
</trkpt>
<trkpt lat="39.679413000" lon="-0.327203000">
  <ele>94.100000</ele>
  <time>2011-10-22T06:29:28Z</time>
</trkpt>
<trkpt lat="39.679375000" lon="-0.327222000">
  <ele>94.500000</ele>
  <time>2011-10-22T06:29:30Z</time>
</trkpt>
<trkpt lat="39.679315000" lon="-0.327267000">
  <ele>95.100000</ele>
  <time>2011-10-22T06:29:32Z</time>
</trkpt>
<trkpt lat="39.679292000" lon="-0.327300000">
  <ele>95.300000</ele>
  <time>2011-10-22T06:29:33Z</time>
</trkpt>
<trkpt lat="39.679264000" lon="-0.327379000">
  <ele>94.900000</ele>
  <time>2011-10-22T06:29:35Z</time>
</trkpt>
<trkpt lat="39.679255000" lon="-0.327424000">
  <ele>94.800000</ele>
  <time>2011-10-22T06:29:36Z</time>
</trkpt>
<trkpt lat="39.679193000" lon="-0.327758000">
  <ele>95.500000</ele>
  <time>2011-10-22T06:29:43Z</time>
</trkpt>
<trkpt lat="39.679176000" lon="-0.327803000">
  <ele>95.300000</ele>
  <time>2011-10-22T06:29:43Z</time>
</trkpt>
<trkpt lat="39.679110000" lon="-0.327934000">
  <ele>96.400000</ele>
  <time>2011-10-22T06:29:46Z</time>
</trkpt>
<trkpt lat="39.678802000" lon="-0.328628000">
  <ele>100.600000</ele>
  <time>2011-10-22T06:30:07Z</time>
</trkpt>
<trkpt lat="39.678066000" lon="-0.330326000">
  <ele>104.800000</ele>
  <time>2011-10-22T06:30:51Z</time>
</trkpt>
<trkpt lat="39.675053000" lon="-0.333585000">
  <ele>107.500000</ele>
  <time>2011-10-22T06:32:38Z</time>
</trkpt>
<trkpt lat="39.675025000" lon="-0.333606000">
  <ele>109.600000</ele>
  <time>2011-10-22T06:32:40Z</time>
</trkpt>
<trkpt lat="39.674904000" lon="-0.333685000">
  <ele>110.300000</ele>
  <time>2011-10-22T06:32:43Z</time>
</trkpt>
<trkpt lat="39.674706000" lon="-0.333788000">
  <ele>113.100000</ele>
  <time>2011-10-22T06:32:47Z</time>
</trkpt>
<trkpt lat="39.674623000" lon="-0.333814000">
  <ele>114.000000</ele>
  <time>2011-10-22T06:32:50Z</time>
</trkpt>
<trkpt lat="39.673815000" lon="-0.334093000">
  <ele>122.500000</ele>
  <time>2011-10-22T06:33:11Z</time>
</trkpt>
<trkpt lat="39.673092000" lon="-0.334339000">
  <ele>131.800000</ele>
  <time>2011-10-22T06:33:30Z</time>
</trkpt>
<trkpt lat="39.673056000" lon="-0.334342000">
  <ele>132.000000</ele>
  <time>2011-10-22T06:33:32Z</time>
</trkpt>
<trkpt lat="39.672914000" lon="-0.334337000">
  <ele>131.300000</ele>
  <time>2011-10-22T06:33:35Z</time>
</trkpt>
<trkpt lat="39.672875000" lon="-0.334326000">
  <ele>131.300000</ele>
  <time>2011-10-22T06:33:37Z</time>
</trkpt>
<trkpt lat="39.672312000" lon="-0.334204000">
  <ele>127.300000</ele>
  <time>2011-10-22T06:33:53Z</time>
</trkpt>
<trkpt lat="39.672269000" lon="-0.334205000">
  <ele>127.800000</ele>
  <time>2011-10-22T06:33:54Z</time>
</trkpt>
<trkpt lat="39.671704000" lon="-0.334219000">
  <ele>129.300000</ele>
  <time>2011-10-22T06:34:07Z</time>
</trkpt>
<trkpt lat="39.671327000" lon="-0.334298000">
  <ele>126.800000</ele>
  <time>2011-10-22T06:34:17Z</time>
</trkpt>
<trkpt lat="39.670694000" lon="-0.334447000">
  <ele>125.000000</ele>
  <time>2011-10-22T06:34:29Z</time>
</trkpt>
<trkpt lat="39.670647000" lon="-0.334460000">
  <ele>124.800000</ele>
  <time>2011-10-22T06:34:31Z</time>
</trkpt>
<trkpt lat="39.670553000" lon="-0.334501000">
  <ele>124.300000</ele>
  <time>2011-10-22T06:34:33Z</time>
</trkpt>
<trkpt lat="39.670509000" lon="-0.334538000">
  <ele>123.500000</ele>
  <time>2011-10-22T06:34:34Z</time>
</trkpt>
<trkpt lat="39.670401000" lon="-0.334649000">
  <ele>122.600000</ele>
  <time>2011-10-22T06:34:37Z</time>
</trkpt>
<trkpt lat="39.670365000" lon="-0.334704000">
  <ele>122.100000</ele>
  <time>2011-10-22T06:34:37Z</time>
</trkpt>
<trkpt lat="39.669925000" lon="-0.335449000">
  <ele>120.000000</ele>
  <time>2011-10-22T06:34:53Z</time>
</trkpt>
<trkpt lat="39.669911000" lon="-0.335505000">
  <ele>120.500000</ele>
  <time>2011-10-22T06:34:53Z</time>
</trkpt>
<trkpt lat="39.669874000" lon="-0.335551000">
  <ele>120.100000</ele>
  <time>2011-10-22T06:34:55Z</time>
</trkpt>
<trkpt lat="39.669856000" lon="-0.335595000">
  <ele>120.900000</ele>
  <time>2011-10-22T06:34:55Z</time>
</trkpt>
<trkpt lat="39.669712000" lon="-0.335844000">
  <ele>119.500000</ele>
  <time>2011-10-22T06:35:01Z</time>
</trkpt>
<trkpt lat="39.668687000" lon="-0.337477000">
  <ele>127.500000</ele>
  <time>2011-10-22T06:35:43Z</time>
</trkpt>
<trkpt lat="39.668671000" lon="-0.337519000">
  <ele>127.600000</ele>
  <time>2011-10-22T06:35:44Z</time>
</trkpt>
<trkpt lat="39.668651000" lon="-0.337602000">
  <ele>127.500000</ele>
  <time>2011-10-22T06:35:46Z</time>
</trkpt>
<trkpt lat="39.668623000" lon="-0.337820000">
  <ele>128.600000</ele>
  <time>2011-10-22T06:35:51Z</time>
</trkpt>
<trkpt lat="39.668612000" lon="-0.337955000">
  <ele>129.100000</ele>
  <time>2011-10-22T06:35:54Z</time>
</trkpt>
<trkpt lat="39.668609000" lon="-0.338379000">
  <ele>132.500000</ele>
  <time>2011-10-22T06:36:03Z</time>
</trkpt>
<trkpt lat="39.668610000" lon="-0.338419000">
  <ele>132.600000</ele>
  <time>2011-10-22T06:36:05Z</time>
</trkpt>
<trkpt lat="39.668611000" lon="-0.341002000">
  <ele>143.300000</ele>
  <time>2011-10-22T06:37:02Z</time>
</trkpt>
<trkpt lat="39.668630000" lon="-0.341087000">
  <ele>143.600000</ele>
  <time>2011-10-22T06:37:04Z</time>
</trkpt>
<trkpt lat="39.668654000" lon="-0.341167000">
  <ele>143.800000</ele>
  <time>2011-10-22T06:37:05Z</time>
</trkpt>
<trkpt lat="39.668670000" lon="-0.341202000">
  <ele>143.800000</ele>
  <time>2011-10-22T06:37:07Z</time>
</trkpt>
<trkpt lat="39.668841000" lon="-0.341552000">
  <ele>142.100000</ele>
  <time>2011-10-22T06:37:15Z</time>
</trkpt>
<trkpt lat="39.668862000" lon="-0.341581000">
  <ele>142.300000</ele>
  <time>2011-10-22T06:37:17Z</time>
</trkpt>
<trkpt lat="39.668937000" lon="-0.341740000">
  <ele>143.000000</ele>
  <time>2011-10-22T06:37:21Z</time>
</trkpt>
<trkpt lat="39.669049000" lon="-0.342082000">
  <ele>142.300000</ele>
  <time>2011-10-22T06:37:29Z</time>
</trkpt>
<trkpt lat="39.669045000" lon="-0.342130000">
  <ele>143.100000</ele>
  <time>2011-10-22T06:37:29Z</time>
</trkpt>
<trkpt lat="39.669048000" lon="-0.342176000">
  <ele>143.000000</ele>
  <time>2011-10-22T06:37:31Z</time>
</trkpt>
<trkpt lat="39.669054000" lon="-0.342216000">
  <ele>143.100000</ele>
  <time>2011-10-22T06:37:31Z</time>
</trkpt>
<trkpt lat="39.669069000" lon="-0.342299000">
  <ele>144.500000</ele>
  <time>2011-10-22T06:37:34Z</time>
</trkpt>
<trkpt lat="39.669087000" lon="-0.342371000">
  <ele>145.500000</ele>
  <time>2011-10-22T06:37:36Z</time>
</trkpt>
<trkpt lat="39.669086000" lon="-0.342411000">
  <ele>145.800000</ele>
  <time>2011-10-22T06:37:37Z</time>
</trkpt>
<trkpt lat="39.669078000" lon="-0.342447000">
  <ele>146.000000</ele>
  <time>2011-10-22T06:37:37Z</time>
</trkpt>
<trkpt lat="39.669050000" lon="-0.342615000">
  <ele>144.600000</ele>
  <time>2011-10-22T06:37:42Z</time>
</trkpt>
<trkpt lat="39.669051000" lon="-0.342658000">
  <ele>145.100000</ele>
  <time>2011-10-22T06:37:43Z</time>
</trkpt>
<trkpt lat="39.669078000" lon="-0.343002000">
  <ele>146.600000</ele>
  <time>2011-10-22T06:37:53Z</time>
</trkpt>
<trkpt lat="39.669085000" lon="-0.343026000">
  <ele>147.100000</ele>
  <time>2011-10-22T06:37:53Z</time>
</trkpt>
<trkpt lat="39.669102000" lon="-0.343119000">
  <ele>149.100000</ele>
  <time>2011-10-22T06:37:58Z</time>
</trkpt>
<trkpt lat="39.669106000" lon="-0.343147000">
  <ele>149.000000</ele>
  <time>2011-10-22T06:37:59Z</time>
</trkpt>
<trkpt lat="39.669112000" lon="-0.343201000">
  <ele>148.800000</ele>
  <time>2011-10-22T06:38:01Z</time>
</trkpt>
<trkpt lat="39.669109000" lon="-0.343228000">
  <ele>149.600000</ele>
  <time>2011-10-22T06:38:02Z</time>
</trkpt>
<trkpt lat="39.669105000" lon="-0.343254000">
  <ele>150.300000</ele>
  <time>2011-10-22T06:38:03Z</time>
</trkpt>
<trkpt lat="39.669101000" lon="-0.343279000">
  <ele>150.800000</ele>
  <time>2011-10-22T06:38:04Z</time>
</trkpt>
<trkpt lat="39.669082000" lon="-0.343523000">
  <ele>151.800000</ele>
  <time>2011-10-22T06:38:12Z</time>
</trkpt>
<trkpt lat="39.669081000" lon="-0.343553000">
  <ele>151.800000</ele>
  <time>2011-10-22T06:38:14Z</time>
</trkpt>
<trkpt lat="39.669094000" lon="-0.343604000">
  <ele>152.500000</ele>
  <time>2011-10-22T06:38:15Z</time>
</trkpt>
<trkpt lat="39.669134000" lon="-0.343757000">
  <ele>152.100000</ele>
  <time>2011-10-22T06:38:22Z</time>
</trkpt>
<trkpt lat="39.669181000" lon="-0.343932000">
  <ele>153.100000</ele>
  <time>2011-10-22T06:38:28Z</time>
</trkpt>
<trkpt lat="39.669192000" lon="-0.343954000">
  <ele>153.100000</ele>
  <time>2011-10-22T06:38:30Z</time>
</trkpt>
<trkpt lat="39.669263000" lon="-0.344133000">
  <ele>155.600000</ele>
  <time>2011-10-22T06:38:38Z</time>
</trkpt>
<trkpt lat="39.669278000" lon="-0.344154000">
  <ele>156.000000</ele>
  <time>2011-10-22T06:38:39Z</time>
</trkpt>
<trkpt lat="39.669508000" lon="-0.344419000">
  <ele>158.600000</ele>
  <time>2011-10-22T06:38:54Z</time>
</trkpt>
<trkpt lat="39.669607000" lon="-0.344533000">
  <ele>159.800000</ele>
  <time>2011-10-22T06:39:00Z</time>
</trkpt>
<trkpt lat="39.669632000" lon="-0.344550000">
  <ele>160.100000</ele>
  <time>2011-10-22T06:39:02Z</time>
</trkpt>
<trkpt lat="39.669702000" lon="-0.344585000">
  <ele>159.100000</ele>
  <time>2011-10-22T06:39:05Z</time>
</trkpt>
<trkpt lat="39.669935000" lon="-0.344741000">
  <ele>160.600000</ele>
  <time>2011-10-22T06:39:16Z</time>
</trkpt>
<trkpt lat="39.669955000" lon="-0.344758000">
  <ele>161.100000</ele>
  <time>2011-10-22T06:39:18Z</time>
</trkpt>
<trkpt lat="39.670043000" lon="-0.344906000">
  <ele>159.600000</ele>
  <time>2011-10-22T06:39:24Z</time>
</trkpt>
<trkpt lat="39.670072000" lon="-0.344986000">
  <ele>160.500000</ele>
  <time>2011-10-22T06:39:27Z</time>
</trkpt>
<trkpt lat="39.670072000" lon="-0.345020000">
  <ele>161.000000</ele>
  <time>2011-10-22T06:39:28Z</time>
</trkpt>
<trkpt lat="39.670078000" lon="-0.345083000">
  <ele>161.300000</ele>
  <time>2011-10-22T06:39:30Z</time>
</trkpt>
<trkpt lat="39.670083000" lon="-0.345111000">
  <ele>161.100000</ele>
  <time>2011-10-22T06:39:30Z</time>
</trkpt>
<trkpt lat="39.670090000" lon="-0.345137000">
  <ele>161.100000</ele>
  <time>2011-10-22T06:39:32Z</time>
</trkpt>
<trkpt lat="39.670121000" lon="-0.345217000">
  <ele>161.300000</ele>
  <time>2011-10-22T06:39:35Z</time>
</trkpt>
<trkpt lat="39.670174000" lon="-0.345311000">
  <ele>161.100000</ele>
  <time>2011-10-22T06:39:38Z</time>
</trkpt>
<trkpt lat="39.670201000" lon="-0.345352000">
  <ele>161.100000</ele>
  <time>2011-10-22T06:39:41Z</time>
</trkpt>
<trkpt lat="39.670223000" lon="-0.345359000">
  <ele>161.800000</ele>
  <time>2011-10-22T06:39:41Z</time>
</trkpt>
<trkpt lat="39.670242000" lon="-0.345369000">
  <ele>162.600000</ele>
  <time>2011-10-22T06:39:43Z</time>
</trkpt>
<trkpt lat="39.670272000" lon="-0.345392000">
  <ele>163.600000</ele>
  <time>2011-10-22T06:39:45Z</time>
</trkpt>
<trkpt lat="39.670413000" lon="-0.345521000">
  <ele>165.600000</ele>
  <time>2011-10-22T06:39:53Z</time>
</trkpt>
<trkpt lat="39.670852000" lon="-0.345910000">
  <ele>168.100000</ele>
  <time>2011-10-22T06:40:19Z</time>
</trkpt>
<trkpt lat="39.670867000" lon="-0.345922000">
  <ele>168.300000</ele>
  <time>2011-10-22T06:40:20Z</time>
</trkpt>
<trkpt lat="39.670912000" lon="-0.345951000">
  <ele>169.800000</ele>
  <time>2011-10-22T06:40:23Z</time>
</trkpt>
<trkpt lat="39.670972000" lon="-0.345997000">
  <ele>171.600000</ele>
  <time>2011-10-22T06:40:26Z</time>
</trkpt>
<trkpt lat="39.671059000" lon="-0.346073000">
  <ele>173.800000</ele>
  <time>2011-10-22T06:40:32Z</time>
</trkpt>
<trkpt lat="39.671085000" lon="-0.346109000">
  <ele>174.800000</ele>
  <time>2011-10-22T06:40:35Z</time>
</trkpt>
<trkpt lat="39.671140000" lon="-0.346179000">
  <ele>176.000000</ele>
  <time>2011-10-22T06:40:39Z</time>
</trkpt>
<trkpt lat="39.671150000" lon="-0.346200000">
  <ele>175.800000</ele>
  <time>2011-10-22T06:40:40Z</time>
</trkpt>
<trkpt lat="39.671173000" lon="-0.346239000">
  <ele>175.800000</ele>
  <time>2011-10-22T06:40:42Z</time>
</trkpt>
<trkpt lat="39.671189000" lon="-0.346260000">
  <ele>176.100000</ele>
  <time>2011-10-22T06:40:42Z</time>
</trkpt>
<trkpt lat="39.671201000" lon="-0.346279000">
  <ele>176.600000</ele>
  <time>2011-10-22T06:40:43Z</time>
</trkpt>
<trkpt lat="39.671214000" lon="-0.346296000">
  <ele>177.800000</ele>
  <time>2011-10-22T06:40:45Z</time>
</trkpt>
<trkpt lat="39.671235000" lon="-0.346334000">
  <ele>180.000000</ele>
  <time>2011-10-22T06:40:47Z</time>
</trkpt>
<trkpt lat="39.671431000" lon="-0.346637000">
  <ele>188.800000</ele>
  <time>2011-10-22T06:41:03Z</time>
</trkpt>
<trkpt lat="39.671446000" lon="-0.346653000">
  <ele>189.300000</ele>
  <time>2011-10-22T06:41:04Z</time>
</trkpt>
<trkpt lat="39.671516000" lon="-0.346745000">
  <ele>190.800000</ele>
  <time>2011-10-22T06:41:09Z</time>
</trkpt>
<trkpt lat="39.671680000" lon="-0.346964000">
  <ele>192.600000</ele>
  <time>2011-10-22T06:41:20Z</time>
</trkpt>
<trkpt lat="39.671698000" lon="-0.346982000">
  <ele>192.800000</ele>
  <time>2011-10-22T06:41:20Z</time>
</trkpt>
<trkpt lat="39.671718000" lon="-0.347002000">
  <ele>192.800000</ele>
  <time>2011-10-22T06:41:22Z</time>
</trkpt>
<trkpt lat="39.671891000" lon="-0.347126000">
  <ele>200.800000</ele>
  <time>2011-10-22T06:41:31Z</time>
</trkpt>
<trkpt lat="39.671956000" lon="-0.347152000">
  <ele>201.500000</ele>
  <time>2011-10-22T06:41:34Z</time>
</trkpt>
<trkpt lat="39.672029000" lon="-0.347195000">
  <ele>201.600000</ele>
  <time>2011-10-22T06:41:39Z</time>
</trkpt>
<trkpt lat="39.672043000" lon="-0.347215000">
  <ele>201.800000</ele>
  <time>2011-10-22T06:41:39Z</time>
</trkpt>
<trkpt lat="39.672064000" lon="-0.347223000">
  <ele>201.800000</ele>
  <time>2011-10-22T06:41:41Z</time>
</trkpt>
<trkpt lat="39.672152000" lon="-0.347258000">
  <ele>202.800000</ele>
  <time>2011-10-22T06:41:46Z</time>
</trkpt>
<trkpt lat="39.672193000" lon="-0.347272000">
  <ele>202.500000</ele>
  <time>2011-10-22T06:41:48Z</time>
</trkpt>
<trkpt lat="39.672213000" lon="-0.347268000">
  <ele>202.600000</ele>
  <time>2011-10-22T06:41:49Z</time>
</trkpt>
<trkpt lat="39.672260000" lon="-0.347263000">
  <ele>201.800000</ele>
  <time>2011-10-22T06:41:50Z</time>
</trkpt>
<trkpt lat="39.672279000" lon="-0.347266000">
  <ele>201.600000</ele>
  <time>2011-10-22T06:41:52Z</time>
</trkpt>
<trkpt lat="39.672310000" lon="-0.347281000">
  <ele>203.000000</ele>
  <time>2011-10-22T06:41:54Z</time>
</trkpt>
<trkpt lat="39.672326000" lon="-0.347288000">
  <ele>203.000000</ele>
  <time>2011-10-22T06:41:55Z</time>
</trkpt>
<trkpt lat="39.672362000" lon="-0.347288000">
  <ele>203.300000</ele>
  <time>2011-10-22T06:41:57Z</time>
</trkpt>
<trkpt lat="39.672380000" lon="-0.347291000">
  <ele>203.100000</ele>
  <time>2011-10-22T06:41:58Z</time>
</trkpt>
<trkpt lat="39.672399000" lon="-0.347294000">
  <ele>203.600000</ele>
  <time>2011-10-22T06:41:58Z</time>
</trkpt>
<trkpt lat="39.672417000" lon="-0.347299000">
  <ele>203.600000</ele>
  <time>2011-10-22T06:42:00Z</time>
</trkpt>
<trkpt lat="39.672472000" lon="-0.347315000">
  <ele>203.800000</ele>
  <time>2011-10-22T06:42:03Z</time>
</trkpt>
<trkpt lat="39.672547000" lon="-0.347327000">
  <ele>205.100000</ele>
  <time>2011-10-22T06:42:06Z</time>
</trkpt>
<trkpt lat="39.672563000" lon="-0.347333000">
  <ele>205.100000</ele>
  <time>2011-10-22T06:42:08Z</time>
</trkpt>
<trkpt lat="39.672583000" lon="-0.347333000">
  <ele>205.100000</ele>
  <time>2011-10-22T06:42:08Z</time>
</trkpt>
<trkpt lat="39.672607000" lon="-0.347333000">
  <ele>204.800000</ele>
  <time>2011-10-22T06:42:09Z</time>
</trkpt>
<trkpt lat="39.672627000" lon="-0.347336000">
  <ele>204.500000</ele>
  <time>2011-10-22T06:42:11Z</time>
</trkpt>
<trkpt lat="39.672717000" lon="-0.347331000">
  <ele>202.800000</ele>
  <time>2011-10-22T06:42:14Z</time>
</trkpt>
<trkpt lat="39.672741000" lon="-0.347333000">
  <ele>202.500000</ele>
  <time>2011-10-22T06:42:16Z</time>
</trkpt>
<trkpt lat="39.672759000" lon="-0.347336000">
  <ele>202.100000</ele>
  <time>2011-10-22T06:42:17Z</time>
</trkpt>
<trkpt lat="39.672795000" lon="-0.347343000">
  <ele>202.800000</ele>
  <time>2011-10-22T06:42:19Z</time>
</trkpt>
<trkpt lat="39.672813000" lon="-0.347351000">
  <ele>203.100000</ele>
  <time>2011-10-22T06:42:20Z</time>
</trkpt>
<trkpt lat="39.672963000" lon="-0.347424000">
  <ele>205.600000</ele>
  <time>2011-10-22T06:42:29Z</time>
</trkpt>
<trkpt lat="39.672975000" lon="-0.347442000">
  <ele>206.500000</ele>
  <time>2011-10-22T06:42:30Z</time>
</trkpt>
<trkpt lat="39.672987000" lon="-0.347456000">
  <ele>206.800000</ele>
  <time>2011-10-22T06:42:30Z</time>
</trkpt>
<trkpt lat="39.673011000" lon="-0.347481000">
  <ele>208.600000</ele>
  <time>2011-10-22T06:42:33Z</time>
</trkpt>
<trkpt lat="39.673025000" lon="-0.347489000">
  <ele>209.300000</ele>
  <time>2011-10-22T06:42:33Z</time>
</trkpt>
<trkpt lat="39.673039000" lon="-0.347502000">
  <ele>209.100000</ele>
  <time>2011-10-22T06:42:35Z</time>
</trkpt>
<trkpt lat="39.673050000" lon="-0.347521000">
  <ele>209.100000</ele>
  <time>2011-10-22T06:42:36Z</time>
</trkpt>
<trkpt lat="39.673067000" lon="-0.347538000">
  <ele>208.600000</ele>
  <time>2011-10-22T06:42:37Z</time>
</trkpt>
<trkpt lat="39.673104000" lon="-0.347578000">
  <ele>210.600000</ele>
  <time>2011-10-22T06:42:40Z</time>
</trkpt>
<trkpt lat="39.673117000" lon="-0.347587000">
  <ele>211.600000</ele>
  <time>2011-10-22T06:42:41Z</time>
</trkpt>
<trkpt lat="39.673145000" lon="-0.347611000">
  <ele>212.300000</ele>
  <time>2011-10-22T06:42:43Z</time>
</trkpt>
<trkpt lat="39.673172000" lon="-0.347632000">
  <ele>214.100000</ele>
  <time>2011-10-22T06:42:44Z</time>
</trkpt>
<trkpt lat="39.673189000" lon="-0.347639000">
  <ele>214.000000</ele>
  <time>2011-10-22T06:42:46Z</time>
</trkpt>
<trkpt lat="39.673204000" lon="-0.347654000">
  <ele>213.800000</ele>
  <time>2011-10-22T06:42:46Z</time>
</trkpt>
<trkpt lat="39.673218000" lon="-0.347676000">
  <ele>213.600000</ele>
  <time>2011-10-22T06:42:48Z</time>
</trkpt>
<trkpt lat="39.673229000" lon="-0.347699000">
  <ele>213.600000</ele>
  <time>2011-10-22T06:42:49Z</time>
</trkpt>
<trkpt lat="39.673238000" lon="-0.347718000">
  <ele>213.800000</ele>
  <time>2011-10-22T06:42:49Z</time>
</trkpt>
<trkpt lat="39.673250000" lon="-0.347730000">
  <ele>214.000000</ele>
  <time>2011-10-22T06:42:51Z</time>
</trkpt>
<trkpt lat="39.673259000" lon="-0.347752000">
  <ele>214.300000</ele>
  <time>2011-10-22T06:42:52Z</time>
</trkpt>
<trkpt lat="39.673268000" lon="-0.347767000">
  <ele>214.800000</ele>
  <time>2011-10-22T06:42:52Z</time>
</trkpt>
<trkpt lat="39.673284000" lon="-0.347799000">
  <ele>215.600000</ele>
  <time>2011-10-22T06:42:55Z</time>
</trkpt>
<trkpt lat="39.673290000" lon="-0.347816000">
  <ele>216.100000</ele>
  <time>2011-10-22T06:42:56Z</time>
</trkpt>
<trkpt lat="39.673337000" lon="-0.347937000">
  <ele>218.500000</ele>
  <time>2011-10-22T06:43:02Z</time>
</trkpt>
<trkpt lat="39.673342000" lon="-0.347956000">
  <ele>218.500000</ele>
  <time>2011-10-22T06:43:04Z</time>
</trkpt>
<trkpt lat="39.673343000" lon="-0.347978000">
  <ele>218.800000</ele>
  <time>2011-10-22T06:43:05Z</time>
</trkpt>
<trkpt lat="39.673343000" lon="-0.347996000">
  <ele>219.500000</ele>
  <time>2011-10-22T06:43:05Z</time>
</trkpt>
<trkpt lat="39.673345000" lon="-0.348012000">
  <ele>219.800000</ele>
  <time>2011-10-22T06:43:07Z</time>
</trkpt>
<trkpt lat="39.673347000" lon="-0.348030000">
  <ele>220.600000</ele>
  <time>2011-10-22T06:43:08Z</time>
</trkpt>
<trkpt lat="39.673350000" lon="-0.348065000">
  <ele>221.600000</ele>
  <time>2011-10-22T06:43:10Z</time>
</trkpt>
<trkpt lat="39.673354000" lon="-0.348080000">
  <ele>222.600000</ele>
  <time>2011-10-22T06:43:11Z</time>
</trkpt>
<trkpt lat="39.673362000" lon="-0.348093000">
  <ele>223.100000</ele>
  <time>2011-10-22T06:43:12Z</time>
</trkpt>
<trkpt lat="39.673387000" lon="-0.348142000">
  <ele>224.800000</ele>
  <time>2011-10-22T06:43:16Z</time>
</trkpt>
<trkpt lat="39.673390000" lon="-0.348159000">
  <ele>225.000000</ele>
  <time>2011-10-22T06:43:16Z</time>
</trkpt>
<trkpt lat="39.673395000" lon="-0.348172000">
  <ele>225.300000</ele>
  <time>2011-10-22T06:43:18Z</time>
</trkpt>
<trkpt lat="39.673408000" lon="-0.348203000">
  <ele>225.800000</ele>
  <time>2011-10-22T06:43:20Z</time>
</trkpt>
<trkpt lat="39.673413000" lon="-0.348218000">
  <ele>226.100000</ele>
  <time>2011-10-22T06:43:21Z</time>
</trkpt>
<trkpt lat="39.673418000" lon="-0.348234000">
  <ele>226.300000</ele>
  <time>2011-10-22T06:43:21Z</time>
</trkpt>
<trkpt lat="39.673429000" lon="-0.348266000">
  <ele>227.000000</ele>
  <time>2011-10-22T06:43:24Z</time>
</trkpt>
<trkpt lat="39.673438000" lon="-0.348279000">
  <ele>227.100000</ele>
  <time>2011-10-22T06:43:24Z</time>
</trkpt>
<trkpt lat="39.673447000" lon="-0.348290000">
  <ele>227.600000</ele>
  <time>2011-10-22T06:43:26Z</time>
</trkpt>
<trkpt lat="39.673455000" lon="-0.348301000">
  <ele>228.100000</ele>
  <time>2011-10-22T06:43:27Z</time>
</trkpt>
<trkpt lat="39.673466000" lon="-0.348310000">
  <ele>228.500000</ele>
  <time>2011-10-22T06:43:27Z</time>
</trkpt>
<trkpt lat="39.673485000" lon="-0.348334000">
  <ele>228.800000</ele>
  <time>2011-10-22T06:43:30Z</time>
</trkpt>
<trkpt lat="39.673539000" lon="-0.348405000">
  <ele>228.800000</ele>
  <time>2011-10-22T06:43:35Z</time>
</trkpt>
<trkpt lat="39.673546000" lon="-0.348414000">
  <ele>229.600000</ele>
  <time>2011-10-22T06:43:37Z</time>
</trkpt>
<trkpt lat="39.673560000" lon="-0.348433000">
  <ele>230.800000</ele>
  <time>2011-10-22T06:43:39Z</time>
</trkpt>
<trkpt lat="39.673567000" lon="-0.348440000">
  <ele>230.800000</ele>
  <time>2011-10-22T06:43:40Z</time>
</trkpt>
<trkpt lat="39.673585000" lon="-0.348460000">
  <ele>231.100000</ele>
  <time>2011-10-22T06:43:42Z</time>
</trkpt>
<trkpt lat="39.673595000" lon="-0.348473000">
  <ele>231.100000</ele>
  <time>2011-10-22T06:43:43Z</time>
</trkpt>
<trkpt lat="39.673625000" lon="-0.348504000">
  <ele>231.300000</ele>
  <time>2011-10-22T06:43:46Z</time>
</trkpt>
<trkpt lat="39.673637000" lon="-0.348511000">
  <ele>231.500000</ele>
  <time>2011-10-22T06:43:47Z</time>
</trkpt>
<trkpt lat="39.673665000" lon="-0.348522000">
  <ele>230.600000</ele>
  <time>2011-10-22T06:43:49Z</time>
</trkpt>
<trkpt lat="39.673679000" lon="-0.348529000">
  <ele>229.800000</ele>
  <time>2011-10-22T06:43:50Z</time>
</trkpt>
<trkpt lat="39.673690000" lon="-0.348539000">
  <ele>229.600000</ele>
  <time>2011-10-22T06:43:51Z</time>
</trkpt>
<trkpt lat="39.673707000" lon="-0.348546000">
  <ele>228.600000</ele>
  <time>2011-10-22T06:43:51Z</time>
</trkpt>
<trkpt lat="39.673763000" lon="-0.348566000">
  <ele>227.000000</ele>
  <time>2011-10-22T06:43:56Z</time>
</trkpt>
</trkseg>
</trk>
<trk>
  <name>2011-10-22-01_498-748</name>
  <desc>C:\Users\farnau\Documents\My Dropbox\Tracks\2011-10-22-01.gpx</desc>
<trkseg>
<trkpt lat="39.673763000" lon="-0.348566000">
  <ele>227.000000</ele>
  <time>2011-10-22T06:43:56Z</time>
</trkpt>
<trkpt lat="39.673775000" lon="-0.348574000">
  <ele>227.100000</ele>
  <time>2011-10-22T06:43:56Z</time>
</trkpt>
<trkpt lat="39.673804000" lon="-0.348590000">
  <ele>226.600000</ele>
  <time>2011-10-22T06:43:59Z</time>
</trkpt>
<trkpt lat="39.673850000" lon="-0.348609000">
  <ele>226.800000</ele>
  <time>2011-10-22T06:44:02Z</time>
</trkpt>
<trkpt lat="39.673942000" lon="-0.348656000">
  <ele>226.100000</ele>
  <time>2011-10-22T06:44:07Z</time>
</trkpt>
<trkpt lat="39.673956000" lon="-0.348675000">
  <ele>225.800000</ele>
  <time>2011-10-22T06:44:09Z</time>
</trkpt>
<trkpt lat="39.673974000" lon="-0.348706000">
  <ele>226.000000</ele>
  <time>2011-10-22T06:44:10Z</time>
</trkpt>
<trkpt lat="39.673980000" lon="-0.348721000">
  <ele>226.100000</ele>
  <time>2011-10-22T06:44:12Z</time>
</trkpt>
<trkpt lat="39.673987000" lon="-0.348752000">
  <ele>226.500000</ele>
  <time>2011-10-22T06:44:14Z</time>
</trkpt>
<trkpt lat="39.673987000" lon="-0.348768000">
  <ele>226.600000</ele>
  <time>2011-10-22T06:44:15Z</time>
</trkpt>
<trkpt lat="39.673980000" lon="-0.348786000">
  <ele>227.100000</ele>
  <time>2011-10-22T06:44:15Z</time>
</trkpt>
<trkpt lat="39.673969000" lon="-0.348801000">
  <ele>227.100000</ele>
  <time>2011-10-22T06:44:17Z</time>
</trkpt>
<trkpt lat="39.673957000" lon="-0.348813000">
  <ele>227.300000</ele>
  <time>2011-10-22T06:44:18Z</time>
</trkpt>
<trkpt lat="39.673939000" lon="-0.348817000">
  <ele>227.800000</ele>
  <time>2011-10-22T06:44:18Z</time>
</trkpt>
<trkpt lat="39.673908000" lon="-0.348820000">
  <ele>228.500000</ele>
  <time>2011-10-22T06:44:21Z</time>
</trkpt>
<trkpt lat="39.673892000" lon="-0.348814000">
  <ele>228.300000</ele>
  <time>2011-10-22T06:44:22Z</time>
</trkpt>
<trkpt lat="39.673876000" lon="-0.348802000">
  <ele>228.500000</ele>
  <time>2011-10-22T06:44:23Z</time>
</trkpt>
<trkpt lat="39.673840000" lon="-0.348781000">
  <ele>228.500000</ele>
  <time>2011-10-22T06:44:25Z</time>
</trkpt>
<trkpt lat="39.673704000" lon="-0.348702000">
  <ele>229.500000</ele>
  <time>2011-10-22T06:44:31Z</time>
</trkpt>
<trkpt lat="39.673655000" lon="-0.348686000">
  <ele>230.300000</ele>
  <time>2011-10-22T06:44:34Z</time>
</trkpt>
<trkpt lat="39.673606000" lon="-0.348676000">
  <ele>231.000000</ele>
  <time>2011-10-22T06:44:36Z</time>
</trkpt>
<trkpt lat="39.673583000" lon="-0.348675000">
  <ele>231.000000</ele>
  <time>2011-10-22T06:44:37Z</time>
</trkpt>
<trkpt lat="39.673333000" lon="-0.348669000">
  <ele>232.500000</ele>
  <time>2011-10-22T06:44:49Z</time>
</trkpt>
<trkpt lat="39.673316000" lon="-0.348674000">
  <ele>232.800000</ele>
  <time>2011-10-22T06:44:50Z</time>
</trkpt>
<trkpt lat="39.673282000" lon="-0.348686000">
  <ele>232.800000</ele>
  <time>2011-10-22T06:44:52Z</time>
</trkpt>
<trkpt lat="39.673267000" lon="-0.348698000">
  <ele>232.800000</ele>
  <time>2011-10-22T06:44:53Z</time>
</trkpt>
<trkpt lat="39.673256000" lon="-0.348716000">
  <ele>232.800000</ele>
  <time>2011-10-22T06:44:53Z</time>
</trkpt>
<trkpt lat="39.673239000" lon="-0.348753000">
  <ele>233.500000</ele>
  <time>2011-10-22T06:44:56Z</time>
</trkpt>
<trkpt lat="39.673236000" lon="-0.348778000">
  <ele>233.800000</ele>
  <time>2011-10-22T06:44:57Z</time>
</trkpt>
<trkpt lat="39.673202000" lon="-0.348951000">
  <ele>236.800000</ele>
  <time>2011-10-22T06:45:05Z</time>
</trkpt>
<trkpt lat="39.673166000" lon="-0.349117000">
  <ele>238.600000</ele>
  <time>2011-10-22T06:45:13Z</time>
</trkpt>
<trkpt lat="39.673158000" lon="-0.349136000">
  <ele>238.600000</ele>
  <time>2011-10-22T06:45:14Z</time>
</trkpt>
<trkpt lat="39.673152000" lon="-0.349157000">
  <ele>239.000000</ele>
  <time>2011-10-22T06:45:15Z</time>
</trkpt>
<trkpt lat="39.673145000" lon="-0.349204000">
  <ele>239.100000</ele>
  <time>2011-10-22T06:45:17Z</time>
</trkpt>
<trkpt lat="39.673146000" lon="-0.349228000">
  <ele>239.100000</ele>
  <time>2011-10-22T06:45:17Z</time>
</trkpt>
<trkpt lat="39.673150000" lon="-0.349252000">
  <ele>239.300000</ele>
  <time>2011-10-22T06:45:19Z</time>
</trkpt>
<trkpt lat="39.673163000" lon="-0.349309000">
  <ele>239.600000</ele>
  <time>2011-10-22T06:45:22Z</time>
</trkpt>
<trkpt lat="39.673187000" lon="-0.349328000">
  <ele>239.600000</ele>
  <time>2011-10-22T06:45:22Z</time>
</trkpt>
<trkpt lat="39.673205000" lon="-0.349346000">
  <ele>239.800000</ele>
  <time>2011-10-22T06:45:24Z</time>
</trkpt>
<trkpt lat="39.673220000" lon="-0.349365000">
  <ele>240.100000</ele>
  <time>2011-10-22T06:45:25Z</time>
</trkpt>
<trkpt lat="39.673253000" lon="-0.349414000">
  <ele>240.100000</ele>
  <time>2011-10-22T06:45:28Z</time>
</trkpt>
<trkpt lat="39.673263000" lon="-0.349436000">
  <ele>240.000000</ele>
  <time>2011-10-22T06:45:28Z</time>
</trkpt>
<trkpt lat="39.673274000" lon="-0.349457000">
  <ele>239.800000</ele>
  <time>2011-10-22T06:45:30Z</time>
</trkpt>
<trkpt lat="39.673327000" lon="-0.349540000">
  <ele>240.300000</ele>
  <time>2011-10-22T06:45:33Z</time>
</trkpt>
<trkpt lat="39.673348000" lon="-0.349551000">
  <ele>240.600000</ele>
  <time>2011-10-22T06:45:35Z</time>
</trkpt>
<trkpt lat="39.673438000" lon="-0.349588000">
  <ele>240.300000</ele>
  <time>2011-10-22T06:45:38Z</time>
</trkpt>
<trkpt lat="39.673461000" lon="-0.349591000">
  <ele>240.300000</ele>
  <time>2011-10-22T06:45:40Z</time>
</trkpt>
<trkpt lat="39.673550000" lon="-0.349613000">
  <ele>241.300000</ele>
  <time>2011-10-22T06:45:44Z</time>
</trkpt>
<trkpt lat="39.673575000" lon="-0.349626000">
  <ele>241.300000</ele>
  <time>2011-10-22T06:45:44Z</time>
</trkpt>
<trkpt lat="39.673596000" lon="-0.349638000">
  <ele>241.100000</ele>
  <time>2011-10-22T06:45:46Z</time>
</trkpt>
<trkpt lat="39.673632000" lon="-0.349669000">
  <ele>241.600000</ele>
  <time>2011-10-22T06:45:48Z</time>
</trkpt>
<trkpt lat="39.673648000" lon="-0.349692000">
  <ele>241.600000</ele>
  <time>2011-10-22T06:45:49Z</time>
</trkpt>
<trkpt lat="39.673694000" lon="-0.349771000">
  <ele>241.100000</ele>
  <time>2011-10-22T06:45:52Z</time>
</trkpt>
<trkpt lat="39.673702000" lon="-0.349799000">
  <ele>241.100000</ele>
  <time>2011-10-22T06:45:52Z</time>
</trkpt>
<trkpt lat="39.673731000" lon="-0.349917000">
  <ele>241.000000</ele>
  <time>2011-10-22T06:45:57Z</time>
</trkpt>
<trkpt lat="39.673737000" lon="-0.349951000">
  <ele>240.800000</ele>
  <time>2011-10-22T06:45:57Z</time>
</trkpt>
<trkpt lat="39.673739000" lon="-0.349998000">
  <ele>240.300000</ele>
  <time>2011-10-22T06:45:59Z</time>
</trkpt>
<trkpt lat="39.673734000" lon="-0.350408000">
  <ele>237.100000</ele>
  <time>2011-10-22T06:46:05Z</time>
</trkpt>
<trkpt lat="39.673720000" lon="-0.350486000">
  <ele>237.000000</ele>
  <time>2011-10-22T06:46:06Z</time>
</trkpt>
<trkpt lat="39.673695000" lon="-0.350558000">
  <ele>237.100000</ele>
  <time>2011-10-22T06:46:07Z</time>
</trkpt>
<trkpt lat="39.673663000" lon="-0.350618000">
  <ele>237.600000</ele>
  <time>2011-10-22T06:46:08Z</time>
</trkpt>
<trkpt lat="39.673626000" lon="-0.350659000">
  <ele>238.300000</ele>
  <time>2011-10-22T06:46:08Z</time>
</trkpt>
<trkpt lat="39.673523000" lon="-0.350736000">
  <ele>239.800000</ele>
  <time>2011-10-22T06:46:13Z</time>
</trkpt>
<trkpt lat="39.673463000" lon="-0.350764000">
  <ele>241.600000</ele>
  <time>2011-10-22T06:46:16Z</time>
</trkpt>
<trkpt lat="39.673449000" lon="-0.350782000">
  <ele>242.100000</ele>
  <time>2011-10-22T06:46:18Z</time>
</trkpt>
<trkpt lat="39.673433000" lon="-0.350796000">
  <ele>242.300000</ele>
  <time>2011-10-22T06:46:19Z</time>
</trkpt>
<trkpt lat="39.673420000" lon="-0.350809000">
  <ele>242.600000</ele>
  <time>2011-10-22T06:46:19Z</time>
</trkpt>
<trkpt lat="39.673367000" lon="-0.350877000">
  <ele>243.800000</ele>
  <time>2011-10-22T06:46:24Z</time>
</trkpt>
<trkpt lat="39.673334000" lon="-0.350929000">
  <ele>245.300000</ele>
  <time>2011-10-22T06:46:27Z</time>
</trkpt>
<trkpt lat="39.673293000" lon="-0.351000000">
  <ele>246.800000</ele>
  <time>2011-10-22T06:46:31Z</time>
</trkpt>
<trkpt lat="39.673286000" lon="-0.351019000">
  <ele>247.000000</ele>
  <time>2011-10-22T06:46:32Z</time>
</trkpt>
<trkpt lat="39.673272000" lon="-0.351065000">
  <ele>247.300000</ele>
  <time>2011-10-22T06:46:34Z</time>
</trkpt>
<trkpt lat="39.673244000" lon="-0.351241000">
  <ele>248.600000</ele>
  <time>2011-10-22T06:46:42Z</time>
</trkpt>
<trkpt lat="39.673255000" lon="-0.351258000">
  <ele>249.500000</ele>
  <time>2011-10-22T06:46:43Z</time>
</trkpt>
<trkpt lat="39.673254000" lon="-0.351290000">
  <ele>250.300000</ele>
  <time>2011-10-22T06:46:43Z</time>
</trkpt>
<trkpt lat="39.673251000" lon="-0.351306000">
  <ele>250.300000</ele>
  <time>2011-10-22T06:46:45Z</time>
</trkpt>
<trkpt lat="39.673257000" lon="-0.351327000">
  <ele>251.100000</ele>
  <time>2011-10-22T06:46:45Z</time>
</trkpt>
<trkpt lat="39.673279000" lon="-0.351362000">
  <ele>252.500000</ele>
  <time>2011-10-22T06:46:48Z</time>
</trkpt>
<trkpt lat="39.673313000" lon="-0.351411000">
  <ele>253.300000</ele>
  <time>2011-10-22T06:46:51Z</time>
</trkpt>
<trkpt lat="39.673318000" lon="-0.351424000">
  <ele>253.600000</ele>
  <time>2011-10-22T06:46:51Z</time>
</trkpt>
<trkpt lat="39.673333000" lon="-0.351455000">
  <ele>254.300000</ele>
  <time>2011-10-22T06:46:54Z</time>
</trkpt>
<trkpt lat="39.673341000" lon="-0.351470000">
  <ele>254.600000</ele>
  <time>2011-10-22T06:46:54Z</time>
</trkpt>
<trkpt lat="39.673358000" lon="-0.351531000">
  <ele>257.200000</ele>
  <time>2011-10-22T06:46:58Z</time>
</trkpt>
<trkpt lat="39.673369000" lon="-0.351577000">
  <ele>257.600000</ele>
  <time>2011-10-22T06:47:00Z</time>
</trkpt>
<trkpt lat="39.673376000" lon="-0.351600000">
  <ele>257.800000</ele>
  <time>2011-10-22T06:47:01Z</time>
</trkpt>
<trkpt lat="39.673386000" lon="-0.351618000">
  <ele>258.000000</ele>
  <time>2011-10-22T06:47:02Z</time>
</trkpt>
<trkpt lat="39.673407000" lon="-0.351672000">
  <ele>258.200000</ele>
  <time>2011-10-22T06:47:04Z</time>
</trkpt>
<trkpt lat="39.673454000" lon="-0.351797000">
  <ele>261.600000</ele>
  <time>2011-10-22T06:47:12Z</time>
</trkpt>
<trkpt lat="39.673511000" lon="-0.351960000">
  <ele>262.100000</ele>
  <time>2011-10-22T06:47:20Z</time>
</trkpt>
<trkpt lat="39.673515000" lon="-0.351980000">
  <ele>262.300000</ele>
  <time>2011-10-22T06:47:20Z</time>
</trkpt>
<trkpt lat="39.673565000" lon="-0.352185000">
  <ele>262.100000</ele>
  <time>2011-10-22T06:47:29Z</time>
</trkpt>
<trkpt lat="39.673578000" lon="-0.352207000">
  <ele>261.700000</ele>
  <time>2011-10-22T06:47:29Z</time>
</trkpt>
<trkpt lat="39.673588000" lon="-0.352233000">
  <ele>261.500000</ele>
  <time>2011-10-22T06:47:31Z</time>
</trkpt>
<trkpt lat="39.673637000" lon="-0.352391000">
  <ele>261.000000</ele>
  <time>2011-10-22T06:47:36Z</time>
</trkpt>
<trkpt lat="39.673643000" lon="-0.352429000">
  <ele>260.600000</ele>
  <time>2011-10-22T06:47:36Z</time>
</trkpt>
<trkpt lat="39.673662000" lon="-0.352636000">
  <ele>259.500000</ele>
  <time>2011-10-22T06:47:42Z</time>
</trkpt>
<trkpt lat="39.673658000" lon="-0.352680000">
  <ele>259.000000</ele>
  <time>2011-10-22T06:47:42Z</time>
</trkpt>
<trkpt lat="39.673659000" lon="-0.352844000">
  <ele>258.700000</ele>
  <time>2011-10-22T06:47:47Z</time>
</trkpt>
<trkpt lat="39.673663000" lon="-0.352935000">
  <ele>258.800000</ele>
  <time>2011-10-22T06:47:50Z</time>
</trkpt>
<trkpt lat="39.673663000" lon="-0.352966000">
  <ele>258.700000</ele>
  <time>2011-10-22T06:47:51Z</time>
</trkpt>
<trkpt lat="39.673678000" lon="-0.353218000">
  <ele>259.700000</ele>
  <time>2011-10-22T06:47:58Z</time>
</trkpt>
<trkpt lat="39.673684000" lon="-0.353244000">
  <ele>260.000000</ele>
  <time>2011-10-22T06:48:00Z</time>
</trkpt>
<trkpt lat="39.673728000" lon="-0.353387000">
  <ele>261.000000</ele>
  <time>2011-10-22T06:48:04Z</time>
</trkpt>
<trkpt lat="39.673846000" lon="-0.353736000">
  <ele>259.600000</ele>
  <time>2011-10-22T06:48:16Z</time>
</trkpt>
<trkpt lat="39.673850000" lon="-0.353777000">
  <ele>259.200000</ele>
  <time>2011-10-22T06:48:17Z</time>
</trkpt>
<trkpt lat="39.673855000" lon="-0.353916000">
  <ele>258.600000</ele>
  <time>2011-10-22T06:48:20Z</time>
</trkpt>
<trkpt lat="39.673865000" lon="-0.354443000">
  <ele>261.300000</ele>
  <time>2011-10-22T06:48:35Z</time>
</trkpt>
<trkpt lat="39.673863000" lon="-0.354500000">
  <ele>261.500000</ele>
  <time>2011-10-22T06:48:36Z</time>
</trkpt>
<trkpt lat="39.673865000" lon="-0.354750000">
  <ele>262.700000</ele>
  <time>2011-10-22T06:48:44Z</time>
</trkpt>
<trkpt lat="39.673869000" lon="-0.354781000">
  <ele>263.200000</ele>
  <time>2011-10-22T06:48:46Z</time>
</trkpt>
<trkpt lat="39.673878000" lon="-0.354918000">
  <ele>263.300000</ele>
  <time>2011-10-22T06:48:49Z</time>
</trkpt>
<trkpt lat="39.673873000" lon="-0.355038000">
  <ele>264.200000</ele>
  <time>2011-10-22T06:48:54Z</time>
</trkpt>
<trkpt lat="39.673871000" lon="-0.355142000">
  <ele>265.100000</ele>
  <time>2011-10-22T06:48:59Z</time>
</trkpt>
<trkpt lat="39.673870000" lon="-0.355164000">
  <ele>265.600000</ele>
  <time>2011-10-22T06:49:00Z</time>
</trkpt>
<trkpt lat="39.673864000" lon="-0.355184000">
  <ele>265.700000</ele>
  <time>2011-10-22T06:49:01Z</time>
</trkpt>
<trkpt lat="39.673858000" lon="-0.355203000">
  <ele>266.100000</ele>
  <time>2011-10-22T06:49:02Z</time>
</trkpt>
<trkpt lat="39.673849000" lon="-0.355329000">
  <ele>267.700000</ele>
  <time>2011-10-22T06:49:08Z</time>
</trkpt>
<trkpt lat="39.673850000" lon="-0.355353000">
  <ele>267.800000</ele>
  <time>2011-10-22T06:49:08Z</time>
</trkpt>
<trkpt lat="39.673851000" lon="-0.355398000">
  <ele>268.200000</ele>
  <time>2011-10-22T06:49:11Z</time>
</trkpt>
<trkpt lat="39.673847000" lon="-0.355421000">
  <ele>268.000000</ele>
  <time>2011-10-22T06:49:11Z</time>
</trkpt>
<trkpt lat="39.673758000" lon="-0.355970000">
  <ele>271.200000</ele>
  <time>2011-10-22T06:49:33Z</time>
</trkpt>
<trkpt lat="39.673752000" lon="-0.355995000">
  <ele>271.600000</ele>
  <time>2011-10-22T06:49:34Z</time>
</trkpt>
<trkpt lat="39.673737000" lon="-0.356086000">
  <ele>272.700000</ele>
  <time>2011-10-22T06:49:38Z</time>
</trkpt>
<trkpt lat="39.673737000" lon="-0.356109000">
  <ele>272.600000</ele>
  <time>2011-10-22T06:49:38Z</time>
</trkpt>
<trkpt lat="39.673743000" lon="-0.356151000">
  <ele>272.300000</ele>
  <time>2011-10-22T06:49:40Z</time>
</trkpt>
<trkpt lat="39.673746000" lon="-0.356194000">
  <ele>272.700000</ele>
  <time>2011-10-22T06:49:43Z</time>
</trkpt>
<trkpt lat="39.673742000" lon="-0.356215000">
  <ele>273.100000</ele>
  <time>2011-10-22T06:49:43Z</time>
</trkpt>
<trkpt lat="39.673740000" lon="-0.356236000">
  <ele>273.200000</ele>
  <time>2011-10-22T06:49:45Z</time>
</trkpt>
<trkpt lat="39.673741000" lon="-0.356315000">
  <ele>273.800000</ele>
  <time>2011-10-22T06:49:49Z</time>
</trkpt>
<trkpt lat="39.673746000" lon="-0.356381000">
  <ele>274.700000</ele>
  <time>2011-10-22T06:49:53Z</time>
</trkpt>
<trkpt lat="39.673755000" lon="-0.356412000">
  <ele>275.000000</ele>
  <time>2011-10-22T06:49:54Z</time>
</trkpt>
<trkpt lat="39.673762000" lon="-0.356441000">
  <ele>275.200000</ele>
  <time>2011-10-22T06:49:56Z</time>
</trkpt>
<trkpt lat="39.673762000" lon="-0.356455000">
  <ele>275.200000</ele>
  <time>2011-10-22T06:49:58Z</time>
</trkpt>
<trkpt lat="39.673762000" lon="-0.356470000">
  <ele>275.300000</ele>
  <time>2011-10-22T06:49:59Z</time>
</trkpt>
<trkpt lat="39.673769000" lon="-0.356486000">
  <ele>275.700000</ele>
  <time>2011-10-22T06:49:59Z</time>
</trkpt>
<trkpt lat="39.673769000" lon="-0.356502000">
  <ele>276.200000</ele>
  <time>2011-10-22T06:50:01Z</time>
</trkpt>
<trkpt lat="39.673776000" lon="-0.356520000">
  <ele>276.200000</ele>
  <time>2011-10-22T06:50:02Z</time>
</trkpt>
<trkpt lat="39.673781000" lon="-0.356545000">
  <ele>276.300000</ele>
  <time>2011-10-22T06:50:02Z</time>
</trkpt>
<trkpt lat="39.673787000" lon="-0.356557000">
  <ele>276.600000</ele>
  <time>2011-10-22T06:50:04Z</time>
</trkpt>
<trkpt lat="39.673790000" lon="-0.356630000">
  <ele>277.700000</ele>
  <time>2011-10-22T06:50:07Z</time>
</trkpt>
<trkpt lat="39.673788000" lon="-0.356647000">
  <ele>278.200000</ele>
  <time>2011-10-22T06:50:08Z</time>
</trkpt>
<trkpt lat="39.673779000" lon="-0.356678000">
  <ele>279.300000</ele>
  <time>2011-10-22T06:50:10Z</time>
</trkpt>
<trkpt lat="39.673767000" lon="-0.356688000">
  <ele>280.200000</ele>
  <time>2011-10-22T06:50:10Z</time>
</trkpt>
<trkpt lat="39.673752000" lon="-0.356687000">
  <ele>280.300000</ele>
  <time>2011-10-22T06:50:12Z</time>
</trkpt>
<trkpt lat="39.673736000" lon="-0.356658000">
  <ele>281.800000</ele>
  <time>2011-10-22T06:50:13Z</time>
</trkpt>
<trkpt lat="39.673711000" lon="-0.356624000">
  <ele>283.000000</ele>
  <time>2011-10-22T06:50:15Z</time>
</trkpt>
<trkpt lat="39.673689000" lon="-0.356595000">
  <ele>283.200000</ele>
  <time>2011-10-22T06:50:18Z</time>
</trkpt>
<trkpt lat="39.673647000" lon="-0.356529000">
  <ele>284.300000</ele>
  <time>2011-10-22T06:50:21Z</time>
</trkpt>
<trkpt lat="39.673634000" lon="-0.356515000">
  <ele>284.800000</ele>
  <time>2011-10-22T06:50:23Z</time>
</trkpt>
<trkpt lat="39.673612000" lon="-0.356483000">
  <ele>285.700000</ele>
  <time>2011-10-22T06:50:25Z</time>
</trkpt>
<trkpt lat="39.673596000" lon="-0.356468000">
  <ele>286.300000</ele>
  <time>2011-10-22T06:50:26Z</time>
</trkpt>
<trkpt lat="39.673531000" lon="-0.356411000">
  <ele>287.800000</ele>
  <time>2011-10-22T06:50:31Z</time>
</trkpt>
<trkpt lat="39.673327000" lon="-0.356251000">
  <ele>290.800000</ele>
  <time>2011-10-22T06:50:45Z</time>
</trkpt>
<trkpt lat="39.673313000" lon="-0.356242000">
  <ele>290.800000</ele>
  <time>2011-10-22T06:50:47Z</time>
</trkpt>
<trkpt lat="39.673296000" lon="-0.356237000">
  <ele>290.700000</ele>
  <time>2011-10-22T06:50:47Z</time>
</trkpt>
<trkpt lat="39.673276000" lon="-0.356238000">
  <ele>290.800000</ele>
  <time>2011-10-22T06:50:48Z</time>
</trkpt>
<trkpt lat="39.673216000" lon="-0.356242000">
  <ele>292.200000</ele>
  <time>2011-10-22T06:50:52Z</time>
</trkpt>
<trkpt lat="39.673198000" lon="-0.356245000">
  <ele>292.600000</ele>
  <time>2011-10-22T06:50:53Z</time>
</trkpt>
<trkpt lat="39.673185000" lon="-0.356259000">
  <ele>292.800000</ele>
  <time>2011-10-22T06:50:53Z</time>
</trkpt>
<trkpt lat="39.673028000" lon="-0.356414000">
  <ele>296.800000</ele>
  <time>2011-10-22T06:51:06Z</time>
</trkpt>
<trkpt lat="39.673019000" lon="-0.356429000">
  <ele>297.200000</ele>
  <time>2011-10-22T06:51:08Z</time>
</trkpt>
<trkpt lat="39.673008000" lon="-0.356440000">
  <ele>297.600000</ele>
  <time>2011-10-22T06:51:09Z</time>
</trkpt>
<trkpt lat="39.672993000" lon="-0.356453000">
  <ele>297.700000</ele>
  <time>2011-10-22T06:51:09Z</time>
</trkpt>
<trkpt lat="39.672968000" lon="-0.356473000">
  <ele>298.200000</ele>
  <time>2011-10-22T06:51:12Z</time>
</trkpt>
<trkpt lat="39.672960000" lon="-0.356487000">
  <ele>298.500000</ele>
  <time>2011-10-22T06:51:12Z</time>
</trkpt>
<trkpt lat="39.672923000" lon="-0.356519000">
  <ele>299.200000</ele>
  <time>2011-10-22T06:51:16Z</time>
</trkpt>
<trkpt lat="39.672908000" lon="-0.356526000">
  <ele>299.500000</ele>
  <time>2011-10-22T06:51:17Z</time>
</trkpt>
<trkpt lat="39.671592000" lon="-0.362500000">
  <ele>352.000000</ele>
  <time>2011-10-22T06:55:59Z</time>
</trkpt>
<trkpt lat="39.671566000" lon="-0.362538000">
  <ele>348.600000</ele>
  <time>2011-10-22T06:55:59Z</time>
</trkpt>
<trkpt lat="39.671554000" lon="-0.362587000">
  <ele>346.700000</ele>
  <time>2011-10-22T06:56:02Z</time>
</trkpt>
<trkpt lat="39.671543000" lon="-0.362605000">
  <ele>346.200000</ele>
  <time>2011-10-22T06:56:02Z</time>
</trkpt>
<trkpt lat="39.671530000" lon="-0.362636000">
  <ele>347.100000</ele>
  <time>2011-10-22T06:56:04Z</time>
</trkpt>
<trkpt lat="39.671525000" lon="-0.362667000">
  <ele>345.700000</ele>
  <time>2011-10-22T06:56:05Z</time>
</trkpt>
<trkpt lat="39.671523000" lon="-0.362740000">
  <ele>343.700000</ele>
  <time>2011-10-22T06:56:07Z</time>
</trkpt>
<trkpt lat="39.671514000" lon="-0.362768000">
  <ele>345.300000</ele>
  <time>2011-10-22T06:56:08Z</time>
</trkpt>
<trkpt lat="39.671501000" lon="-0.362821000">
  <ele>346.100000</ele>
  <time>2011-10-22T06:56:10Z</time>
</trkpt>
<trkpt lat="39.671463000" lon="-0.363115000">
  <ele>343.200000</ele>
  <time>2011-10-22T06:56:20Z</time>
</trkpt>
<trkpt lat="39.671472000" lon="-0.363174000">
  <ele>343.700000</ele>
  <time>2011-10-22T06:56:21Z</time>
</trkpt>
<trkpt lat="39.671476000" lon="-0.363203000">
  <ele>343.600000</ele>
  <time>2011-10-22T06:56:23Z</time>
</trkpt>
<trkpt lat="39.671468000" lon="-0.363263000">
  <ele>343.300000</ele>
  <time>2011-10-22T06:56:24Z</time>
</trkpt>
<trkpt lat="39.671437000" lon="-0.363339000">
  <ele>342.700000</ele>
  <time>2011-10-22T06:56:28Z</time>
</trkpt>
<trkpt lat="39.671394000" lon="-0.363502000">
  <ele>341.600000</ele>
  <time>2011-10-22T06:56:32Z</time>
</trkpt>
<trkpt lat="39.671343000" lon="-0.363750000">
  <ele>345.800000</ele>
  <time>2011-10-22T06:56:40Z</time>
</trkpt>
<trkpt lat="39.671327000" lon="-0.363876000">
  <ele>345.700000</ele>
  <time>2011-10-22T06:56:46Z</time>
</trkpt>
<trkpt lat="39.671215000" lon="-0.364139000">
  <ele>347.200000</ele>
  <time>2011-10-22T06:56:56Z</time>
</trkpt>
<trkpt lat="39.671204000" lon="-0.364160000">
  <ele>348.200000</ele>
  <time>2011-10-22T06:56:56Z</time>
</trkpt>
<trkpt lat="39.671173000" lon="-0.364186000">
  <ele>347.700000</ele>
  <time>2011-10-22T06:56:58Z</time>
</trkpt>
<trkpt lat="39.671163000" lon="-0.364191000">
  <ele>347.600000</ele>
  <time>2011-10-22T06:56:59Z</time>
</trkpt>
<trkpt lat="39.671146000" lon="-0.364212000">
  <ele>347.600000</ele>
  <time>2011-10-22T06:56:59Z</time>
</trkpt>
<trkpt lat="39.671114000" lon="-0.364278000">
  <ele>347.700000</ele>
  <time>2011-10-22T06:57:03Z</time>
</trkpt>
<trkpt lat="39.671098000" lon="-0.364284000">
  <ele>346.700000</ele>
  <time>2011-10-22T06:57:04Z</time>
</trkpt>
<trkpt lat="39.671074000" lon="-0.364289000">
  <ele>347.200000</ele>
  <time>2011-10-22T06:57:05Z</time>
</trkpt>
<trkpt lat="39.671049000" lon="-0.364294000">
  <ele>347.700000</ele>
  <time>2011-10-22T06:57:06Z</time>
</trkpt>
<trkpt lat="39.671015000" lon="-0.364331000">
  <ele>347.800000</ele>
  <time>2011-10-22T06:57:07Z</time>
</trkpt>
<trkpt lat="39.670977000" lon="-0.364354000">
  <ele>348.200000</ele>
  <time>2011-10-22T06:57:09Z</time>
</trkpt>
<trkpt lat="39.670942000" lon="-0.364384000">
  <ele>348.800000</ele>
  <time>2011-10-22T06:57:12Z</time>
</trkpt>
<trkpt lat="39.670937000" lon="-0.364411000">
  <ele>347.200000</ele>
  <time>2011-10-22T06:57:12Z</time>
</trkpt>
<trkpt lat="39.670929000" lon="-0.364434000">
  <ele>347.000000</ele>
  <time>2011-10-22T06:57:14Z</time>
</trkpt>
<trkpt lat="39.670913000" lon="-0.364501000">
  <ele>347.000000</ele>
  <time>2011-10-22T06:57:15Z</time>
</trkpt>
<trkpt lat="39.670905000" lon="-0.364537000">
  <ele>347.200000</ele>
  <time>2011-10-22T06:57:17Z</time>
</trkpt>
<trkpt lat="39.670908000" lon="-0.364572000">
  <ele>346.700000</ele>
  <time>2011-10-22T06:57:18Z</time>
</trkpt>
<trkpt lat="39.670892000" lon="-0.364735000">
  <ele>347.100000</ele>
  <time>2011-10-22T06:57:21Z</time>
</trkpt>
<trkpt lat="39.670882000" lon="-0.364794000">
  <ele>346.600000</ele>
  <time>2011-10-22T06:57:22Z</time>
</trkpt>
<trkpt lat="39.670863000" lon="-0.364844000">
  <ele>346.700000</ele>
  <time>2011-10-22T06:57:23Z</time>
</trkpt>
<trkpt lat="39.670841000" lon="-0.364881000">
  <ele>346.800000</ele>
  <time>2011-10-22T06:57:23Z</time>
</trkpt>
<trkpt lat="39.670794000" lon="-0.365025000">
  <ele>346.300000</ele>
  <time>2011-10-22T06:57:28Z</time>
</trkpt>
<trkpt lat="39.670814000" lon="-0.365054000">
  <ele>347.000000</ele>
  <time>2011-10-22T06:57:28Z</time>
</trkpt>
<trkpt lat="39.670816000" lon="-0.365091000">
  <ele>347.200000</ele>
  <time>2011-10-22T06:57:30Z</time>
</trkpt>
<trkpt lat="39.670811000" lon="-0.365127000">
  <ele>347.700000</ele>
  <time>2011-10-22T06:57:31Z</time>
</trkpt>
<trkpt lat="39.670801000" lon="-0.365197000">
  <ele>349.100000</ele>
  <time>2011-10-22T06:57:33Z</time>
</trkpt>
<trkpt lat="39.670810000" lon="-0.365221000">
  <ele>349.500000</ele>
  <time>2011-10-22T06:57:34Z</time>
</trkpt>
<trkpt lat="39.670841000" lon="-0.365327000">
  <ele>350.000000</ele>
  <time>2011-10-22T06:57:37Z</time>
</trkpt>
<trkpt lat="39.670855000" lon="-0.365361000">
  <ele>349.700000</ele>
  <time>2011-10-22T06:57:38Z</time>
</trkpt>
<trkpt lat="39.670919000" lon="-0.365554000">
  <ele>351.000000</ele>
  <time>2011-10-22T06:57:44Z</time>
</trkpt>
<trkpt lat="39.670930000" lon="-0.365614000">
  <ele>350.700000</ele>
  <time>2011-10-22T06:57:46Z</time>
</trkpt>
<trkpt lat="39.670948000" lon="-0.365714000">
  <ele>350.700000</ele>
  <time>2011-10-22T06:57:49Z</time>
</trkpt>
<trkpt lat="39.670957000" lon="-0.365753000">
  <ele>350.500000</ele>
  <time>2011-10-22T06:57:50Z</time>
</trkpt>
<trkpt lat="39.670977000" lon="-0.365808000">
  <ele>350.200000</ele>
  <time>2011-10-22T06:57:52Z</time>
</trkpt>
<trkpt lat="39.670992000" lon="-0.365825000">
  <ele>351.300000</ele>
  <time>2011-10-22T06:57:53Z</time>
</trkpt>
<trkpt lat="39.671022000" lon="-0.365863000">
  <ele>351.700000</ele>
  <time>2011-10-22T06:57:55Z</time>
</trkpt>
<trkpt lat="39.671045000" lon="-0.365865000">
  <ele>351.500000</ele>
  <time>2011-10-22T06:57:56Z</time>
</trkpt>
<trkpt lat="39.671071000" lon="-0.365874000">
  <ele>351.700000</ele>
  <time>2011-10-22T06:57:57Z</time>
</trkpt>
<trkpt lat="39.671086000" lon="-0.365882000">
  <ele>352.500000</ele>
  <time>2011-10-22T06:57:58Z</time>
</trkpt>
<trkpt lat="39.671157000" lon="-0.365914000">
  <ele>353.100000</ele>
  <time>2011-10-22T06:58:01Z</time>
</trkpt>
<trkpt lat="39.671195000" lon="-0.365925000">
  <ele>353.000000</ele>
  <time>2011-10-22T06:58:03Z</time>
</trkpt>
<trkpt lat="39.671259000" lon="-0.365928000">
  <ele>353.600000</ele>
  <time>2011-10-22T06:58:06Z</time>
</trkpt>
<trkpt lat="39.671271000" lon="-0.365927000">
  <ele>355.000000</ele>
  <time>2011-10-22T06:58:08Z</time>
</trkpt>
<trkpt lat="39.671284000" lon="-0.365891000">
  <ele>355.700000</ele>
  <time>2011-10-22T06:58:09Z</time>
</trkpt>
<trkpt lat="39.671302000" lon="-0.365841000">
  <ele>356.200000</ele>
  <time>2011-10-22T06:58:11Z</time>
</trkpt>
<trkpt lat="39.671303000" lon="-0.365814000">
  <ele>357.100000</ele>
  <time>2011-10-22T06:58:12Z</time>
</trkpt>
<trkpt lat="39.671306000" lon="-0.365792000">
  <ele>357.300000</ele>
  <time>2011-10-22T06:58:13Z</time>
</trkpt>
<trkpt lat="39.671296000" lon="-0.365738000">
  <ele>358.600000</ele>
  <time>2011-10-22T06:58:15Z</time>
</trkpt>
<trkpt lat="39.671292000" lon="-0.365712000">
  <ele>359.100000</ele>
  <time>2011-10-22T06:58:16Z</time>
</trkpt>
<trkpt lat="39.671280000" lon="-0.365696000">
  <ele>357.800000</ele>
  <time>2011-10-22T06:58:17Z</time>
</trkpt>
<trkpt lat="39.671270000" lon="-0.365684000">
  <ele>357.300000</ele>
  <time>2011-10-22T06:58:17Z</time>
</trkpt>
<trkpt lat="39.671263000" lon="-0.365666000">
  <ele>357.200000</ele>
  <time>2011-10-22T06:58:19Z</time>
</trkpt>
<trkpt lat="39.671225000" lon="-0.365558000">
  <ele>361.600000</ele>
  <time>2011-10-22T06:58:24Z</time>
</trkpt>
<trkpt lat="39.671223000" lon="-0.365534000">
  <ele>361.800000</ele>
  <time>2011-10-22T06:58:25Z</time>
</trkpt>
<trkpt lat="39.671215000" lon="-0.365425000">
  <ele>363.100000</ele>
  <time>2011-10-22T06:58:30Z</time>
</trkpt>
<trkpt lat="39.671217000" lon="-0.365404000">
  <ele>363.200000</ele>
  <time>2011-10-22T06:58:31Z</time>
</trkpt>
<trkpt lat="39.671230000" lon="-0.365334000">
  <ele>363.300000</ele>
  <time>2011-10-22T06:58:33Z</time>
</trkpt>
<trkpt lat="39.671242000" lon="-0.365294000">
  <ele>364.000000</ele>
  <time>2011-10-22T06:58:35Z</time>
</trkpt>
<trkpt lat="39.671256000" lon="-0.365239000">
  <ele>364.700000</ele>
  <time>2011-10-22T06:58:38Z</time>
</trkpt>
<trkpt lat="39.671263000" lon="-0.365221000">
  <ele>365.200000</ele>
  <time>2011-10-22T06:58:40Z</time>
</trkpt>
<trkpt lat="39.671272000" lon="-0.365203000">
  <ele>365.800000</ele>
  <time>2011-10-22T06:58:41Z</time>
</trkpt>
<trkpt lat="39.671281000" lon="-0.365183000">
  <ele>366.700000</ele>
  <time>2011-10-22T06:58:41Z</time>
</trkpt>
<trkpt lat="39.671292000" lon="-0.365168000">
  <ele>367.200000</ele>
  <time>2011-10-22T06:58:43Z</time>
</trkpt>
<trkpt lat="39.671441000" lon="-0.364975000">
  <ele>368.500000</ele>
  <time>2011-10-22T06:58:56Z</time>
</trkpt>
<trkpt lat="39.671454000" lon="-0.364963000">
  <ele>368.700000</ele>
  <time>2011-10-22T06:58:57Z</time>
</trkpt>
<trkpt lat="39.671469000" lon="-0.364954000">
  <ele>368.700000</ele>
  <time>2011-10-22T06:58:57Z</time>
</trkpt>
</trkseg>
</trk>
<trk>
  <name>2011-10-22-01_747-997</name>
  <desc>C:\Users\farnau\Documents\My Dropbox\Tracks\2011-10-22-01.gpx</desc>
<trkseg>
<trkpt lat="39.671469000" lon="-0.364954000">
  <ele>368.700000</ele>
  <time>2011-10-22T06:58:57Z</time>
</trkpt>
<trkpt lat="39.671523000" lon="-0.364930000">
  <ele>369.300000</ele>
  <time>2011-10-22T06:59:00Z</time>
</trkpt>
<trkpt lat="39.671611000" lon="-0.364912000">
  <ele>370.800000</ele>
  <time>2011-10-22T06:59:06Z</time>
</trkpt>
<trkpt lat="39.671632000" lon="-0.364910000">
  <ele>371.100000</ele>
  <time>2011-10-22T06:59:07Z</time>
</trkpt>
<trkpt lat="39.671646000" lon="-0.364908000">
  <ele>371.700000</ele>
  <time>2011-10-22T06:59:08Z</time>
</trkpt>
<trkpt lat="39.671659000" lon="-0.364912000">
  <ele>372.200000</ele>
  <time>2011-10-22T06:59:08Z</time>
</trkpt>
<trkpt lat="39.671688000" lon="-0.364928000">
  <ele>373.100000</ele>
  <time>2011-10-22T06:59:10Z</time>
</trkpt>
<trkpt lat="39.671772000" lon="-0.364991000">
  <ele>374.600000</ele>
  <time>2011-10-22T06:59:16Z</time>
</trkpt>
<trkpt lat="39.671786000" lon="-0.365005000">
  <ele>374.700000</ele>
  <time>2011-10-22T06:59:18Z</time>
</trkpt>
<trkpt lat="39.671900000" lon="-0.365133000">
  <ele>376.200000</ele>
  <time>2011-10-22T06:59:26Z</time>
</trkpt>
<trkpt lat="39.671937000" lon="-0.365187000">
  <ele>376.200000</ele>
  <time>2011-10-22T06:59:29Z</time>
</trkpt>
<trkpt lat="39.671947000" lon="-0.365203000">
  <ele>376.300000</ele>
  <time>2011-10-22T06:59:29Z</time>
</trkpt>
<trkpt lat="39.671967000" lon="-0.365245000">
  <ele>377.100000</ele>
  <time>2011-10-22T06:59:32Z</time>
</trkpt>
<trkpt lat="39.671999000" lon="-0.365318000">
  <ele>377.300000</ele>
  <time>2011-10-22T06:59:35Z</time>
</trkpt>
<trkpt lat="39.672005000" lon="-0.365360000">
  <ele>378.200000</ele>
  <time>2011-10-22T06:59:38Z</time>
</trkpt>
<trkpt lat="39.672048000" lon="-0.365582000">
  <ele>380.200000</ele>
  <time>2011-10-22T06:59:48Z</time>
</trkpt>
<trkpt lat="39.672050000" lon="-0.365612000">
  <ele>380.200000</ele>
  <time>2011-10-22T06:59:48Z</time>
</trkpt>
<trkpt lat="39.672047000" lon="-0.365731000">
  <ele>382.700000</ele>
  <time>2011-10-22T06:59:54Z</time>
</trkpt>
<trkpt lat="39.672053000" lon="-0.365746000">
  <ele>382.000000</ele>
  <time>2011-10-22T06:59:56Z</time>
</trkpt>
<trkpt lat="39.672060000" lon="-0.365769000">
  <ele>381.800000</ele>
  <time>2011-10-22T06:59:57Z</time>
</trkpt>
<trkpt lat="39.672061000" lon="-0.365787000">
  <ele>381.700000</ele>
  <time>2011-10-22T06:59:58Z</time>
</trkpt>
<trkpt lat="39.672077000" lon="-0.365965000">
  <ele>382.800000</ele>
  <time>2011-10-22T07:00:07Z</time>
</trkpt>
<trkpt lat="39.672087000" lon="-0.366006000">
  <ele>383.500000</ele>
  <time>2011-10-22T07:00:09Z</time>
</trkpt>
<trkpt lat="39.672092000" lon="-0.366027000">
  <ele>383.500000</ele>
  <time>2011-10-22T07:00:10Z</time>
</trkpt>
<trkpt lat="39.672115000" lon="-0.366171000">
  <ele>385.700000</ele>
  <time>2011-10-22T07:00:17Z</time>
</trkpt>
<trkpt lat="39.672115000" lon="-0.366190000">
  <ele>386.100000</ele>
  <time>2011-10-22T07:00:18Z</time>
</trkpt>
<trkpt lat="39.672124000" lon="-0.366208000">
  <ele>386.600000</ele>
  <time>2011-10-22T07:00:18Z</time>
</trkpt>
<trkpt lat="39.672133000" lon="-0.366228000">
  <ele>387.200000</ele>
  <time>2011-10-22T07:00:20Z</time>
</trkpt>
<trkpt lat="39.672140000" lon="-0.366247000">
  <ele>387.300000</ele>
  <time>2011-10-22T07:00:20Z</time>
</trkpt>
<trkpt lat="39.672193000" lon="-0.366420000">
  <ele>389.700000</ele>
  <time>2011-10-22T07:00:28Z</time>
</trkpt>
<trkpt lat="39.672209000" lon="-0.366496000">
  <ele>390.800000</ele>
  <time>2011-10-22T07:00:31Z</time>
</trkpt>
<trkpt lat="39.672216000" lon="-0.366524000">
  <ele>391.000000</ele>
  <time>2011-10-22T07:00:32Z</time>
</trkpt>
<trkpt lat="39.672245000" lon="-0.366600000">
  <ele>391.200000</ele>
  <time>2011-10-22T07:00:34Z</time>
</trkpt>
<trkpt lat="39.672284000" lon="-0.366706000">
  <ele>390.200000</ele>
  <time>2011-10-22T07:00:39Z</time>
</trkpt>
<trkpt lat="39.672295000" lon="-0.366745000">
  <ele>389.800000</ele>
  <time>2011-10-22T07:00:39Z</time>
</trkpt>
<trkpt lat="39.672311000" lon="-0.366828000">
  <ele>389.200000</ele>
  <time>2011-10-22T07:00:42Z</time>
</trkpt>
<trkpt lat="39.672312000" lon="-0.366867000">
  <ele>389.200000</ele>
  <time>2011-10-22T07:00:42Z</time>
</trkpt>
<trkpt lat="39.672315000" lon="-0.366903000">
  <ele>389.100000</ele>
  <time>2011-10-22T07:00:44Z</time>
</trkpt>
<trkpt lat="39.672284000" lon="-0.367139000">
  <ele>389.000000</ele>
  <time>2011-10-22T07:00:53Z</time>
</trkpt>
<trkpt lat="39.672281000" lon="-0.367173000">
  <ele>390.000000</ele>
  <time>2011-10-22T07:00:53Z</time>
</trkpt>
<trkpt lat="39.672271000" lon="-0.367199000">
  <ele>390.100000</ele>
  <time>2011-10-22T07:00:55Z</time>
</trkpt>
<trkpt lat="39.672250000" lon="-0.367220000">
  <ele>390.500000</ele>
  <time>2011-10-22T07:00:55Z</time>
</trkpt>
<trkpt lat="39.672239000" lon="-0.367235000">
  <ele>390.000000</ele>
  <time>2011-10-22T07:00:57Z</time>
</trkpt>
<trkpt lat="39.672209000" lon="-0.367263000">
  <ele>391.600000</ele>
  <time>2011-10-22T07:00:58Z</time>
</trkpt>
<trkpt lat="39.672191000" lon="-0.367276000">
  <ele>392.100000</ele>
  <time>2011-10-22T07:01:00Z</time>
</trkpt>
<trkpt lat="39.672175000" lon="-0.367283000">
  <ele>392.200000</ele>
  <time>2011-10-22T07:01:01Z</time>
</trkpt>
<trkpt lat="39.672142000" lon="-0.367297000">
  <ele>392.000000</ele>
  <time>2011-10-22T07:01:03Z</time>
</trkpt>
<trkpt lat="39.672128000" lon="-0.367314000">
  <ele>391.300000</ele>
  <time>2011-10-22T07:01:04Z</time>
</trkpt>
<trkpt lat="39.672103000" lon="-0.367339000">
  <ele>392.000000</ele>
  <time>2011-10-22T07:01:06Z</time>
</trkpt>
<trkpt lat="39.672095000" lon="-0.367360000">
  <ele>392.100000</ele>
  <time>2011-10-22T07:01:07Z</time>
</trkpt>
<trkpt lat="39.672092000" lon="-0.367388000">
  <ele>392.500000</ele>
  <time>2011-10-22T07:01:08Z</time>
</trkpt>
<trkpt lat="39.672087000" lon="-0.367411000">
  <ele>392.600000</ele>
  <time>2011-10-22T07:01:09Z</time>
</trkpt>
<trkpt lat="39.672078000" lon="-0.367428000">
  <ele>392.800000</ele>
  <time>2011-10-22T07:01:09Z</time>
</trkpt>
<trkpt lat="39.672070000" lon="-0.367445000">
  <ele>393.100000</ele>
  <time>2011-10-22T07:01:11Z</time>
</trkpt>
<trkpt lat="39.672058000" lon="-0.367462000">
  <ele>393.700000</ele>
  <time>2011-10-22T07:01:11Z</time>
</trkpt>
<trkpt lat="39.672035000" lon="-0.367498000">
  <ele>394.800000</ele>
  <time>2011-10-22T07:01:14Z</time>
</trkpt>
<trkpt lat="39.672020000" lon="-0.367514000">
  <ele>395.700000</ele>
  <time>2011-10-22T07:01:14Z</time>
</trkpt>
<trkpt lat="39.672004000" lon="-0.367529000">
  <ele>396.200000</ele>
  <time>2011-10-22T07:01:16Z</time>
</trkpt>
<trkpt lat="39.671989000" lon="-0.367542000">
  <ele>396.200000</ele>
  <time>2011-10-22T07:01:17Z</time>
</trkpt>
<trkpt lat="39.671960000" lon="-0.367560000">
  <ele>396.800000</ele>
  <time>2011-10-22T07:01:19Z</time>
</trkpt>
<trkpt lat="39.671896000" lon="-0.367572000">
  <ele>397.300000</ele>
  <time>2011-10-22T07:01:24Z</time>
</trkpt>
<trkpt lat="39.671880000" lon="-0.367557000">
  <ele>397.500000</ele>
  <time>2011-10-22T07:01:25Z</time>
</trkpt>
<trkpt lat="39.671860000" lon="-0.367543000">
  <ele>397.200000</ele>
  <time>2011-10-22T07:01:25Z</time>
</trkpt>
<trkpt lat="39.671845000" lon="-0.367559000">
  <ele>397.600000</ele>
  <time>2011-10-22T07:01:27Z</time>
</trkpt>
<trkpt lat="39.671821000" lon="-0.367566000">
  <ele>398.600000</ele>
  <time>2011-10-22T07:01:27Z</time>
</trkpt>
<trkpt lat="39.671779000" lon="-0.367590000">
  <ele>398.700000</ele>
  <time>2011-10-22T07:01:32Z</time>
</trkpt>
<trkpt lat="39.671767000" lon="-0.367611000">
  <ele>399.000000</ele>
  <time>2011-10-22T07:01:33Z</time>
</trkpt>
<trkpt lat="39.671724000" lon="-0.367668000">
  <ele>398.500000</ele>
  <time>2011-10-22T07:01:38Z</time>
</trkpt>
<trkpt lat="39.671711000" lon="-0.367682000">
  <ele>398.600000</ele>
  <time>2011-10-22T07:01:39Z</time>
</trkpt>
<trkpt lat="39.671546000" lon="-0.368122000">
  <ele>398.800000</ele>
  <time>2011-10-22T07:02:00Z</time>
</trkpt>
<trkpt lat="39.671517000" lon="-0.368158000">
  <ele>399.800000</ele>
  <time>2011-10-22T07:02:02Z</time>
</trkpt>
<trkpt lat="39.671516000" lon="-0.368174000">
  <ele>400.000000</ele>
  <time>2011-10-22T07:02:03Z</time>
</trkpt>
<trkpt lat="39.671498000" lon="-0.368349000">
  <ele>403.200000</ele>
  <time>2011-10-22T07:02:11Z</time>
</trkpt>
<trkpt lat="39.671474000" lon="-0.368648000">
  <ele>404.700000</ele>
  <time>2011-10-22T07:02:23Z</time>
</trkpt>
<trkpt lat="39.671475000" lon="-0.368692000">
  <ele>404.800000</ele>
  <time>2011-10-22T07:02:24Z</time>
</trkpt>
<trkpt lat="39.671448000" lon="-0.368915000">
  <ele>404.200000</ele>
  <time>2011-10-22T07:02:29Z</time>
</trkpt>
<trkpt lat="39.671435000" lon="-0.368963000">
  <ele>404.200000</ele>
  <time>2011-10-22T07:02:30Z</time>
</trkpt>
<trkpt lat="39.671420000" lon="-0.369009000">
  <ele>403.700000</ele>
  <time>2011-10-22T07:02:31Z</time>
</trkpt>
<trkpt lat="39.671372000" lon="-0.369117000">
  <ele>404.200000</ele>
  <time>2011-10-22T07:02:34Z</time>
</trkpt>
<trkpt lat="39.671296000" lon="-0.369266000">
  <ele>406.000000</ele>
  <time>2011-10-22T07:02:38Z</time>
</trkpt>
<trkpt lat="39.671288000" lon="-0.369298000">
  <ele>405.800000</ele>
  <time>2011-10-22T07:02:40Z</time>
</trkpt>
<trkpt lat="39.671242000" lon="-0.369515000">
  <ele>405.000000</ele>
  <time>2011-10-22T07:02:45Z</time>
</trkpt>
<trkpt lat="39.671236000" lon="-0.369595000">
  <ele>404.800000</ele>
  <time>2011-10-22T07:02:46Z</time>
</trkpt>
<trkpt lat="39.671245000" lon="-0.369633000">
  <ele>404.700000</ele>
  <time>2011-10-22T07:02:48Z</time>
</trkpt>
<trkpt lat="39.671247000" lon="-0.369673000">
  <ele>404.800000</ele>
  <time>2011-10-22T07:02:49Z</time>
</trkpt>
<trkpt lat="39.671279000" lon="-0.369944000">
  <ele>405.500000</ele>
  <time>2011-10-22T07:02:56Z</time>
</trkpt>
<trkpt lat="39.671290000" lon="-0.370012000">
  <ele>405.800000</ele>
  <time>2011-10-22T07:02:58Z</time>
</trkpt>
<trkpt lat="39.671304000" lon="-0.370044000">
  <ele>406.000000</ele>
  <time>2011-10-22T07:02:59Z</time>
</trkpt>
<trkpt lat="39.671362000" lon="-0.370132000">
  <ele>406.200000</ele>
  <time>2011-10-22T07:03:02Z</time>
</trkpt>
<trkpt lat="39.671425000" lon="-0.370209000">
  <ele>406.600000</ele>
  <time>2011-10-22T07:03:05Z</time>
</trkpt>
<trkpt lat="39.671497000" lon="-0.370315000">
  <ele>408.000000</ele>
  <time>2011-10-22T07:03:09Z</time>
</trkpt>
<trkpt lat="39.671504000" lon="-0.370345000">
  <ele>408.200000</ele>
  <time>2011-10-22T07:03:10Z</time>
</trkpt>
<trkpt lat="39.671491000" lon="-0.370371000">
  <ele>406.600000</ele>
  <time>2011-10-22T07:03:10Z</time>
</trkpt>
<trkpt lat="39.671497000" lon="-0.370403000">
  <ele>406.100000</ele>
  <time>2011-10-22T07:03:12Z</time>
</trkpt>
<trkpt lat="39.671496000" lon="-0.370487000">
  <ele>404.700000</ele>
  <time>2011-10-22T07:03:15Z</time>
</trkpt>
<trkpt lat="39.671496000" lon="-0.370516000">
  <ele>404.700000</ele>
  <time>2011-10-22T07:03:15Z</time>
</trkpt>
<trkpt lat="39.671091000" lon="-0.372387000">
  <ele>422.700000</ele>
  <time>2011-10-22T07:03:53Z</time>
</trkpt>
<trkpt lat="39.671098000" lon="-0.372689000">
  <ele>394.500000</ele>
  <time>2011-10-22T07:03:56Z</time>
</trkpt>
<trkpt lat="39.671087000" lon="-0.372776000">
  <ele>396.000000</ele>
  <time>2011-10-22T07:03:58Z</time>
</trkpt>
<trkpt lat="39.671083000" lon="-0.372857000">
  <ele>397.200000</ele>
  <time>2011-10-22T07:03:59Z</time>
</trkpt>
<trkpt lat="39.671085000" lon="-0.372937000">
  <ele>396.100000</ele>
  <time>2011-10-22T07:04:00Z</time>
</trkpt>
<trkpt lat="39.671101000" lon="-0.373005000">
  <ele>396.700000</ele>
  <time>2011-10-22T07:04:01Z</time>
</trkpt>
<trkpt lat="39.671126000" lon="-0.373055000">
  <ele>398.800000</ele>
  <time>2011-10-22T07:04:01Z</time>
</trkpt>
<trkpt lat="39.671153000" lon="-0.373091000">
  <ele>399.700000</ele>
  <time>2011-10-22T07:04:03Z</time>
</trkpt>
<trkpt lat="39.671237000" lon="-0.373215000">
  <ele>401.300000</ele>
  <time>2011-10-22T07:04:06Z</time>
</trkpt>
<trkpt lat="39.671248000" lon="-0.373248000">
  <ele>402.000000</ele>
  <time>2011-10-22T07:04:08Z</time>
</trkpt>
<trkpt lat="39.671262000" lon="-0.373273000">
  <ele>402.700000</ele>
  <time>2011-10-22T07:04:09Z</time>
</trkpt>
<trkpt lat="39.671352000" lon="-0.373409000">
  <ele>403.700000</ele>
  <time>2011-10-22T07:04:15Z</time>
</trkpt>
<trkpt lat="39.671371000" lon="-0.373428000">
  <ele>403.700000</ele>
  <time>2011-10-22T07:04:16Z</time>
</trkpt>
<trkpt lat="39.671394000" lon="-0.373440000">
  <ele>403.700000</ele>
  <time>2011-10-22T07:04:17Z</time>
</trkpt>
<trkpt lat="39.671593000" lon="-0.373537000">
  <ele>405.000000</ele>
  <time>2011-10-22T07:04:25Z</time>
</trkpt>
<trkpt lat="39.671613000" lon="-0.373551000">
  <ele>405.600000</ele>
  <time>2011-10-22T07:04:25Z</time>
</trkpt>
<trkpt lat="39.671996000" lon="-0.373826000">
  <ele>410.500000</ele>
  <time>2011-10-22T07:04:44Z</time>
</trkpt>
<trkpt lat="39.672036000" lon="-0.373869000">
  <ele>410.800000</ele>
  <time>2011-10-22T07:04:46Z</time>
</trkpt>
<trkpt lat="39.672067000" lon="-0.373915000">
  <ele>411.300000</ele>
  <time>2011-10-22T07:04:47Z</time>
</trkpt>
<trkpt lat="39.672072000" lon="-0.373947000">
  <ele>411.800000</ele>
  <time>2011-10-22T07:04:49Z</time>
</trkpt>
<trkpt lat="39.672086000" lon="-0.374008000">
  <ele>412.200000</ele>
  <time>2011-10-22T07:04:51Z</time>
</trkpt>
<trkpt lat="39.672087000" lon="-0.374037000">
  <ele>413.200000</ele>
  <time>2011-10-22T07:04:52Z</time>
</trkpt>
<trkpt lat="39.672084000" lon="-0.374065000">
  <ele>413.600000</ele>
  <time>2011-10-22T07:04:53Z</time>
</trkpt>
<trkpt lat="39.672059000" lon="-0.374194000">
  <ele>413.200000</ele>
  <time>2011-10-22T07:04:57Z</time>
</trkpt>
<trkpt lat="39.672052000" lon="-0.374226000">
  <ele>413.100000</ele>
  <time>2011-10-22T07:04:57Z</time>
</trkpt>
<trkpt lat="39.671936000" lon="-0.374715000">
  <ele>413.300000</ele>
  <time>2011-10-22T07:05:11Z</time>
</trkpt>
<trkpt lat="39.671760000" lon="-0.375245000">
  <ele>409.700000</ele>
  <time>2011-10-22T07:05:22Z</time>
</trkpt>
<trkpt lat="39.671751000" lon="-0.375294000">
  <ele>410.500000</ele>
  <time>2011-10-22T07:05:22Z</time>
</trkpt>
<trkpt lat="39.671739000" lon="-0.375338000">
  <ele>411.100000</ele>
  <time>2011-10-22T07:05:24Z</time>
</trkpt>
<trkpt lat="39.671684000" lon="-0.375552000">
  <ele>412.500000</ele>
  <time>2011-10-22T07:05:29Z</time>
</trkpt>
<trkpt lat="39.671683000" lon="-0.375589000">
  <ele>413.100000</ele>
  <time>2011-10-22T07:05:29Z</time>
</trkpt>
<trkpt lat="39.671686000" lon="-0.375659000">
  <ele>414.500000</ele>
  <time>2011-10-22T07:05:32Z</time>
</trkpt>
<trkpt lat="39.671692000" lon="-0.375689000">
  <ele>415.600000</ele>
  <time>2011-10-22T07:05:32Z</time>
</trkpt>
<trkpt lat="39.671720000" lon="-0.375787000">
  <ele>417.100000</ele>
  <time>2011-10-22T07:05:37Z</time>
</trkpt>
<trkpt lat="39.671738000" lon="-0.375821000">
  <ele>417.100000</ele>
  <time>2011-10-22T07:05:38Z</time>
</trkpt>
<trkpt lat="39.671740000" lon="-0.375827000">
  <ele>417.200000</ele>
  <time>2011-10-22T07:05:40Z</time>
</trkpt>
<trkpt lat="39.671735000" lon="-0.375825000">
  <ele>417.000000</ele>
  <time>2011-10-22T07:05:41Z</time>
</trkpt>
<trkpt lat="39.671735000" lon="-0.375824000">
  <ele>417.000000</ele>
  <time>2011-10-22T07:05:42Z</time>
</trkpt>
<trkpt lat="39.671735000" lon="-0.375824000">
  <ele>417.000000</ele>
  <time>2011-10-22T07:05:43Z</time>
</trkpt>
<trkpt lat="39.671736000" lon="-0.375825000">
  <ele>417.000000</ele>
  <time>2011-10-22T07:05:44Z</time>
</trkpt>
<trkpt lat="39.671737000" lon="-0.375825000">
  <ele>417.000000</ele>
  <time>2011-10-22T07:05:45Z</time>
</trkpt>
<trkpt lat="39.671738000" lon="-0.375825000">
  <ele>417.000000</ele>
  <time>2011-10-22T07:05:46Z</time>
</trkpt>
<trkpt lat="39.671737000" lon="-0.375824000">
  <ele>417.000000</ele>
  <time>2011-10-22T07:05:46Z</time>
</trkpt>
<trkpt lat="39.671737000" lon="-0.375825000">
  <ele>416.800000</ele>
  <time>2011-10-22T07:05:48Z</time>
</trkpt>
<trkpt lat="39.671737000" lon="-0.375824000">
  <ele>416.800000</ele>
  <time>2011-10-22T07:05:48Z</time>
</trkpt>
<trkpt lat="39.671736000" lon="-0.375824000">
  <ele>416.800000</ele>
  <time>2011-10-22T07:05:50Z</time>
</trkpt>
<trkpt lat="39.671735000" lon="-0.375824000">
  <ele>416.800000</ele>
  <time>2011-10-22T07:05:51Z</time>
</trkpt>
<trkpt lat="39.671735000" lon="-0.375824000">
  <ele>416.800000</ele>
  <time>2011-10-22T07:05:51Z</time>
</trkpt>
<trkpt lat="39.671735000" lon="-0.375824000">
  <ele>416.800000</ele>
  <time>2011-10-22T07:05:53Z</time>
</trkpt>
<trkpt lat="39.671735000" lon="-0.375824000">
  <ele>416.800000</ele>
  <time>2011-10-22T07:05:54Z</time>
</trkpt>
<trkpt lat="39.671731000" lon="-0.375833000">
  <ele>417.100000</ele>
  <time>2011-10-22T07:05:54Z</time>
</trkpt>
<trkpt lat="39.671737000" lon="-0.375848000">
  <ele>418.300000</ele>
  <time>2011-10-22T07:05:56Z</time>
</trkpt>
<trkpt lat="39.671737000" lon="-0.375865000">
  <ele>418.500000</ele>
  <time>2011-10-22T07:05:57Z</time>
</trkpt>
<trkpt lat="39.671746000" lon="-0.375884000">
  <ele>418.800000</ele>
  <time>2011-10-22T07:05:57Z</time>
</trkpt>
<trkpt lat="39.671759000" lon="-0.375897000">
  <ele>418.200000</ele>
  <time>2011-10-22T07:05:59Z</time>
</trkpt>
<trkpt lat="39.672016000" lon="-0.376184000">
  <ele>418.200000</ele>
  <time>2011-10-22T07:06:47Z</time>
</trkpt>
<trkpt lat="39.672035000" lon="-0.376213000">
  <ele>418.000000</ele>
  <time>2011-10-22T07:06:48Z</time>
</trkpt>
<trkpt lat="39.672062000" lon="-0.376265000">
  <ele>417.700000</ele>
  <time>2011-10-22T07:06:50Z</time>
</trkpt>
<trkpt lat="39.672086000" lon="-0.376321000">
  <ele>417.100000</ele>
  <time>2011-10-22T07:06:52Z</time>
</trkpt>
<trkpt lat="39.672097000" lon="-0.376357000">
  <ele>416.700000</ele>
  <time>2011-10-22T07:06:53Z</time>
</trkpt>
<trkpt lat="39.672109000" lon="-0.376409000">
  <ele>416.800000</ele>
  <time>2011-10-22T07:06:54Z</time>
</trkpt>
<trkpt lat="39.672123000" lon="-0.376520000">
  <ele>416.700000</ele>
  <time>2011-10-22T07:06:56Z</time>
</trkpt>
<trkpt lat="39.672149000" lon="-0.376758000">
  <ele>415.200000</ele>
  <time>2011-10-22T07:06:58Z</time>
</trkpt>
<trkpt lat="39.672189000" lon="-0.376835000">
  <ele>415.100000</ele>
  <time>2011-10-22T07:07:00Z</time>
</trkpt>
<trkpt lat="39.672441000" lon="-0.377197000">
  <ele>411.300000</ele>
  <time>2011-10-22T07:07:04Z</time>
</trkpt>
<trkpt lat="39.672500000" lon="-0.377239000">
  <ele>411.100000</ele>
  <time>2011-10-22T07:07:06Z</time>
</trkpt>
<trkpt lat="39.672652000" lon="-0.377296000">
  <ele>409.100000</ele>
  <time>2011-10-22T07:07:08Z</time>
</trkpt>
<trkpt lat="39.672734000" lon="-0.377305000">
  <ele>408.100000</ele>
  <time>2011-10-22T07:07:09Z</time>
</trkpt>
<trkpt lat="39.672825000" lon="-0.377294000">
  <ele>407.000000</ele>
  <time>2011-10-22T07:07:10Z</time>
</trkpt>
<trkpt lat="39.672912000" lon="-0.377261000">
  <ele>406.200000</ele>
  <time>2011-10-22T07:07:11Z</time>
</trkpt>
<trkpt lat="39.673118000" lon="-0.377210000">
  <ele>404.000000</ele>
  <time>2011-10-22T07:07:12Z</time>
</trkpt>
<trkpt lat="39.673833000" lon="-0.377083000">
  <ele>392.300000</ele>
  <time>2011-10-22T07:07:22Z</time>
</trkpt>
<trkpt lat="39.673877000" lon="-0.377105000">
  <ele>390.700000</ele>
  <time>2011-10-22T07:07:23Z</time>
</trkpt>
<trkpt lat="39.673942000" lon="-0.377169000">
  <ele>389.800000</ele>
  <time>2011-10-22T07:07:25Z</time>
</trkpt>
<trkpt lat="39.673952000" lon="-0.377249000">
  <ele>389.200000</ele>
  <time>2011-10-22T07:07:26Z</time>
</trkpt>
<trkpt lat="39.673966000" lon="-0.377317000">
  <ele>388.700000</ele>
  <time>2011-10-22T07:07:27Z</time>
</trkpt>
<trkpt lat="39.674017000" lon="-0.377461000">
  <ele>387.300000</ele>
  <time>2011-10-22T07:07:28Z</time>
</trkpt>
<trkpt lat="39.674060000" lon="-0.377584000">
  <ele>386.100000</ele>
  <time>2011-10-22T07:07:31Z</time>
</trkpt>
<trkpt lat="39.674073000" lon="-0.377612000">
  <ele>385.200000</ele>
  <time>2011-10-22T07:07:31Z</time>
</trkpt>
<trkpt lat="39.674092000" lon="-0.377634000">
  <ele>385.000000</ele>
  <time>2011-10-22T07:07:33Z</time>
</trkpt>
<trkpt lat="39.674147000" lon="-0.377701000">
  <ele>383.300000</ele>
  <time>2011-10-22T07:07:45Z</time>
</trkpt>
<trkpt lat="39.674175000" lon="-0.377718000">
  <ele>383.700000</ele>
  <time>2011-10-22T07:07:46Z</time>
</trkpt>
<trkpt lat="39.674219000" lon="-0.377724000">
  <ele>384.200000</ele>
  <time>2011-10-22T07:07:47Z</time>
</trkpt>
<trkpt lat="39.674259000" lon="-0.377725000">
  <ele>384.600000</ele>
  <time>2011-10-22T07:07:47Z</time>
</trkpt>
<trkpt lat="39.674413000" lon="-0.377735000">
  <ele>382.000000</ele>
  <time>2011-10-22T07:07:50Z</time>
</trkpt>
<trkpt lat="39.674470000" lon="-0.377717000">
  <ele>381.100000</ele>
  <time>2011-10-22T07:07:52Z</time>
</trkpt>
<trkpt lat="39.674528000" lon="-0.377690000">
  <ele>380.700000</ele>
  <time>2011-10-22T07:07:52Z</time>
</trkpt>
<trkpt lat="39.674908000" lon="-0.377575000">
  <ele>377.200000</ele>
  <time>2011-10-22T07:07:58Z</time>
</trkpt>
<trkpt lat="39.674979000" lon="-0.377560000">
  <ele>377.100000</ele>
  <time>2011-10-22T07:07:58Z</time>
</trkpt>
<trkpt lat="39.675043000" lon="-0.377559000">
  <ele>376.300000</ele>
  <time>2011-10-22T07:08:00Z</time>
</trkpt>
<trkpt lat="39.675103000" lon="-0.377573000">
  <ele>375.700000</ele>
  <time>2011-10-22T07:08:01Z</time>
</trkpt>
<trkpt lat="39.675152000" lon="-0.377600000">
  <ele>374.600000</ele>
  <time>2011-10-22T07:08:02Z</time>
</trkpt>
<trkpt lat="39.675206000" lon="-0.377650000">
  <ele>373.800000</ele>
  <time>2011-10-22T07:08:03Z</time>
</trkpt>
<trkpt lat="39.675248000" lon="-0.377715000">
  <ele>373.100000</ele>
  <time>2011-10-22T07:08:03Z</time>
</trkpt>
<trkpt lat="39.675357000" lon="-0.377856000">
  <ele>369.600000</ele>
  <time>2011-10-22T07:08:05Z</time>
</trkpt>
<trkpt lat="39.675425000" lon="-0.377918000">
  <ele>368.700000</ele>
  <time>2011-10-22T07:08:06Z</time>
</trkpt>
<trkpt lat="39.675500000" lon="-0.377955000">
  <ele>368.100000</ele>
  <time>2011-10-22T07:08:08Z</time>
</trkpt>
<trkpt lat="39.675581000" lon="-0.377976000">
  <ele>366.700000</ele>
  <time>2011-10-22T07:08:08Z</time>
</trkpt>
<trkpt lat="39.675662000" lon="-0.377982000">
  <ele>365.700000</ele>
  <time>2011-10-22T07:08:10Z</time>
</trkpt>
<trkpt lat="39.675735000" lon="-0.377958000">
  <ele>365.200000</ele>
  <time>2011-10-22T07:08:11Z</time>
</trkpt>
<trkpt lat="39.675776000" lon="-0.377915000">
  <ele>364.500000</ele>
  <time>2011-10-22T07:08:11Z</time>
</trkpt>
<trkpt lat="39.675862000" lon="-0.377812000">
  <ele>362.300000</ele>
  <time>2011-10-22T07:08:14Z</time>
</trkpt>
<trkpt lat="39.675897000" lon="-0.377739000">
  <ele>361.500000</ele>
  <time>2011-10-22T07:08:14Z</time>
</trkpt>
<trkpt lat="39.675939000" lon="-0.377551000">
  <ele>358.200000</ele>
  <time>2011-10-22T07:08:17Z</time>
</trkpt>
<trkpt lat="39.675968000" lon="-0.377438000">
  <ele>356.700000</ele>
  <time>2011-10-22T07:08:18Z</time>
</trkpt>
<trkpt lat="39.676119000" lon="-0.376835000">
  <ele>349.100000</ele>
  <time>2011-10-22T07:08:24Z</time>
</trkpt>
<trkpt lat="39.676149000" lon="-0.376799000">
  <ele>348.700000</ele>
  <time>2011-10-22T07:08:24Z</time>
</trkpt>
<trkpt lat="39.676190000" lon="-0.376776000">
  <ele>347.800000</ele>
  <time>2011-10-22T07:08:26Z</time>
</trkpt>
<trkpt lat="39.676235000" lon="-0.376762000">
  <ele>347.200000</ele>
  <time>2011-10-22T07:08:27Z</time>
</trkpt>
<trkpt lat="39.676294000" lon="-0.376767000">
  <ele>346.700000</ele>
  <time>2011-10-22T07:08:27Z</time>
</trkpt>
<trkpt lat="39.676353000" lon="-0.376771000">
  <ele>345.800000</ele>
  <time>2011-10-22T07:08:29Z</time>
</trkpt>
<trkpt lat="39.676417000" lon="-0.376792000">
  <ele>344.700000</ele>
  <time>2011-10-22T07:08:30Z</time>
</trkpt>
<trkpt lat="39.676474000" lon="-0.376821000">
  <ele>343.700000</ele>
  <time>2011-10-22T07:08:30Z</time>
</trkpt>
<trkpt lat="39.676526000" lon="-0.376868000">
  <ele>343.200000</ele>
  <time>2011-10-22T07:08:32Z</time>
</trkpt>
<trkpt lat="39.676567000" lon="-0.376940000">
  <ele>343.200000</ele>
  <time>2011-10-22T07:08:33Z</time>
</trkpt>
<trkpt lat="39.676635000" lon="-0.377114000">
  <ele>342.100000</ele>
  <time>2011-10-22T07:08:35Z</time>
</trkpt>
<trkpt lat="39.676711000" lon="-0.377358000">
  <ele>340.200000</ele>
  <time>2011-10-22T07:08:38Z</time>
</trkpt>
<trkpt lat="39.676735000" lon="-0.377516000">
  <ele>339.700000</ele>
  <time>2011-10-22T07:08:40Z</time>
</trkpt>
<trkpt lat="39.676715000" lon="-0.377602000">
  <ele>338.800000</ele>
  <time>2011-10-22T07:08:40Z</time>
</trkpt>
<trkpt lat="39.676704000" lon="-0.377744000">
  <ele>337.000000</ele>
  <time>2011-10-22T07:08:43Z</time>
</trkpt>
<trkpt lat="39.676698000" lon="-0.377809000">
  <ele>335.800000</ele>
  <time>2011-10-22T07:08:43Z</time>
</trkpt>
<trkpt lat="39.676706000" lon="-0.377864000">
  <ele>335.100000</ele>
  <time>2011-10-22T07:08:45Z</time>
</trkpt>
<trkpt lat="39.676734000" lon="-0.377912000">
  <ele>334.600000</ele>
  <time>2011-10-22T07:08:46Z</time>
</trkpt>
<trkpt lat="39.676789000" lon="-0.377942000">
  <ele>334.600000</ele>
  <time>2011-10-22T07:08:46Z</time>
</trkpt>
<trkpt lat="39.676826000" lon="-0.377981000">
  <ele>334.200000</ele>
  <time>2011-10-22T07:08:48Z</time>
</trkpt>
<trkpt lat="39.677039000" lon="-0.378204000">
  <ele>332.200000</ele>
  <time>2011-10-22T07:08:52Z</time>
</trkpt>
<trkpt lat="39.677081000" lon="-0.378282000">
  <ele>331.000000</ele>
  <time>2011-10-22T07:08:53Z</time>
</trkpt>
<trkpt lat="39.677115000" lon="-0.378368000">
  <ele>330.500000</ele>
  <time>2011-10-22T07:08:54Z</time>
</trkpt>
<trkpt lat="39.677133000" lon="-0.378454000">
  <ele>330.500000</ele>
  <time>2011-10-22T07:08:55Z</time>
</trkpt>
<trkpt lat="39.677133000" lon="-0.378550000">
  <ele>330.500000</ele>
  <time>2011-10-22T07:08:56Z</time>
</trkpt>
<trkpt lat="39.677116000" lon="-0.378743000">
  <ele>328.200000</ele>
  <time>2011-10-22T07:08:57Z</time>
</trkpt>
<trkpt lat="39.677098000" lon="-0.378832000">
  <ele>327.100000</ele>
  <time>2011-10-22T07:08:59Z</time>
</trkpt>
<trkpt lat="39.677071000" lon="-0.378900000">
  <ele>325.200000</ele>
  <time>2011-10-22T07:08:59Z</time>
</trkpt>
<trkpt lat="39.677031000" lon="-0.379032000">
  <ele>322.600000</ele>
  <time>2011-10-22T07:09:02Z</time>
</trkpt>
<trkpt lat="39.677036000" lon="-0.379096000">
  <ele>322.700000</ele>
  <time>2011-10-22T07:09:02Z</time>
</trkpt>
<trkpt lat="39.677076000" lon="-0.379151000">
  <ele>323.000000</ele>
  <time>2011-10-22T07:09:04Z</time>
</trkpt>
<trkpt lat="39.677111000" lon="-0.379216000">
  <ele>323.500000</ele>
  <time>2011-10-22T07:09:05Z</time>
</trkpt>
<trkpt lat="39.677170000" lon="-0.379362000">
  <ele>323.100000</ele>
  <time>2011-10-22T07:09:07Z</time>
</trkpt>
<trkpt lat="39.677181000" lon="-0.379450000">
  <ele>321.800000</ele>
  <time>2011-10-22T07:09:08Z</time>
</trkpt>
<trkpt lat="39.677202000" lon="-0.379532000">
  <ele>320.200000</ele>
  <time>2011-10-22T07:09:09Z</time>
</trkpt>
<trkpt lat="39.677234000" lon="-0.379613000">
  <ele>319.500000</ele>
  <time>2011-10-22T07:09:10Z</time>
</trkpt>
<trkpt lat="39.677269000" lon="-0.379689000">
  <ele>318.300000</ele>
  <time>2011-10-22T07:09:11Z</time>
</trkpt>
<trkpt lat="39.677311000" lon="-0.379752000">
  <ele>318.000000</ele>
  <time>2011-10-22T07:09:12Z</time>
</trkpt>
<trkpt lat="39.677395000" lon="-0.379841000">
  <ele>317.000000</ele>
  <time>2011-10-22T07:09:13Z</time>
</trkpt>
<trkpt lat="39.677439000" lon="-0.379860000">
  <ele>316.800000</ele>
  <time>2011-10-22T07:09:15Z</time>
</trkpt>
<trkpt lat="39.677490000" lon="-0.379864000">
  <ele>316.700000</ele>
  <time>2011-10-22T07:09:15Z</time>
</trkpt>
<trkpt lat="39.677536000" lon="-0.379858000">
  <ele>316.700000</ele>
  <time>2011-10-22T07:09:16Z</time>
</trkpt>
<trkpt lat="39.677582000" lon="-0.379813000">
  <ele>317.100000</ele>
  <time>2011-10-22T07:09:18Z</time>
</trkpt>
<trkpt lat="39.677627000" lon="-0.379721000">
  <ele>316.300000</ele>
  <time>2011-10-22T07:09:18Z</time>
</trkpt>
<trkpt lat="39.677655000" lon="-0.379648000">
  <ele>315.300000</ele>
  <time>2011-10-22T07:09:20Z</time>
</trkpt>
<trkpt lat="39.677680000" lon="-0.379566000">
  <ele>314.700000</ele>
  <time>2011-10-22T07:09:21Z</time>
</trkpt>
<trkpt lat="39.677689000" lon="-0.379488000">
  <ele>314.300000</ele>
  <time>2011-10-22T07:09:21Z</time>
</trkpt>
<trkpt lat="39.677684000" lon="-0.379328000">
  <ele>314.100000</ele>
  <time>2011-10-22T07:09:24Z</time>
</trkpt>
<trkpt lat="39.677672000" lon="-0.379246000">
  <ele>313.800000</ele>
  <time>2011-10-22T07:09:24Z</time>
</trkpt>
</trkseg>
</trk>
<trk>
  <name>2011-10-22-01_996-1246</name>
  <desc>C:\Users\farnau\Documents\My Dropbox\Tracks\2011-10-22-01.gpx</desc>
<trkseg>
<trkpt lat="39.677672000" lon="-0.379246000">
  <ele>313.800000</ele>
  <time>2011-10-22T07:09:24Z</time>
</trkpt>
<trkpt lat="39.677657000" lon="-0.379071000">
  <ele>313.700000</ele>
  <time>2011-10-22T07:09:27Z</time>
</trkpt>
<trkpt lat="39.677666000" lon="-0.378982000">
  <ele>312.700000</ele>
  <time>2011-10-22T07:09:28Z</time>
</trkpt>
<trkpt lat="39.677689000" lon="-0.378901000">
  <ele>311.600000</ele>
  <time>2011-10-22T07:09:29Z</time>
</trkpt>
<trkpt lat="39.677750000" lon="-0.378740000">
  <ele>310.500000</ele>
  <time>2011-10-22T07:09:31Z</time>
</trkpt>
<trkpt lat="39.677843000" lon="-0.378574000">
  <ele>308.100000</ele>
  <time>2011-10-22T07:09:32Z</time>
</trkpt>
<trkpt lat="39.677983000" lon="-0.378317000">
  <ele>306.700000</ele>
  <time>2011-10-22T07:09:36Z</time>
</trkpt>
<trkpt lat="39.678017000" lon="-0.378220000">
  <ele>306.300000</ele>
  <time>2011-10-22T07:09:37Z</time>
</trkpt>
<trkpt lat="39.678039000" lon="-0.378123000">
  <ele>306.100000</ele>
  <time>2011-10-22T07:09:37Z</time>
</trkpt>
<trkpt lat="39.678044000" lon="-0.378021000">
  <ele>305.300000</ele>
  <time>2011-10-22T07:09:39Z</time>
</trkpt>
<trkpt lat="39.678034000" lon="-0.377833000">
  <ele>305.700000</ele>
  <time>2011-10-22T07:09:40Z</time>
</trkpt>
<trkpt lat="39.678047000" lon="-0.377614000">
  <ele>306.000000</ele>
  <time>2011-10-22T07:09:44Z</time>
</trkpt>
<trkpt lat="39.678067000" lon="-0.377575000">
  <ele>306.200000</ele>
  <time>2011-10-22T07:09:45Z</time>
</trkpt>
<trkpt lat="39.678115000" lon="-0.377500000">
  <ele>307.000000</ele>
  <time>2011-10-22T07:09:47Z</time>
</trkpt>
<trkpt lat="39.678250000" lon="-0.377303000">
  <ele>309.200000</ele>
  <time>2011-10-22T07:09:53Z</time>
</trkpt>
<trkpt lat="39.678290000" lon="-0.377230000">
  <ele>308.800000</ele>
  <time>2011-10-22T07:09:55Z</time>
</trkpt>
<trkpt lat="39.678381000" lon="-0.377118000">
  <ele>305.800000</ele>
  <time>2011-10-22T07:09:58Z</time>
</trkpt>
<trkpt lat="39.678424000" lon="-0.377090000">
  <ele>305.800000</ele>
  <time>2011-10-22T07:09:59Z</time>
</trkpt>
<trkpt lat="39.678475000" lon="-0.377074000">
  <ele>305.500000</ele>
  <time>2011-10-22T07:09:59Z</time>
</trkpt>
<trkpt lat="39.678568000" lon="-0.377028000">
  <ele>304.100000</ele>
  <time>2011-10-22T07:10:02Z</time>
</trkpt>
<trkpt lat="39.678606000" lon="-0.376992000">
  <ele>303.700000</ele>
  <time>2011-10-22T07:10:03Z</time>
</trkpt>
<trkpt lat="39.678633000" lon="-0.376945000">
  <ele>303.300000</ele>
  <time>2011-10-22T07:10:04Z</time>
</trkpt>
<trkpt lat="39.678644000" lon="-0.376886000">
  <ele>303.300000</ele>
  <time>2011-10-22T07:10:04Z</time>
</trkpt>
<trkpt lat="39.678699000" lon="-0.376634000">
  <ele>301.600000</ele>
  <time>2011-10-22T07:10:09Z</time>
</trkpt>
<trkpt lat="39.678724000" lon="-0.376570000">
  <ele>301.100000</ele>
  <time>2011-10-22T07:10:09Z</time>
</trkpt>
<trkpt lat="39.678823000" lon="-0.376324000">
  <ele>300.100000</ele>
  <time>2011-10-22T07:10:14Z</time>
</trkpt>
<trkpt lat="39.678865000" lon="-0.376307000">
  <ele>299.300000</ele>
  <time>2011-10-22T07:10:15Z</time>
</trkpt>
<trkpt lat="39.678927000" lon="-0.376302000">
  <ele>298.700000</ele>
  <time>2011-10-22T07:10:15Z</time>
</trkpt>
<trkpt lat="39.679077000" lon="-0.376305000">
  <ele>298.200000</ele>
  <time>2011-10-22T07:10:18Z</time>
</trkpt>
<trkpt lat="39.679349000" lon="-0.376350000">
  <ele>296.100000</ele>
  <time>2011-10-22T07:10:21Z</time>
</trkpt>
<trkpt lat="39.679581000" lon="-0.376371000">
  <ele>295.600000</ele>
  <time>2011-10-22T07:10:23Z</time>
</trkpt>
<trkpt lat="39.679662000" lon="-0.376318000">
  <ele>295.100000</ele>
  <time>2011-10-22T07:10:25Z</time>
</trkpt>
<trkpt lat="39.679735000" lon="-0.376251000">
  <ele>294.700000</ele>
  <time>2011-10-22T07:10:25Z</time>
</trkpt>
<trkpt lat="39.679876000" lon="-0.376145000">
  <ele>293.100000</ele>
  <time>2011-10-22T07:10:28Z</time>
</trkpt>
<trkpt lat="39.679946000" lon="-0.376114000">
  <ele>292.800000</ele>
  <time>2011-10-22T07:10:28Z</time>
</trkpt>
<trkpt lat="39.680020000" lon="-0.376111000">
  <ele>292.700000</ele>
  <time>2011-10-22T07:10:30Z</time>
</trkpt>
<trkpt lat="39.680094000" lon="-0.376108000">
  <ele>292.500000</ele>
  <time>2011-10-22T07:10:31Z</time>
</trkpt>
<trkpt lat="39.680169000" lon="-0.376120000">
  <ele>292.100000</ele>
  <time>2011-10-22T07:10:31Z</time>
</trkpt>
<trkpt lat="39.680243000" lon="-0.376114000">
  <ele>292.000000</ele>
  <time>2011-10-22T07:10:33Z</time>
</trkpt>
<trkpt lat="39.680308000" lon="-0.376087000">
  <ele>291.300000</ele>
  <time>2011-10-22T07:10:34Z</time>
</trkpt>
<trkpt lat="39.680342000" lon="-0.376040000">
  <ele>291.200000</ele>
  <time>2011-10-22T07:10:34Z</time>
</trkpt>
<trkpt lat="39.680361000" lon="-0.375975000">
  <ele>291.100000</ele>
  <time>2011-10-22T07:10:36Z</time>
</trkpt>
<trkpt lat="39.680389000" lon="-0.375933000">
  <ele>290.600000</ele>
  <time>2011-10-22T07:10:37Z</time>
</trkpt>
<trkpt lat="39.680419000" lon="-0.375918000">
  <ele>290.300000</ele>
  <time>2011-10-22T07:10:38Z</time>
</trkpt>
<trkpt lat="39.680462000" lon="-0.375897000">
  <ele>290.100000</ele>
  <time>2011-10-22T07:10:39Z</time>
</trkpt>
<trkpt lat="39.680474000" lon="-0.375900000">
  <ele>290.200000</ele>
  <time>2011-10-22T07:10:41Z</time>
</trkpt>
<trkpt lat="39.680489000" lon="-0.375911000">
  <ele>290.200000</ele>
  <time>2011-10-22T07:10:41Z</time>
</trkpt>
<trkpt lat="39.680500000" lon="-0.375918000">
  <ele>290.800000</ele>
  <time>2011-10-22T07:10:42Z</time>
</trkpt>
<trkpt lat="39.680534000" lon="-0.375936000">
  <ele>292.000000</ele>
  <time>2011-10-22T07:10:44Z</time>
</trkpt>
<trkpt lat="39.680553000" lon="-0.375939000">
  <ele>292.100000</ele>
  <time>2011-10-22T07:10:46Z</time>
</trkpt>
<trkpt lat="39.680569000" lon="-0.375937000">
  <ele>292.500000</ele>
  <time>2011-10-22T07:10:47Z</time>
</trkpt>
<trkpt lat="39.680663000" lon="-0.375928000">
  <ele>293.100000</ele>
  <time>2011-10-22T07:10:52Z</time>
</trkpt>
<trkpt lat="39.680679000" lon="-0.375929000">
  <ele>293.200000</ele>
  <time>2011-10-22T07:10:53Z</time>
</trkpt>
<trkpt lat="39.680743000" lon="-0.375940000">
  <ele>294.200000</ele>
  <time>2011-10-22T07:10:57Z</time>
</trkpt>
<trkpt lat="39.680760000" lon="-0.375936000">
  <ele>294.800000</ele>
  <time>2011-10-22T07:10:58Z</time>
</trkpt>
<trkpt lat="39.680769000" lon="-0.375929000">
  <ele>295.500000</ele>
  <time>2011-10-22T07:10:58Z</time>
</trkpt>
<trkpt lat="39.680786000" lon="-0.375923000">
  <ele>296.200000</ele>
  <time>2011-10-22T07:11:00Z</time>
</trkpt>
<trkpt lat="39.680804000" lon="-0.375919000">
  <ele>296.600000</ele>
  <time>2011-10-22T07:11:00Z</time>
</trkpt>
<trkpt lat="39.680852000" lon="-0.375905000">
  <ele>297.200000</ele>
  <time>2011-10-22T07:11:03Z</time>
</trkpt>
<trkpt lat="39.680868000" lon="-0.375893000">
  <ele>297.600000</ele>
  <time>2011-10-22T07:11:05Z</time>
</trkpt>
<trkpt lat="39.681086000" lon="-0.375755000">
  <ele>301.600000</ele>
  <time>2011-10-22T07:11:19Z</time>
</trkpt>
<trkpt lat="39.681103000" lon="-0.375747000">
  <ele>302.100000</ele>
  <time>2011-10-22T07:11:19Z</time>
</trkpt>
<trkpt lat="39.681192000" lon="-0.375728000">
  <ele>302.200000</ele>
  <time>2011-10-22T07:11:24Z</time>
</trkpt>
<trkpt lat="39.681213000" lon="-0.375724000">
  <ele>302.500000</ele>
  <time>2011-10-22T07:11:25Z</time>
</trkpt>
<trkpt lat="39.681223000" lon="-0.375727000">
  <ele>302.700000</ele>
  <time>2011-10-22T07:11:27Z</time>
</trkpt>
<trkpt lat="39.681235000" lon="-0.375736000">
  <ele>303.200000</ele>
  <time>2011-10-22T07:11:28Z</time>
</trkpt>
<trkpt lat="39.681246000" lon="-0.375750000">
  <ele>303.700000</ele>
  <time>2011-10-22T07:11:29Z</time>
</trkpt>
<trkpt lat="39.681253000" lon="-0.375768000">
  <ele>303.800000</ele>
  <time>2011-10-22T07:11:30Z</time>
</trkpt>
<trkpt lat="39.681269000" lon="-0.375829000">
  <ele>303.800000</ele>
  <time>2011-10-22T07:11:33Z</time>
</trkpt>
<trkpt lat="39.681264000" lon="-0.375849000">
  <ele>305.500000</ele>
  <time>2011-10-22T07:11:33Z</time>
</trkpt>
<trkpt lat="39.681260000" lon="-0.375872000">
  <ele>305.800000</ele>
  <time>2011-10-22T07:11:35Z</time>
</trkpt>
<trkpt lat="39.681237000" lon="-0.376015000">
  <ele>307.200000</ele>
  <time>2011-10-22T07:11:41Z</time>
</trkpt>
<trkpt lat="39.681197000" lon="-0.376272000">
  <ele>310.700000</ele>
  <time>2011-10-22T07:11:54Z</time>
</trkpt>
<trkpt lat="39.681198000" lon="-0.376289000">
  <ele>310.800000</ele>
  <time>2011-10-22T07:11:56Z</time>
</trkpt>
<trkpt lat="39.681198000" lon="-0.376406000">
  <ele>312.800000</ele>
  <time>2011-10-22T07:12:03Z</time>
</trkpt>
<trkpt lat="39.681196000" lon="-0.376424000">
  <ele>313.000000</ele>
  <time>2011-10-22T07:12:04Z</time>
</trkpt>
<trkpt lat="39.681193000" lon="-0.376463000">
  <ele>313.500000</ele>
  <time>2011-10-22T07:12:05Z</time>
</trkpt>
<trkpt lat="39.681197000" lon="-0.376478000">
  <ele>314.100000</ele>
  <time>2011-10-22T07:12:07Z</time>
</trkpt>
<trkpt lat="39.681210000" lon="-0.376571000">
  <ele>314.700000</ele>
  <time>2011-10-22T07:12:12Z</time>
</trkpt>
<trkpt lat="39.681206000" lon="-0.376598000">
  <ele>314.800000</ele>
  <time>2011-10-22T07:12:13Z</time>
</trkpt>
<trkpt lat="39.681202000" lon="-0.376632000">
  <ele>315.500000</ele>
  <time>2011-10-22T07:12:15Z</time>
</trkpt>
<trkpt lat="39.681204000" lon="-0.376651000">
  <ele>315.700000</ele>
  <time>2011-10-22T07:12:16Z</time>
</trkpt>
<trkpt lat="39.681211000" lon="-0.376869000">
  <ele>315.700000</ele>
  <time>2011-10-22T07:12:26Z</time>
</trkpt>
<trkpt lat="39.681208000" lon="-0.376890000">
  <ele>315.800000</ele>
  <time>2011-10-22T07:12:28Z</time>
</trkpt>
<trkpt lat="39.681209000" lon="-0.376907000">
  <ele>316.200000</ele>
  <time>2011-10-22T07:12:29Z</time>
</trkpt>
<trkpt lat="39.681207000" lon="-0.376927000">
  <ele>316.200000</ele>
  <time>2011-10-22T07:12:29Z</time>
</trkpt>
<trkpt lat="39.681204000" lon="-0.376941000">
  <ele>316.700000</ele>
  <time>2011-10-22T07:12:31Z</time>
</trkpt>
<trkpt lat="39.681206000" lon="-0.376954000">
  <ele>317.600000</ele>
  <time>2011-10-22T07:12:32Z</time>
</trkpt>
<trkpt lat="39.681251000" lon="-0.377129000">
  <ele>318.800000</ele>
  <time>2011-10-22T07:12:40Z</time>
</trkpt>
<trkpt lat="39.681281000" lon="-0.377232000">
  <ele>320.200000</ele>
  <time>2011-10-22T07:12:45Z</time>
</trkpt>
<trkpt lat="39.681283000" lon="-0.377253000">
  <ele>319.800000</ele>
  <time>2011-10-22T07:12:45Z</time>
</trkpt>
<trkpt lat="39.681283000" lon="-0.377325000">
  <ele>321.200000</ele>
  <time>2011-10-22T07:12:50Z</time>
</trkpt>
<trkpt lat="39.681291000" lon="-0.377348000">
  <ele>320.700000</ele>
  <time>2011-10-22T07:12:51Z</time>
</trkpt>
<trkpt lat="39.681291000" lon="-0.377369000">
  <ele>320.700000</ele>
  <time>2011-10-22T07:12:51Z</time>
</trkpt>
<trkpt lat="39.681291000" lon="-0.377385000">
  <ele>321.200000</ele>
  <time>2011-10-22T07:12:53Z</time>
</trkpt>
<trkpt lat="39.681283000" lon="-0.377520000">
  <ele>322.800000</ele>
  <time>2011-10-22T07:12:59Z</time>
</trkpt>
<trkpt lat="39.681280000" lon="-0.377539000">
  <ele>323.200000</ele>
  <time>2011-10-22T07:13:01Z</time>
</trkpt>
<trkpt lat="39.681178000" lon="-0.377910000">
  <ele>326.500000</ele>
  <time>2011-10-22T07:13:20Z</time>
</trkpt>
<trkpt lat="39.681173000" lon="-0.377930000">
  <ele>327.100000</ele>
  <time>2011-10-22T07:13:22Z</time>
</trkpt>
<trkpt lat="39.681171000" lon="-0.377951000">
  <ele>327.500000</ele>
  <time>2011-10-22T07:13:23Z</time>
</trkpt>
<trkpt lat="39.681166000" lon="-0.378014000">
  <ele>327.700000</ele>
  <time>2011-10-22T07:13:26Z</time>
</trkpt>
<trkpt lat="39.681165000" lon="-0.378035000">
  <ele>328.100000</ele>
  <time>2011-10-22T07:13:26Z</time>
</trkpt>
<trkpt lat="39.681142000" lon="-0.378394000">
  <ele>330.000000</ele>
  <time>2011-10-22T07:13:45Z</time>
</trkpt>
<trkpt lat="39.681130000" lon="-0.378464000">
  <ele>330.200000</ele>
  <time>2011-10-22T07:13:48Z</time>
</trkpt>
<trkpt lat="39.681130000" lon="-0.378484000">
  <ele>330.500000</ele>
  <time>2011-10-22T07:13:49Z</time>
</trkpt>
<trkpt lat="39.681117000" lon="-0.378700000">
  <ele>327.600000</ele>
  <time>2011-10-22T07:13:58Z</time>
</trkpt>
<trkpt lat="39.681110000" lon="-0.378716000">
  <ele>327.200000</ele>
  <time>2011-10-22T07:14:00Z</time>
</trkpt>
<trkpt lat="39.681110000" lon="-0.378733000">
  <ele>327.100000</ele>
  <time>2011-10-22T07:14:01Z</time>
</trkpt>
<trkpt lat="39.681102000" lon="-0.378751000">
  <ele>327.700000</ele>
  <time>2011-10-22T07:14:01Z</time>
</trkpt>
<trkpt lat="39.681089000" lon="-0.378813000">
  <ele>328.700000</ele>
  <time>2011-10-22T07:14:05Z</time>
</trkpt>
<trkpt lat="39.681036000" lon="-0.378998000">
  <ele>328.200000</ele>
  <time>2011-10-22T07:14:14Z</time>
</trkpt>
<trkpt lat="39.681033000" lon="-0.379015000">
  <ele>329.000000</ele>
  <time>2011-10-22T07:14:14Z</time>
</trkpt>
<trkpt lat="39.681027000" lon="-0.379033000">
  <ele>329.500000</ele>
  <time>2011-10-22T07:14:16Z</time>
</trkpt>
<trkpt lat="39.681018000" lon="-0.379053000">
  <ele>329.300000</ele>
  <time>2011-10-22T07:14:17Z</time>
</trkpt>
<trkpt lat="39.681002000" lon="-0.379071000">
  <ele>329.200000</ele>
  <time>2011-10-22T07:14:17Z</time>
</trkpt>
<trkpt lat="39.680955000" lon="-0.379108000">
  <ele>330.300000</ele>
  <time>2011-10-22T07:14:21Z</time>
</trkpt>
<trkpt lat="39.680932000" lon="-0.379118000">
  <ele>331.300000</ele>
  <time>2011-10-22T07:14:22Z</time>
</trkpt>
<trkpt lat="39.680914000" lon="-0.379127000">
  <ele>331.700000</ele>
  <time>2011-10-22T07:14:23Z</time>
</trkpt>
<trkpt lat="39.680790000" lon="-0.379203000">
  <ele>338.300000</ele>
  <time>2011-10-22T07:14:32Z</time>
</trkpt>
<trkpt lat="39.680783000" lon="-0.379212000">
  <ele>338.500000</ele>
  <time>2011-10-22T07:14:33Z</time>
</trkpt>
<trkpt lat="39.680776000" lon="-0.379227000">
  <ele>338.300000</ele>
  <time>2011-10-22T07:14:33Z</time>
</trkpt>
<trkpt lat="39.680768000" lon="-0.379251000">
  <ele>338.700000</ele>
  <time>2011-10-22T07:14:35Z</time>
</trkpt>
<trkpt lat="39.680759000" lon="-0.379281000">
  <ele>339.000000</ele>
  <time>2011-10-22T07:14:36Z</time>
</trkpt>
<trkpt lat="39.680754000" lon="-0.379310000">
  <ele>339.100000</ele>
  <time>2011-10-22T07:14:36Z</time>
</trkpt>
<trkpt lat="39.680705000" lon="-0.379468000">
  <ele>334.000000</ele>
  <time>2011-10-22T07:14:41Z</time>
</trkpt>
<trkpt lat="39.680702000" lon="-0.379493000">
  <ele>334.700000</ele>
  <time>2011-10-22T07:14:43Z</time>
</trkpt>
<trkpt lat="39.680677000" lon="-0.379617000">
  <ele>338.500000</ele>
  <time>2011-10-22T07:14:48Z</time>
</trkpt>
<trkpt lat="39.680653000" lon="-0.379673000">
  <ele>339.500000</ele>
  <time>2011-10-22T07:14:51Z</time>
</trkpt>
<trkpt lat="39.680622000" lon="-0.379732000">
  <ele>341.300000</ele>
  <time>2011-10-22T07:14:54Z</time>
</trkpt>
<trkpt lat="39.680599000" lon="-0.379769000">
  <ele>344.700000</ele>
  <time>2011-10-22T07:14:56Z</time>
</trkpt>
<trkpt lat="39.680529000" lon="-0.379868000">
  <ele>344.800000</ele>
  <time>2011-10-22T07:15:02Z</time>
</trkpt>
<trkpt lat="39.680509000" lon="-0.379907000">
  <ele>343.600000</ele>
  <time>2011-10-22T07:15:04Z</time>
</trkpt>
<trkpt lat="39.680430000" lon="-0.380043000">
  <ele>343.200000</ele>
  <time>2011-10-22T07:15:10Z</time>
</trkpt>
<trkpt lat="39.680353000" lon="-0.380144000">
  <ele>342.600000</ele>
  <time>2011-10-22T07:15:16Z</time>
</trkpt>
<trkpt lat="39.680331000" lon="-0.380154000">
  <ele>343.100000</ele>
  <time>2011-10-22T07:15:18Z</time>
</trkpt>
<trkpt lat="39.680318000" lon="-0.380169000">
  <ele>344.100000</ele>
  <time>2011-10-22T07:15:18Z</time>
</trkpt>
<trkpt lat="39.680304000" lon="-0.380180000">
  <ele>344.700000</ele>
  <time>2011-10-22T07:15:19Z</time>
</trkpt>
<trkpt lat="39.680270000" lon="-0.380206000">
  <ele>346.100000</ele>
  <time>2011-10-22T07:15:21Z</time>
</trkpt>
<trkpt lat="39.680232000" lon="-0.380240000">
  <ele>346.000000</ele>
  <time>2011-10-22T07:15:24Z</time>
</trkpt>
<trkpt lat="39.680224000" lon="-0.380252000">
  <ele>345.600000</ele>
  <time>2011-10-22T07:15:26Z</time>
</trkpt>
<trkpt lat="39.680192000" lon="-0.380298000">
  <ele>344.000000</ele>
  <time>2011-10-22T07:15:29Z</time>
</trkpt>
<trkpt lat="39.680140000" lon="-0.380357000">
  <ele>344.100000</ele>
  <time>2011-10-22T07:15:33Z</time>
</trkpt>
<trkpt lat="39.680076000" lon="-0.380441000">
  <ele>345.300000</ele>
  <time>2011-10-22T07:15:37Z</time>
</trkpt>
<trkpt lat="39.680053000" lon="-0.380476000">
  <ele>346.000000</ele>
  <time>2011-10-22T07:15:40Z</time>
</trkpt>
<trkpt lat="39.680028000" lon="-0.380502000">
  <ele>346.700000</ele>
  <time>2011-10-22T07:15:42Z</time>
</trkpt>
<trkpt lat="39.680010000" lon="-0.380523000">
  <ele>347.200000</ele>
  <time>2011-10-22T07:15:43Z</time>
</trkpt>
<trkpt lat="39.679998000" lon="-0.380545000">
  <ele>347.600000</ele>
  <time>2011-10-22T07:15:43Z</time>
</trkpt>
<trkpt lat="39.679963000" lon="-0.380607000">
  <ele>347.300000</ele>
  <time>2011-10-22T07:15:47Z</time>
</trkpt>
<trkpt lat="39.679955000" lon="-0.380627000">
  <ele>346.600000</ele>
  <time>2011-10-22T07:15:48Z</time>
</trkpt>
<trkpt lat="39.679949000" lon="-0.380655000">
  <ele>346.000000</ele>
  <time>2011-10-22T07:15:49Z</time>
</trkpt>
<trkpt lat="39.679937000" lon="-0.380799000">
  <ele>343.800000</ele>
  <time>2011-10-22T07:15:53Z</time>
</trkpt>
<trkpt lat="39.679941000" lon="-0.380827000">
  <ele>344.500000</ele>
  <time>2011-10-22T07:15:54Z</time>
</trkpt>
<trkpt lat="39.679946000" lon="-0.380849000">
  <ele>344.700000</ele>
  <time>2011-10-22T07:15:56Z</time>
</trkpt>
<trkpt lat="39.679959000" lon="-0.380869000">
  <ele>345.700000</ele>
  <time>2011-10-22T07:15:56Z</time>
</trkpt>
<trkpt lat="39.679987000" lon="-0.380894000">
  <ele>347.200000</ele>
  <time>2011-10-22T07:15:59Z</time>
</trkpt>
<trkpt lat="39.680002000" lon="-0.380893000">
  <ele>348.600000</ele>
  <time>2011-10-22T07:15:59Z</time>
</trkpt>
<trkpt lat="39.680021000" lon="-0.380895000">
  <ele>349.500000</ele>
  <time>2011-10-22T07:16:01Z</time>
</trkpt>
<trkpt lat="39.680045000" lon="-0.380890000">
  <ele>350.800000</ele>
  <time>2011-10-22T07:16:02Z</time>
</trkpt>
<trkpt lat="39.680056000" lon="-0.380879000">
  <ele>352.200000</ele>
  <time>2011-10-22T07:16:04Z</time>
</trkpt>
<trkpt lat="39.680068000" lon="-0.380872000">
  <ele>352.700000</ele>
  <time>2011-10-22T07:16:05Z</time>
</trkpt>
<trkpt lat="39.680096000" lon="-0.380858000">
  <ele>355.200000</ele>
  <time>2011-10-22T07:16:07Z</time>
</trkpt>
<trkpt lat="39.680109000" lon="-0.380852000">
  <ele>356.200000</ele>
  <time>2011-10-22T07:16:08Z</time>
</trkpt>
<trkpt lat="39.680175000" lon="-0.380817000">
  <ele>360.700000</ele>
  <time>2011-10-22T07:16:12Z</time>
</trkpt>
<trkpt lat="39.680371000" lon="-0.380711000">
  <ele>364.200000</ele>
  <time>2011-10-22T07:16:23Z</time>
</trkpt>
<trkpt lat="39.680425000" lon="-0.380689000">
  <ele>362.700000</ele>
  <time>2011-10-22T07:16:25Z</time>
</trkpt>
<trkpt lat="39.680609000" lon="-0.380633000">
  <ele>362.600000</ele>
  <time>2011-10-22T07:16:33Z</time>
</trkpt>
<trkpt lat="39.680629000" lon="-0.380628000">
  <ele>362.800000</ele>
  <time>2011-10-22T07:16:34Z</time>
</trkpt>
<trkpt lat="39.680776000" lon="-0.380586000">
  <ele>363.200000</ele>
  <time>2011-10-22T07:16:40Z</time>
</trkpt>
<trkpt lat="39.680790000" lon="-0.380564000">
  <ele>363.600000</ele>
  <time>2011-10-22T07:16:41Z</time>
</trkpt>
<trkpt lat="39.680808000" lon="-0.380539000">
  <ele>363.300000</ele>
  <time>2011-10-22T07:16:42Z</time>
</trkpt>
<trkpt lat="39.680828000" lon="-0.380512000">
  <ele>363.700000</ele>
  <time>2011-10-22T07:16:42Z</time>
</trkpt>
<trkpt lat="39.680880000" lon="-0.380463000">
  <ele>364.200000</ele>
  <time>2011-10-22T07:16:45Z</time>
</trkpt>
<trkpt lat="39.680937000" lon="-0.380428000">
  <ele>364.300000</ele>
  <time>2011-10-22T07:16:49Z</time>
</trkpt>
<trkpt lat="39.680958000" lon="-0.380424000">
  <ele>363.700000</ele>
  <time>2011-10-22T07:16:50Z</time>
</trkpt>
<trkpt lat="39.680991000" lon="-0.380401000">
  <ele>363.300000</ele>
  <time>2011-10-22T07:16:52Z</time>
</trkpt>
<trkpt lat="39.681039000" lon="-0.380369000">
  <ele>362.700000</ele>
  <time>2011-10-22T07:16:55Z</time>
</trkpt>
<trkpt lat="39.681123000" lon="-0.380294000">
  <ele>364.100000</ele>
  <time>2011-10-22T07:17:00Z</time>
</trkpt>
<trkpt lat="39.681165000" lon="-0.380240000">
  <ele>364.500000</ele>
  <time>2011-10-22T07:17:03Z</time>
</trkpt>
<trkpt lat="39.681233000" lon="-0.380129000">
  <ele>366.700000</ele>
  <time>2011-10-22T07:17:09Z</time>
</trkpt>
<trkpt lat="39.681316000" lon="-0.380030000">
  <ele>367.200000</ele>
  <time>2011-10-22T07:17:14Z</time>
</trkpt>
<trkpt lat="39.681446000" lon="-0.379878000">
  <ele>370.700000</ele>
  <time>2011-10-22T07:17:22Z</time>
</trkpt>
<trkpt lat="39.681462000" lon="-0.379869000">
  <ele>370.800000</ele>
  <time>2011-10-22T07:17:24Z</time>
</trkpt>
<trkpt lat="39.681495000" lon="-0.379841000">
  <ele>371.700000</ele>
  <time>2011-10-22T07:17:25Z</time>
</trkpt>
<trkpt lat="39.681701000" lon="-0.379675000">
  <ele>373.500000</ele>
  <time>2011-10-22T07:17:38Z</time>
</trkpt>
<trkpt lat="39.681712000" lon="-0.379659000">
  <ele>374.200000</ele>
  <time>2011-10-22T07:17:38Z</time>
</trkpt>
<trkpt lat="39.681730000" lon="-0.379645000">
  <ele>374.600000</ele>
  <time>2011-10-22T07:17:40Z</time>
</trkpt>
<trkpt lat="39.682013000" lon="-0.379406000">
  <ele>377.200000</ele>
  <time>2011-10-22T07:17:55Z</time>
</trkpt>
<trkpt lat="39.682041000" lon="-0.379370000">
  <ele>378.200000</ele>
  <time>2011-10-22T07:17:57Z</time>
</trkpt>
<trkpt lat="39.682076000" lon="-0.379342000">
  <ele>378.700000</ele>
  <time>2011-10-22T07:18:00Z</time>
</trkpt>
<trkpt lat="39.682144000" lon="-0.379251000">
  <ele>378.800000</ele>
  <time>2011-10-22T07:18:05Z</time>
</trkpt>
<trkpt lat="39.682247000" lon="-0.379120000">
  <ele>381.000000</ele>
  <time>2011-10-22T07:18:11Z</time>
</trkpt>
<trkpt lat="39.682314000" lon="-0.379054000">
  <ele>380.200000</ele>
  <time>2011-10-22T07:18:16Z</time>
</trkpt>
<trkpt lat="39.682347000" lon="-0.379025000">
  <ele>380.200000</ele>
  <time>2011-10-22T07:18:18Z</time>
</trkpt>
<trkpt lat="39.682363000" lon="-0.379017000">
  <ele>380.700000</ele>
  <time>2011-10-22T07:18:19Z</time>
</trkpt>
<trkpt lat="39.682392000" lon="-0.379010000">
  <ele>380.800000</ele>
  <time>2011-10-22T07:18:21Z</time>
</trkpt>
<trkpt lat="39.682404000" lon="-0.379020000">
  <ele>381.200000</ele>
  <time>2011-10-22T07:18:22Z</time>
</trkpt>
<trkpt lat="39.682435000" lon="-0.379051000">
  <ele>381.800000</ele>
  <time>2011-10-22T07:18:25Z</time>
</trkpt>
<trkpt lat="39.682444000" lon="-0.379063000">
  <ele>382.000000</ele>
  <time>2011-10-22T07:18:26Z</time>
</trkpt>
<trkpt lat="39.682456000" lon="-0.379074000">
  <ele>382.000000</ele>
  <time>2011-10-22T07:18:27Z</time>
</trkpt>
<trkpt lat="39.682517000" lon="-0.379137000">
  <ele>380.700000</ele>
  <time>2011-10-22T07:18:30Z</time>
</trkpt>
<trkpt lat="39.682648000" lon="-0.379304000">
  <ele>379.300000</ele>
  <time>2011-10-22T07:18:35Z</time>
</trkpt>
<trkpt lat="39.682683000" lon="-0.379360000">
  <ele>379.200000</ele>
  <time>2011-10-22T07:18:37Z</time>
</trkpt>
<trkpt lat="39.682713000" lon="-0.379421000">
  <ele>379.300000</ele>
  <time>2011-10-22T07:18:38Z</time>
</trkpt>
<trkpt lat="39.682734000" lon="-0.379497000">
  <ele>378.300000</ele>
  <time>2011-10-22T07:18:38Z</time>
</trkpt>
<trkpt lat="39.682753000" lon="-0.379572000">
  <ele>377.600000</ele>
  <time>2011-10-22T07:18:40Z</time>
</trkpt>
<trkpt lat="39.682812000" lon="-0.379941000">
  <ele>375.700000</ele>
  <time>2011-10-22T07:18:43Z</time>
</trkpt>
<trkpt lat="39.682868000" lon="-0.380348000">
  <ele>374.000000</ele>
  <time>2011-10-22T07:18:50Z</time>
</trkpt>
<trkpt lat="39.682889000" lon="-0.380375000">
  <ele>374.100000</ele>
  <time>2011-10-22T07:18:51Z</time>
</trkpt>
<trkpt lat="39.682937000" lon="-0.380390000">
  <ele>373.700000</ele>
  <time>2011-10-22T07:18:53Z</time>
</trkpt>
<trkpt lat="39.682961000" lon="-0.380369000">
  <ele>373.700000</ele>
  <time>2011-10-22T07:18:54Z</time>
</trkpt>
<trkpt lat="39.682982000" lon="-0.380356000">
  <ele>373.700000</ele>
  <time>2011-10-22T07:18:54Z</time>
</trkpt>
<trkpt lat="39.683115000" lon="-0.380247000">
  <ele>373.300000</ele>
  <time>2011-10-22T07:19:00Z</time>
</trkpt>
<trkpt lat="39.683206000" lon="-0.380137000">
  <ele>372.500000</ele>
  <time>2011-10-22T07:19:02Z</time>
</trkpt>
<trkpt lat="39.683404000" lon="-0.379842000">
  <ele>371.600000</ele>
  <time>2011-10-22T07:19:12Z</time>
</trkpt>
<trkpt lat="39.683758000" lon="-0.379311000">
  <ele>372.700000</ele>
  <time>2011-10-22T07:19:31Z</time>
</trkpt>
<trkpt lat="39.683781000" lon="-0.379301000">
  <ele>372.600000</ele>
  <time>2011-10-22T07:19:32Z</time>
</trkpt>
<trkpt lat="39.683803000" lon="-0.379306000">
  <ele>373.000000</ele>
  <time>2011-10-22T07:19:33Z</time>
</trkpt>
<trkpt lat="39.683824000" lon="-0.379315000">
  <ele>373.600000</ele>
  <time>2011-10-22T07:19:34Z</time>
</trkpt>
<trkpt lat="39.683836000" lon="-0.379350000">
  <ele>372.700000</ele>
  <time>2011-10-22T07:19:35Z</time>
</trkpt>
<trkpt lat="39.683848000" lon="-0.379375000">
  <ele>372.800000</ele>
  <time>2011-10-22T07:19:36Z</time>
</trkpt>
<trkpt lat="39.683870000" lon="-0.379428000">
  <ele>372.800000</ele>
  <time>2011-10-22T07:19:37Z</time>
</trkpt>
<trkpt lat="39.683879000" lon="-0.379458000">
  <ele>372.800000</ele>
  <time>2011-10-22T07:19:39Z</time>
</trkpt>
<trkpt lat="39.683898000" lon="-0.379549000">
  <ele>372.700000</ele>
  <time>2011-10-22T07:19:42Z</time>
</trkpt>
<trkpt lat="39.683902000" lon="-0.379581000">
  <ele>372.800000</ele>
  <time>2011-10-22T07:19:42Z</time>
</trkpt>
<trkpt lat="39.684029000" lon="-0.380274000">
  <ele>376.100000</ele>
  <time>2011-10-22T07:20:08Z</time>
</trkpt>
<trkpt lat="39.684094000" lon="-0.380781000">
  <ele>379.600000</ele>
  <time>2011-10-22T07:20:26Z</time>
</trkpt>
<trkpt lat="39.684101000" lon="-0.380810000">
  <ele>380.000000</ele>
  <time>2011-10-22T07:20:27Z</time>
</trkpt>
<trkpt lat="39.684204000" lon="-0.381275000">
  <ele>381.200000</ele>
  <time>2011-10-22T07:20:44Z</time>
</trkpt>
<trkpt lat="39.684207000" lon="-0.381300000">
  <ele>381.600000</ele>
  <time>2011-10-22T07:20:45Z</time>
</trkpt>
<trkpt lat="39.684242000" lon="-0.381522000">
  <ele>383.100000</ele>
  <time>2011-10-22T07:20:54Z</time>
</trkpt>
<trkpt lat="39.684248000" lon="-0.381543000">
  <ele>383.700000</ele>
  <time>2011-10-22T07:20:55Z</time>
</trkpt>
<trkpt lat="39.684248000" lon="-0.381570000">
  <ele>384.200000</ele>
  <time>2011-10-22T07:20:55Z</time>
</trkpt>
<trkpt lat="39.684242000" lon="-0.381611000">
  <ele>384.200000</ele>
  <time>2011-10-22T07:20:58Z</time>
</trkpt>
<trkpt lat="39.684231000" lon="-0.381653000">
  <ele>384.200000</ele>
  <time>2011-10-22T07:21:00Z</time>
</trkpt>
<trkpt lat="39.684223000" lon="-0.381671000">
  <ele>384.600000</ele>
  <time>2011-10-22T07:21:01Z</time>
</trkpt>
<trkpt lat="39.684110000" lon="-0.381890000">
  <ele>386.200000</ele>
  <time>2011-10-22T07:21:14Z</time>
</trkpt>
<trkpt lat="39.684093000" lon="-0.381905000">
  <ele>386.200000</ele>
  <time>2011-10-22T07:21:14Z</time>
</trkpt>
<trkpt lat="39.684093000" lon="-0.381924000">
  <ele>386.300000</ele>
  <time>2011-10-22T07:21:16Z</time>
</trkpt>
<trkpt lat="39.684089000" lon="-0.381938000">
  <ele>386.200000</ele>
  <time>2011-10-22T07:21:17Z</time>
</trkpt>
<trkpt lat="39.684077000" lon="-0.381953000">
  <ele>386.700000</ele>
  <time>2011-10-22T07:21:18Z</time>
</trkpt>
<trkpt lat="39.684073000" lon="-0.381971000">
  <ele>386.300000</ele>
  <time>2011-10-22T07:21:19Z</time>
</trkpt>
<trkpt lat="39.684065000" lon="-0.381991000">
  <ele>386.700000</ele>
  <time>2011-10-22T07:21:19Z</time>
</trkpt>
<trkpt lat="39.684044000" lon="-0.382043000">
  <ele>387.700000</ele>
  <time>2011-10-22T07:21:22Z</time>
</trkpt>
<trkpt lat="39.683901000" lon="-0.382361000">
  <ele>390.500000</ele>
  <time>2011-10-22T07:21:40Z</time>
</trkpt>
<trkpt lat="39.683889000" lon="-0.382377000">
  <ele>390.600000</ele>
  <time>2011-10-22T07:21:42Z</time>
</trkpt>
<trkpt lat="39.683878000" lon="-0.382390000">
  <ele>390.800000</ele>
  <time>2011-10-22T07:21:43Z</time>
</trkpt>
<trkpt lat="39.683868000" lon="-0.382402000">
  <ele>391.200000</ele>
  <time>2011-10-22T07:21:43Z</time>
</trkpt>
<trkpt lat="39.683845000" lon="-0.382426000">
  <ele>390.200000</ele>
  <time>2011-10-22T07:21:46Z</time>
</trkpt>
<trkpt lat="39.683823000" lon="-0.382443000">
  <ele>390.500000</ele>
  <time>2011-10-22T07:21:46Z</time>
</trkpt>
<trkpt lat="39.683785000" lon="-0.382462000">
  <ele>390.500000</ele>
  <time>2011-10-22T07:21:49Z</time>
</trkpt>
</trkseg>
</trk>
<trk>
  <name>2011-10-22-01_1245-1495</name>
  <desc>C:\Users\farnau\Documents\My Dropbox\Tracks\2011-10-22-01.gpx</desc>
<trkseg>
<trkpt lat="39.683785000" lon="-0.382462000">
  <ele>390.500000</ele>
  <time>2011-10-22T07:21:49Z</time>
</trkpt>
<trkpt lat="39.683747000" lon="-0.382473000">
  <ele>391.500000</ele>
  <time>2011-10-22T07:21:51Z</time>
</trkpt>
<trkpt lat="39.683677000" lon="-0.382496000">
  <ele>393.500000</ele>
  <time>2011-10-22T07:21:54Z</time>
</trkpt>
<trkpt lat="39.683662000" lon="-0.382502000">
  <ele>394.100000</ele>
  <time>2011-10-22T07:21:56Z</time>
</trkpt>
<trkpt lat="39.683617000" lon="-0.382526000">
  <ele>394.200000</ele>
  <time>2011-10-22T07:21:59Z</time>
</trkpt>
<trkpt lat="39.683591000" lon="-0.382545000">
  <ele>395.200000</ele>
  <time>2011-10-22T07:22:01Z</time>
</trkpt>
<trkpt lat="39.683551000" lon="-0.382582000">
  <ele>395.200000</ele>
  <time>2011-10-22T07:22:04Z</time>
</trkpt>
<trkpt lat="39.683441000" lon="-0.382714000">
  <ele>397.700000</ele>
  <time>2011-10-22T07:22:13Z</time>
</trkpt>
<trkpt lat="39.683433000" lon="-0.382725000">
  <ele>398.600000</ele>
  <time>2011-10-22T07:22:15Z</time>
</trkpt>
<trkpt lat="39.683424000" lon="-0.382735000">
  <ele>399.300000</ele>
  <time>2011-10-22T07:22:15Z</time>
</trkpt>
<trkpt lat="39.683409000" lon="-0.382745000">
  <ele>399.700000</ele>
  <time>2011-10-22T07:22:17Z</time>
</trkpt>
<trkpt lat="39.683402000" lon="-0.382753000">
  <ele>400.800000</ele>
  <time>2011-10-22T07:22:18Z</time>
</trkpt>
<trkpt lat="39.683385000" lon="-0.382769000">
  <ele>401.200000</ele>
  <time>2011-10-22T07:22:20Z</time>
</trkpt>
<trkpt lat="39.683371000" lon="-0.382777000">
  <ele>401.700000</ele>
  <time>2011-10-22T07:22:21Z</time>
</trkpt>
<trkpt lat="39.683341000" lon="-0.382796000">
  <ele>402.700000</ele>
  <time>2011-10-22T07:22:23Z</time>
</trkpt>
<trkpt lat="39.683328000" lon="-0.382811000">
  <ele>402.700000</ele>
  <time>2011-10-22T07:22:24Z</time>
</trkpt>
<trkpt lat="39.683313000" lon="-0.382822000">
  <ele>403.000000</ele>
  <time>2011-10-22T07:22:24Z</time>
</trkpt>
<trkpt lat="39.683290000" lon="-0.382840000">
  <ele>404.000000</ele>
  <time>2011-10-22T07:22:27Z</time>
</trkpt>
<trkpt lat="39.683278000" lon="-0.382851000">
  <ele>404.500000</ele>
  <time>2011-10-22T07:22:28Z</time>
</trkpt>
<trkpt lat="39.683265000" lon="-0.382867000">
  <ele>404.200000</ele>
  <time>2011-10-22T07:22:29Z</time>
</trkpt>
<trkpt lat="39.683253000" lon="-0.382877000">
  <ele>404.500000</ele>
  <time>2011-10-22T07:22:29Z</time>
</trkpt>
<trkpt lat="39.683240000" lon="-0.382890000">
  <ele>404.700000</ele>
  <time>2011-10-22T07:22:31Z</time>
</trkpt>
<trkpt lat="39.683155000" lon="-0.383005000">
  <ele>407.000000</ele>
  <time>2011-10-22T07:22:39Z</time>
</trkpt>
<trkpt lat="39.683119000" lon="-0.383067000">
  <ele>408.200000</ele>
  <time>2011-10-22T07:22:43Z</time>
</trkpt>
<trkpt lat="39.683109000" lon="-0.383085000">
  <ele>408.700000</ele>
  <time>2011-10-22T07:22:44Z</time>
</trkpt>
<trkpt lat="39.683103000" lon="-0.383102000">
  <ele>409.200000</ele>
  <time>2011-10-22T07:22:45Z</time>
</trkpt>
<trkpt lat="39.683100000" lon="-0.383122000">
  <ele>408.800000</ele>
  <time>2011-10-22T07:22:46Z</time>
</trkpt>
<trkpt lat="39.683089000" lon="-0.383164000">
  <ele>409.700000</ele>
  <time>2011-10-22T07:22:48Z</time>
</trkpt>
<trkpt lat="39.683082000" lon="-0.383186000">
  <ele>409.700000</ele>
  <time>2011-10-22T07:22:48Z</time>
</trkpt>
<trkpt lat="39.683073000" lon="-0.383244000">
  <ele>410.300000</ele>
  <time>2011-10-22T07:22:52Z</time>
</trkpt>
<trkpt lat="39.683070000" lon="-0.383351000">
  <ele>410.500000</ele>
  <time>2011-10-22T07:22:56Z</time>
</trkpt>
<trkpt lat="39.683065000" lon="-0.383373000">
  <ele>410.600000</ele>
  <time>2011-10-22T07:22:58Z</time>
</trkpt>
<trkpt lat="39.683048000" lon="-0.383473000">
  <ele>410.600000</ele>
  <time>2011-10-22T07:23:02Z</time>
</trkpt>
<trkpt lat="39.683047000" lon="-0.383507000">
  <ele>410.800000</ele>
  <time>2011-10-22T07:23:03Z</time>
</trkpt>
<trkpt lat="39.683021000" lon="-0.383878000">
  <ele>410.700000</ele>
  <time>2011-10-22T07:23:09Z</time>
</trkpt>
<trkpt lat="39.682988000" lon="-0.383922000">
  <ele>410.600000</ele>
  <time>2011-10-22T07:23:11Z</time>
</trkpt>
<trkpt lat="39.682948000" lon="-0.383921000">
  <ele>410.800000</ele>
  <time>2011-10-22T07:23:12Z</time>
</trkpt>
<trkpt lat="39.682922000" lon="-0.383928000">
  <ele>411.000000</ele>
  <time>2011-10-22T07:23:12Z</time>
</trkpt>
<trkpt lat="39.682883000" lon="-0.383929000">
  <ele>410.800000</ele>
  <time>2011-10-22T07:23:15Z</time>
</trkpt>
<trkpt lat="39.682823000" lon="-0.383946000">
  <ele>410.200000</ele>
  <time>2011-10-22T07:23:18Z</time>
</trkpt>
<trkpt lat="39.682752000" lon="-0.383971000">
  <ele>412.000000</ele>
  <time>2011-10-22T07:23:22Z</time>
</trkpt>
<trkpt lat="39.682737000" lon="-0.383982000">
  <ele>412.200000</ele>
  <time>2011-10-22T07:23:23Z</time>
</trkpt>
<trkpt lat="39.682694000" lon="-0.384024000">
  <ele>412.700000</ele>
  <time>2011-10-22T07:23:25Z</time>
</trkpt>
<trkpt lat="39.682669000" lon="-0.384057000">
  <ele>413.100000</ele>
  <time>2011-10-22T07:23:28Z</time>
</trkpt>
<trkpt lat="39.682602000" lon="-0.384137000">
  <ele>413.700000</ele>
  <time>2011-10-22T07:23:33Z</time>
</trkpt>
<trkpt lat="39.682586000" lon="-0.384147000">
  <ele>413.700000</ele>
  <time>2011-10-22T07:23:34Z</time>
</trkpt>
<trkpt lat="39.682528000" lon="-0.384199000">
  <ele>413.700000</ele>
  <time>2011-10-22T07:23:38Z</time>
</trkpt>
<trkpt lat="39.682501000" lon="-0.384219000">
  <ele>414.300000</ele>
  <time>2011-10-22T07:23:39Z</time>
</trkpt>
<trkpt lat="39.682386000" lon="-0.384305000">
  <ele>417.500000</ele>
  <time>2011-10-22T07:23:47Z</time>
</trkpt>
<trkpt lat="39.682376000" lon="-0.384320000">
  <ele>418.000000</ele>
  <time>2011-10-22T07:23:49Z</time>
</trkpt>
<trkpt lat="39.682365000" lon="-0.384334000">
  <ele>418.200000</ele>
  <time>2011-10-22T07:23:50Z</time>
</trkpt>
<trkpt lat="39.682329000" lon="-0.384378000">
  <ele>419.700000</ele>
  <time>2011-10-22T07:23:53Z</time>
</trkpt>
<trkpt lat="39.682296000" lon="-0.384440000">
  <ele>419.700000</ele>
  <time>2011-10-22T07:23:55Z</time>
</trkpt>
<trkpt lat="39.682285000" lon="-0.384487000">
  <ele>418.800000</ele>
  <time>2011-10-22T07:23:57Z</time>
</trkpt>
<trkpt lat="39.682285000" lon="-0.384509000">
  <ele>418.300000</ele>
  <time>2011-10-22T07:23:58Z</time>
</trkpt>
<trkpt lat="39.682282000" lon="-0.384768000">
  <ele>417.300000</ele>
  <time>2011-10-22T07:24:06Z</time>
</trkpt>
<trkpt lat="39.682268000" lon="-0.384798000">
  <ele>417.200000</ele>
  <time>2011-10-22T07:24:06Z</time>
</trkpt>
<trkpt lat="39.682245000" lon="-0.384870000">
  <ele>417.500000</ele>
  <time>2011-10-22T07:24:09Z</time>
</trkpt>
<trkpt lat="39.682214000" lon="-0.385006000">
  <ele>417.300000</ele>
  <time>2011-10-22T07:24:13Z</time>
</trkpt>
<trkpt lat="39.682214000" lon="-0.385036000">
  <ele>417.500000</ele>
  <time>2011-10-22T07:24:14Z</time>
</trkpt>
<trkpt lat="39.682226000" lon="-0.385084000">
  <ele>418.200000</ele>
  <time>2011-10-22T07:24:16Z</time>
</trkpt>
<trkpt lat="39.682237000" lon="-0.385102000">
  <ele>418.700000</ele>
  <time>2011-10-22T07:24:16Z</time>
</trkpt>
<trkpt lat="39.682264000" lon="-0.385137000">
  <ele>419.300000</ele>
  <time>2011-10-22T07:24:19Z</time>
</trkpt>
<trkpt lat="39.682280000" lon="-0.385154000">
  <ele>419.800000</ele>
  <time>2011-10-22T07:24:19Z</time>
</trkpt>
<trkpt lat="39.682295000" lon="-0.385163000">
  <ele>420.000000</ele>
  <time>2011-10-22T07:24:21Z</time>
</trkpt>
<trkpt lat="39.682312000" lon="-0.385173000">
  <ele>420.300000</ele>
  <time>2011-10-22T07:24:22Z</time>
</trkpt>
<trkpt lat="39.682328000" lon="-0.385175000">
  <ele>420.600000</ele>
  <time>2011-10-22T07:24:22Z</time>
</trkpt>
<trkpt lat="39.682346000" lon="-0.385174000">
  <ele>421.100000</ele>
  <time>2011-10-22T07:24:24Z</time>
</trkpt>
<trkpt lat="39.682363000" lon="-0.385166000">
  <ele>421.800000</ele>
  <time>2011-10-22T07:24:25Z</time>
</trkpt>
<trkpt lat="39.682426000" lon="-0.385127000">
  <ele>421.700000</ele>
  <time>2011-10-22T07:24:29Z</time>
</trkpt>
<trkpt lat="39.682438000" lon="-0.385112000">
  <ele>421.700000</ele>
  <time>2011-10-22T07:24:30Z</time>
</trkpt>
<trkpt lat="39.682528000" lon="-0.384967000">
  <ele>425.000000</ele>
  <time>2011-10-22T07:24:38Z</time>
</trkpt>
<trkpt lat="39.682535000" lon="-0.384947000">
  <ele>425.200000</ele>
  <time>2011-10-22T07:24:38Z</time>
</trkpt>
<trkpt lat="39.682578000" lon="-0.384842000">
  <ele>426.200000</ele>
  <time>2011-10-22T07:24:44Z</time>
</trkpt>
<trkpt lat="39.682642000" lon="-0.384688000">
  <ele>427.200000</ele>
  <time>2011-10-22T07:24:51Z</time>
</trkpt>
<trkpt lat="39.682653000" lon="-0.384665000">
  <ele>427.200000</ele>
  <time>2011-10-22T07:24:51Z</time>
</trkpt>
<trkpt lat="39.682673000" lon="-0.384637000">
  <ele>427.200000</ele>
  <time>2011-10-22T07:24:54Z</time>
</trkpt>
<trkpt lat="39.682695000" lon="-0.384633000">
  <ele>427.200000</ele>
  <time>2011-10-22T07:24:54Z</time>
</trkpt>
<trkpt lat="39.682746000" lon="-0.384633000">
  <ele>427.600000</ele>
  <time>2011-10-22T07:24:57Z</time>
</trkpt>
<trkpt lat="39.682758000" lon="-0.384642000">
  <ele>428.200000</ele>
  <time>2011-10-22T07:24:59Z</time>
</trkpt>
<trkpt lat="39.682799000" lon="-0.384678000">
  <ele>429.800000</ele>
  <time>2011-10-22T07:25:02Z</time>
</trkpt>
<trkpt lat="39.682808000" lon="-0.384695000">
  <ele>430.600000</ele>
  <time>2011-10-22T07:25:03Z</time>
</trkpt>
<trkpt lat="39.682809000" lon="-0.384716000">
  <ele>430.700000</ele>
  <time>2011-10-22T07:25:04Z</time>
</trkpt>
<trkpt lat="39.682812000" lon="-0.384802000">
  <ele>431.600000</ele>
  <time>2011-10-22T07:25:07Z</time>
</trkpt>
<trkpt lat="39.682811000" lon="-0.384824000">
  <ele>432.000000</ele>
  <time>2011-10-22T07:25:08Z</time>
</trkpt>
<trkpt lat="39.682807000" lon="-0.384845000">
  <ele>432.300000</ele>
  <time>2011-10-22T07:25:10Z</time>
</trkpt>
<trkpt lat="39.682775000" lon="-0.384993000">
  <ele>433.500000</ele>
  <time>2011-10-22T07:25:16Z</time>
</trkpt>
<trkpt lat="39.682770000" lon="-0.385031000">
  <ele>434.200000</ele>
  <time>2011-10-22T07:25:19Z</time>
</trkpt>
<trkpt lat="39.682771000" lon="-0.385048000">
  <ele>434.300000</ele>
  <time>2011-10-22T07:25:20Z</time>
</trkpt>
<trkpt lat="39.682778000" lon="-0.385169000">
  <ele>435.200000</ele>
  <time>2011-10-22T07:25:26Z</time>
</trkpt>
<trkpt lat="39.682779000" lon="-0.385234000">
  <ele>435.100000</ele>
  <time>2011-10-22T07:25:29Z</time>
</trkpt>
<trkpt lat="39.682775000" lon="-0.385317000">
  <ele>435.300000</ele>
  <time>2011-10-22T07:25:32Z</time>
</trkpt>
<trkpt lat="39.682772000" lon="-0.385382000">
  <ele>436.200000</ele>
  <time>2011-10-22T07:25:36Z</time>
</trkpt>
<trkpt lat="39.682773000" lon="-0.385405000">
  <ele>436.500000</ele>
  <time>2011-10-22T07:25:37Z</time>
</trkpt>
<trkpt lat="39.682775000" lon="-0.385475000">
  <ele>437.000000</ele>
  <time>2011-10-22T07:25:40Z</time>
</trkpt>
<trkpt lat="39.682775000" lon="-0.385491000">
  <ele>437.000000</ele>
  <time>2011-10-22T07:25:42Z</time>
</trkpt>
<trkpt lat="39.682779000" lon="-0.385510000">
  <ele>437.200000</ele>
  <time>2011-10-22T07:25:42Z</time>
</trkpt>
<trkpt lat="39.682827000" lon="-0.385763000">
  <ele>441.000000</ele>
  <time>2011-10-22T07:25:56Z</time>
</trkpt>
<trkpt lat="39.682832000" lon="-0.385779000">
  <ele>441.800000</ele>
  <time>2011-10-22T07:25:58Z</time>
</trkpt>
<trkpt lat="39.682842000" lon="-0.385823000">
  <ele>441.600000</ele>
  <time>2011-10-22T07:26:01Z</time>
</trkpt>
<trkpt lat="39.682849000" lon="-0.385908000">
  <ele>440.800000</ele>
  <time>2011-10-22T07:26:06Z</time>
</trkpt>
<trkpt lat="39.682847000" lon="-0.385922000">
  <ele>441.100000</ele>
  <time>2011-10-22T07:26:07Z</time>
</trkpt>
<trkpt lat="39.682846000" lon="-0.385941000">
  <ele>440.700000</ele>
  <time>2011-10-22T07:26:07Z</time>
</trkpt>
<trkpt lat="39.682844000" lon="-0.385959000">
  <ele>440.700000</ele>
  <time>2011-10-22T07:26:09Z</time>
</trkpt>
<trkpt lat="39.682840000" lon="-0.385996000">
  <ele>440.800000</ele>
  <time>2011-10-22T07:26:11Z</time>
</trkpt>
<trkpt lat="39.682843000" lon="-0.386176000">
  <ele>443.700000</ele>
  <time>2011-10-22T07:26:20Z</time>
</trkpt>
<trkpt lat="39.682844000" lon="-0.386213000">
  <ele>444.100000</ele>
  <time>2011-10-22T07:26:23Z</time>
</trkpt>
<trkpt lat="39.682843000" lon="-0.386234000">
  <ele>444.100000</ele>
  <time>2011-10-22T07:26:23Z</time>
</trkpt>
<trkpt lat="39.682841000" lon="-0.386252000">
  <ele>444.200000</ele>
  <time>2011-10-22T07:26:25Z</time>
</trkpt>
<trkpt lat="39.682839000" lon="-0.386285000">
  <ele>445.200000</ele>
  <time>2011-10-22T07:26:26Z</time>
</trkpt>
<trkpt lat="39.682845000" lon="-0.386364000">
  <ele>445.200000</ele>
  <time>2011-10-22T07:26:31Z</time>
</trkpt>
<trkpt lat="39.682857000" lon="-0.386419000">
  <ele>446.100000</ele>
  <time>2011-10-22T07:26:33Z</time>
</trkpt>
<trkpt lat="39.682867000" lon="-0.386432000">
  <ele>447.200000</ele>
  <time>2011-10-22T07:26:34Z</time>
</trkpt>
<trkpt lat="39.682875000" lon="-0.386450000">
  <ele>447.800000</ele>
  <time>2011-10-22T07:26:36Z</time>
</trkpt>
<trkpt lat="39.682882000" lon="-0.386484000">
  <ele>448.800000</ele>
  <time>2011-10-22T07:26:38Z</time>
</trkpt>
<trkpt lat="39.682888000" lon="-0.386529000">
  <ele>450.300000</ele>
  <time>2011-10-22T07:26:41Z</time>
</trkpt>
<trkpt lat="39.682924000" lon="-0.386757000">
  <ele>454.000000</ele>
  <time>2011-10-22T07:26:52Z</time>
</trkpt>
<trkpt lat="39.682922000" lon="-0.386777000">
  <ele>454.100000</ele>
  <time>2011-10-22T07:26:54Z</time>
</trkpt>
<trkpt lat="39.682923000" lon="-0.386794000">
  <ele>454.300000</ele>
  <time>2011-10-22T07:26:55Z</time>
</trkpt>
<trkpt lat="39.682923000" lon="-0.386815000">
  <ele>454.500000</ele>
  <time>2011-10-22T07:26:55Z</time>
</trkpt>
<trkpt lat="39.682919000" lon="-0.386857000">
  <ele>454.600000</ele>
  <time>2011-10-22T07:26:58Z</time>
</trkpt>
<trkpt lat="39.682916000" lon="-0.386875000">
  <ele>455.200000</ele>
  <time>2011-10-22T07:26:58Z</time>
</trkpt>
<trkpt lat="39.681916000" lon="-0.387180000">
  <ele>465.300000</ele>
  <time>2011-10-22T07:28:11Z</time>
</trkpt>
<trkpt lat="39.681919000" lon="-0.387206000">
  <ele>464.200000</ele>
  <time>2011-10-22T07:28:12Z</time>
</trkpt>
<trkpt lat="39.681903000" lon="-0.387227000">
  <ele>463.300000</ele>
  <time>2011-10-22T07:28:13Z</time>
</trkpt>
<trkpt lat="39.681878000" lon="-0.387224000">
  <ele>470.000000</ele>
  <time>2011-10-22T07:28:14Z</time>
</trkpt>
<trkpt lat="39.681868000" lon="-0.387243000">
  <ele>470.200000</ele>
  <time>2011-10-22T07:28:15Z</time>
</trkpt>
<trkpt lat="39.681838000" lon="-0.387257000">
  <ele>470.000000</ele>
  <time>2011-10-22T07:28:16Z</time>
</trkpt>
<trkpt lat="39.681824000" lon="-0.387268000">
  <ele>469.700000</ele>
  <time>2011-10-22T07:28:16Z</time>
</trkpt>
<trkpt lat="39.681785000" lon="-0.387298000">
  <ele>469.700000</ele>
  <time>2011-10-22T07:28:21Z</time>
</trkpt>
<trkpt lat="39.681771000" lon="-0.387301000">
  <ele>470.200000</ele>
  <time>2011-10-22T07:28:21Z</time>
</trkpt>
<trkpt lat="39.681683000" lon="-0.387341000">
  <ele>469.200000</ele>
  <time>2011-10-22T07:28:27Z</time>
</trkpt>
<trkpt lat="39.681605000" lon="-0.387366000">
  <ele>469.200000</ele>
  <time>2011-10-22T07:28:32Z</time>
</trkpt>
<trkpt lat="39.681592000" lon="-0.387368000">
  <ele>469.600000</ele>
  <time>2011-10-22T07:28:34Z</time>
</trkpt>
<trkpt lat="39.681579000" lon="-0.387367000">
  <ele>469.000000</ele>
  <time>2011-10-22T07:28:34Z</time>
</trkpt>
<trkpt lat="39.681545000" lon="-0.387358000">
  <ele>470.000000</ele>
  <time>2011-10-22T07:28:37Z</time>
</trkpt>
<trkpt lat="39.681498000" lon="-0.387336000">
  <ele>470.800000</ele>
  <time>2011-10-22T07:28:40Z</time>
</trkpt>
<trkpt lat="39.681483000" lon="-0.387324000">
  <ele>470.700000</ele>
  <time>2011-10-22T07:28:40Z</time>
</trkpt>
<trkpt lat="39.681473000" lon="-0.387310000">
  <ele>470.600000</ele>
  <time>2011-10-22T07:28:42Z</time>
</trkpt>
<trkpt lat="39.681437000" lon="-0.387260000">
  <ele>471.600000</ele>
  <time>2011-10-22T07:28:45Z</time>
</trkpt>
<trkpt lat="39.681423000" lon="-0.387247000">
  <ele>471.700000</ele>
  <time>2011-10-22T07:28:46Z</time>
</trkpt>
<trkpt lat="39.681342000" lon="-0.387170000">
  <ele>473.200000</ele>
  <time>2011-10-22T07:28:51Z</time>
</trkpt>
<trkpt lat="39.681327000" lon="-0.387163000">
  <ele>473.700000</ele>
  <time>2011-10-22T07:28:53Z</time>
</trkpt>
<trkpt lat="39.681277000" lon="-0.387149000">
  <ele>474.200000</ele>
  <time>2011-10-22T07:28:56Z</time>
</trkpt>
<trkpt lat="39.681260000" lon="-0.387149000">
  <ele>474.600000</ele>
  <time>2011-10-22T07:28:56Z</time>
</trkpt>
<trkpt lat="39.681245000" lon="-0.387154000">
  <ele>474.600000</ele>
  <time>2011-10-22T07:28:58Z</time>
</trkpt>
<trkpt lat="39.681217000" lon="-0.387168000">
  <ele>475.000000</ele>
  <time>2011-10-22T07:28:59Z</time>
</trkpt>
<trkpt lat="39.681205000" lon="-0.387180000">
  <ele>475.200000</ele>
  <time>2011-10-22T07:29:01Z</time>
</trkpt>
<trkpt lat="39.681180000" lon="-0.387208000">
  <ele>476.000000</ele>
  <time>2011-10-22T07:29:02Z</time>
</trkpt>
<trkpt lat="39.681171000" lon="-0.387225000">
  <ele>476.300000</ele>
  <time>2011-10-22T07:29:04Z</time>
</trkpt>
<trkpt lat="39.681134000" lon="-0.387313000">
  <ele>477.800000</ele>
  <time>2011-10-22T07:29:09Z</time>
</trkpt>
<trkpt lat="39.681122000" lon="-0.387354000">
  <ele>478.000000</ele>
  <time>2011-10-22T07:29:10Z</time>
</trkpt>
<trkpt lat="39.681119000" lon="-0.387374000">
  <ele>478.200000</ele>
  <time>2011-10-22T07:29:12Z</time>
</trkpt>
<trkpt lat="39.681117000" lon="-0.387394000">
  <ele>478.600000</ele>
  <time>2011-10-22T07:29:12Z</time>
</trkpt>
<trkpt lat="39.681121000" lon="-0.387433000">
  <ele>478.700000</ele>
  <time>2011-10-22T07:29:15Z</time>
</trkpt>
<trkpt lat="39.681127000" lon="-0.387511000">
  <ele>478.800000</ele>
  <time>2011-10-22T07:29:18Z</time>
</trkpt>
<trkpt lat="39.680904000" lon="-0.388036000">
  <ele>485.600000</ele>
  <time>2011-10-22T07:29:42Z</time>
</trkpt>
<trkpt lat="39.680918000" lon="-0.388052000">
  <ele>484.300000</ele>
  <time>2011-10-22T07:29:44Z</time>
</trkpt>
<trkpt lat="39.680912000" lon="-0.388071000">
  <ele>482.600000</ele>
  <time>2011-10-22T07:29:44Z</time>
</trkpt>
<trkpt lat="39.680897000" lon="-0.388076000">
  <ele>484.700000</ele>
  <time>2011-10-22T07:29:45Z</time>
</trkpt>
<trkpt lat="39.680879000" lon="-0.388089000">
  <ele>485.000000</ele>
  <time>2011-10-22T07:29:47Z</time>
</trkpt>
<trkpt lat="39.680878000" lon="-0.388114000">
  <ele>483.700000</ele>
  <time>2011-10-22T07:29:47Z</time>
</trkpt>
<trkpt lat="39.680865000" lon="-0.388144000">
  <ele>482.000000</ele>
  <time>2011-10-22T07:29:49Z</time>
</trkpt>
<trkpt lat="39.680855000" lon="-0.388152000">
  <ele>484.100000</ele>
  <time>2011-10-22T07:29:50Z</time>
</trkpt>
<trkpt lat="39.680845000" lon="-0.388170000">
  <ele>483.300000</ele>
  <time>2011-10-22T07:29:50Z</time>
</trkpt>
<trkpt lat="39.680787000" lon="-0.388235000">
  <ele>484.300000</ele>
  <time>2011-10-22T07:29:56Z</time>
</trkpt>
<trkpt lat="39.680769000" lon="-0.388277000">
  <ele>480.800000</ele>
  <time>2011-10-22T07:30:16Z</time>
</trkpt>
<trkpt lat="39.679763000" lon="-0.390484000">
  <ele>466.000000</ele>
  <time>2011-10-22T07:33:03Z</time>
</trkpt>
<trkpt lat="39.679750000" lon="-0.390477000">
  <ele>462.700000</ele>
  <time>2011-10-22T07:33:04Z</time>
</trkpt>
<trkpt lat="39.679735000" lon="-0.390497000">
  <ele>459.500000</ele>
  <time>2011-10-22T07:33:04Z</time>
</trkpt>
<trkpt lat="39.679716000" lon="-0.390503000">
  <ele>458.800000</ele>
  <time>2011-10-22T07:33:06Z</time>
</trkpt>
<trkpt lat="39.679559000" lon="-0.390571000">
  <ele>457.700000</ele>
  <time>2011-10-22T07:33:11Z</time>
</trkpt>
<trkpt lat="39.679518000" lon="-0.390594000">
  <ele>457.700000</ele>
  <time>2011-10-22T07:33:11Z</time>
</trkpt>
<trkpt lat="39.679428000" lon="-0.390684000">
  <ele>458.600000</ele>
  <time>2011-10-22T07:33:14Z</time>
</trkpt>
<trkpt lat="39.679403000" lon="-0.390739000">
  <ele>458.600000</ele>
  <time>2011-10-22T07:33:14Z</time>
</trkpt>
<trkpt lat="39.679327000" lon="-0.390996000">
  <ele>458.200000</ele>
  <time>2011-10-22T07:33:19Z</time>
</trkpt>
<trkpt lat="39.679314000" lon="-0.391131000">
  <ele>457.200000</ele>
  <time>2011-10-22T07:33:20Z</time>
</trkpt>
<trkpt lat="39.679314000" lon="-0.391192000">
  <ele>457.200000</ele>
  <time>2011-10-22T07:33:22Z</time>
</trkpt>
<trkpt lat="39.679332000" lon="-0.391296000">
  <ele>457.700000</ele>
  <time>2011-10-22T07:33:24Z</time>
</trkpt>
<trkpt lat="39.679354000" lon="-0.391331000">
  <ele>458.000000</ele>
  <time>2011-10-22T07:33:25Z</time>
</trkpt>
<trkpt lat="39.679477000" lon="-0.391530000">
  <ele>457.500000</ele>
  <time>2011-10-22T07:33:30Z</time>
</trkpt>
<trkpt lat="39.679465000" lon="-0.391582000">
  <ele>457.500000</ele>
  <time>2011-10-22T07:33:30Z</time>
</trkpt>
<trkpt lat="39.679374000" lon="-0.391674000">
  <ele>457.500000</ele>
  <time>2011-10-22T07:33:33Z</time>
</trkpt>
<trkpt lat="39.679330000" lon="-0.391705000">
  <ele>456.800000</ele>
  <time>2011-10-22T07:33:33Z</time>
</trkpt>
<trkpt lat="39.679095000" lon="-0.391827000">
  <ele>456.700000</ele>
  <time>2011-10-22T07:33:38Z</time>
</trkpt>
<trkpt lat="39.679063000" lon="-0.391869000">
  <ele>455.700000</ele>
  <time>2011-10-22T07:33:39Z</time>
</trkpt>
<trkpt lat="39.678819000" lon="-0.392160000">
  <ele>453.100000</ele>
  <time>2011-10-22T07:33:44Z</time>
</trkpt>
<trkpt lat="39.678699000" lon="-0.392268000">
  <ele>453.200000</ele>
  <time>2011-10-22T07:33:46Z</time>
</trkpt>
<trkpt lat="39.678603000" lon="-0.392420000">
  <ele>452.000000</ele>
  <time>2011-10-22T07:33:49Z</time>
</trkpt>
<trkpt lat="39.678613000" lon="-0.392471000">
  <ele>453.000000</ele>
  <time>2011-10-22T07:33:49Z</time>
</trkpt>
<trkpt lat="39.678633000" lon="-0.392505000">
  <ele>454.100000</ele>
  <time>2011-10-22T07:33:51Z</time>
</trkpt>
<trkpt lat="39.678627000" lon="-0.392545000">
  <ele>454.000000</ele>
  <time>2011-10-22T07:33:52Z</time>
</trkpt>
<trkpt lat="39.678626000" lon="-0.392710000">
  <ele>453.700000</ele>
  <time>2011-10-22T07:33:55Z</time>
</trkpt>
<trkpt lat="39.678573000" lon="-0.393809000">
  <ele>451.700000</ele>
  <time>2011-10-22T07:34:15Z</time>
</trkpt>
<trkpt lat="39.678543000" lon="-0.393838000">
  <ele>452.200000</ele>
  <time>2011-10-22T07:34:16Z</time>
</trkpt>
<trkpt lat="39.678522000" lon="-0.393879000">
  <ele>452.500000</ele>
  <time>2011-10-22T07:34:17Z</time>
</trkpt>
<trkpt lat="39.678496000" lon="-0.393936000">
  <ele>451.800000</ele>
  <time>2011-10-22T07:34:19Z</time>
</trkpt>
<trkpt lat="39.678401000" lon="-0.394107000">
  <ele>452.000000</ele>
  <time>2011-10-22T07:34:24Z</time>
</trkpt>
<trkpt lat="39.678385000" lon="-0.394132000">
  <ele>452.000000</ele>
  <time>2011-10-22T07:34:24Z</time>
</trkpt>
<trkpt lat="39.678358000" lon="-0.394150000">
  <ele>452.600000</ele>
  <time>2011-10-22T07:34:26Z</time>
</trkpt>
<trkpt lat="39.678290000" lon="-0.394184000">
  <ele>452.700000</ele>
  <time>2011-10-22T07:34:27Z</time>
</trkpt>
<trkpt lat="39.678253000" lon="-0.394199000">
  <ele>453.200000</ele>
  <time>2011-10-22T07:34:29Z</time>
</trkpt>
<trkpt lat="39.678218000" lon="-0.394207000">
  <ele>453.300000</ele>
  <time>2011-10-22T07:34:30Z</time>
</trkpt>
<trkpt lat="39.678117000" lon="-0.394238000">
  <ele>454.000000</ele>
  <time>2011-10-22T07:34:33Z</time>
</trkpt>
<trkpt lat="39.678083000" lon="-0.394258000">
  <ele>454.200000</ele>
  <time>2011-10-22T07:34:34Z</time>
</trkpt>
<trkpt lat="39.678056000" lon="-0.394292000">
  <ele>453.800000</ele>
  <time>2011-10-22T07:34:35Z</time>
</trkpt>
<trkpt lat="39.677996000" lon="-0.394354000">
  <ele>454.100000</ele>
  <time>2011-10-22T07:34:37Z</time>
</trkpt>
<trkpt lat="39.677871000" lon="-0.394501000">
  <ele>453.100000</ele>
  <time>2011-10-22T07:34:40Z</time>
</trkpt>
<trkpt lat="39.677728000" lon="-0.394653000">
  <ele>451.700000</ele>
  <time>2011-10-22T07:34:43Z</time>
</trkpt>
<trkpt lat="39.677675000" lon="-0.394689000">
  <ele>451.600000</ele>
  <time>2011-10-22T07:34:45Z</time>
</trkpt>
<trkpt lat="39.677592000" lon="-0.394758000">
  <ele>452.000000</ele>
  <time>2011-10-22T07:34:46Z</time>
</trkpt>
<trkpt lat="39.677559000" lon="-0.394799000">
  <ele>451.700000</ele>
  <time>2011-10-22T07:34:48Z</time>
</trkpt>
<trkpt lat="39.677366000" lon="-0.395021000">
  <ele>451.200000</ele>
  <time>2011-10-22T07:34:54Z</time>
</trkpt>
<trkpt lat="39.677332000" lon="-0.395043000">
  <ele>451.000000</ele>
  <time>2011-10-22T07:34:54Z</time>
</trkpt>
<trkpt lat="39.677298000" lon="-0.395048000">
  <ele>451.600000</ele>
  <time>2011-10-22T07:34:56Z</time>
</trkpt>
<trkpt lat="39.677262000" lon="-0.395052000">
  <ele>452.200000</ele>
  <time>2011-10-22T07:34:56Z</time>
</trkpt>
<trkpt lat="39.677228000" lon="-0.395049000">
  <ele>452.500000</ele>
  <time>2011-10-22T07:34:58Z</time>
</trkpt>
<trkpt lat="39.677161000" lon="-0.395056000">
  <ele>452.200000</ele>
  <time>2011-10-22T07:34:59Z</time>
</trkpt>
<trkpt lat="39.676973000" lon="-0.395076000">
  <ele>453.200000</ele>
  <time>2011-10-22T07:35:05Z</time>
</trkpt>
<trkpt lat="39.676945000" lon="-0.395069000">
  <ele>453.100000</ele>
  <time>2011-10-22T07:35:07Z</time>
</trkpt>
<trkpt lat="39.676916000" lon="-0.395069000">
  <ele>452.700000</ele>
  <time>2011-10-22T07:35:08Z</time>
</trkpt>
<trkpt lat="39.676886000" lon="-0.395075000">
  <ele>452.600000</ele>
  <time>2011-10-22T07:35:09Z</time>
</trkpt>
<trkpt lat="39.676761000" lon="-0.395115000">
  <ele>451.800000</ele>
  <time>2011-10-22T07:35:12Z</time>
</trkpt>
<trkpt lat="39.676738000" lon="-0.395131000">
  <ele>451.500000</ele>
  <time>2011-10-22T07:35:13Z</time>
</trkpt>
<trkpt lat="39.676698000" lon="-0.395174000">
  <ele>451.600000</ele>
  <time>2011-10-22T07:35:15Z</time>
</trkpt>
<trkpt lat="39.676698000" lon="-0.395236000">
  <ele>452.200000</ele>
  <time>2011-10-22T07:35:17Z</time>
</trkpt>
<trkpt lat="39.676693000" lon="-0.395283000">
  <ele>452.200000</ele>
  <time>2011-10-22T07:35:18Z</time>
</trkpt>
<trkpt lat="39.676653000" lon="-0.395706000">
  <ele>447.800000</ele>
  <time>2011-10-22T07:35:27Z</time>
</trkpt>
<trkpt lat="39.676643000" lon="-0.395752000">
  <ele>447.100000</ele>
  <time>2011-10-22T07:35:28Z</time>
</trkpt>
<trkpt lat="39.676632000" lon="-0.395799000">
  <ele>446.700000</ele>
  <time>2011-10-22T07:35:29Z</time>
</trkpt>
<trkpt lat="39.676619000" lon="-0.395840000">
  <ele>445.800000</ele>
  <time>2011-10-22T07:35:29Z</time>
</trkpt>
<trkpt lat="39.676575000" lon="-0.396063000">
  <ele>444.600000</ele>
  <time>2011-10-22T07:35:34Z</time>
</trkpt>
<trkpt lat="39.676541000" lon="-0.396246000">
  <ele>443.300000</ele>
  <time>2011-10-22T07:35:37Z</time>
</trkpt>
<trkpt lat="39.676525000" lon="-0.396301000">
  <ele>442.600000</ele>
  <time>2011-10-22T07:35:37Z</time>
</trkpt>
<trkpt lat="39.676492000" lon="-0.396432000">
  <ele>442.200000</ele>
  <time>2011-10-22T07:35:40Z</time>
</trkpt>
<trkpt lat="39.676477000" lon="-0.396522000">
  <ele>441.100000</ele>
  <time>2011-10-22T07:35:43Z</time>
</trkpt>
<trkpt lat="39.676473000" lon="-0.396606000">
  <ele>441.100000</ele>
  <time>2011-10-22T07:35:45Z</time>
</trkpt>
<trkpt lat="39.676486000" lon="-0.396697000">
  <ele>442.000000</ele>
  <time>2011-10-22T07:35:47Z</time>
</trkpt>
<trkpt lat="39.676502000" lon="-0.396718000">
  <ele>441.700000</ele>
  <time>2011-10-22T07:35:48Z</time>
</trkpt>
<trkpt lat="39.676551000" lon="-0.396755000">
  <ele>440.300000</ele>
  <time>2011-10-22T07:35:50Z</time>
</trkpt>
<trkpt lat="39.676591000" lon="-0.396766000">
  <ele>440.100000</ele>
  <time>2011-10-22T07:35:53Z</time>
</trkpt>
<trkpt lat="39.676617000" lon="-0.396766000">
  <ele>440.100000</ele>
  <time>2011-10-22T07:35:53Z</time>
</trkpt>
<trkpt lat="39.676644000" lon="-0.396763000">
  <ele>439.700000</ele>
  <time>2011-10-22T07:35:55Z</time>
</trkpt>
<trkpt lat="39.676836000" lon="-0.396740000">
  <ele>435.700000</ele>
  <time>2011-10-22T07:36:01Z</time>
</trkpt>
<trkpt lat="39.677014000" lon="-0.396737000">
  <ele>434.700000</ele>
  <time>2011-10-22T07:36:04Z</time>
</trkpt>
<trkpt lat="39.677063000" lon="-0.396746000">
  <ele>434.100000</ele>
  <time>2011-10-22T07:36:06Z</time>
</trkpt>
<trkpt lat="39.677236000" lon="-0.396772000">
  <ele>433.000000</ele>
  <time>2011-10-22T07:36:09Z</time>
</trkpt>
<trkpt lat="39.677276000" lon="-0.396802000">
  <ele>432.700000</ele>
  <time>2011-10-22T07:36:11Z</time>
</trkpt>
<trkpt lat="39.677306000" lon="-0.396895000">
  <ele>433.000000</ele>
  <time>2011-10-22T07:36:12Z</time>
</trkpt>
<trkpt lat="39.677303000" lon="-0.396942000">
  <ele>432.800000</ele>
  <time>2011-10-22T07:36:14Z</time>
</trkpt>
</trkseg>
</trk>
<trk>
  <name>2011-10-22-01_1494-1744</name>
  <desc>C:\Users\farnau\Documents\My Dropbox\Tracks\2011-10-22-01.gpx</desc>
<trkseg>
<trkpt lat="39.677303000" lon="-0.396942000">
  <ele>432.800000</ele>
  <time>2011-10-22T07:36:14Z</time>
</trkpt>
<trkpt lat="39.677298000" lon="-0.397023000">
  <ele>433.100000</ele>
  <time>2011-10-22T07:36:16Z</time>
</trkpt>
<trkpt lat="39.677303000" lon="-0.397349000">
  <ele>432.700000</ele>
  <time>2011-10-22T07:36:22Z</time>
</trkpt>
<trkpt lat="39.677302000" lon="-0.397399000">
  <ele>432.200000</ele>
  <time>2011-10-22T07:36:23Z</time>
</trkpt>
<trkpt lat="39.677338000" lon="-0.397819000">
  <ele>429.000000</ele>
  <time>2011-10-22T07:36:31Z</time>
</trkpt>
<trkpt lat="39.677328000" lon="-0.397891000">
  <ele>428.500000</ele>
  <time>2011-10-22T07:36:31Z</time>
</trkpt>
<trkpt lat="39.677312000" lon="-0.397962000">
  <ele>428.100000</ele>
  <time>2011-10-22T07:36:33Z</time>
</trkpt>
<trkpt lat="39.677286000" lon="-0.398028000">
  <ele>427.600000</ele>
  <time>2011-10-22T07:36:34Z</time>
</trkpt>
<trkpt lat="39.677187000" lon="-0.398260000">
  <ele>425.700000</ele>
  <time>2011-10-22T07:36:38Z</time>
</trkpt>
<trkpt lat="39.677176000" lon="-0.398321000">
  <ele>425.500000</ele>
  <time>2011-10-22T07:36:39Z</time>
</trkpt>
<trkpt lat="39.677182000" lon="-0.398380000">
  <ele>424.800000</ele>
  <time>2011-10-22T07:36:39Z</time>
</trkpt>
<trkpt lat="39.677200000" lon="-0.398441000">
  <ele>424.300000</ele>
  <time>2011-10-22T07:36:41Z</time>
</trkpt>
<trkpt lat="39.677227000" lon="-0.398499000">
  <ele>423.700000</ele>
  <time>2011-10-22T07:36:41Z</time>
</trkpt>
<trkpt lat="39.677262000" lon="-0.398555000">
  <ele>423.700000</ele>
  <time>2011-10-22T07:36:43Z</time>
</trkpt>
<trkpt lat="39.677789000" lon="-0.399450000">
  <ele>420.200000</ele>
  <time>2011-10-22T07:37:00Z</time>
</trkpt>
<trkpt lat="39.677814000" lon="-0.399506000">
  <ele>419.700000</ele>
  <time>2011-10-22T07:37:00Z</time>
</trkpt>
<trkpt lat="39.678030000" lon="-0.400043000">
  <ele>419.700000</ele>
  <time>2011-10-22T07:37:11Z</time>
</trkpt>
<trkpt lat="39.678043000" lon="-0.400091000">
  <ele>420.100000</ele>
  <time>2011-10-22T07:37:11Z</time>
</trkpt>
<trkpt lat="39.678050000" lon="-0.400135000">
  <ele>420.200000</ele>
  <time>2011-10-22T07:37:13Z</time>
</trkpt>
<trkpt lat="39.678088000" lon="-0.400378000">
  <ele>421.000000</ele>
  <time>2011-10-22T07:37:19Z</time>
</trkpt>
<trkpt lat="39.678106000" lon="-0.400413000">
  <ele>420.700000</ele>
  <time>2011-10-22T07:37:19Z</time>
</trkpt>
<trkpt lat="39.678148000" lon="-0.400480000">
  <ele>420.000000</ele>
  <time>2011-10-22T07:37:22Z</time>
</trkpt>
<trkpt lat="39.678373000" lon="-0.400750000">
  <ele>414.200000</ele>
  <time>2011-10-22T07:37:30Z</time>
</trkpt>
<trkpt lat="39.678415000" lon="-0.400784000">
  <ele>414.100000</ele>
  <time>2011-10-22T07:37:30Z</time>
</trkpt>
<trkpt lat="39.678541000" lon="-0.400897000">
  <ele>413.100000</ele>
  <time>2011-10-22T07:37:34Z</time>
</trkpt>
<trkpt lat="39.678564000" lon="-0.400943000">
  <ele>413.500000</ele>
  <time>2011-10-22T07:37:35Z</time>
</trkpt>
<trkpt lat="39.678580000" lon="-0.400993000">
  <ele>413.600000</ele>
  <time>2011-10-22T07:37:35Z</time>
</trkpt>
<trkpt lat="39.678644000" lon="-0.401180000">
  <ele>411.000000</ele>
  <time>2011-10-22T07:37:40Z</time>
</trkpt>
<trkpt lat="39.678665000" lon="-0.401209000">
  <ele>410.100000</ele>
  <time>2011-10-22T07:37:41Z</time>
</trkpt>
<trkpt lat="39.678957000" lon="-0.401657000">
  <ele>401.800000</ele>
  <time>2011-10-22T07:37:53Z</time>
</trkpt>
<trkpt lat="39.678987000" lon="-0.401715000">
  <ele>401.100000</ele>
  <time>2011-10-22T07:37:54Z</time>
</trkpt>
<trkpt lat="39.679093000" lon="-0.401920000">
  <ele>398.200000</ele>
  <time>2011-10-22T07:37:59Z</time>
</trkpt>
<trkpt lat="39.679117000" lon="-0.401943000">
  <ele>397.600000</ele>
  <time>2011-10-22T07:38:00Z</time>
</trkpt>
<trkpt lat="39.679137000" lon="-0.401969000">
  <ele>397.200000</ele>
  <time>2011-10-22T07:38:01Z</time>
</trkpt>
<trkpt lat="39.679174000" lon="-0.402036000">
  <ele>394.700000</ele>
  <time>2011-10-22T07:38:03Z</time>
</trkpt>
<trkpt lat="39.679366000" lon="-0.402355000">
  <ele>390.200000</ele>
  <time>2011-10-22T07:38:10Z</time>
</trkpt>
<trkpt lat="39.679373000" lon="-0.402396000">
  <ele>390.200000</ele>
  <time>2011-10-22T07:38:12Z</time>
</trkpt>
<trkpt lat="39.679378000" lon="-0.402439000">
  <ele>389.600000</ele>
  <time>2011-10-22T07:38:13Z</time>
</trkpt>
<trkpt lat="39.679372000" lon="-0.402483000">
  <ele>389.000000</ele>
  <time>2011-10-22T07:38:13Z</time>
</trkpt>
<trkpt lat="39.679361000" lon="-0.402529000">
  <ele>388.600000</ele>
  <time>2011-10-22T07:38:15Z</time>
</trkpt>
<trkpt lat="39.679316000" lon="-0.402689000">
  <ele>389.200000</ele>
  <time>2011-10-22T07:38:19Z</time>
</trkpt>
<trkpt lat="39.679286000" lon="-0.402807000">
  <ele>390.700000</ele>
  <time>2011-10-22T07:38:24Z</time>
</trkpt>
<trkpt lat="39.679236000" lon="-0.403020000">
  <ele>393.000000</ele>
  <time>2011-10-22T07:38:35Z</time>
</trkpt>
<trkpt lat="39.679233000" lon="-0.403045000">
  <ele>393.000000</ele>
  <time>2011-10-22T07:38:36Z</time>
</trkpt>
<trkpt lat="39.679188000" lon="-0.403268000">
  <ele>396.300000</ele>
  <time>2011-10-22T07:38:47Z</time>
</trkpt>
<trkpt lat="39.679157000" lon="-0.403429000">
  <ele>400.700000</ele>
  <time>2011-10-22T07:38:56Z</time>
</trkpt>
<trkpt lat="39.679152000" lon="-0.403483000">
  <ele>401.100000</ele>
  <time>2011-10-22T07:38:58Z</time>
</trkpt>
<trkpt lat="39.679135000" lon="-0.403679000">
  <ele>403.200000</ele>
  <time>2011-10-22T07:39:09Z</time>
</trkpt>
<trkpt lat="39.679129000" lon="-0.403697000">
  <ele>403.700000</ele>
  <time>2011-10-22T07:39:10Z</time>
</trkpt>
<trkpt lat="39.679113000" lon="-0.403763000">
  <ele>404.100000</ele>
  <time>2011-10-22T07:39:14Z</time>
</trkpt>
<trkpt lat="39.679107000" lon="-0.403781000">
  <ele>404.300000</ele>
  <time>2011-10-22T07:39:14Z</time>
</trkpt>
<trkpt lat="39.679080000" lon="-0.403859000">
  <ele>405.700000</ele>
  <time>2011-10-22T07:39:20Z</time>
</trkpt>
<trkpt lat="39.679072000" lon="-0.403873000">
  <ele>406.000000</ele>
  <time>2011-10-22T07:39:20Z</time>
</trkpt>
<trkpt lat="39.679064000" lon="-0.403884000">
  <ele>406.200000</ele>
  <time>2011-10-22T07:39:22Z</time>
</trkpt>
<trkpt lat="39.679053000" lon="-0.403891000">
  <ele>406.200000</ele>
  <time>2011-10-22T07:39:23Z</time>
</trkpt>
<trkpt lat="39.679041000" lon="-0.403899000">
  <ele>406.200000</ele>
  <time>2011-10-22T07:39:23Z</time>
</trkpt>
<trkpt lat="39.678993000" lon="-0.403931000">
  <ele>406.700000</ele>
  <time>2011-10-22T07:39:28Z</time>
</trkpt>
<trkpt lat="39.678980000" lon="-0.403938000">
  <ele>406.700000</ele>
  <time>2011-10-22T07:39:29Z</time>
</trkpt>
<trkpt lat="39.678966000" lon="-0.403944000">
  <ele>406.800000</ele>
  <time>2011-10-22T07:39:30Z</time>
</trkpt>
<trkpt lat="39.678954000" lon="-0.403943000">
  <ele>407.000000</ele>
  <time>2011-10-22T07:39:31Z</time>
</trkpt>
<trkpt lat="39.678945000" lon="-0.403934000">
  <ele>406.300000</ele>
  <time>2011-10-22T07:39:31Z</time>
</trkpt>
<trkpt lat="39.678925000" lon="-0.403914000">
  <ele>407.100000</ele>
  <time>2011-10-22T07:39:58Z</time>
</trkpt>
<trkpt lat="39.678915000" lon="-0.403903000">
  <ele>407.700000</ele>
  <time>2011-10-22T07:39:58Z</time>
</trkpt>
<trkpt lat="39.678879000" lon="-0.403861000">
  <ele>408.000000</ele>
  <time>2011-10-22T07:40:04Z</time>
</trkpt>
<trkpt lat="39.678870000" lon="-0.403854000">
  <ele>407.800000</ele>
  <time>2011-10-22T07:40:05Z</time>
</trkpt>
<trkpt lat="39.678841000" lon="-0.403828000">
  <ele>408.800000</ele>
  <time>2011-10-22T07:40:08Z</time>
</trkpt>
<trkpt lat="39.678833000" lon="-0.403826000">
  <ele>409.100000</ele>
  <time>2011-10-22T07:40:10Z</time>
</trkpt>
<trkpt lat="39.678823000" lon="-0.403829000">
  <ele>409.200000</ele>
  <time>2011-10-22T07:40:11Z</time>
</trkpt>
<trkpt lat="39.678812000" lon="-0.403833000">
  <ele>409.100000</ele>
  <time>2011-10-22T07:40:11Z</time>
</trkpt>
<trkpt lat="39.678802000" lon="-0.403838000">
  <ele>409.500000</ele>
  <time>2011-10-22T07:40:13Z</time>
</trkpt>
<trkpt lat="39.678793000" lon="-0.403843000">
  <ele>409.700000</ele>
  <time>2011-10-22T07:40:14Z</time>
</trkpt>
<trkpt lat="39.678778000" lon="-0.403895000">
  <ele>408.200000</ele>
  <time>2011-10-22T07:40:27Z</time>
</trkpt>
<trkpt lat="39.678781000" lon="-0.403908000">
  <ele>408.500000</ele>
  <time>2011-10-22T07:40:27Z</time>
</trkpt>
<trkpt lat="39.678812000" lon="-0.403988000">
  <ele>410.700000</ele>
  <time>2011-10-22T07:40:33Z</time>
</trkpt>
<trkpt lat="39.678821000" lon="-0.404001000">
  <ele>411.000000</ele>
  <time>2011-10-22T07:40:33Z</time>
</trkpt>
<trkpt lat="39.678835000" lon="-0.404012000">
  <ele>410.700000</ele>
  <time>2011-10-22T07:40:35Z</time>
</trkpt>
<trkpt lat="39.678883000" lon="-0.404038000">
  <ele>410.800000</ele>
  <time>2011-10-22T07:40:38Z</time>
</trkpt>
<trkpt lat="39.678899000" lon="-0.404043000">
  <ele>411.100000</ele>
  <time>2011-10-22T07:40:39Z</time>
</trkpt>
<trkpt lat="39.678953000" lon="-0.404052000">
  <ele>411.500000</ele>
  <time>2011-10-22T07:40:41Z</time>
</trkpt>
<trkpt lat="39.678995000" lon="-0.404047000">
  <ele>411.600000</ele>
  <time>2011-10-22T07:40:43Z</time>
</trkpt>
<trkpt lat="39.679017000" lon="-0.404041000">
  <ele>412.000000</ele>
  <time>2011-10-22T07:40:45Z</time>
</trkpt>
<trkpt lat="39.679055000" lon="-0.404015000">
  <ele>412.100000</ele>
  <time>2011-10-22T07:40:46Z</time>
</trkpt>
<trkpt lat="39.679072000" lon="-0.403998000">
  <ele>412.200000</ele>
  <time>2011-10-22T07:40:48Z</time>
</trkpt>
<trkpt lat="39.679088000" lon="-0.403981000">
  <ele>412.200000</ele>
  <time>2011-10-22T07:40:49Z</time>
</trkpt>
<trkpt lat="39.679107000" lon="-0.403970000">
  <ele>412.000000</ele>
  <time>2011-10-22T07:40:49Z</time>
</trkpt>
<trkpt lat="39.679144000" lon="-0.403954000">
  <ele>412.200000</ele>
  <time>2011-10-22T07:40:52Z</time>
</trkpt>
<trkpt lat="39.679228000" lon="-0.403930000">
  <ele>413.700000</ele>
  <time>2011-10-22T07:40:57Z</time>
</trkpt>
<trkpt lat="39.679244000" lon="-0.403928000">
  <ele>414.200000</ele>
  <time>2011-10-22T07:40:57Z</time>
</trkpt>
<trkpt lat="39.679331000" lon="-0.403916000">
  <ele>416.000000</ele>
  <time>2011-10-22T07:41:02Z</time>
</trkpt>
<trkpt lat="39.679349000" lon="-0.403915000">
  <ele>416.600000</ele>
  <time>2011-10-22T07:41:04Z</time>
</trkpt>
<trkpt lat="39.679410000" lon="-0.403906000">
  <ele>418.000000</ele>
  <time>2011-10-22T07:41:08Z</time>
</trkpt>
<trkpt lat="39.679422000" lon="-0.403903000">
  <ele>418.100000</ele>
  <time>2011-10-22T07:41:08Z</time>
</trkpt>
<trkpt lat="39.679454000" lon="-0.403905000">
  <ele>418.100000</ele>
  <time>2011-10-22T07:41:11Z</time>
</trkpt>
<trkpt lat="39.679469000" lon="-0.403912000">
  <ele>418.200000</ele>
  <time>2011-10-22T07:41:12Z</time>
</trkpt>
<trkpt lat="39.679496000" lon="-0.403927000">
  <ele>418.200000</ele>
  <time>2011-10-22T07:41:13Z</time>
</trkpt>
<trkpt lat="39.679512000" lon="-0.403930000">
  <ele>418.300000</ele>
  <time>2011-10-22T07:41:15Z</time>
</trkpt>
<trkpt lat="39.679544000" lon="-0.403935000">
  <ele>418.000000</ele>
  <time>2011-10-22T07:41:16Z</time>
</trkpt>
<trkpt lat="39.679689000" lon="-0.403965000">
  <ele>417.800000</ele>
  <time>2011-10-22T07:41:24Z</time>
</trkpt>
<trkpt lat="39.679896000" lon="-0.403986000">
  <ele>421.000000</ele>
  <time>2011-10-22T07:41:35Z</time>
</trkpt>
<trkpt lat="39.679921000" lon="-0.403983000">
  <ele>421.000000</ele>
  <time>2011-10-22T07:41:37Z</time>
</trkpt>
<trkpt lat="39.680140000" lon="-0.403966000">
  <ele>421.200000</ele>
  <time>2011-10-22T07:41:46Z</time>
</trkpt>
<trkpt lat="39.680182000" lon="-0.403968000">
  <ele>421.700000</ele>
  <time>2011-10-22T07:41:48Z</time>
</trkpt>
<trkpt lat="39.680401000" lon="-0.403986000">
  <ele>423.600000</ele>
  <time>2011-10-22T07:41:56Z</time>
</trkpt>
<trkpt lat="39.680423000" lon="-0.403987000">
  <ele>424.000000</ele>
  <time>2011-10-22T07:41:58Z</time>
</trkpt>
<trkpt lat="39.680475000" lon="-0.403982000">
  <ele>424.700000</ele>
  <time>2011-10-22T07:41:59Z</time>
</trkpt>
<trkpt lat="39.680585000" lon="-0.403962000">
  <ele>423.600000</ele>
  <time>2011-10-22T07:42:05Z</time>
</trkpt>
<trkpt lat="39.680607000" lon="-0.403952000">
  <ele>423.700000</ele>
  <time>2011-10-22T07:42:06Z</time>
</trkpt>
<trkpt lat="39.680691000" lon="-0.403955000">
  <ele>424.200000</ele>
  <time>2011-10-22T07:42:09Z</time>
</trkpt>
<trkpt lat="39.680738000" lon="-0.403964000">
  <ele>425.000000</ele>
  <time>2011-10-22T07:42:12Z</time>
</trkpt>
<trkpt lat="39.680776000" lon="-0.403977000">
  <ele>425.200000</ele>
  <time>2011-10-22T07:42:14Z</time>
</trkpt>
<trkpt lat="39.680815000" lon="-0.403988000">
  <ele>425.200000</ele>
  <time>2011-10-22T07:42:15Z</time>
</trkpt>
<trkpt lat="39.680837000" lon="-0.403983000">
  <ele>425.200000</ele>
  <time>2011-10-22T07:42:17Z</time>
</trkpt>
<trkpt lat="39.680856000" lon="-0.403973000">
  <ele>424.800000</ele>
  <time>2011-10-22T07:42:18Z</time>
</trkpt>
<trkpt lat="39.680920000" lon="-0.403921000">
  <ele>425.600000</ele>
  <time>2011-10-22T07:42:22Z</time>
</trkpt>
<trkpt lat="39.680931000" lon="-0.403905000">
  <ele>426.100000</ele>
  <time>2011-10-22T07:42:23Z</time>
</trkpt>
<trkpt lat="39.680964000" lon="-0.403858000">
  <ele>427.100000</ele>
  <time>2011-10-22T07:42:25Z</time>
</trkpt>
<trkpt lat="39.680970000" lon="-0.403837000">
  <ele>427.700000</ele>
  <time>2011-10-22T07:42:26Z</time>
</trkpt>
<trkpt lat="39.680975000" lon="-0.403820000">
  <ele>428.500000</ele>
  <time>2011-10-22T07:42:28Z</time>
</trkpt>
<trkpt lat="39.680983000" lon="-0.403807000">
  <ele>428.700000</ele>
  <time>2011-10-22T07:42:28Z</time>
</trkpt>
<trkpt lat="39.681016000" lon="-0.403770000">
  <ele>428.800000</ele>
  <time>2011-10-22T07:42:31Z</time>
</trkpt>
<trkpt lat="39.681197000" lon="-0.403584000">
  <ele>429.500000</ele>
  <time>2011-10-22T07:42:46Z</time>
</trkpt>
<trkpt lat="39.681291000" lon="-0.403483000">
  <ele>429.800000</ele>
  <time>2011-10-22T07:42:54Z</time>
</trkpt>
<trkpt lat="39.681387000" lon="-0.403355000">
  <ele>429.200000</ele>
  <time>2011-10-22T07:43:03Z</time>
</trkpt>
<trkpt lat="39.681433000" lon="-0.403275000">
  <ele>429.800000</ele>
  <time>2011-10-22T07:43:08Z</time>
</trkpt>
<trkpt lat="39.681445000" lon="-0.403262000">
  <ele>430.000000</ele>
  <time>2011-10-22T07:43:09Z</time>
</trkpt>
<trkpt lat="39.681528000" lon="-0.403087000">
  <ele>428.700000</ele>
  <time>2011-10-22T07:43:17Z</time>
</trkpt>
<trkpt lat="39.681541000" lon="-0.403044000">
  <ele>429.000000</ele>
  <time>2011-10-22T07:43:19Z</time>
</trkpt>
<trkpt lat="39.681592000" lon="-0.402890000">
  <ele>429.200000</ele>
  <time>2011-10-22T07:43:25Z</time>
</trkpt>
<trkpt lat="39.681656000" lon="-0.402657000">
  <ele>430.000000</ele>
  <time>2011-10-22T07:43:33Z</time>
</trkpt>
<trkpt lat="39.681660000" lon="-0.402628000">
  <ele>430.300000</ele>
  <time>2011-10-22T07:43:35Z</time>
</trkpt>
<trkpt lat="39.681779000" lon="-0.401688000">
  <ele>431.300000</ele>
  <time>2011-10-22T07:44:02Z</time>
</trkpt>
<trkpt lat="39.681780000" lon="-0.401655000">
  <ele>431.100000</ele>
  <time>2011-10-22T07:44:03Z</time>
</trkpt>
<trkpt lat="39.681787000" lon="-0.401560000">
  <ele>431.300000</ele>
  <time>2011-10-22T07:44:06Z</time>
</trkpt>
<trkpt lat="39.681800000" lon="-0.401496000">
  <ele>431.300000</ele>
  <time>2011-10-22T07:44:08Z</time>
</trkpt>
<trkpt lat="39.681811000" lon="-0.401464000">
  <ele>432.100000</ele>
  <time>2011-10-22T07:44:08Z</time>
</trkpt>
<trkpt lat="39.681825000" lon="-0.401438000">
  <ele>431.700000</ele>
  <time>2011-10-22T07:44:10Z</time>
</trkpt>
<trkpt lat="39.681884000" lon="-0.401346000">
  <ele>433.700000</ele>
  <time>2011-10-22T07:44:13Z</time>
</trkpt>
<trkpt lat="39.681916000" lon="-0.401315000">
  <ele>433.800000</ele>
  <time>2011-10-22T07:44:16Z</time>
</trkpt>
<trkpt lat="39.681987000" lon="-0.401239000">
  <ele>433.500000</ele>
  <time>2011-10-22T07:44:19Z</time>
</trkpt>
<trkpt lat="39.682029000" lon="-0.401179000">
  <ele>433.700000</ele>
  <time>2011-10-22T07:44:23Z</time>
</trkpt>
<trkpt lat="39.682095000" lon="-0.401063000">
  <ele>433.600000</ele>
  <time>2011-10-22T07:44:27Z</time>
</trkpt>
<trkpt lat="39.682210000" lon="-0.400903000">
  <ele>435.200000</ele>
  <time>2011-10-22T07:44:35Z</time>
</trkpt>
<trkpt lat="39.682288000" lon="-0.400791000">
  <ele>438.000000</ele>
  <time>2011-10-22T07:44:41Z</time>
</trkpt>
<trkpt lat="39.682301000" lon="-0.400775000">
  <ele>438.200000</ele>
  <time>2011-10-22T07:44:42Z</time>
</trkpt>
<trkpt lat="39.682332000" lon="-0.400742000">
  <ele>438.300000</ele>
  <time>2011-10-22T07:44:43Z</time>
</trkpt>
<trkpt lat="39.682464000" lon="-0.400595000">
  <ele>441.100000</ele>
  <time>2011-10-22T07:44:51Z</time>
</trkpt>
<trkpt lat="39.682488000" lon="-0.400554000">
  <ele>441.200000</ele>
  <time>2011-10-22T07:44:54Z</time>
</trkpt>
<trkpt lat="39.682607000" lon="-0.400353000">
  <ele>442.100000</ele>
  <time>2011-10-22T07:45:02Z</time>
</trkpt>
<trkpt lat="39.682622000" lon="-0.400335000">
  <ele>442.500000</ele>
  <time>2011-10-22T07:45:04Z</time>
</trkpt>
<trkpt lat="39.682678000" lon="-0.400268000">
  <ele>442.700000</ele>
  <time>2011-10-22T07:45:07Z</time>
</trkpt>
<trkpt lat="39.682733000" lon="-0.400214000">
  <ele>443.100000</ele>
  <time>2011-10-22T07:45:12Z</time>
</trkpt>
<trkpt lat="39.682746000" lon="-0.400198000">
  <ele>443.200000</ele>
  <time>2011-10-22T07:45:13Z</time>
</trkpt>
<trkpt lat="39.682771000" lon="-0.400173000">
  <ele>443.700000</ele>
  <time>2011-10-22T07:45:15Z</time>
</trkpt>
<trkpt lat="39.682801000" lon="-0.400151000">
  <ele>443.800000</ele>
  <time>2011-10-22T07:45:17Z</time>
</trkpt>
<trkpt lat="39.682918000" lon="-0.400074000">
  <ele>446.200000</ele>
  <time>2011-10-22T07:45:25Z</time>
</trkpt>
<trkpt lat="39.682933000" lon="-0.400070000">
  <ele>446.700000</ele>
  <time>2011-10-22T07:45:26Z</time>
</trkpt>
<trkpt lat="39.682947000" lon="-0.400067000">
  <ele>447.200000</ele>
  <time>2011-10-22T07:45:26Z</time>
</trkpt>
<trkpt lat="39.682963000" lon="-0.400067000">
  <ele>447.600000</ele>
  <time>2011-10-22T07:45:28Z</time>
</trkpt>
<trkpt lat="39.682978000" lon="-0.400069000">
  <ele>447.800000</ele>
  <time>2011-10-22T07:45:29Z</time>
</trkpt>
<trkpt lat="39.682991000" lon="-0.400072000">
  <ele>448.300000</ele>
  <time>2011-10-22T07:45:30Z</time>
</trkpt>
<trkpt lat="39.683004000" lon="-0.400077000">
  <ele>448.500000</ele>
  <time>2011-10-22T07:45:31Z</time>
</trkpt>
<trkpt lat="39.683014000" lon="-0.400085000">
  <ele>448.700000</ele>
  <time>2011-10-22T07:45:32Z</time>
</trkpt>
<trkpt lat="39.683026000" lon="-0.400100000">
  <ele>449.200000</ele>
  <time>2011-10-22T07:45:33Z</time>
</trkpt>
<trkpt lat="39.683039000" lon="-0.400116000">
  <ele>449.500000</ele>
  <time>2011-10-22T07:45:34Z</time>
</trkpt>
<trkpt lat="39.683048000" lon="-0.400126000">
  <ele>449.700000</ele>
  <time>2011-10-22T07:45:34Z</time>
</trkpt>
<trkpt lat="39.683061000" lon="-0.400130000">
  <ele>449.800000</ele>
  <time>2011-10-22T07:45:36Z</time>
</trkpt>
<trkpt lat="39.683082000" lon="-0.400144000">
  <ele>450.000000</ele>
  <time>2011-10-22T07:45:37Z</time>
</trkpt>
<trkpt lat="39.683142000" lon="-0.400187000">
  <ele>452.200000</ele>
  <time>2011-10-22T07:45:42Z</time>
</trkpt>
<trkpt lat="39.683149000" lon="-0.400198000">
  <ele>452.500000</ele>
  <time>2011-10-22T07:45:44Z</time>
</trkpt>
<trkpt lat="39.683160000" lon="-0.400211000">
  <ele>452.700000</ele>
  <time>2011-10-22T07:45:45Z</time>
</trkpt>
<trkpt lat="39.683216000" lon="-0.400289000">
  <ele>454.600000</ele>
  <time>2011-10-22T07:45:50Z</time>
</trkpt>
<trkpt lat="39.683325000" lon="-0.400426000">
  <ele>459.500000</ele>
  <time>2011-10-22T07:46:01Z</time>
</trkpt>
<trkpt lat="39.683339000" lon="-0.400435000">
  <ele>459.300000</ele>
  <time>2011-10-22T07:46:03Z</time>
</trkpt>
<trkpt lat="39.683355000" lon="-0.400433000">
  <ele>459.600000</ele>
  <time>2011-10-22T07:46:04Z</time>
</trkpt>
<trkpt lat="39.683371000" lon="-0.400440000">
  <ele>459.100000</ele>
  <time>2011-10-22T07:46:05Z</time>
</trkpt>
<trkpt lat="39.683389000" lon="-0.400443000">
  <ele>458.800000</ele>
  <time>2011-10-22T07:46:06Z</time>
</trkpt>
<trkpt lat="39.683442000" lon="-0.400456000">
  <ele>458.800000</ele>
  <time>2011-10-22T07:46:09Z</time>
</trkpt>
<trkpt lat="39.683458000" lon="-0.400467000">
  <ele>459.000000</ele>
  <time>2011-10-22T07:46:09Z</time>
</trkpt>
<trkpt lat="39.683493000" lon="-0.400506000">
  <ele>457.700000</ele>
  <time>2011-10-22T07:46:11Z</time>
</trkpt>
<trkpt lat="39.683504000" lon="-0.400529000">
  <ele>457.300000</ele>
  <time>2011-10-22T07:46:13Z</time>
</trkpt>
<trkpt lat="39.683516000" lon="-0.400551000">
  <ele>457.100000</ele>
  <time>2011-10-22T07:46:14Z</time>
</trkpt>
<trkpt lat="39.683583000" lon="-0.400913000">
  <ele>455.500000</ele>
  <time>2011-10-22T07:46:24Z</time>
</trkpt>
<trkpt lat="39.683655000" lon="-0.401067000">
  <ele>452.700000</ele>
  <time>2011-10-22T07:46:27Z</time>
</trkpt>
<trkpt lat="39.683886000" lon="-0.401569000">
  <ele>444.600000</ele>
  <time>2011-10-22T07:46:40Z</time>
</trkpt>
<trkpt lat="39.683890000" lon="-0.401623000">
  <ele>444.700000</ele>
  <time>2011-10-22T07:46:41Z</time>
</trkpt>
<trkpt lat="39.683902000" lon="-0.401817000">
  <ele>444.000000</ele>
  <time>2011-10-22T07:46:44Z</time>
</trkpt>
<trkpt lat="39.683895000" lon="-0.401857000">
  <ele>443.700000</ele>
  <time>2011-10-22T07:46:46Z</time>
</trkpt>
<trkpt lat="39.683864000" lon="-0.402079000">
  <ele>441.200000</ele>
  <time>2011-10-22T07:46:51Z</time>
</trkpt>
<trkpt lat="39.683864000" lon="-0.402136000">
  <ele>441.000000</ele>
  <time>2011-10-22T07:46:52Z</time>
</trkpt>
<trkpt lat="39.683869000" lon="-0.402270000">
  <ele>439.800000</ele>
  <time>2011-10-22T07:46:54Z</time>
</trkpt>
<trkpt lat="39.683911000" lon="-0.402584000">
  <ele>439.000000</ele>
  <time>2011-10-22T07:46:58Z</time>
</trkpt>
<trkpt lat="39.683980000" lon="-0.402876000">
  <ele>438.000000</ele>
  <time>2011-10-22T07:47:02Z</time>
</trkpt>
<trkpt lat="39.683996000" lon="-0.402932000">
  <ele>437.300000</ele>
  <time>2011-10-22T07:47:02Z</time>
</trkpt>
<trkpt lat="39.684017000" lon="-0.402980000">
  <ele>436.300000</ele>
  <time>2011-10-22T07:47:03Z</time>
</trkpt>
<trkpt lat="39.684054000" lon="-0.403103000">
  <ele>436.300000</ele>
  <time>2011-10-22T07:47:05Z</time>
</trkpt>
<trkpt lat="39.684058000" lon="-0.403176000">
  <ele>435.800000</ele>
  <time>2011-10-22T07:47:07Z</time>
</trkpt>
<trkpt lat="39.684049000" lon="-0.403377000">
  <ele>436.100000</ele>
  <time>2011-10-22T07:47:10Z</time>
</trkpt>
<trkpt lat="39.684027000" lon="-0.403509000">
  <ele>436.100000</ele>
  <time>2011-10-22T07:47:11Z</time>
</trkpt>
<trkpt lat="39.683985000" lon="-0.403770000">
  <ele>434.300000</ele>
  <time>2011-10-22T07:47:16Z</time>
</trkpt>
<trkpt lat="39.683985000" lon="-0.403836000">
  <ele>433.800000</ele>
  <time>2011-10-22T07:47:17Z</time>
</trkpt>
<trkpt lat="39.684036000" lon="-0.404328000">
  <ele>432.500000</ele>
  <time>2011-10-22T07:47:24Z</time>
</trkpt>
<trkpt lat="39.684072000" lon="-0.404469000">
  <ele>432.200000</ele>
  <time>2011-10-22T07:47:26Z</time>
</trkpt>
<trkpt lat="39.684102000" lon="-0.404529000">
  <ele>432.000000</ele>
  <time>2011-10-22T07:47:27Z</time>
</trkpt>
<trkpt lat="39.684117000" lon="-0.404593000">
  <ele>431.700000</ele>
  <time>2011-10-22T07:47:27Z</time>
</trkpt>
<trkpt lat="39.684131000" lon="-0.404663000">
  <ele>432.200000</ele>
  <time>2011-10-22T07:47:29Z</time>
</trkpt>
<trkpt lat="39.684134000" lon="-0.404730000">
  <ele>432.300000</ele>
  <time>2011-10-22T07:47:30Z</time>
</trkpt>
<trkpt lat="39.684125000" lon="-0.404786000">
  <ele>431.800000</ele>
  <time>2011-10-22T07:47:31Z</time>
</trkpt>
<trkpt lat="39.684117000" lon="-0.404847000">
  <ele>431.800000</ele>
  <time>2011-10-22T07:47:32Z</time>
</trkpt>
<trkpt lat="39.684119000" lon="-0.404897000">
  <ele>431.300000</ele>
  <time>2011-10-22T07:47:33Z</time>
</trkpt>
<trkpt lat="39.684131000" lon="-0.405003000">
  <ele>431.200000</ele>
  <time>2011-10-22T07:47:35Z</time>
</trkpt>
<trkpt lat="39.684167000" lon="-0.405344000">
  <ele>429.500000</ele>
  <time>2011-10-22T07:47:40Z</time>
</trkpt>
<trkpt lat="39.684163000" lon="-0.405419000">
  <ele>429.100000</ele>
  <time>2011-10-22T07:47:40Z</time>
</trkpt>
<trkpt lat="39.684168000" lon="-0.405642000">
  <ele>428.800000</ele>
  <time>2011-10-22T07:47:43Z</time>
</trkpt>
<trkpt lat="39.684192000" lon="-0.405782000">
  <ele>428.300000</ele>
  <time>2011-10-22T07:47:46Z</time>
</trkpt>
<trkpt lat="39.684237000" lon="-0.405919000">
  <ele>427.600000</ele>
  <time>2011-10-22T07:47:48Z</time>
</trkpt>
<trkpt lat="39.684308000" lon="-0.406048000">
  <ele>426.300000</ele>
  <time>2011-10-22T07:47:50Z</time>
</trkpt>
<trkpt lat="39.684382000" lon="-0.406141000">
  <ele>425.800000</ele>
  <time>2011-10-22T07:47:51Z</time>
</trkpt>
<trkpt lat="39.684413000" lon="-0.406190000">
  <ele>424.800000</ele>
  <time>2011-10-22T07:47:53Z</time>
</trkpt>
<trkpt lat="39.684454000" lon="-0.406294000">
  <ele>424.100000</ele>
  <time>2011-10-22T07:47:54Z</time>
</trkpt>
<trkpt lat="39.684462000" lon="-0.406353000">
  <ele>424.000000</ele>
  <time>2011-10-22T07:47:56Z</time>
</trkpt>
<trkpt lat="39.684540000" lon="-0.406825000">
  <ele>421.000000</ele>
  <time>2011-10-22T07:48:02Z</time>
</trkpt>
<trkpt lat="39.684520000" lon="-0.406875000">
  <ele>421.000000</ele>
  <time>2011-10-22T07:48:04Z</time>
</trkpt>
<trkpt lat="39.684485000" lon="-0.406900000">
  <ele>420.700000</ele>
  <time>2011-10-22T07:48:05Z</time>
</trkpt>
<trkpt lat="39.684416000" lon="-0.406932000">
  <ele>420.600000</ele>
  <time>2011-10-22T07:48:07Z</time>
</trkpt>
<trkpt lat="39.684386000" lon="-0.406942000">
  <ele>420.600000</ele>
  <time>2011-10-22T07:48:08Z</time>
</trkpt>
<trkpt lat="39.684352000" lon="-0.406946000">
  <ele>420.200000</ele>
  <time>2011-10-22T07:48:09Z</time>
</trkpt>
<trkpt lat="39.684257000" lon="-0.406976000">
  <ele>419.300000</ele>
  <time>2011-10-22T07:48:12Z</time>
</trkpt>
<trkpt lat="39.684235000" lon="-0.406990000">
  <ele>419.200000</ele>
  <time>2011-10-22T07:48:13Z</time>
</trkpt>
<trkpt lat="39.684172000" lon="-0.407055000">
  <ele>417.700000</ele>
  <time>2011-10-22T07:48:26Z</time>
</trkpt>
<trkpt lat="39.684148000" lon="-0.407068000">
  <ele>417.700000</ele>
  <time>2011-10-22T07:48:28Z</time>
</trkpt>
<trkpt lat="39.684111000" lon="-0.407099000">
  <ele>418.100000</ele>
  <time>2011-10-22T07:48:29Z</time>
</trkpt>
<trkpt lat="39.683986000" lon="-0.407244000">
  <ele>417.600000</ele>
  <time>2011-10-22T07:48:36Z</time>
</trkpt>
<trkpt lat="39.683593000" lon="-0.407732000">
  <ele>422.700000</ele>
  <time>2011-10-22T07:48:59Z</time>
</trkpt>
<trkpt lat="39.683579000" lon="-0.407746000">
  <ele>422.700000</ele>
  <time>2011-10-22T07:49:00Z</time>
</trkpt>
<trkpt lat="39.683497000" lon="-0.407837000">
  <ele>422.500000</ele>
  <time>2011-10-22T07:49:04Z</time>
</trkpt>
<trkpt lat="39.683490000" lon="-0.407857000">
  <ele>423.500000</ele>
  <time>2011-10-22T07:49:06Z</time>
</trkpt>
<trkpt lat="39.683506000" lon="-0.407887000">
  <ele>425.700000</ele>
  <time>2011-10-22T07:49:08Z</time>
</trkpt>
<trkpt lat="39.683511000" lon="-0.407888000">
  <ele>426.200000</ele>
  <time>2011-10-22T07:49:09Z</time>
</trkpt>
<trkpt lat="39.683549000" lon="-0.407874000">
  <ele>427.200000</ele>
  <time>2011-10-22T07:49:09Z</time>
</trkpt>
<trkpt lat="39.683566000" lon="-0.407865000">
  <ele>427.300000</ele>
  <time>2011-10-22T07:49:11Z</time>
</trkpt>
<trkpt lat="39.683672000" lon="-0.407798000">
  <ele>429.200000</ele>
  <time>2011-10-22T07:49:16Z</time>
</trkpt>
<trkpt lat="39.683698000" lon="-0.407782000">
  <ele>428.700000</ele>
  <time>2011-10-22T07:49:17Z</time>
</trkpt>
<trkpt lat="39.684020000" lon="-0.407622000">
  <ele>428.700000</ele>
  <time>2011-10-22T07:49:31Z</time>
</trkpt>
<trkpt lat="39.684042000" lon="-0.407610000">
  <ele>429.000000</ele>
  <time>2011-10-22T07:49:32Z</time>
</trkpt>
<trkpt lat="39.684240000" lon="-0.407535000">
  <ele>428.700000</ele>
  <time>2011-10-22T07:49:39Z</time>
</trkpt>
<trkpt lat="39.684309000" lon="-0.407520000">
  <ele>429.300000</ele>
  <time>2011-10-22T07:49:43Z</time>
</trkpt>
<trkpt lat="39.684334000" lon="-0.407519000">
  <ele>429.200000</ele>
  <time>2011-10-22T07:49:44Z</time>
</trkpt>
<trkpt lat="39.684358000" lon="-0.407522000">
  <ele>429.200000</ele>
  <time>2011-10-22T07:49:44Z</time>
</trkpt>
<trkpt lat="39.684379000" lon="-0.407519000">
  <ele>429.300000</ele>
  <time>2011-10-22T07:49:46Z</time>
</trkpt>
<trkpt lat="39.684434000" lon="-0.407520000">
  <ele>428.600000</ele>
  <time>2011-10-22T07:49:47Z</time>
</trkpt>
</trkseg>
</trk>
<trk>
  <name>2011-10-22-01_1743-1993</name>
  <desc>C:\Users\farnau\Documents\My Dropbox\Tracks\2011-10-22-01.gpx</desc>
<trkseg>
<trkpt lat="39.684434000" lon="-0.407520000">
  <ele>428.600000</ele>
  <time>2011-10-22T07:49:47Z</time>
</trkpt>
<trkpt lat="39.684871000" lon="-0.407561000">
  <ele>430.700000</ele>
  <time>2011-10-22T07:50:06Z</time>
</trkpt>
<trkpt lat="39.684898000" lon="-0.407562000">
  <ele>431.200000</ele>
  <time>2011-10-22T07:50:07Z</time>
</trkpt>
<trkpt lat="39.684941000" lon="-0.407580000">
  <ele>431.200000</ele>
  <time>2011-10-22T07:50:09Z</time>
</trkpt>
<trkpt lat="39.684982000" lon="-0.407606000">
  <ele>431.300000</ele>
  <time>2011-10-22T07:50:11Z</time>
</trkpt>
<trkpt lat="39.685019000" lon="-0.407644000">
  <ele>433.600000</ele>
  <time>2011-10-22T07:50:13Z</time>
</trkpt>
<trkpt lat="39.685046000" lon="-0.407681000">
  <ele>433.700000</ele>
  <time>2011-10-22T07:50:14Z</time>
</trkpt>
<trkpt lat="39.685047000" lon="-0.407690000">
  <ele>433.200000</ele>
  <time>2011-10-22T07:50:16Z</time>
</trkpt>
<trkpt lat="39.685038000" lon="-0.407708000">
  <ele>433.200000</ele>
  <time>2011-10-22T07:50:16Z</time>
</trkpt>
<trkpt lat="39.685028000" lon="-0.407716000">
  <ele>433.600000</ele>
  <time>2011-10-22T07:50:18Z</time>
</trkpt>
<trkpt lat="39.685011000" lon="-0.407724000">
  <ele>433.600000</ele>
  <time>2011-10-22T07:50:19Z</time>
</trkpt>
<trkpt lat="39.684987000" lon="-0.407730000">
  <ele>433.600000</ele>
  <time>2011-10-22T07:50:19Z</time>
</trkpt>
<trkpt lat="39.684964000" lon="-0.407730000">
  <ele>433.700000</ele>
  <time>2011-10-22T07:50:21Z</time>
</trkpt>
<trkpt lat="39.684944000" lon="-0.407729000">
  <ele>434.200000</ele>
  <time>2011-10-22T07:50:22Z</time>
</trkpt>
<trkpt lat="39.684844000" lon="-0.407733000">
  <ele>435.100000</ele>
  <time>2011-10-22T07:50:27Z</time>
</trkpt>
<trkpt lat="39.684823000" lon="-0.407738000">
  <ele>435.100000</ele>
  <time>2011-10-22T07:50:27Z</time>
</trkpt>
<trkpt lat="39.684709000" lon="-0.407785000">
  <ele>436.200000</ele>
  <time>2011-10-22T07:50:32Z</time>
</trkpt>
<trkpt lat="39.684684000" lon="-0.407794000">
  <ele>436.200000</ele>
  <time>2011-10-22T07:50:34Z</time>
</trkpt>
<trkpt lat="39.684598000" lon="-0.407836000">
  <ele>436.800000</ele>
  <time>2011-10-22T07:50:38Z</time>
</trkpt>
<trkpt lat="39.684518000" lon="-0.407886000">
  <ele>438.100000</ele>
  <time>2011-10-22T07:50:42Z</time>
</trkpt>
<trkpt lat="39.684320000" lon="-0.408016000">
  <ele>439.000000</ele>
  <time>2011-10-22T07:50:51Z</time>
</trkpt>
<trkpt lat="39.684300000" lon="-0.408034000">
  <ele>439.000000</ele>
  <time>2011-10-22T07:50:53Z</time>
</trkpt>
<trkpt lat="39.684279000" lon="-0.408051000">
  <ele>439.200000</ele>
  <time>2011-10-22T07:50:54Z</time>
</trkpt>
<trkpt lat="39.683977000" lon="-0.408295000">
  <ele>440.200000</ele>
  <time>2011-10-22T07:51:07Z</time>
</trkpt>
<trkpt lat="39.683962000" lon="-0.408322000">
  <ele>440.600000</ele>
  <time>2011-10-22T07:51:09Z</time>
</trkpt>
<trkpt lat="39.683822000" lon="-0.408610000">
  <ele>440.600000</ele>
  <time>2011-10-22T07:51:20Z</time>
</trkpt>
<trkpt lat="39.683813000" lon="-0.408640000">
  <ele>440.200000</ele>
  <time>2011-10-22T07:51:21Z</time>
</trkpt>
<trkpt lat="39.683800000" lon="-0.408700000">
  <ele>440.000000</ele>
  <time>2011-10-22T07:51:23Z</time>
</trkpt>
<trkpt lat="39.683795000" lon="-0.408732000">
  <ele>439.700000</ele>
  <time>2011-10-22T07:51:23Z</time>
</trkpt>
<trkpt lat="39.683786000" lon="-0.408764000">
  <ele>440.000000</ele>
  <time>2011-10-22T07:51:25Z</time>
</trkpt>
<trkpt lat="39.683778000" lon="-0.408790000">
  <ele>440.200000</ele>
  <time>2011-10-22T07:51:26Z</time>
</trkpt>
<trkpt lat="39.683673000" lon="-0.409079000">
  <ele>439.600000</ele>
  <time>2011-10-22T07:51:36Z</time>
</trkpt>
<trkpt lat="39.683659000" lon="-0.409106000">
  <ele>439.800000</ele>
  <time>2011-10-22T07:51:37Z</time>
</trkpt>
<trkpt lat="39.683608000" lon="-0.409215000">
  <ele>441.700000</ele>
  <time>2011-10-22T07:51:40Z</time>
</trkpt>
<trkpt lat="39.683580000" lon="-0.409273000">
  <ele>442.200000</ele>
  <time>2011-10-22T07:51:42Z</time>
</trkpt>
<trkpt lat="39.683571000" lon="-0.409302000">
  <ele>442.500000</ele>
  <time>2011-10-22T07:51:44Z</time>
</trkpt>
<trkpt lat="39.683557000" lon="-0.409330000">
  <ele>443.200000</ele>
  <time>2011-10-22T07:51:45Z</time>
</trkpt>
<trkpt lat="39.683513000" lon="-0.409409000">
  <ele>444.700000</ele>
  <time>2011-10-22T07:51:48Z</time>
</trkpt>
<trkpt lat="39.683498000" lon="-0.409440000">
  <ele>444.600000</ele>
  <time>2011-10-22T07:51:48Z</time>
</trkpt>
<trkpt lat="39.683487000" lon="-0.409472000">
  <ele>444.500000</ele>
  <time>2011-10-22T07:51:50Z</time>
</trkpt>
<trkpt lat="39.683356000" lon="-0.409828000">
  <ele>446.700000</ele>
  <time>2011-10-22T07:52:03Z</time>
</trkpt>
<trkpt lat="39.683329000" lon="-0.409919000">
  <ele>448.200000</ele>
  <time>2011-10-22T07:52:07Z</time>
</trkpt>
<trkpt lat="39.683331000" lon="-0.409938000">
  <ele>448.700000</ele>
  <time>2011-10-22T07:52:08Z</time>
</trkpt>
<trkpt lat="39.683328000" lon="-0.409959000">
  <ele>448.600000</ele>
  <time>2011-10-22T07:52:09Z</time>
</trkpt>
<trkpt lat="39.683275000" lon="-0.410328000">
  <ele>450.700000</ele>
  <time>2011-10-22T07:52:20Z</time>
</trkpt>
<trkpt lat="39.683274000" lon="-0.410355000">
  <ele>451.200000</ele>
  <time>2011-10-22T07:52:22Z</time>
</trkpt>
<trkpt lat="39.683272000" lon="-0.410389000">
  <ele>451.700000</ele>
  <time>2011-10-22T07:52:23Z</time>
</trkpt>
<trkpt lat="39.683267000" lon="-0.410421000">
  <ele>451.700000</ele>
  <time>2011-10-22T07:52:23Z</time>
</trkpt>
<trkpt lat="39.683264000" lon="-0.410486000">
  <ele>451.700000</ele>
  <time>2011-10-22T07:52:26Z</time>
</trkpt>
<trkpt lat="39.683247000" lon="-0.411200000">
  <ele>456.200000</ele>
  <time>2011-10-22T07:52:47Z</time>
</trkpt>
<trkpt lat="39.683250000" lon="-0.411229000">
  <ele>456.200000</ele>
  <time>2011-10-22T07:52:47Z</time>
</trkpt>
<trkpt lat="39.683246000" lon="-0.411661000">
  <ele>461.000000</ele>
  <time>2011-10-22T07:53:03Z</time>
</trkpt>
<trkpt lat="39.683242000" lon="-0.411688000">
  <ele>461.200000</ele>
  <time>2011-10-22T07:53:03Z</time>
</trkpt>
<trkpt lat="39.683229000" lon="-0.411721000">
  <ele>461.700000</ele>
  <time>2011-10-22T07:53:05Z</time>
</trkpt>
<trkpt lat="39.683193000" lon="-0.411829000">
  <ele>462.700000</ele>
  <time>2011-10-22T07:53:08Z</time>
</trkpt>
<trkpt lat="39.683087000" lon="-0.412184000">
  <ele>466.300000</ele>
  <time>2011-10-22T07:53:22Z</time>
</trkpt>
<trkpt lat="39.682934000" lon="-0.412665000">
  <ele>470.200000</ele>
  <time>2011-10-22T07:53:43Z</time>
</trkpt>
<trkpt lat="39.682917000" lon="-0.412706000">
  <ele>470.700000</ele>
  <time>2011-10-22T07:53:46Z</time>
</trkpt>
<trkpt lat="39.682903000" lon="-0.412722000">
  <ele>470.200000</ele>
  <time>2011-10-22T07:53:46Z</time>
</trkpt>
<trkpt lat="39.682888000" lon="-0.412749000">
  <ele>470.200000</ele>
  <time>2011-10-22T07:53:48Z</time>
</trkpt>
<trkpt lat="39.682874000" lon="-0.412768000">
  <ele>470.000000</ele>
  <time>2011-10-22T07:53:49Z</time>
</trkpt>
<trkpt lat="39.682862000" lon="-0.412790000">
  <ele>470.200000</ele>
  <time>2011-10-22T07:53:49Z</time>
</trkpt>
<trkpt lat="39.682849000" lon="-0.412810000">
  <ele>469.800000</ele>
  <time>2011-10-22T07:53:51Z</time>
</trkpt>
<trkpt lat="39.682836000" lon="-0.412824000">
  <ele>470.000000</ele>
  <time>2011-10-22T07:53:52Z</time>
</trkpt>
<trkpt lat="39.682784000" lon="-0.412885000">
  <ele>470.700000</ele>
  <time>2011-10-22T07:53:56Z</time>
</trkpt>
<trkpt lat="39.682766000" lon="-0.412897000">
  <ele>471.300000</ele>
  <time>2011-10-22T07:53:57Z</time>
</trkpt>
<trkpt lat="39.682719000" lon="-0.412948000">
  <ele>471.000000</ele>
  <time>2011-10-22T07:53:59Z</time>
</trkpt>
<trkpt lat="39.682697000" lon="-0.412985000">
  <ele>470.800000</ele>
  <time>2011-10-22T07:54:02Z</time>
</trkpt>
<trkpt lat="39.682695000" lon="-0.413006000">
  <ele>471.100000</ele>
  <time>2011-10-22T07:54:02Z</time>
</trkpt>
<trkpt lat="39.682717000" lon="-0.413017000">
  <ele>471.600000</ele>
  <time>2011-10-22T07:54:04Z</time>
</trkpt>
<trkpt lat="39.682727000" lon="-0.413022000">
  <ele>471.700000</ele>
  <time>2011-10-22T07:54:05Z</time>
</trkpt>
<trkpt lat="39.682739000" lon="-0.413019000">
  <ele>471.700000</ele>
  <time>2011-10-22T07:54:05Z</time>
</trkpt>
<trkpt lat="39.682751000" lon="-0.413014000">
  <ele>471.500000</ele>
  <time>2011-10-22T07:54:07Z</time>
</trkpt>
<trkpt lat="39.682764000" lon="-0.413000000">
  <ele>471.600000</ele>
  <time>2011-10-22T07:54:08Z</time>
</trkpt>
<trkpt lat="39.682781000" lon="-0.412989000">
  <ele>472.000000</ele>
  <time>2011-10-22T07:54:09Z</time>
</trkpt>
<trkpt lat="39.682855000" lon="-0.412931000">
  <ele>472.800000</ele>
  <time>2011-10-22T07:54:13Z</time>
</trkpt>
<trkpt lat="39.682882000" lon="-0.412901000">
  <ele>473.300000</ele>
  <time>2011-10-22T07:54:15Z</time>
</trkpt>
<trkpt lat="39.682897000" lon="-0.412886000">
  <ele>474.000000</ele>
  <time>2011-10-22T07:54:16Z</time>
</trkpt>
<trkpt lat="39.682914000" lon="-0.412873000">
  <ele>474.300000</ele>
  <time>2011-10-22T07:54:18Z</time>
</trkpt>
<trkpt lat="39.682931000" lon="-0.412862000">
  <ele>474.700000</ele>
  <time>2011-10-22T07:54:18Z</time>
</trkpt>
<trkpt lat="39.682963000" lon="-0.412839000">
  <ele>474.800000</ele>
  <time>2011-10-22T07:54:21Z</time>
</trkpt>
<trkpt lat="39.683036000" lon="-0.412774000">
  <ele>476.100000</ele>
  <time>2011-10-22T07:54:26Z</time>
</trkpt>
<trkpt lat="39.683134000" lon="-0.412666000">
  <ele>476.200000</ele>
  <time>2011-10-22T07:54:32Z</time>
</trkpt>
<trkpt lat="39.683144000" lon="-0.412650000">
  <ele>476.700000</ele>
  <time>2011-10-22T07:54:34Z</time>
</trkpt>
<trkpt lat="39.683155000" lon="-0.412633000">
  <ele>477.300000</ele>
  <time>2011-10-22T07:54:34Z</time>
</trkpt>
<trkpt lat="39.683164000" lon="-0.412610000">
  <ele>478.100000</ele>
  <time>2011-10-22T07:54:36Z</time>
</trkpt>
<trkpt lat="39.683180000" lon="-0.412579000">
  <ele>478.000000</ele>
  <time>2011-10-22T07:55:27Z</time>
</trkpt>
<trkpt lat="39.683192000" lon="-0.412564000">
  <ele>478.000000</ele>
  <time>2011-10-22T07:55:28Z</time>
</trkpt>
<trkpt lat="39.683208000" lon="-0.412550000">
  <ele>477.700000</ele>
  <time>2011-10-22T07:55:28Z</time>
</trkpt>
<trkpt lat="39.683231000" lon="-0.412519000">
  <ele>478.000000</ele>
  <time>2011-10-22T07:55:31Z</time>
</trkpt>
<trkpt lat="39.683244000" lon="-0.412492000">
  <ele>478.100000</ele>
  <time>2011-10-22T07:55:31Z</time>
</trkpt>
<trkpt lat="39.683315000" lon="-0.412373000">
  <ele>477.200000</ele>
  <time>2011-10-22T07:55:37Z</time>
</trkpt>
<trkpt lat="39.683389000" lon="-0.412274000">
  <ele>477.600000</ele>
  <time>2011-10-22T07:55:41Z</time>
</trkpt>
<trkpt lat="39.683412000" lon="-0.412253000">
  <ele>477.600000</ele>
  <time>2011-10-22T07:55:41Z</time>
</trkpt>
<trkpt lat="39.683450000" lon="-0.412196000">
  <ele>476.700000</ele>
  <time>2011-10-22T07:55:44Z</time>
</trkpt>
<trkpt lat="39.683689000" lon="-0.411872000">
  <ele>475.100000</ele>
  <time>2011-10-22T07:55:52Z</time>
</trkpt>
<trkpt lat="39.683765000" lon="-0.411789000">
  <ele>474.700000</ele>
  <time>2011-10-22T07:55:54Z</time>
</trkpt>
<trkpt lat="39.683928000" lon="-0.411621000">
  <ele>473.700000</ele>
  <time>2011-10-22T07:55:58Z</time>
</trkpt>
<trkpt lat="39.683973000" lon="-0.411592000">
  <ele>473.800000</ele>
  <time>2011-10-22T07:55:58Z</time>
</trkpt>
<trkpt lat="39.684022000" lon="-0.411593000">
  <ele>473.700000</ele>
  <time>2011-10-22T07:56:00Z</time>
</trkpt>
<trkpt lat="39.684076000" lon="-0.411609000">
  <ele>475.200000</ele>
  <time>2011-10-22T07:56:00Z</time>
</trkpt>
<trkpt lat="39.684117000" lon="-0.411632000">
  <ele>475.600000</ele>
  <time>2011-10-22T07:56:02Z</time>
</trkpt>
<trkpt lat="39.684212000" lon="-0.411701000">
  <ele>475.700000</ele>
  <time>2011-10-22T07:56:03Z</time>
</trkpt>
<trkpt lat="39.684412000" lon="-0.411849000">
  <ele>474.700000</ele>
  <time>2011-10-22T07:56:08Z</time>
</trkpt>
<trkpt lat="39.684464000" lon="-0.411867000">
  <ele>474.700000</ele>
  <time>2011-10-22T07:56:09Z</time>
</trkpt>
<trkpt lat="39.684521000" lon="-0.411875000">
  <ele>474.200000</ele>
  <time>2011-10-22T07:56:09Z</time>
</trkpt>
<trkpt lat="39.684638000" lon="-0.411879000">
  <ele>474.200000</ele>
  <time>2011-10-22T07:56:12Z</time>
</trkpt>
<trkpt lat="39.684696000" lon="-0.411872000">
  <ele>473.700000</ele>
  <time>2011-10-22T07:56:13Z</time>
</trkpt>
<trkpt lat="39.684824000" lon="-0.411864000">
  <ele>473.500000</ele>
  <time>2011-10-22T07:56:14Z</time>
</trkpt>
<trkpt lat="39.684888000" lon="-0.411867000">
  <ele>472.700000</ele>
  <time>2011-10-22T07:56:16Z</time>
</trkpt>
<trkpt lat="39.685012000" lon="-0.411888000">
  <ele>471.700000</ele>
  <time>2011-10-22T07:56:17Z</time>
</trkpt>
<trkpt lat="39.685068000" lon="-0.411910000">
  <ele>471.700000</ele>
  <time>2011-10-22T07:56:19Z</time>
</trkpt>
<trkpt lat="39.685128000" lon="-0.411951000">
  <ele>471.200000</ele>
  <time>2011-10-22T07:56:19Z</time>
</trkpt>
<trkpt lat="39.685814000" lon="-0.412428000">
  <ele>468.000000</ele>
  <time>2011-10-22T07:56:30Z</time>
</trkpt>
<trkpt lat="39.685881000" lon="-0.412494000">
  <ele>466.700000</ele>
  <time>2011-10-22T07:56:31Z</time>
</trkpt>
<trkpt lat="39.686071000" lon="-0.412735000">
  <ele>464.800000</ele>
  <time>2011-10-22T07:56:33Z</time>
</trkpt>
<trkpt lat="39.686128000" lon="-0.412826000">
  <ele>464.200000</ele>
  <time>2011-10-22T07:56:35Z</time>
</trkpt>
<trkpt lat="39.686417000" lon="-0.413368000">
  <ele>460.600000</ele>
  <time>2011-10-22T07:56:41Z</time>
</trkpt>
<trkpt lat="39.686447000" lon="-0.413463000">
  <ele>459.800000</ele>
  <time>2011-10-22T07:56:41Z</time>
</trkpt>
<trkpt lat="39.686515000" lon="-0.413739000">
  <ele>458.200000</ele>
  <time>2011-10-22T07:56:45Z</time>
</trkpt>
<trkpt lat="39.686528000" lon="-0.413846000">
  <ele>456.700000</ele>
  <time>2011-10-22T07:56:46Z</time>
</trkpt>
<trkpt lat="39.686600000" lon="-0.414241000">
  <ele>452.800000</ele>
  <time>2011-10-22T07:56:49Z</time>
</trkpt>
<trkpt lat="39.686634000" lon="-0.414345000">
  <ele>451.700000</ele>
  <time>2011-10-22T07:56:51Z</time>
</trkpt>
<trkpt lat="39.686802000" lon="-0.414741000">
  <ele>449.200000</ele>
  <time>2011-10-22T07:56:54Z</time>
</trkpt>
<trkpt lat="39.686854000" lon="-0.414834000">
  <ele>448.300000</ele>
  <time>2011-10-22T07:56:56Z</time>
</trkpt>
<trkpt lat="39.687257000" lon="-0.415441000">
  <ele>444.700000</ele>
  <time>2011-10-22T07:57:03Z</time>
</trkpt>
<trkpt lat="39.687328000" lon="-0.415517000">
  <ele>443.700000</ele>
  <time>2011-10-22T07:57:04Z</time>
</trkpt>
<trkpt lat="39.687407000" lon="-0.415581000">
  <ele>443.100000</ele>
  <time>2011-10-22T07:57:05Z</time>
</trkpt>
<trkpt lat="39.687653000" lon="-0.415734000">
  <ele>442.000000</ele>
  <time>2011-10-22T07:57:08Z</time>
</trkpt>
<trkpt lat="39.687738000" lon="-0.415773000">
  <ele>442.100000</ele>
  <time>2011-10-22T07:57:08Z</time>
</trkpt>
<trkpt lat="39.688102000" lon="-0.415873000">
  <ele>441.100000</ele>
  <time>2011-10-22T07:57:13Z</time>
</trkpt>
<trkpt lat="39.688189000" lon="-0.415881000">
  <ele>440.200000</ele>
  <time>2011-10-22T07:57:13Z</time>
</trkpt>
<trkpt lat="39.688493000" lon="-0.415921000">
  <ele>438.600000</ele>
  <time>2011-10-22T07:57:18Z</time>
</trkpt>
<trkpt lat="39.688558000" lon="-0.415959000">
  <ele>438.700000</ele>
  <time>2011-10-22T07:57:19Z</time>
</trkpt>
<trkpt lat="39.688652000" lon="-0.416117000">
  <ele>438.700000</ele>
  <time>2011-10-22T07:57:21Z</time>
</trkpt>
<trkpt lat="39.688793000" lon="-0.416338000">
  <ele>436.300000</ele>
  <time>2011-10-22T07:57:24Z</time>
</trkpt>
<trkpt lat="39.688845000" lon="-0.416399000">
  <ele>435.200000</ele>
  <time>2011-10-22T07:57:24Z</time>
</trkpt>
<trkpt lat="39.688902000" lon="-0.416460000">
  <ele>434.700000</ele>
  <time>2011-10-22T07:57:26Z</time>
</trkpt>
<trkpt lat="39.688967000" lon="-0.416513000">
  <ele>434.500000</ele>
  <time>2011-10-22T07:57:26Z</time>
</trkpt>
<trkpt lat="39.689101000" lon="-0.416604000">
  <ele>433.700000</ele>
  <time>2011-10-22T07:57:29Z</time>
</trkpt>
<trkpt lat="39.689174000" lon="-0.416635000">
  <ele>433.700000</ele>
  <time>2011-10-22T07:57:29Z</time>
</trkpt>
<trkpt lat="39.689249000" lon="-0.416651000">
  <ele>433.000000</ele>
  <time>2011-10-22T07:57:31Z</time>
</trkpt>
<trkpt lat="39.689328000" lon="-0.416653000">
  <ele>432.500000</ele>
  <time>2011-10-22T07:57:32Z</time>
</trkpt>
<trkpt lat="39.689404000" lon="-0.416635000">
  <ele>432.300000</ele>
  <time>2011-10-22T07:57:32Z</time>
</trkpt>
<trkpt lat="39.689477000" lon="-0.416589000">
  <ele>431.500000</ele>
  <time>2011-10-22T07:57:34Z</time>
</trkpt>
<trkpt lat="39.689697000" lon="-0.416424000">
  <ele>430.300000</ele>
  <time>2011-10-22T07:57:37Z</time>
</trkpt>
<trkpt lat="39.689757000" lon="-0.416348000">
  <ele>429.300000</ele>
  <time>2011-10-22T07:57:38Z</time>
</trkpt>
<trkpt lat="39.690051000" lon="-0.415921000">
  <ele>425.000000</ele>
  <time>2011-10-22T07:57:42Z</time>
</trkpt>
<trkpt lat="39.690102000" lon="-0.415826000">
  <ele>423.500000</ele>
  <time>2011-10-22T07:57:43Z</time>
</trkpt>
<trkpt lat="39.690133000" lon="-0.415727000">
  <ele>422.700000</ele>
  <time>2011-10-22T07:57:45Z</time>
</trkpt>
<trkpt lat="39.690177000" lon="-0.415523000">
  <ele>421.600000</ele>
  <time>2011-10-22T07:57:47Z</time>
</trkpt>
<trkpt lat="39.690186000" lon="-0.415423000">
  <ele>421.500000</ele>
  <time>2011-10-22T07:57:48Z</time>
</trkpt>
<trkpt lat="39.690173000" lon="-0.415227000">
  <ele>420.200000</ele>
  <time>2011-10-22T07:57:50Z</time>
</trkpt>
<trkpt lat="39.690176000" lon="-0.414965000">
  <ele>419.800000</ele>
  <time>2011-10-22T07:57:53Z</time>
</trkpt>
<trkpt lat="39.690181000" lon="-0.414895000">
  <ele>419.100000</ele>
  <time>2011-10-22T07:57:54Z</time>
</trkpt>
<trkpt lat="39.690200000" lon="-0.414825000">
  <ele>419.200000</ele>
  <time>2011-10-22T07:57:55Z</time>
</trkpt>
<trkpt lat="39.690269000" lon="-0.414788000">
  <ele>418.600000</ele>
  <time>2011-10-22T07:57:57Z</time>
</trkpt>
<trkpt lat="39.690335000" lon="-0.414825000">
  <ele>418.500000</ele>
  <time>2011-10-22T07:57:58Z</time>
</trkpt>
<trkpt lat="39.690384000" lon="-0.414844000">
  <ele>418.700000</ele>
  <time>2011-10-22T07:57:59Z</time>
</trkpt>
<trkpt lat="39.690612000" lon="-0.414907000">
  <ele>417.700000</ele>
  <time>2011-10-22T07:58:03Z</time>
</trkpt>
<trkpt lat="39.690670000" lon="-0.414902000">
  <ele>417.500000</ele>
  <time>2011-10-22T07:58:04Z</time>
</trkpt>
<trkpt lat="39.690977000" lon="-0.414846000">
  <ele>415.800000</ele>
  <time>2011-10-22T07:58:07Z</time>
</trkpt>
<trkpt lat="39.691121000" lon="-0.414783000">
  <ele>414.500000</ele>
  <time>2011-10-22T07:58:10Z</time>
</trkpt>
<trkpt lat="39.691434000" lon="-0.414678000">
  <ele>412.700000</ele>
  <time>2011-10-22T07:58:14Z</time>
</trkpt>
<trkpt lat="39.691507000" lon="-0.414665000">
  <ele>412.800000</ele>
  <time>2011-10-22T07:58:15Z</time>
</trkpt>
<trkpt lat="39.691762000" lon="-0.414612000">
  <ele>410.300000</ele>
  <time>2011-10-22T07:58:20Z</time>
</trkpt>
<trkpt lat="39.691788000" lon="-0.414612000">
  <ele>409.300000</ele>
  <time>2011-10-22T07:58:20Z</time>
</trkpt>
<trkpt lat="39.691817000" lon="-0.414624000">
  <ele>409.200000</ele>
  <time>2011-10-22T07:58:22Z</time>
</trkpt>
<trkpt lat="39.691832000" lon="-0.414643000">
  <ele>408.700000</ele>
  <time>2011-10-22T07:58:23Z</time>
</trkpt>
<trkpt lat="39.691832000" lon="-0.414660000">
  <ele>408.600000</ele>
  <time>2011-10-22T07:58:23Z</time>
</trkpt>
<trkpt lat="39.691833000" lon="-0.414677000">
  <ele>407.700000</ele>
  <time>2011-10-22T07:58:25Z</time>
</trkpt>
<trkpt lat="39.691830000" lon="-0.414686000">
  <ele>407.600000</ele>
  <time>2011-10-22T07:58:26Z</time>
</trkpt>
<trkpt lat="39.691832000" lon="-0.414680000">
  <ele>407.700000</ele>
  <time>2011-10-22T07:58:26Z</time>
</trkpt>
<trkpt lat="39.691831000" lon="-0.414683000">
  <ele>407.200000</ele>
  <time>2011-10-22T07:58:28Z</time>
</trkpt>
<trkpt lat="39.691830000" lon="-0.414729000">
  <ele>406.300000</ele>
  <time>2011-10-22T07:58:50Z</time>
</trkpt>
<trkpt lat="39.691817000" lon="-0.414754000">
  <ele>406.000000</ele>
  <time>2011-10-22T07:58:50Z</time>
</trkpt>
<trkpt lat="39.691702000" lon="-0.414869000">
  <ele>405.000000</ele>
  <time>2011-10-22T07:58:55Z</time>
</trkpt>
<trkpt lat="39.691476000" lon="-0.415010000">
  <ele>403.200000</ele>
  <time>2011-10-22T07:58:58Z</time>
</trkpt>
<trkpt lat="39.690995000" lon="-0.415347000">
  <ele>399.100000</ele>
  <time>2011-10-22T07:59:05Z</time>
</trkpt>
<trkpt lat="39.690924000" lon="-0.415352000">
  <ele>398.800000</ele>
  <time>2011-10-22T07:59:06Z</time>
</trkpt>
<trkpt lat="39.690777000" lon="-0.415341000">
  <ele>398.000000</ele>
  <time>2011-10-22T07:59:08Z</time>
</trkpt>
<trkpt lat="39.690585000" lon="-0.415357000">
  <ele>398.200000</ele>
  <time>2011-10-22T07:59:11Z</time>
</trkpt>
<trkpt lat="39.690529000" lon="-0.415390000">
  <ele>398.200000</ele>
  <time>2011-10-22T07:59:11Z</time>
</trkpt>
<trkpt lat="39.690484000" lon="-0.415441000">
  <ele>397.800000</ele>
  <time>2011-10-22T07:59:13Z</time>
</trkpt>
<trkpt lat="39.690463000" lon="-0.415485000">
  <ele>397.700000</ele>
  <time>2011-10-22T07:59:14Z</time>
</trkpt>
<trkpt lat="39.690457000" lon="-0.415533000">
  <ele>397.200000</ele>
  <time>2011-10-22T07:59:14Z</time>
</trkpt>
<trkpt lat="39.690484000" lon="-0.415579000">
  <ele>396.500000</ele>
  <time>2011-10-22T07:59:16Z</time>
</trkpt>
<trkpt lat="39.690492000" lon="-0.415627000">
  <ele>395.600000</ele>
  <time>2011-10-22T07:59:17Z</time>
</trkpt>
<trkpt lat="39.690558000" lon="-0.415978000">
  <ele>393.300000</ele>
  <time>2011-10-22T07:59:23Z</time>
</trkpt>
<trkpt lat="39.690551000" lon="-0.416042000">
  <ele>392.500000</ele>
  <time>2011-10-22T07:59:24Z</time>
</trkpt>
<trkpt lat="39.690545000" lon="-0.416106000">
  <ele>392.100000</ele>
  <time>2011-10-22T07:59:25Z</time>
</trkpt>
<trkpt lat="39.690531000" lon="-0.416171000">
  <ele>391.500000</ele>
  <time>2011-10-22T07:59:25Z</time>
</trkpt>
<trkpt lat="39.690498000" lon="-0.416294000">
  <ele>390.800000</ele>
  <time>2011-10-22T07:59:27Z</time>
</trkpt>
<trkpt lat="39.690423000" lon="-0.416529000">
  <ele>390.500000</ele>
  <time>2011-10-22T07:59:32Z</time>
</trkpt>
<trkpt lat="39.690399000" lon="-0.416583000">
  <ele>390.200000</ele>
  <time>2011-10-22T07:59:33Z</time>
</trkpt>
<trkpt lat="39.690342000" lon="-0.416690000">
  <ele>389.600000</ele>
  <time>2011-10-22T07:59:35Z</time>
</trkpt>
<trkpt lat="39.690311000" lon="-0.416737000">
  <ele>389.000000</ele>
  <time>2011-10-22T07:59:36Z</time>
</trkpt>
<trkpt lat="39.690241000" lon="-0.416815000">
  <ele>388.600000</ele>
  <time>2011-10-22T07:59:38Z</time>
</trkpt>
<trkpt lat="39.689853000" lon="-0.417263000">
  <ele>387.700000</ele>
  <time>2011-10-22T07:59:48Z</time>
</trkpt>
<trkpt lat="39.689796000" lon="-0.417304000">
  <ele>387.600000</ele>
  <time>2011-10-22T07:59:49Z</time>
</trkpt>
<trkpt lat="39.689519000" lon="-0.417551000">
  <ele>385.500000</ele>
  <time>2011-10-22T07:59:54Z</time>
</trkpt>
<trkpt lat="39.689474000" lon="-0.417612000">
  <ele>385.200000</ele>
  <time>2011-10-22T07:59:55Z</time>
</trkpt>
<trkpt lat="39.689393000" lon="-0.417760000">
  <ele>384.700000</ele>
  <time>2011-10-22T07:59:57Z</time>
</trkpt>
<trkpt lat="39.689252000" lon="-0.418028000">
  <ele>383.200000</ele>
  <time>2011-10-22T08:00:00Z</time>
</trkpt>
<trkpt lat="39.689210000" lon="-0.418064000">
  <ele>382.500000</ele>
  <time>2011-10-22T08:00:02Z</time>
</trkpt>
<trkpt lat="39.689161000" lon="-0.418087000">
  <ele>382.200000</ele>
  <time>2011-10-22T08:00:02Z</time>
</trkpt>
<trkpt lat="39.689106000" lon="-0.418083000">
  <ele>381.600000</ele>
  <time>2011-10-22T08:00:04Z</time>
</trkpt>
<trkpt lat="39.689059000" lon="-0.418059000">
  <ele>380.700000</ele>
  <time>2011-10-22T08:00:05Z</time>
</trkpt>
<trkpt lat="39.689005000" lon="-0.418022000">
  <ele>379.700000</ele>
  <time>2011-10-22T08:00:05Z</time>
</trkpt>
<trkpt lat="39.688668000" lon="-0.417829000">
  <ele>376.800000</ele>
  <time>2011-10-22T08:00:11Z</time>
</trkpt>
<trkpt lat="39.688593000" lon="-0.417800000">
  <ele>376.800000</ele>
  <time>2011-10-22T08:00:13Z</time>
</trkpt>
<trkpt lat="39.688461000" lon="-0.417779000">
  <ele>376.600000</ele>
  <time>2011-10-22T08:00:15Z</time>
</trkpt>
<trkpt lat="39.688393000" lon="-0.417779000">
  <ele>376.000000</ele>
  <time>2011-10-22T08:00:16Z</time>
</trkpt>
<trkpt lat="39.688335000" lon="-0.417803000">
  <ele>375.800000</ele>
  <time>2011-10-22T08:00:16Z</time>
</trkpt>
<trkpt lat="39.688143000" lon="-0.417860000">
  <ele>374.300000</ele>
  <time>2011-10-22T08:00:19Z</time>
</trkpt>
<trkpt lat="39.688007000" lon="-0.417869000">
  <ele>373.000000</ele>
  <time>2011-10-22T08:00:21Z</time>
</trkpt>
<trkpt lat="39.687868000" lon="-0.417858000">
  <ele>370.200000</ele>
  <time>2011-10-22T08:00:24Z</time>
</trkpt>
<trkpt lat="39.687079000" lon="-0.417800000">
  <ele>365.200000</ele>
  <time>2011-10-22T08:00:37Z</time>
</trkpt>
<trkpt lat="39.687060000" lon="-0.417815000">
  <ele>365.100000</ele>
  <time>2011-10-22T08:00:37Z</time>
</trkpt>
<trkpt lat="39.687048000" lon="-0.417837000">
  <ele>364.300000</ele>
  <time>2011-10-22T08:00:39Z</time>
</trkpt>
<trkpt lat="39.687048000" lon="-0.417858000">
  <ele>364.100000</ele>
  <time>2011-10-22T08:00:40Z</time>
</trkpt>
<trkpt lat="39.687060000" lon="-0.418178000">
  <ele>360.300000</ele>
  <time>2011-10-22T08:00:47Z</time>
</trkpt>
<trkpt lat="39.687080000" lon="-0.418221000">
  <ele>359.800000</ele>
  <time>2011-10-22T08:00:48Z</time>
</trkpt>
<trkpt lat="39.687107000" lon="-0.418258000">
  <ele>359.200000</ele>
  <time>2011-10-22T08:00:49Z</time>
</trkpt>
<trkpt lat="39.687151000" lon="-0.418281000">
  <ele>359.100000</ele>
  <time>2011-10-22T08:00:50Z</time>
</trkpt>
<trkpt lat="39.687200000" lon="-0.418290000">
  <ele>358.600000</ele>
  <time>2011-10-22T08:00:51Z</time>
</trkpt>
<trkpt lat="39.687252000" lon="-0.418296000">
  <ele>357.500000</ele>
  <time>2011-10-22T08:00:51Z</time>
</trkpt>
<trkpt lat="39.687303000" lon="-0.418292000">
  <ele>356.300000</ele>
  <time>2011-10-22T08:00:53Z</time>
</trkpt>
<trkpt lat="39.687391000" lon="-0.418276000">
  <ele>355.800000</ele>
  <time>2011-10-22T08:00:54Z</time>
</trkpt>
<trkpt lat="39.687432000" lon="-0.418291000">
  <ele>356.000000</ele>
  <time>2011-10-22T08:00:56Z</time>
</trkpt>
<trkpt lat="39.687466000" lon="-0.418320000">
  <ele>355.800000</ele>
  <time>2011-10-22T08:00:56Z</time>
</trkpt>
<trkpt lat="39.687485000" lon="-0.418374000">
  <ele>356.200000</ele>
  <time>2011-10-22T08:00:58Z</time>
</trkpt>
<trkpt lat="39.687500000" lon="-0.418428000">
  <ele>356.700000</ele>
  <time>2011-10-22T08:00:59Z</time>
</trkpt>
<trkpt lat="39.687523000" lon="-0.418538000">
  <ele>355.800000</ele>
  <time>2011-10-22T08:01:01Z</time>
</trkpt>
<trkpt lat="39.687537000" lon="-0.418660000">
  <ele>355.500000</ele>
  <time>2011-10-22T08:01:02Z</time>
</trkpt>
<trkpt lat="39.687534000" lon="-0.418729000">
  <ele>354.800000</ele>
  <time>2011-10-22T08:01:04Z</time>
</trkpt>
<trkpt lat="39.687519000" lon="-0.418925000">
  <ele>353.800000</ele>
  <time>2011-10-22T08:01:07Z</time>
</trkpt>
<trkpt lat="39.687501000" lon="-0.418988000">
  <ele>353.700000</ele>
  <time>2011-10-22T08:01:08Z</time>
</trkpt>
<trkpt lat="39.687297000" lon="-0.419550000">
  <ele>347.500000</ele>
  <time>2011-10-22T08:01:15Z</time>
</trkpt>
<trkpt lat="39.687177000" lon="-0.420013000">
  <ele>340.700000</ele>
  <time>2011-10-22T08:01:24Z</time>
</trkpt>
<trkpt lat="39.687181000" lon="-0.420047000">
  <ele>340.300000</ele>
  <time>2011-10-22T08:01:25Z</time>
</trkpt>
<trkpt lat="39.687193000" lon="-0.420078000">
  <ele>340.200000</ele>
  <time>2011-10-22T08:01:26Z</time>
</trkpt>
<trkpt lat="39.687218000" lon="-0.420096000">
  <ele>340.100000</ele>
  <time>2011-10-22T08:01:26Z</time>
</trkpt>
<trkpt lat="39.687249000" lon="-0.420099000">
  <ele>340.100000</ele>
  <time>2011-10-22T08:01:28Z</time>
</trkpt>
<trkpt lat="39.687281000" lon="-0.420095000">
  <ele>339.600000</ele>
  <time>2011-10-22T08:01:28Z</time>
</trkpt>
<trkpt lat="39.687325000" lon="-0.420077000">
  <ele>339.700000</ele>
  <time>2011-10-22T08:01:31Z</time>
</trkpt>
<trkpt lat="39.687726000" lon="-0.419953000">
  <ele>337.500000</ele>
  <time>2011-10-22T08:01:44Z</time>
</trkpt>
<trkpt lat="39.687771000" lon="-0.419964000">
  <ele>337.300000</ele>
  <time>2011-10-22T08:01:45Z</time>
</trkpt>
<trkpt lat="39.687831000" lon="-0.419993000">
  <ele>337.700000</ele>
  <time>2011-10-22T08:01:47Z</time>
</trkpt>
<trkpt lat="39.687956000" lon="-0.420091000">
  <ele>334.700000</ele>
  <time>2011-10-22T08:01:49Z</time>
</trkpt>
</trkseg>
</trk>
<trk>
  <name>2011-10-22-01_1992-2242</name>
  <desc>C:\Users\farnau\Documents\My Dropbox\Tracks\2011-10-22-01.gpx</desc>
<trkseg>
<trkpt lat="39.687956000" lon="-0.420091000">
  <ele>334.700000</ele>
  <time>2011-10-22T08:01:49Z</time>
</trkpt>
<trkpt lat="39.688026000" lon="-0.420173000">
  <ele>333.200000</ele>
  <time>2011-10-22T08:01:50Z</time>
</trkpt>
<trkpt lat="39.688162000" lon="-0.420305000">
  <ele>332.300000</ele>
  <time>2011-10-22T08:01:52Z</time>
</trkpt>
<trkpt lat="39.688348000" lon="-0.420508000">
  <ele>329.000000</ele>
  <time>2011-10-22T08:01:57Z</time>
</trkpt>
<trkpt lat="39.688332000" lon="-0.420542000">
  <ele>327.700000</ele>
  <time>2011-10-22T08:01:58Z</time>
</trkpt>
<trkpt lat="39.688329000" lon="-0.420572000">
  <ele>327.500000</ele>
  <time>2011-10-22T08:01:59Z</time>
</trkpt>
<trkpt lat="39.688272000" lon="-0.420653000">
  <ele>326.200000</ele>
  <time>2011-10-22T08:02:01Z</time>
</trkpt>
<trkpt lat="39.688228000" lon="-0.420676000">
  <ele>326.200000</ele>
  <time>2011-10-22T08:02:01Z</time>
</trkpt>
<trkpt lat="39.688196000" lon="-0.420710000">
  <ele>326.000000</ele>
  <time>2011-10-22T08:02:03Z</time>
</trkpt>
<trkpt lat="39.688152000" lon="-0.420777000">
  <ele>325.800000</ele>
  <time>2011-10-22T08:02:05Z</time>
</trkpt>
<trkpt lat="39.688109000" lon="-0.420852000">
  <ele>325.300000</ele>
  <time>2011-10-22T08:02:06Z</time>
</trkpt>
<trkpt lat="39.688104000" lon="-0.420895000">
  <ele>325.100000</ele>
  <time>2011-10-22T08:02:08Z</time>
</trkpt>
<trkpt lat="39.688114000" lon="-0.420934000">
  <ele>325.600000</ele>
  <time>2011-10-22T08:02:09Z</time>
</trkpt>
<trkpt lat="39.688131000" lon="-0.420956000">
  <ele>324.800000</ele>
  <time>2011-10-22T08:02:09Z</time>
</trkpt>
<trkpt lat="39.688144000" lon="-0.420985000">
  <ele>324.700000</ele>
  <time>2011-10-22T08:02:11Z</time>
</trkpt>
<trkpt lat="39.688172000" lon="-0.421055000">
  <ele>324.500000</ele>
  <time>2011-10-22T08:02:14Z</time>
</trkpt>
<trkpt lat="39.688291000" lon="-0.421379000">
  <ele>325.700000</ele>
  <time>2011-10-22T08:02:30Z</time>
</trkpt>
<trkpt lat="39.688294000" lon="-0.421400000">
  <ele>325.500000</ele>
  <time>2011-10-22T08:02:31Z</time>
</trkpt>
<trkpt lat="39.688311000" lon="-0.421447000">
  <ele>325.200000</ele>
  <time>2011-10-22T08:02:33Z</time>
</trkpt>
<trkpt lat="39.688312000" lon="-0.421473000">
  <ele>325.100000</ele>
  <time>2011-10-22T08:02:34Z</time>
</trkpt>
<trkpt lat="39.688313000" lon="-0.421551000">
  <ele>324.200000</ele>
  <time>2011-10-22T08:02:38Z</time>
</trkpt>
<trkpt lat="39.688306000" lon="-0.421648000">
  <ele>324.100000</ele>
  <time>2011-10-22T08:02:43Z</time>
</trkpt>
<trkpt lat="39.688311000" lon="-0.421666000">
  <ele>325.000000</ele>
  <time>2011-10-22T08:02:44Z</time>
</trkpt>
<trkpt lat="39.688313000" lon="-0.421682000">
  <ele>325.000000</ele>
  <time>2011-10-22T08:02:44Z</time>
</trkpt>
<trkpt lat="39.688314000" lon="-0.421698000">
  <ele>325.200000</ele>
  <time>2011-10-22T08:02:46Z</time>
</trkpt>
<trkpt lat="39.688309000" lon="-0.421714000">
  <ele>325.500000</ele>
  <time>2011-10-22T08:02:47Z</time>
</trkpt>
<trkpt lat="39.688284000" lon="-0.421780000">
  <ele>327.700000</ele>
  <time>2011-10-22T08:02:51Z</time>
</trkpt>
<trkpt lat="39.688273000" lon="-0.421797000">
  <ele>328.300000</ele>
  <time>2011-10-22T08:02:52Z</time>
</trkpt>
<trkpt lat="39.688257000" lon="-0.421821000">
  <ele>329.300000</ele>
  <time>2011-10-22T08:02:54Z</time>
</trkpt>
<trkpt lat="39.688248000" lon="-0.421831000">
  <ele>329.700000</ele>
  <time>2011-10-22T08:02:55Z</time>
</trkpt>
<trkpt lat="39.688243000" lon="-0.421833000">
  <ele>330.700000</ele>
  <time>2011-10-22T08:02:57Z</time>
</trkpt>
<trkpt lat="39.688220000" lon="-0.421824000">
  <ele>331.600000</ele>
  <time>2011-10-22T08:02:57Z</time>
</trkpt>
<trkpt lat="39.688214000" lon="-0.421829000">
  <ele>332.100000</ele>
  <time>2011-10-22T08:02:59Z</time>
</trkpt>
<trkpt lat="39.688202000" lon="-0.421834000">
  <ele>332.700000</ele>
  <time>2011-10-22T08:03:00Z</time>
</trkpt>
<trkpt lat="39.688162000" lon="-0.421871000">
  <ele>336.300000</ele>
  <time>2011-10-22T08:03:05Z</time>
</trkpt>
<trkpt lat="39.688169000" lon="-0.421873000">
  <ele>336.700000</ele>
  <time>2011-10-22T08:03:10Z</time>
</trkpt>
<trkpt lat="39.688151000" lon="-0.421873000">
  <ele>337.000000</ele>
  <time>2011-10-22T08:03:11Z</time>
</trkpt>
<trkpt lat="39.688114000" lon="-0.421874000">
  <ele>338.200000</ele>
  <time>2011-10-22T08:03:15Z</time>
</trkpt>
<trkpt lat="39.688108000" lon="-0.421878000">
  <ele>338.500000</ele>
  <time>2011-10-22T08:03:16Z</time>
</trkpt>
<trkpt lat="39.688097000" lon="-0.421879000">
  <ele>338.500000</ele>
  <time>2011-10-22T08:03:16Z</time>
</trkpt>
<trkpt lat="39.688092000" lon="-0.421882000">
  <ele>338.200000</ele>
  <time>2011-10-22T08:03:18Z</time>
</trkpt>
<trkpt lat="39.688089000" lon="-0.421883000">
  <ele>338.200000</ele>
  <time>2011-10-22T08:03:19Z</time>
</trkpt>
<trkpt lat="39.688092000" lon="-0.421885000">
  <ele>338.200000</ele>
  <time>2011-10-22T08:03:19Z</time>
</trkpt>
<trkpt lat="39.688092000" lon="-0.421886000">
  <ele>338.100000</ele>
  <time>2011-10-22T08:03:21Z</time>
</trkpt>
<trkpt lat="39.688091000" lon="-0.421884000">
  <ele>338.200000</ele>
  <time>2011-10-22T08:03:22Z</time>
</trkpt>
<trkpt lat="39.688091000" lon="-0.421884000">
  <ele>338.200000</ele>
  <time>2011-10-22T08:03:23Z</time>
</trkpt>
<trkpt lat="39.688089000" lon="-0.421887000">
  <ele>338.300000</ele>
  <time>2011-10-22T08:03:24Z</time>
</trkpt>
<trkpt lat="39.688088000" lon="-0.421904000">
  <ele>338.600000</ele>
  <time>2011-10-22T08:03:25Z</time>
</trkpt>
<trkpt lat="39.688084000" lon="-0.421920000">
  <ele>338.700000</ele>
  <time>2011-10-22T08:03:26Z</time>
</trkpt>
<trkpt lat="39.688068000" lon="-0.421977000">
  <ele>339.600000</ele>
  <time>2011-10-22T08:03:29Z</time>
</trkpt>
<trkpt lat="39.688069000" lon="-0.421997000">
  <ele>339.200000</ele>
  <time>2011-10-22T08:03:29Z</time>
</trkpt>
<trkpt lat="39.688066000" lon="-0.422015000">
  <ele>339.500000</ele>
  <time>2011-10-22T08:03:30Z</time>
</trkpt>
<trkpt lat="39.688045000" lon="-0.422083000">
  <ele>340.200000</ele>
  <time>2011-10-22T08:03:35Z</time>
</trkpt>
<trkpt lat="39.687962000" lon="-0.422281000">
  <ele>338.800000</ele>
  <time>2011-10-22T08:03:46Z</time>
</trkpt>
<trkpt lat="39.687936000" lon="-0.422324000">
  <ele>338.300000</ele>
  <time>2011-10-22T08:03:48Z</time>
</trkpt>
<trkpt lat="39.687875000" lon="-0.422457000">
  <ele>338.500000</ele>
  <time>2011-10-22T08:03:54Z</time>
</trkpt>
<trkpt lat="39.687860000" lon="-0.422520000">
  <ele>337.700000</ele>
  <time>2011-10-22T08:03:58Z</time>
</trkpt>
<trkpt lat="39.687854000" lon="-0.422544000">
  <ele>338.200000</ele>
  <time>2011-10-22T08:03:59Z</time>
</trkpt>
<trkpt lat="39.687849000" lon="-0.422568000">
  <ele>337.800000</ele>
  <time>2011-10-22T08:04:00Z</time>
</trkpt>
<trkpt lat="39.687844000" lon="-0.422620000">
  <ele>338.800000</ele>
  <time>2011-10-22T08:04:02Z</time>
</trkpt>
<trkpt lat="39.687841000" lon="-0.422637000">
  <ele>339.200000</ele>
  <time>2011-10-22T08:04:04Z</time>
</trkpt>
<trkpt lat="39.687841000" lon="-0.422654000">
  <ele>339.600000</ele>
  <time>2011-10-22T08:04:04Z</time>
</trkpt>
<trkpt lat="39.687812000" lon="-0.422814000">
  <ele>341.500000</ele>
  <time>2011-10-22T08:04:10Z</time>
</trkpt>
<trkpt lat="39.687796000" lon="-0.422856000">
  <ele>342.200000</ele>
  <time>2011-10-22T08:04:10Z</time>
</trkpt>
<trkpt lat="39.687285000" lon="-0.424225000">
  <ele>335.500000</ele>
  <time>2011-10-22T08:04:28Z</time>
</trkpt>
<trkpt lat="39.687173000" lon="-0.424551000">
  <ele>335.200000</ele>
  <time>2011-10-22T08:04:31Z</time>
</trkpt>
<trkpt lat="39.687117000" lon="-0.424651000">
  <ele>335.000000</ele>
  <time>2011-10-22T08:04:32Z</time>
</trkpt>
<trkpt lat="39.686732000" lon="-0.425360000">
  <ele>330.700000</ele>
  <time>2011-10-22T08:04:39Z</time>
</trkpt>
<trkpt lat="39.686695000" lon="-0.425477000">
  <ele>330.700000</ele>
  <time>2011-10-22T08:04:39Z</time>
</trkpt>
<trkpt lat="39.686508000" lon="-0.426069000">
  <ele>326.500000</ele>
  <time>2011-10-22T08:04:45Z</time>
</trkpt>
<trkpt lat="39.686429000" lon="-0.426231000">
  <ele>325.000000</ele>
  <time>2011-10-22T08:04:48Z</time>
</trkpt>
<trkpt lat="39.686383000" lon="-0.426294000">
  <ele>324.300000</ele>
  <time>2011-10-22T08:04:48Z</time>
</trkpt>
<trkpt lat="39.686334000" lon="-0.426333000">
  <ele>324.100000</ele>
  <time>2011-10-22T08:04:50Z</time>
</trkpt>
<trkpt lat="39.686277000" lon="-0.426363000">
  <ele>324.200000</ele>
  <time>2011-10-22T08:04:51Z</time>
</trkpt>
<trkpt lat="39.686221000" lon="-0.426377000">
  <ele>323.800000</ele>
  <time>2011-10-22T08:04:52Z</time>
</trkpt>
<trkpt lat="39.685868000" lon="-0.426443000">
  <ele>325.100000</ele>
  <time>2011-10-22T08:05:00Z</time>
</trkpt>
<trkpt lat="39.685828000" lon="-0.426446000">
  <ele>325.200000</ele>
  <time>2011-10-22T08:05:01Z</time>
</trkpt>
<trkpt lat="39.685696000" lon="-0.426481000">
  <ele>326.700000</ele>
  <time>2011-10-22T08:05:06Z</time>
</trkpt>
<trkpt lat="39.685652000" lon="-0.426499000">
  <ele>327.300000</ele>
  <time>2011-10-22T08:05:08Z</time>
</trkpt>
<trkpt lat="39.685582000" lon="-0.426543000">
  <ele>328.700000</ele>
  <time>2011-10-22T08:05:12Z</time>
</trkpt>
<trkpt lat="39.685568000" lon="-0.426563000">
  <ele>328.300000</ele>
  <time>2011-10-22T08:05:12Z</time>
</trkpt>
<trkpt lat="39.685484000" lon="-0.426507000">
  <ele>336.700000</ele>
  <time>2011-10-22T08:05:35Z</time>
</trkpt>
<trkpt lat="39.685470000" lon="-0.426508000">
  <ele>337.800000</ele>
  <time>2011-10-22T08:05:36Z</time>
</trkpt>
<trkpt lat="39.685455000" lon="-0.426511000">
  <ele>338.700000</ele>
  <time>2011-10-22T08:05:36Z</time>
</trkpt>
<trkpt lat="39.685442000" lon="-0.426507000">
  <ele>339.700000</ele>
  <time>2011-10-22T08:05:38Z</time>
</trkpt>
<trkpt lat="39.685437000" lon="-0.426505000">
  <ele>340.700000</ele>
  <time>2011-10-22T08:05:39Z</time>
</trkpt>
<trkpt lat="39.685437000" lon="-0.426505000">
  <ele>340.700000</ele>
  <time>2011-10-22T08:05:39Z</time>
</trkpt>
<trkpt lat="39.685441000" lon="-0.426503000">
  <ele>341.100000</ele>
  <time>2011-10-22T08:05:41Z</time>
</trkpt>
<trkpt lat="39.685439000" lon="-0.426504000">
  <ele>341.100000</ele>
  <time>2011-10-22T08:05:42Z</time>
</trkpt>
<trkpt lat="39.685437000" lon="-0.426505000">
  <ele>341.100000</ele>
  <time>2011-10-22T08:05:43Z</time>
</trkpt>
<trkpt lat="39.685437000" lon="-0.426504000">
  <ele>341.100000</ele>
  <time>2011-10-22T08:05:44Z</time>
</trkpt>
<trkpt lat="39.685437000" lon="-0.426504000">
  <ele>341.200000</ele>
  <time>2011-10-22T08:05:45Z</time>
</trkpt>
<trkpt lat="39.685437000" lon="-0.426502000">
  <ele>341.200000</ele>
  <time>2011-10-22T08:05:46Z</time>
</trkpt>
<trkpt lat="39.685442000" lon="-0.426500000">
  <ele>341.700000</ele>
  <time>2011-10-22T08:05:47Z</time>
</trkpt>
<trkpt lat="39.685444000" lon="-0.426499000">
  <ele>342.100000</ele>
  <time>2011-10-22T08:05:47Z</time>
</trkpt>
<trkpt lat="39.685445000" lon="-0.426499000">
  <ele>342.200000</ele>
  <time>2011-10-22T08:05:49Z</time>
</trkpt>
<trkpt lat="39.685228000" lon="-0.426977000">
  <ele>328.200000</ele>
  <time>2011-10-22T08:48:38Z</time>
</trkpt>
<trkpt lat="39.685106000" lon="-0.427338000">
  <ele>327.200000</ele>
  <time>2011-10-22T08:48:46Z</time>
</trkpt>
<trkpt lat="39.685116000" lon="-0.427396000">
  <ele>327.300000</ele>
  <time>2011-10-22T08:48:46Z</time>
</trkpt>
<trkpt lat="39.685198000" lon="-0.427544000">
  <ele>326.200000</ele>
  <time>2011-10-22T08:48:50Z</time>
</trkpt>
<trkpt lat="39.685256000" lon="-0.427588000">
  <ele>325.600000</ele>
  <time>2011-10-22T08:48:51Z</time>
</trkpt>
<trkpt lat="39.685295000" lon="-0.427655000">
  <ele>324.200000</ele>
  <time>2011-10-22T08:48:51Z</time>
</trkpt>
<trkpt lat="39.685420000" lon="-0.427865000">
  <ele>325.600000</ele>
  <time>2011-10-22T08:48:56Z</time>
</trkpt>
<trkpt lat="39.685450000" lon="-0.427879000">
  <ele>325.500000</ele>
  <time>2011-10-22T08:48:57Z</time>
</trkpt>
<trkpt lat="39.685414000" lon="-0.427921000">
  <ele>325.500000</ele>
  <time>2011-10-22T08:48:58Z</time>
</trkpt>
<trkpt lat="39.685367000" lon="-0.427927000">
  <ele>326.200000</ele>
  <time>2011-10-22T08:48:59Z</time>
</trkpt>
<trkpt lat="39.685257000" lon="-0.427963000">
  <ele>325.700000</ele>
  <time>2011-10-22T08:49:00Z</time>
</trkpt>
<trkpt lat="39.685146000" lon="-0.427977000">
  <ele>327.200000</ele>
  <time>2011-10-22T08:49:01Z</time>
</trkpt>
<trkpt lat="39.685088000" lon="-0.428012000">
  <ele>328.000000</ele>
  <time>2011-10-22T08:49:02Z</time>
</trkpt>
<trkpt lat="39.684926000" lon="-0.428084000">
  <ele>329.200000</ele>
  <time>2011-10-22T08:49:04Z</time>
</trkpt>
<trkpt lat="39.684869000" lon="-0.428060000">
  <ele>330.200000</ele>
  <time>2011-10-22T08:49:05Z</time>
</trkpt>
<trkpt lat="39.684807000" lon="-0.428035000">
  <ele>329.200000</ele>
  <time>2011-10-22T08:49:07Z</time>
</trkpt>
<trkpt lat="39.684629000" lon="-0.427931000">
  <ele>331.200000</ele>
  <time>2011-10-22T08:49:10Z</time>
</trkpt>
<trkpt lat="39.684537000" lon="-0.427900000">
  <ele>330.700000</ele>
  <time>2011-10-22T08:49:10Z</time>
</trkpt>
<trkpt lat="39.684439000" lon="-0.427828000">
  <ele>329.800000</ele>
  <time>2011-10-22T08:49:12Z</time>
</trkpt>
<trkpt lat="39.684366000" lon="-0.427739000">
  <ele>330.000000</ele>
  <time>2011-10-22T08:49:13Z</time>
</trkpt>
<trkpt lat="39.684357000" lon="-0.427601000">
  <ele>330.000000</ele>
  <time>2011-10-22T08:49:13Z</time>
</trkpt>
<trkpt lat="39.684329000" lon="-0.427461000">
  <ele>330.100000</ele>
  <time>2011-10-22T08:49:15Z</time>
</trkpt>
<trkpt lat="39.684248000" lon="-0.427242000">
  <ele>327.800000</ele>
  <time>2011-10-22T08:49:17Z</time>
</trkpt>
<trkpt lat="39.684179000" lon="-0.427081000">
  <ele>325.700000</ele>
  <time>2011-10-22T08:49:18Z</time>
</trkpt>
<trkpt lat="39.684131000" lon="-0.426995000">
  <ele>325.700000</ele>
  <time>2011-10-22T08:49:20Z</time>
</trkpt>
<trkpt lat="39.684087000" lon="-0.426965000">
  <ele>326.000000</ele>
  <time>2011-10-22T08:49:21Z</time>
</trkpt>
<trkpt lat="39.684033000" lon="-0.426938000">
  <ele>326.700000</ele>
  <time>2011-10-22T08:49:23Z</time>
</trkpt>
<trkpt lat="39.683977000" lon="-0.426879000">
  <ele>326.800000</ele>
  <time>2011-10-22T08:49:23Z</time>
</trkpt>
<trkpt lat="39.683922000" lon="-0.426794000">
  <ele>326.200000</ele>
  <time>2011-10-22T08:49:25Z</time>
</trkpt>
<trkpt lat="39.683794000" lon="-0.426663000">
  <ele>324.700000</ele>
  <time>2011-10-22T08:49:26Z</time>
</trkpt>
<trkpt lat="39.683723000" lon="-0.426626000">
  <ele>324.200000</ele>
  <time>2011-10-22T08:49:28Z</time>
</trkpt>
<trkpt lat="39.683472000" lon="-0.426559000">
  <ele>322.300000</ele>
  <time>2011-10-22T08:49:31Z</time>
</trkpt>
<trkpt lat="39.683215000" lon="-0.426569000">
  <ele>322.000000</ele>
  <time>2011-10-22T08:49:34Z</time>
</trkpt>
<trkpt lat="39.683040000" lon="-0.426566000">
  <ele>319.500000</ele>
  <time>2011-10-22T08:49:37Z</time>
</trkpt>
<trkpt lat="39.682968000" lon="-0.426542000">
  <ele>317.700000</ele>
  <time>2011-10-22T08:49:37Z</time>
</trkpt>
<trkpt lat="39.682967000" lon="-0.426495000">
  <ele>315.700000</ele>
  <time>2011-10-22T08:49:39Z</time>
</trkpt>
<trkpt lat="39.682959000" lon="-0.426435000">
  <ele>313.600000</ele>
  <time>2011-10-22T08:49:39Z</time>
</trkpt>
<trkpt lat="39.682866000" lon="-0.425834000">
  <ele>310.600000</ele>
  <time>2011-10-22T08:49:48Z</time>
</trkpt>
<trkpt lat="39.682837000" lon="-0.425754000">
  <ele>310.200000</ele>
  <time>2011-10-22T08:49:48Z</time>
</trkpt>
<trkpt lat="39.682803000" lon="-0.425572000">
  <ele>306.200000</ele>
  <time>2011-10-22T08:49:51Z</time>
</trkpt>
<trkpt lat="39.682738000" lon="-0.425239000">
  <ele>299.800000</ele>
  <time>2011-10-22T08:49:55Z</time>
</trkpt>
<trkpt lat="39.682693000" lon="-0.424987000">
  <ele>298.600000</ele>
  <time>2011-10-22T08:49:58Z</time>
</trkpt>
<trkpt lat="39.682714000" lon="-0.424950000">
  <ele>298.100000</ele>
  <time>2011-10-22T08:50:00Z</time>
</trkpt>
<trkpt lat="39.682749000" lon="-0.424911000">
  <ele>297.600000</ele>
  <time>2011-10-22T08:50:01Z</time>
</trkpt>
<trkpt lat="39.682768000" lon="-0.424897000">
  <ele>297.200000</ele>
  <time>2011-10-22T08:50:03Z</time>
</trkpt>
<trkpt lat="39.682814000" lon="-0.424880000">
  <ele>297.000000</ele>
  <time>2011-10-22T08:50:04Z</time>
</trkpt>
<trkpt lat="39.682839000" lon="-0.424883000">
  <ele>297.200000</ele>
  <time>2011-10-22T08:50:06Z</time>
</trkpt>
<trkpt lat="39.682861000" lon="-0.424885000">
  <ele>297.000000</ele>
  <time>2011-10-22T08:50:07Z</time>
</trkpt>
<trkpt lat="39.682883000" lon="-0.424880000">
  <ele>297.200000</ele>
  <time>2011-10-22T08:50:08Z</time>
</trkpt>
<trkpt lat="39.682946000" lon="-0.424870000">
  <ele>296.600000</ele>
  <time>2011-10-22T08:50:11Z</time>
</trkpt>
<trkpt lat="39.683021000" lon="-0.424843000">
  <ele>296.200000</ele>
  <time>2011-10-22T08:50:14Z</time>
</trkpt>
<trkpt lat="39.683054000" lon="-0.424812000">
  <ele>296.300000</ele>
  <time>2011-10-22T08:50:16Z</time>
</trkpt>
<trkpt lat="39.683067000" lon="-0.424794000">
  <ele>296.200000</ele>
  <time>2011-10-22T08:50:17Z</time>
</trkpt>
<trkpt lat="39.683108000" lon="-0.424745000">
  <ele>295.800000</ele>
  <time>2011-10-22T08:50:19Z</time>
</trkpt>
<trkpt lat="39.683129000" lon="-0.424728000">
  <ele>295.800000</ele>
  <time>2011-10-22T08:50:20Z</time>
</trkpt>
<trkpt lat="39.683175000" lon="-0.424676000">
  <ele>296.200000</ele>
  <time>2011-10-22T08:50:23Z</time>
</trkpt>
<trkpt lat="39.683190000" lon="-0.424654000">
  <ele>297.000000</ele>
  <time>2011-10-22T08:50:24Z</time>
</trkpt>
<trkpt lat="39.683237000" lon="-0.424531000">
  <ele>298.200000</ele>
  <time>2011-10-22T08:50:28Z</time>
</trkpt>
<trkpt lat="39.683249000" lon="-0.424475000">
  <ele>298.200000</ele>
  <time>2011-10-22T08:50:30Z</time>
</trkpt>
<trkpt lat="39.683244000" lon="-0.424453000">
  <ele>298.200000</ele>
  <time>2011-10-22T08:50:31Z</time>
</trkpt>
<trkpt lat="39.683252000" lon="-0.424440000">
  <ele>298.300000</ele>
  <time>2011-10-22T08:50:33Z</time>
</trkpt>
<trkpt lat="39.683250000" lon="-0.424413000">
  <ele>298.200000</ele>
  <time>2011-10-22T08:50:33Z</time>
</trkpt>
<trkpt lat="39.683229000" lon="-0.424330000">
  <ele>298.200000</ele>
  <time>2011-10-22T08:50:36Z</time>
</trkpt>
<trkpt lat="39.683221000" lon="-0.424326000">
  <ele>298.700000</ele>
  <time>2011-10-22T08:50:38Z</time>
</trkpt>
<trkpt lat="39.683206000" lon="-0.424325000">
  <ele>298.200000</ele>
  <time>2011-10-22T08:50:39Z</time>
</trkpt>
<trkpt lat="39.683149000" lon="-0.424314000">
  <ele>299.800000</ele>
  <time>2011-10-22T08:50:41Z</time>
</trkpt>
<trkpt lat="39.683133000" lon="-0.424317000">
  <ele>300.200000</ele>
  <time>2011-10-22T08:50:42Z</time>
</trkpt>
<trkpt lat="39.683063000" lon="-0.424327000">
  <ele>300.600000</ele>
  <time>2011-10-22T08:50:46Z</time>
</trkpt>
<trkpt lat="39.683046000" lon="-0.424332000">
  <ele>300.500000</ele>
  <time>2011-10-22T08:50:47Z</time>
</trkpt>
<trkpt lat="39.682982000" lon="-0.424333000">
  <ele>300.800000</ele>
  <time>2011-10-22T08:50:51Z</time>
</trkpt>
<trkpt lat="39.682970000" lon="-0.424359000">
  <ele>301.200000</ele>
  <time>2011-10-22T08:50:54Z</time>
</trkpt>
<trkpt lat="39.682956000" lon="-0.424365000">
  <ele>301.600000</ele>
  <time>2011-10-22T08:50:55Z</time>
</trkpt>
<trkpt lat="39.682862000" lon="-0.424381000">
  <ele>301.100000</ele>
  <time>2011-10-22T08:50:58Z</time>
</trkpt>
<trkpt lat="39.682795000" lon="-0.424419000">
  <ele>299.600000</ele>
  <time>2011-10-22T08:51:01Z</time>
</trkpt>
<trkpt lat="39.682451000" lon="-0.424683000">
  <ele>305.500000</ele>
  <time>2011-10-22T08:51:17Z</time>
</trkpt>
<trkpt lat="39.682427000" lon="-0.424694000">
  <ele>305.700000</ele>
  <time>2011-10-22T08:51:18Z</time>
</trkpt>
<trkpt lat="39.682416000" lon="-0.424708000">
  <ele>305.500000</ele>
  <time>2011-10-22T08:51:19Z</time>
</trkpt>
<trkpt lat="39.682379000" lon="-0.424738000">
  <ele>305.200000</ele>
  <time>2011-10-22T08:51:21Z</time>
</trkpt>
<trkpt lat="39.682354000" lon="-0.424741000">
  <ele>305.600000</ele>
  <time>2011-10-22T08:51:21Z</time>
</trkpt>
<trkpt lat="39.682332000" lon="-0.424750000">
  <ele>305.600000</ele>
  <time>2011-10-22T08:51:22Z</time>
</trkpt>
<trkpt lat="39.682130000" lon="-0.424851000">
  <ele>302.200000</ele>
  <time>2011-10-22T08:51:32Z</time>
</trkpt>
<trkpt lat="39.682110000" lon="-0.424871000">
  <ele>301.000000</ele>
  <time>2011-10-22T08:51:33Z</time>
</trkpt>
<trkpt lat="39.682027000" lon="-0.424962000">
  <ele>301.700000</ele>
  <time>2011-10-22T08:51:38Z</time>
</trkpt>
<trkpt lat="39.682013000" lon="-0.424984000">
  <ele>301.600000</ele>
  <time>2011-10-22T08:51:38Z</time>
</trkpt>
<trkpt lat="39.681911000" lon="-0.425165000">
  <ele>303.100000</ele>
  <time>2011-10-22T08:51:46Z</time>
</trkpt>
<trkpt lat="39.681884000" lon="-0.425185000">
  <ele>304.700000</ele>
  <time>2011-10-22T08:51:46Z</time>
</trkpt>
<trkpt lat="39.681863000" lon="-0.425194000">
  <ele>305.200000</ele>
  <time>2011-10-22T08:51:48Z</time>
</trkpt>
<trkpt lat="39.681841000" lon="-0.425202000">
  <ele>306.200000</ele>
  <time>2011-10-22T08:51:49Z</time>
</trkpt>
<trkpt lat="39.681820000" lon="-0.425193000">
  <ele>306.500000</ele>
  <time>2011-10-22T08:51:49Z</time>
</trkpt>
<trkpt lat="39.681801000" lon="-0.425179000">
  <ele>306.500000</ele>
  <time>2011-10-22T08:51:51Z</time>
</trkpt>
<trkpt lat="39.681786000" lon="-0.425154000">
  <ele>306.700000</ele>
  <time>2011-10-22T08:51:52Z</time>
</trkpt>
<trkpt lat="39.681772000" lon="-0.425130000">
  <ele>307.500000</ele>
  <time>2011-10-22T08:51:53Z</time>
</trkpt>
<trkpt lat="39.681767000" lon="-0.425106000">
  <ele>307.600000</ele>
  <time>2011-10-22T08:51:54Z</time>
</trkpt>
<trkpt lat="39.681744000" lon="-0.424953000">
  <ele>310.200000</ele>
  <time>2011-10-22T08:51:59Z</time>
</trkpt>
<trkpt lat="39.681747000" lon="-0.424926000">
  <ele>310.800000</ele>
  <time>2011-10-22T08:52:01Z</time>
</trkpt>
<trkpt lat="39.681754000" lon="-0.424902000">
  <ele>311.700000</ele>
  <time>2011-10-22T08:52:02Z</time>
</trkpt>
<trkpt lat="39.681766000" lon="-0.424848000">
  <ele>313.300000</ele>
  <time>2011-10-22T08:52:04Z</time>
</trkpt>
<trkpt lat="39.681770000" lon="-0.424825000">
  <ele>314.100000</ele>
  <time>2011-10-22T08:52:05Z</time>
</trkpt>
<trkpt lat="39.681785000" lon="-0.424768000">
  <ele>314.200000</ele>
  <time>2011-10-22T08:52:07Z</time>
</trkpt>
<trkpt lat="39.681789000" lon="-0.424740000">
  <ele>314.300000</ele>
  <time>2011-10-22T08:52:08Z</time>
</trkpt>
<trkpt lat="39.681790000" lon="-0.424710000">
  <ele>315.100000</ele>
  <time>2011-10-22T08:52:09Z</time>
</trkpt>
<trkpt lat="39.681788000" lon="-0.424684000">
  <ele>315.600000</ele>
  <time>2011-10-22T08:52:10Z</time>
</trkpt>
<trkpt lat="39.681788000" lon="-0.424658000">
  <ele>315.700000</ele>
  <time>2011-10-22T08:52:11Z</time>
</trkpt>
<trkpt lat="39.681797000" lon="-0.424472000">
  <ele>314.500000</ele>
  <time>2011-10-22T08:52:18Z</time>
</trkpt>
<trkpt lat="39.681794000" lon="-0.424446000">
  <ele>314.200000</ele>
  <time>2011-10-22T08:52:18Z</time>
</trkpt>
<trkpt lat="39.681748000" lon="-0.423961000">
  <ele>314.000000</ele>
  <time>2011-10-22T08:52:36Z</time>
</trkpt>
<trkpt lat="39.681741000" lon="-0.423931000">
  <ele>313.500000</ele>
  <time>2011-10-22T08:52:37Z</time>
</trkpt>
<trkpt lat="39.681684000" lon="-0.423489000">
  <ele>312.700000</ele>
  <time>2011-10-22T08:52:50Z</time>
</trkpt>
<trkpt lat="39.681671000" lon="-0.423437000">
  <ele>314.800000</ele>
  <time>2011-10-22T08:52:53Z</time>
</trkpt>
<trkpt lat="39.681648000" lon="-0.423356000">
  <ele>317.200000</ele>
  <time>2011-10-22T08:52:56Z</time>
</trkpt>
<trkpt lat="39.681638000" lon="-0.423343000">
  <ele>317.500000</ele>
  <time>2011-10-22T08:52:56Z</time>
</trkpt>
<trkpt lat="39.681629000" lon="-0.423332000">
  <ele>317.500000</ele>
  <time>2011-10-22T08:52:58Z</time>
</trkpt>
<trkpt lat="39.681603000" lon="-0.423335000">
  <ele>317.300000</ele>
  <time>2011-10-22T08:52:59Z</time>
</trkpt>
<trkpt lat="39.681581000" lon="-0.423357000">
  <ele>316.300000</ele>
  <time>2011-10-22T08:53:00Z</time>
</trkpt>
<trkpt lat="39.681500000" lon="-0.423442000">
  <ele>313.500000</ele>
  <time>2011-10-22T08:53:04Z</time>
</trkpt>
<trkpt lat="39.681485000" lon="-0.423469000">
  <ele>312.500000</ele>
  <time>2011-10-22T08:53:04Z</time>
</trkpt>
<trkpt lat="39.681467000" lon="-0.423547000">
  <ele>310.700000</ele>
  <time>2011-10-22T08:53:07Z</time>
</trkpt>
<trkpt lat="39.681467000" lon="-0.423576000">
  <ele>310.200000</ele>
  <time>2011-10-22T08:53:09Z</time>
</trkpt>
<trkpt lat="39.681466000" lon="-0.423609000">
  <ele>310.100000</ele>
  <time>2011-10-22T08:53:09Z</time>
</trkpt>
<trkpt lat="39.681462000" lon="-0.423642000">
  <ele>310.200000</ele>
  <time>2011-10-22T08:53:11Z</time>
</trkpt>
<trkpt lat="39.681435000" lon="-0.423810000">
  <ele>310.200000</ele>
  <time>2011-10-22T08:53:17Z</time>
</trkpt>
<trkpt lat="39.681417000" lon="-0.423840000">
  <ele>309.700000</ele>
  <time>2011-10-22T08:53:18Z</time>
</trkpt>
<trkpt lat="39.681406000" lon="-0.423873000">
  <ele>310.200000</ele>
  <time>2011-10-22T08:53:19Z</time>
</trkpt>
<trkpt lat="39.681390000" lon="-0.423891000">
  <ele>310.600000</ele>
  <time>2011-10-22T08:53:20Z</time>
</trkpt>
<trkpt lat="39.681328000" lon="-0.423966000">
  <ele>312.200000</ele>
  <time>2011-10-22T08:53:23Z</time>
</trkpt>
<trkpt lat="39.681310000" lon="-0.423978000">
  <ele>313.300000</ele>
  <time>2011-10-22T08:53:25Z</time>
</trkpt>
<trkpt lat="39.681262000" lon="-0.424003000">
  <ele>312.600000</ele>
  <time>2011-10-22T08:53:28Z</time>
</trkpt>
<trkpt lat="39.681220000" lon="-0.424003000">
  <ele>313.000000</ele>
  <time>2011-10-22T08:53:30Z</time>
</trkpt>
<trkpt lat="39.681202000" lon="-0.423998000">
  <ele>312.800000</ele>
  <time>2011-10-22T08:53:31Z</time>
</trkpt>
<trkpt lat="39.681162000" lon="-0.423975000">
  <ele>313.800000</ele>
  <time>2011-10-22T08:53:33Z</time>
</trkpt>
<trkpt lat="39.681145000" lon="-0.423962000">
  <ele>314.200000</ele>
  <time>2011-10-22T08:53:34Z</time>
</trkpt>
<trkpt lat="39.681131000" lon="-0.423944000">
  <ele>313.800000</ele>
  <time>2011-10-22T08:53:35Z</time>
</trkpt>
<trkpt lat="39.681117000" lon="-0.423925000">
  <ele>313.700000</ele>
  <time>2011-10-22T08:53:36Z</time>
</trkpt>
<trkpt lat="39.681089000" lon="-0.423883000">
  <ele>315.000000</ele>
  <time>2011-10-22T08:53:38Z</time>
</trkpt>
<trkpt lat="39.681076000" lon="-0.423859000">
  <ele>315.600000</ele>
  <time>2011-10-22T08:53:39Z</time>
</trkpt>
<trkpt lat="39.681056000" lon="-0.423813000">
  <ele>317.100000</ele>
  <time>2011-10-22T08:53:41Z</time>
</trkpt>
<trkpt lat="39.681050000" lon="-0.423789000">
  <ele>317.700000</ele>
  <time>2011-10-22T08:53:41Z</time>
</trkpt>
<trkpt lat="39.680959000" lon="-0.423513000">
  <ele>319.100000</ele>
  <time>2011-10-22T08:53:52Z</time>
</trkpt>
<trkpt lat="39.680944000" lon="-0.423487000">
  <ele>319.200000</ele>
  <time>2011-10-22T08:53:53Z</time>
</trkpt>
<trkpt lat="39.680933000" lon="-0.423462000">
  <ele>319.200000</ele>
  <time>2011-10-22T08:53:54Z</time>
</trkpt>
<trkpt lat="39.680924000" lon="-0.423434000">
  <ele>319.100000</ele>
  <time>2011-10-22T08:53:55Z</time>
</trkpt>
<trkpt lat="39.680901000" lon="-0.423350000">
  <ele>317.800000</ele>
  <time>2011-10-22T08:53:57Z</time>
</trkpt>
<trkpt lat="39.680839000" lon="-0.423104000">
  <ele>318.200000</ele>
  <time>2011-10-22T08:54:06Z</time>
</trkpt>
<trkpt lat="39.680843000" lon="-0.423070000">
  <ele>318.300000</ele>
  <time>2011-10-22T08:54:06Z</time>
</trkpt>
<trkpt lat="39.680850000" lon="-0.423033000">
  <ele>318.700000</ele>
  <time>2011-10-22T08:54:08Z</time>
</trkpt>
<trkpt lat="39.680859000" lon="-0.422993000">
  <ele>319.700000</ele>
  <time>2011-10-22T08:54:09Z</time>
</trkpt>
<trkpt lat="39.680910000" lon="-0.422706000">
  <ele>318.800000</ele>
  <time>2011-10-22T08:54:16Z</time>
</trkpt>
<trkpt lat="39.680913000" lon="-0.422663000">
  <ele>319.100000</ele>
  <time>2011-10-22T08:54:16Z</time>
</trkpt>
<trkpt lat="39.680905000" lon="-0.422547000">
  <ele>319.700000</ele>
  <time>2011-10-22T08:54:19Z</time>
</trkpt>
<trkpt lat="39.680890000" lon="-0.422514000">
  <ele>320.200000</ele>
  <time>2011-10-22T08:54:21Z</time>
</trkpt>
<trkpt lat="39.680849000" lon="-0.422459000">
  <ele>321.200000</ele>
  <time>2011-10-22T08:54:24Z</time>
</trkpt>
<trkpt lat="39.680824000" lon="-0.422449000">
  <ele>321.200000</ele>
  <time>2011-10-22T08:54:25Z</time>
</trkpt>
<trkpt lat="39.680786000" lon="-0.422457000">
  <ele>321.500000</ele>
  <time>2011-10-22T08:54:25Z</time>
</trkpt>
<trkpt lat="39.680732000" lon="-0.422504000">
  <ele>320.700000</ele>
  <time>2011-10-22T08:54:28Z</time>
</trkpt>
</trkseg>
</trk>
<trk>
  <name>2011-10-22-01_2241-2491</name>
  <desc>C:\Users\farnau\Documents\My Dropbox\Tracks\2011-10-22-01.gpx</desc>
<trkseg>
<trkpt lat="39.680732000" lon="-0.422504000">
  <ele>320.700000</ele>
  <time>2011-10-22T08:54:28Z</time>
</trkpt>
<trkpt lat="39.680709000" lon="-0.422527000">
  <ele>320.500000</ele>
  <time>2011-10-22T08:54:29Z</time>
</trkpt>
<trkpt lat="39.680619000" lon="-0.422586000">
  <ele>318.700000</ele>
  <time>2011-10-22T08:54:32Z</time>
</trkpt>
<trkpt lat="39.680592000" lon="-0.422593000">
  <ele>319.600000</ele>
  <time>2011-10-22T08:54:33Z</time>
</trkpt>
<trkpt lat="39.680556000" lon="-0.422591000">
  <ele>319.700000</ele>
  <time>2011-10-22T08:54:35Z</time>
</trkpt>
<trkpt lat="39.680497000" lon="-0.422577000">
  <ele>320.600000</ele>
  <time>2011-10-22T08:54:37Z</time>
</trkpt>
<trkpt lat="39.680469000" lon="-0.422560000">
  <ele>321.200000</ele>
  <time>2011-10-22T08:54:38Z</time>
</trkpt>
<trkpt lat="39.680446000" lon="-0.422536000">
  <ele>321.100000</ele>
  <time>2011-10-22T08:54:38Z</time>
</trkpt>
<trkpt lat="39.680425000" lon="-0.422511000">
  <ele>321.500000</ele>
  <time>2011-10-22T08:54:40Z</time>
</trkpt>
<trkpt lat="39.680412000" lon="-0.422477000">
  <ele>321.700000</ele>
  <time>2011-10-22T08:54:41Z</time>
</trkpt>
<trkpt lat="39.680307000" lon="-0.422171000">
  <ele>321.800000</ele>
  <time>2011-10-22T08:54:49Z</time>
</trkpt>
<trkpt lat="39.680304000" lon="-0.422133000">
  <ele>322.200000</ele>
  <time>2011-10-22T08:54:51Z</time>
</trkpt>
<trkpt lat="39.680297000" lon="-0.422018000">
  <ele>322.800000</ele>
  <time>2011-10-22T08:54:54Z</time>
</trkpt>
<trkpt lat="39.680297000" lon="-0.421980000">
  <ele>323.200000</ele>
  <time>2011-10-22T08:54:54Z</time>
</trkpt>
<trkpt lat="39.680305000" lon="-0.421940000">
  <ele>323.500000</ele>
  <time>2011-10-22T08:54:56Z</time>
</trkpt>
<trkpt lat="39.680316000" lon="-0.421908000">
  <ele>323.700000</ele>
  <time>2011-10-22T08:54:57Z</time>
</trkpt>
<trkpt lat="39.680347000" lon="-0.421765000">
  <ele>323.700000</ele>
  <time>2011-10-22T08:55:01Z</time>
</trkpt>
<trkpt lat="39.680348000" lon="-0.421730000">
  <ele>325.000000</ele>
  <time>2011-10-22T08:55:02Z</time>
</trkpt>
<trkpt lat="39.680338000" lon="-0.421697000">
  <ele>325.200000</ele>
  <time>2011-10-22T08:55:03Z</time>
</trkpt>
<trkpt lat="39.680312000" lon="-0.421635000">
  <ele>325.700000</ele>
  <time>2011-10-22T08:55:05Z</time>
</trkpt>
<trkpt lat="39.680292000" lon="-0.421609000">
  <ele>325.700000</ele>
  <time>2011-10-22T08:55:05Z</time>
</trkpt>
<trkpt lat="39.680249000" lon="-0.421568000">
  <ele>326.000000</ele>
  <time>2011-10-22T08:55:07Z</time>
</trkpt>
<trkpt lat="39.680178000" lon="-0.421497000">
  <ele>325.200000</ele>
  <time>2011-10-22T08:55:10Z</time>
</trkpt>
<trkpt lat="39.680161000" lon="-0.421470000">
  <ele>324.700000</ele>
  <time>2011-10-22T08:55:12Z</time>
</trkpt>
<trkpt lat="39.680114000" lon="-0.421388000">
  <ele>326.500000</ele>
  <time>2011-10-22T08:55:15Z</time>
</trkpt>
<trkpt lat="39.680101000" lon="-0.421355000">
  <ele>327.200000</ele>
  <time>2011-10-22T08:55:16Z</time>
</trkpt>
<trkpt lat="39.680091000" lon="-0.421322000">
  <ele>327.700000</ele>
  <time>2011-10-22T08:55:16Z</time>
</trkpt>
<trkpt lat="39.680082000" lon="-0.421253000">
  <ele>328.000000</ele>
  <time>2011-10-22T08:55:19Z</time>
</trkpt>
<trkpt lat="39.680080000" lon="-0.421184000">
  <ele>328.200000</ele>
  <time>2011-10-22T08:55:21Z</time>
</trkpt>
<trkpt lat="39.680092000" lon="-0.421086000">
  <ele>327.800000</ele>
  <time>2011-10-22T08:55:24Z</time>
</trkpt>
<trkpt lat="39.680102000" lon="-0.421054000">
  <ele>327.300000</ele>
  <time>2011-10-22T08:55:24Z</time>
</trkpt>
<trkpt lat="39.680147000" lon="-0.420863000">
  <ele>328.300000</ele>
  <time>2011-10-22T08:55:31Z</time>
</trkpt>
<trkpt lat="39.680147000" lon="-0.420832000">
  <ele>328.500000</ele>
  <time>2011-10-22T08:55:32Z</time>
</trkpt>
<trkpt lat="39.680157000" lon="-0.420736000">
  <ele>329.000000</ele>
  <time>2011-10-22T08:55:35Z</time>
</trkpt>
<trkpt lat="39.680156000" lon="-0.420613000">
  <ele>330.700000</ele>
  <time>2011-10-22T08:55:39Z</time>
</trkpt>
<trkpt lat="39.680158000" lon="-0.420401000">
  <ele>330.200000</ele>
  <time>2011-10-22T08:55:45Z</time>
</trkpt>
<trkpt lat="39.680152000" lon="-0.420368000">
  <ele>330.600000</ele>
  <time>2011-10-22T08:55:47Z</time>
</trkpt>
<trkpt lat="39.680163000" lon="-0.419797000">
  <ele>329.300000</ele>
  <time>2011-10-22T08:56:04Z</time>
</trkpt>
<trkpt lat="39.680146000" lon="-0.419696000">
  <ele>329.200000</ele>
  <time>2011-10-22T08:56:07Z</time>
</trkpt>
<trkpt lat="39.680111000" lon="-0.419364000">
  <ele>328.100000</ele>
  <time>2011-10-22T08:56:17Z</time>
</trkpt>
<trkpt lat="39.680114000" lon="-0.419219000">
  <ele>327.500000</ele>
  <time>2011-10-22T08:56:20Z</time>
</trkpt>
<trkpt lat="39.680111000" lon="-0.419147000">
  <ele>328.500000</ele>
  <time>2011-10-22T08:56:23Z</time>
</trkpt>
<trkpt lat="39.680101000" lon="-0.419116000">
  <ele>329.200000</ele>
  <time>2011-10-22T08:56:23Z</time>
</trkpt>
<trkpt lat="39.680076000" lon="-0.419056000">
  <ele>331.000000</ele>
  <time>2011-10-22T08:56:26Z</time>
</trkpt>
<trkpt lat="39.680039000" lon="-0.419008000">
  <ele>333.700000</ele>
  <time>2011-10-22T08:56:28Z</time>
</trkpt>
<trkpt lat="39.680015000" lon="-0.418993000">
  <ele>334.300000</ele>
  <time>2011-10-22T08:56:29Z</time>
</trkpt>
<trkpt lat="39.679988000" lon="-0.418989000">
  <ele>334.200000</ele>
  <time>2011-10-22T08:56:30Z</time>
</trkpt>
<trkpt lat="39.679928000" lon="-0.418986000">
  <ele>335.100000</ele>
  <time>2011-10-22T08:56:31Z</time>
</trkpt>
<trkpt lat="39.679897000" lon="-0.418989000">
  <ele>335.500000</ele>
  <time>2011-10-22T08:56:33Z</time>
</trkpt>
<trkpt lat="39.679723000" lon="-0.418999000">
  <ele>335.700000</ele>
  <time>2011-10-22T08:56:36Z</time>
</trkpt>
<trkpt lat="39.679677000" lon="-0.418994000">
  <ele>335.700000</ele>
  <time>2011-10-22T08:56:38Z</time>
</trkpt>
<trkpt lat="39.679510000" lon="-0.418950000">
  <ele>335.700000</ele>
  <time>2011-10-22T08:56:41Z</time>
</trkpt>
<trkpt lat="39.679468000" lon="-0.418927000">
  <ele>336.000000</ele>
  <time>2011-10-22T08:56:42Z</time>
</trkpt>
<trkpt lat="39.679428000" lon="-0.418892000">
  <ele>336.000000</ele>
  <time>2011-10-22T08:56:42Z</time>
</trkpt>
<trkpt lat="39.679395000" lon="-0.418839000">
  <ele>336.300000</ele>
  <time>2011-10-22T08:56:44Z</time>
</trkpt>
<trkpt lat="39.679336000" lon="-0.418744000">
  <ele>336.700000</ele>
  <time>2011-10-22T08:56:46Z</time>
</trkpt>
<trkpt lat="39.679316000" lon="-0.418697000">
  <ele>336.200000</ele>
  <time>2011-10-22T08:56:47Z</time>
</trkpt>
<trkpt lat="39.679303000" lon="-0.418643000">
  <ele>335.600000</ele>
  <time>2011-10-22T08:56:48Z</time>
</trkpt>
<trkpt lat="39.679234000" lon="-0.418505000">
  <ele>333.700000</ele>
  <time>2011-10-22T08:56:50Z</time>
</trkpt>
<trkpt lat="39.678935000" lon="-0.417968000">
  <ele>331.700000</ele>
  <time>2011-10-22T08:57:01Z</time>
</trkpt>
<trkpt lat="39.678890000" lon="-0.417917000">
  <ele>331.700000</ele>
  <time>2011-10-22T08:57:02Z</time>
</trkpt>
<trkpt lat="39.678841000" lon="-0.417880000">
  <ele>330.800000</ele>
  <time>2011-10-22T08:57:03Z</time>
</trkpt>
<trkpt lat="39.678794000" lon="-0.417849000">
  <ele>330.200000</ele>
  <time>2011-10-22T08:57:04Z</time>
</trkpt>
<trkpt lat="39.678583000" lon="-0.417695000">
  <ele>328.600000</ele>
  <time>2011-10-22T08:57:08Z</time>
</trkpt>
<trkpt lat="39.678543000" lon="-0.417654000">
  <ele>328.700000</ele>
  <time>2011-10-22T08:57:09Z</time>
</trkpt>
<trkpt lat="39.678513000" lon="-0.417601000">
  <ele>327.700000</ele>
  <time>2011-10-22T08:57:11Z</time>
</trkpt>
<trkpt lat="39.678418000" lon="-0.417445000">
  <ele>325.300000</ele>
  <time>2011-10-22T08:57:14Z</time>
</trkpt>
<trkpt lat="39.678377000" lon="-0.417417000">
  <ele>325.600000</ele>
  <time>2011-10-22T08:57:14Z</time>
</trkpt>
<trkpt lat="39.678341000" lon="-0.417416000">
  <ele>325.600000</ele>
  <time>2011-10-22T08:57:16Z</time>
</trkpt>
<trkpt lat="39.678273000" lon="-0.417445000">
  <ele>324.200000</ele>
  <time>2011-10-22T08:57:17Z</time>
</trkpt>
<trkpt lat="39.678145000" lon="-0.417479000">
  <ele>323.100000</ele>
  <time>2011-10-22T08:57:21Z</time>
</trkpt>
<trkpt lat="39.678063000" lon="-0.417479000">
  <ele>322.800000</ele>
  <time>2011-10-22T08:57:23Z</time>
</trkpt>
<trkpt lat="39.678033000" lon="-0.417455000">
  <ele>323.200000</ele>
  <time>2011-10-22T08:57:24Z</time>
</trkpt>
<trkpt lat="39.677979000" lon="-0.417379000">
  <ele>323.500000</ele>
  <time>2011-10-22T08:57:25Z</time>
</trkpt>
<trkpt lat="39.677964000" lon="-0.417309000">
  <ele>323.100000</ele>
  <time>2011-10-22T08:57:27Z</time>
</trkpt>
<trkpt lat="39.677972000" lon="-0.417146000">
  <ele>321.500000</ele>
  <time>2011-10-22T08:57:29Z</time>
</trkpt>
<trkpt lat="39.677976000" lon="-0.417076000">
  <ele>321.200000</ele>
  <time>2011-10-22T08:57:30Z</time>
</trkpt>
<trkpt lat="39.677967000" lon="-0.417007000">
  <ele>320.500000</ele>
  <time>2011-10-22T08:57:30Z</time>
</trkpt>
<trkpt lat="39.677943000" lon="-0.416950000">
  <ele>320.300000</ele>
  <time>2011-10-22T08:57:32Z</time>
</trkpt>
<trkpt lat="39.677917000" lon="-0.416921000">
  <ele>319.700000</ele>
  <time>2011-10-22T08:57:33Z</time>
</trkpt>
<trkpt lat="39.677881000" lon="-0.416904000">
  <ele>319.700000</ele>
  <time>2011-10-22T08:57:33Z</time>
</trkpt>
<trkpt lat="39.677048000" lon="-0.416558000">
  <ele>313.000000</ele>
  <time>2011-10-22T08:57:46Z</time>
</trkpt>
<trkpt lat="39.676983000" lon="-0.416557000">
  <ele>312.700000</ele>
  <time>2011-10-22T08:57:48Z</time>
</trkpt>
<trkpt lat="39.676926000" lon="-0.416562000">
  <ele>312.100000</ele>
  <time>2011-10-22T08:57:49Z</time>
</trkpt>
<trkpt lat="39.676879000" lon="-0.416577000">
  <ele>310.800000</ele>
  <time>2011-10-22T08:57:49Z</time>
</trkpt>
<trkpt lat="39.676841000" lon="-0.416617000">
  <ele>311.000000</ele>
  <time>2011-10-22T08:57:51Z</time>
</trkpt>
<trkpt lat="39.676817000" lon="-0.416670000">
  <ele>310.500000</ele>
  <time>2011-10-22T08:57:52Z</time>
</trkpt>
<trkpt lat="39.676803000" lon="-0.416732000">
  <ele>309.700000</ele>
  <time>2011-10-22T08:57:52Z</time>
</trkpt>
<trkpt lat="39.676794000" lon="-0.416801000">
  <ele>309.300000</ele>
  <time>2011-10-22T08:57:54Z</time>
</trkpt>
<trkpt lat="39.676758000" lon="-0.417018000">
  <ele>307.700000</ele>
  <time>2011-10-22T08:57:57Z</time>
</trkpt>
<trkpt lat="39.676732000" lon="-0.417086000">
  <ele>307.100000</ele>
  <time>2011-10-22T08:57:57Z</time>
</trkpt>
<trkpt lat="39.676656000" lon="-0.417382000">
  <ele>305.800000</ele>
  <time>2011-10-22T08:58:02Z</time>
</trkpt>
<trkpt lat="39.676626000" lon="-0.417559000">
  <ele>305.300000</ele>
  <time>2011-10-22T08:58:04Z</time>
</trkpt>
<trkpt lat="39.676555000" lon="-0.417753000">
  <ele>305.200000</ele>
  <time>2011-10-22T08:58:05Z</time>
</trkpt>
<trkpt lat="39.676479000" lon="-0.417855000">
  <ele>304.200000</ele>
  <time>2011-10-22T08:58:08Z</time>
</trkpt>
<trkpt lat="39.676402000" lon="-0.417924000">
  <ele>303.700000</ele>
  <time>2011-10-22T08:58:11Z</time>
</trkpt>
<trkpt lat="39.676382000" lon="-0.417933000">
  <ele>303.600000</ele>
  <time>2011-10-22T08:58:12Z</time>
</trkpt>
<trkpt lat="39.676365000" lon="-0.417941000">
  <ele>303.500000</ele>
  <time>2011-10-22T08:58:13Z</time>
</trkpt>
<trkpt lat="39.676325000" lon="-0.417960000">
  <ele>304.000000</ele>
  <time>2011-10-22T08:58:15Z</time>
</trkpt>
<trkpt lat="39.676306000" lon="-0.417966000">
  <ele>303.800000</ele>
  <time>2011-10-22T08:58:16Z</time>
</trkpt>
<trkpt lat="39.676264000" lon="-0.417989000">
  <ele>303.200000</ele>
  <time>2011-10-22T08:58:18Z</time>
</trkpt>
<trkpt lat="39.676250000" lon="-0.417987000">
  <ele>303.100000</ele>
  <time>2011-10-22T08:58:20Z</time>
</trkpt>
<trkpt lat="39.676196000" lon="-0.417986000">
  <ele>302.500000</ele>
  <time>2011-10-22T08:58:24Z</time>
</trkpt>
<trkpt lat="39.676182000" lon="-0.417980000">
  <ele>302.600000</ele>
  <time>2011-10-22T08:58:24Z</time>
</trkpt>
<trkpt lat="39.676175000" lon="-0.417973000">
  <ele>302.700000</ele>
  <time>2011-10-22T08:58:26Z</time>
</trkpt>
<trkpt lat="39.676139000" lon="-0.417959000">
  <ele>302.000000</ele>
  <time>2011-10-22T08:58:42Z</time>
</trkpt>
<trkpt lat="39.676104000" lon="-0.417943000">
  <ele>301.600000</ele>
  <time>2011-10-22T08:58:43Z</time>
</trkpt>
<trkpt lat="39.676086000" lon="-0.417931000">
  <ele>301.300000</ele>
  <time>2011-10-22T08:58:45Z</time>
</trkpt>
<trkpt lat="39.676064000" lon="-0.417915000">
  <ele>301.300000</ele>
  <time>2011-10-22T08:58:46Z</time>
</trkpt>
<trkpt lat="39.675900000" lon="-0.417842000">
  <ele>300.200000</ele>
  <time>2011-10-22T08:58:50Z</time>
</trkpt>
<trkpt lat="39.675842000" lon="-0.417843000">
  <ele>300.000000</ele>
  <time>2011-10-22T08:58:51Z</time>
</trkpt>
<trkpt lat="39.675683000" lon="-0.417873000">
  <ele>299.600000</ele>
  <time>2011-10-22T08:58:53Z</time>
</trkpt>
<trkpt lat="39.675625000" lon="-0.417900000">
  <ele>299.300000</ele>
  <time>2011-10-22T08:58:55Z</time>
</trkpt>
<trkpt lat="39.675509000" lon="-0.417981000">
  <ele>298.600000</ele>
  <time>2011-10-22T08:58:56Z</time>
</trkpt>
<trkpt lat="39.675347000" lon="-0.418118000">
  <ele>297.700000</ele>
  <time>2011-10-22T08:58:59Z</time>
</trkpt>
<trkpt lat="39.675260000" lon="-0.418231000">
  <ele>297.800000</ele>
  <time>2011-10-22T08:59:02Z</time>
</trkpt>
<trkpt lat="39.674983000" lon="-0.418566000">
  <ele>296.300000</ele>
  <time>2011-10-22T08:59:07Z</time>
</trkpt>
<trkpt lat="39.674876000" lon="-0.418657000">
  <ele>296.700000</ele>
  <time>2011-10-22T08:59:09Z</time>
</trkpt>
<trkpt lat="39.674096000" lon="-0.419366000">
  <ele>290.600000</ele>
  <time>2011-10-22T08:59:28Z</time>
</trkpt>
<trkpt lat="39.674048000" lon="-0.419385000">
  <ele>290.300000</ele>
  <time>2011-10-22T08:59:30Z</time>
</trkpt>
<trkpt lat="39.673995000" lon="-0.419396000">
  <ele>290.600000</ele>
  <time>2011-10-22T08:59:31Z</time>
</trkpt>
<trkpt lat="39.673890000" lon="-0.419401000">
  <ele>290.800000</ele>
  <time>2011-10-22T08:59:33Z</time>
</trkpt>
<trkpt lat="39.672990000" lon="-0.419507000">
  <ele>287.300000</ele>
  <time>2011-10-22T08:59:50Z</time>
</trkpt>
<trkpt lat="39.672924000" lon="-0.419534000">
  <ele>287.100000</ele>
  <time>2011-10-22T08:59:52Z</time>
</trkpt>
<trkpt lat="39.672895000" lon="-0.419555000">
  <ele>287.000000</ele>
  <time>2011-10-22T08:59:53Z</time>
</trkpt>
<trkpt lat="39.672849000" lon="-0.419596000">
  <ele>286.700000</ele>
  <time>2011-10-22T08:59:55Z</time>
</trkpt>
<trkpt lat="39.672828000" lon="-0.419625000">
  <ele>286.700000</ele>
  <time>2011-10-22T08:59:56Z</time>
</trkpt>
<trkpt lat="39.672794000" lon="-0.419684000">
  <ele>286.800000</ele>
  <time>2011-10-22T08:59:58Z</time>
</trkpt>
<trkpt lat="39.672635000" lon="-0.419988000">
  <ele>285.700000</ele>
  <time>2011-10-22T09:00:06Z</time>
</trkpt>
<trkpt lat="39.672609000" lon="-0.420060000">
  <ele>284.700000</ele>
  <time>2011-10-22T09:00:09Z</time>
</trkpt>
<trkpt lat="39.672362000" lon="-0.420693000">
  <ele>280.200000</ele>
  <time>2011-10-22T09:00:20Z</time>
</trkpt>
<trkpt lat="39.672294000" lon="-0.420814000">
  <ele>279.600000</ele>
  <time>2011-10-22T09:00:22Z</time>
</trkpt>
<trkpt lat="39.672214000" lon="-0.420930000">
  <ele>278.700000</ele>
  <time>2011-10-22T09:00:25Z</time>
</trkpt>
<trkpt lat="39.672170000" lon="-0.420973000">
  <ele>278.600000</ele>
  <time>2011-10-22T09:00:25Z</time>
</trkpt>
<trkpt lat="39.672124000" lon="-0.421002000">
  <ele>278.100000</ele>
  <time>2011-10-22T09:00:27Z</time>
</trkpt>
<trkpt lat="39.671978000" lon="-0.421075000">
  <ele>276.300000</ele>
  <time>2011-10-22T09:00:30Z</time>
</trkpt>
<trkpt lat="39.671923000" lon="-0.421091000">
  <ele>275.500000</ele>
  <time>2011-10-22T09:00:31Z</time>
</trkpt>
<trkpt lat="39.671859000" lon="-0.421095000">
  <ele>275.100000</ele>
  <time>2011-10-22T09:00:32Z</time>
</trkpt>
<trkpt lat="39.671731000" lon="-0.421092000">
  <ele>275.200000</ele>
  <time>2011-10-22T09:00:33Z</time>
</trkpt>
<trkpt lat="39.671614000" lon="-0.421063000">
  <ele>275.300000</ele>
  <time>2011-10-22T09:00:35Z</time>
</trkpt>
<trkpt lat="39.671562000" lon="-0.421040000">
  <ele>275.200000</ele>
  <time>2011-10-22T09:00:36Z</time>
</trkpt>
<trkpt lat="39.671488000" lon="-0.420988000">
  <ele>275.300000</ele>
  <time>2011-10-22T09:00:40Z</time>
</trkpt>
<trkpt lat="39.671484000" lon="-0.420973000">
  <ele>275.300000</ele>
  <time>2011-10-22T09:00:41Z</time>
</trkpt>
<trkpt lat="39.671497000" lon="-0.420983000">
  <ele>274.700000</ele>
  <time>2011-10-22T09:00:41Z</time>
</trkpt>
<trkpt lat="39.671494000" lon="-0.420985000">
  <ele>275.000000</ele>
  <time>2011-10-22T09:00:43Z</time>
</trkpt>
<trkpt lat="39.671492000" lon="-0.420991000">
  <ele>275.100000</ele>
  <time>2011-10-22T09:00:44Z</time>
</trkpt>
<trkpt lat="39.671490000" lon="-0.420993000">
  <ele>275.300000</ele>
  <time>2011-10-22T09:00:44Z</time>
</trkpt>
<trkpt lat="39.671489000" lon="-0.420991000">
  <ele>275.500000</ele>
  <time>2011-10-22T09:00:46Z</time>
</trkpt>
<trkpt lat="39.671491000" lon="-0.420971000">
  <ele>276.000000</ele>
  <time>2011-10-22T09:01:39Z</time>
</trkpt>
<trkpt lat="39.671494000" lon="-0.420944000">
  <ele>276.600000</ele>
  <time>2011-10-22T09:01:40Z</time>
</trkpt>
<trkpt lat="39.671490000" lon="-0.420949000">
  <ele>276.300000</ele>
  <time>2011-10-22T09:01:41Z</time>
</trkpt>
<trkpt lat="39.671482000" lon="-0.420956000">
  <ele>274.200000</ele>
  <time>2011-10-22T09:01:42Z</time>
</trkpt>
<trkpt lat="39.671482000" lon="-0.420956000">
  <ele>274.100000</ele>
  <time>2011-10-22T09:01:43Z</time>
</trkpt>
<trkpt lat="39.671482000" lon="-0.420957000">
  <ele>274.300000</ele>
  <time>2011-10-22T09:01:43Z</time>
</trkpt>
<trkpt lat="39.671480000" lon="-0.420957000">
  <ele>274.700000</ele>
  <time>2011-10-22T09:01:45Z</time>
</trkpt>
<trkpt lat="39.671481000" lon="-0.420953000">
  <ele>274.200000</ele>
  <time>2011-10-22T09:01:45Z</time>
</trkpt>
<trkpt lat="39.671482000" lon="-0.420950000">
  <ele>273.800000</ele>
  <time>2011-10-22T09:01:46Z</time>
</trkpt>
<trkpt lat="39.671481000" lon="-0.420951000">
  <ele>274.000000</ele>
  <time>2011-10-22T09:01:48Z</time>
</trkpt>
<trkpt lat="39.671478000" lon="-0.420951000">
  <ele>273.600000</ele>
  <time>2011-10-22T09:01:48Z</time>
</trkpt>
<trkpt lat="39.671483000" lon="-0.420949000">
  <ele>272.500000</ele>
  <time>2011-10-22T09:01:50Z</time>
</trkpt>
<trkpt lat="39.671482000" lon="-0.420949000">
  <ele>272.300000</ele>
  <time>2011-10-22T09:01:51Z</time>
</trkpt>
<trkpt lat="39.671482000" lon="-0.420949000">
  <ele>272.200000</ele>
  <time>2011-10-22T09:01:51Z</time>
</trkpt>
<trkpt lat="39.671482000" lon="-0.420949000">
  <ele>272.200000</ele>
  <time>2011-10-22T09:01:53Z</time>
</trkpt>
<trkpt lat="39.671482000" lon="-0.420949000">
  <ele>272.200000</ele>
  <time>2011-10-22T09:01:54Z</time>
</trkpt>
<trkpt lat="39.671471000" lon="-0.420951000">
  <ele>272.200000</ele>
  <time>2011-10-22T09:01:54Z</time>
</trkpt>
<trkpt lat="39.671421000" lon="-0.420946000">
  <ele>273.300000</ele>
  <time>2011-10-22T09:01:59Z</time>
</trkpt>
<trkpt lat="39.671400000" lon="-0.420945000">
  <ele>274.500000</ele>
  <time>2011-10-22T09:02:00Z</time>
</trkpt>
<trkpt lat="39.671376000" lon="-0.420945000">
  <ele>275.600000</ele>
  <time>2011-10-22T09:02:01Z</time>
</trkpt>
<trkpt lat="39.671359000" lon="-0.420941000">
  <ele>276.200000</ele>
  <time>2011-10-22T09:02:02Z</time>
</trkpt>
<trkpt lat="39.671313000" lon="-0.420944000">
  <ele>277.600000</ele>
  <time>2011-10-22T09:02:04Z</time>
</trkpt>
<trkpt lat="39.670684000" lon="-0.421025000">
  <ele>276.000000</ele>
  <time>2011-10-22T09:02:23Z</time>
</trkpt>
<trkpt lat="39.670653000" lon="-0.421019000">
  <ele>276.200000</ele>
  <time>2011-10-22T09:02:25Z</time>
</trkpt>
<trkpt lat="39.670539000" lon="-0.420982000">
  <ele>273.700000</ele>
  <time>2011-10-22T09:02:32Z</time>
</trkpt>
<trkpt lat="39.670538000" lon="-0.420966000">
  <ele>273.500000</ele>
  <time>2011-10-22T09:02:33Z</time>
</trkpt>
<trkpt lat="39.670534000" lon="-0.420943000">
  <ele>273.300000</ele>
  <time>2011-10-22T09:02:34Z</time>
</trkpt>
<trkpt lat="39.670520000" lon="-0.420848000">
  <ele>273.800000</ele>
  <time>2011-10-22T09:02:39Z</time>
</trkpt>
<trkpt lat="39.670517000" lon="-0.420849000">
  <ele>274.500000</ele>
  <time>2011-10-22T09:02:39Z</time>
</trkpt>
<trkpt lat="39.670514000" lon="-0.420845000">
  <ele>274.800000</ele>
  <time>2011-10-22T09:02:41Z</time>
</trkpt>
<trkpt lat="39.670513000" lon="-0.420836000">
  <ele>274.800000</ele>
  <time>2011-10-22T09:02:42Z</time>
</trkpt>
<trkpt lat="39.670510000" lon="-0.420826000">
  <ele>275.500000</ele>
  <time>2011-10-22T09:02:42Z</time>
</trkpt>
<trkpt lat="39.670511000" lon="-0.420795000">
  <ele>275.800000</ele>
  <time>2011-10-22T09:02:45Z</time>
</trkpt>
<trkpt lat="39.670509000" lon="-0.420733000">
  <ele>274.700000</ele>
  <time>2011-10-22T09:02:48Z</time>
</trkpt>
<trkpt lat="39.670501000" lon="-0.420687000">
  <ele>275.100000</ele>
  <time>2011-10-22T09:02:50Z</time>
</trkpt>
<trkpt lat="39.670494000" lon="-0.420642000">
  <ele>275.500000</ele>
  <time>2011-10-22T09:02:52Z</time>
</trkpt>
<trkpt lat="39.670492000" lon="-0.420620000">
  <ele>275.300000</ele>
  <time>2011-10-22T09:02:53Z</time>
</trkpt>
<trkpt lat="39.670488000" lon="-0.420580000">
  <ele>275.200000</ele>
  <time>2011-10-22T09:02:55Z</time>
</trkpt>
<trkpt lat="39.670479000" lon="-0.420539000">
  <ele>276.000000</ele>
  <time>2011-10-22T09:02:57Z</time>
</trkpt>
<trkpt lat="39.670454000" lon="-0.420413000">
  <ele>275.200000</ele>
  <time>2011-10-22T09:03:01Z</time>
</trkpt>
<trkpt lat="39.670451000" lon="-0.420382000">
  <ele>274.800000</ele>
  <time>2011-10-22T09:03:03Z</time>
</trkpt>
<trkpt lat="39.670430000" lon="-0.420331000">
  <ele>274.600000</ele>
  <time>2011-10-22T09:03:04Z</time>
</trkpt>
<trkpt lat="39.670289000" lon="-0.420063000">
  <ele>276.100000</ele>
  <time>2011-10-22T09:03:14Z</time>
</trkpt>
<trkpt lat="39.670252000" lon="-0.420013000">
  <ele>276.000000</ele>
  <time>2011-10-22T09:03:17Z</time>
</trkpt>
<trkpt lat="39.670155000" lon="-0.419922000">
  <ele>277.200000</ele>
  <time>2011-10-22T09:03:20Z</time>
</trkpt>
<trkpt lat="39.670093000" lon="-0.419863000">
  <ele>278.200000</ele>
  <time>2011-10-22T09:03:24Z</time>
</trkpt>
<trkpt lat="39.670087000" lon="-0.419848000">
  <ele>277.700000</ele>
  <time>2011-10-22T09:03:25Z</time>
</trkpt>
<trkpt lat="39.670065000" lon="-0.419776000">
  <ele>277.600000</ele>
  <time>2011-10-22T09:03:28Z</time>
</trkpt>
<trkpt lat="39.670060000" lon="-0.419751000">
  <ele>277.600000</ele>
  <time>2011-10-22T09:03:28Z</time>
</trkpt>
<trkpt lat="39.670052000" lon="-0.419703000">
  <ele>277.700000</ele>
  <time>2011-10-22T09:03:30Z</time>
</trkpt>
<trkpt lat="39.670041000" lon="-0.419673000">
  <ele>278.000000</ele>
  <time>2011-10-22T09:03:32Z</time>
</trkpt>
<trkpt lat="39.670047000" lon="-0.419644000">
  <ele>278.200000</ele>
  <time>2011-10-22T09:03:33Z</time>
</trkpt>
<trkpt lat="39.670101000" lon="-0.419200000">
  <ele>275.500000</ele>
  <time>2011-10-22T09:03:44Z</time>
</trkpt>
<trkpt lat="39.670096000" lon="-0.419160000">
  <ele>274.200000</ele>
  <time>2011-10-22T09:03:44Z</time>
</trkpt>
<trkpt lat="39.670059000" lon="-0.418816000">
  <ele>274.300000</ele>
  <time>2011-10-22T09:03:54Z</time>
</trkpt>
<trkpt lat="39.670060000" lon="-0.418779000">
  <ele>274.100000</ele>
  <time>2011-10-22T09:03:55Z</time>
</trkpt>
<trkpt lat="39.670080000" lon="-0.418650000">
  <ele>274.800000</ele>
  <time>2011-10-22T09:03:58Z</time>
</trkpt>
<trkpt lat="39.670116000" lon="-0.418535000">
  <ele>274.500000</ele>
  <time>2011-10-22T09:04:00Z</time>
</trkpt>
<trkpt lat="39.670178000" lon="-0.418273000">
  <ele>271.800000</ele>
  <time>2011-10-22T09:04:05Z</time>
</trkpt>
<trkpt lat="39.670170000" lon="-0.418225000">
  <ele>272.000000</ele>
  <time>2011-10-22T09:04:05Z</time>
</trkpt>
<trkpt lat="39.670124000" lon="-0.418051000">
  <ele>273.300000</ele>
  <time>2011-10-22T09:04:11Z</time>
</trkpt>
<trkpt lat="39.670109000" lon="-0.418031000">
  <ele>272.300000</ele>
  <time>2011-10-22T09:04:11Z</time>
</trkpt>
<trkpt lat="39.670086000" lon="-0.418006000">
  <ele>272.700000</ele>
  <time>2011-10-22T09:04:13Z</time>
</trkpt>
<trkpt lat="39.670065000" lon="-0.417990000">
  <ele>273.200000</ele>
  <time>2011-10-22T09:04:14Z</time>
</trkpt>
<trkpt lat="39.670039000" lon="-0.417976000">
  <ele>273.200000</ele>
  <time>2011-10-22T09:04:15Z</time>
</trkpt>
<trkpt lat="39.670008000" lon="-0.417959000">
  <ele>273.300000</ele>
  <time>2011-10-22T09:04:16Z</time>
</trkpt>
<trkpt lat="39.669976000" lon="-0.417949000">
  <ele>273.200000</ele>
  <time>2011-10-22T09:04:17Z</time>
</trkpt>
<trkpt lat="39.669942000" lon="-0.417943000">
  <ele>273.200000</ele>
  <time>2011-10-22T09:04:18Z</time>
</trkpt>
<trkpt lat="39.669868000" lon="-0.417942000">
  <ele>272.600000</ele>
  <time>2011-10-22T09:04:19Z</time>
</trkpt>
<trkpt lat="39.669278000" lon="-0.417968000">
  <ele>270.200000</ele>
  <time>2011-10-22T09:04:33Z</time>
</trkpt>
<trkpt lat="39.669232000" lon="-0.417982000">
  <ele>270.300000</ele>
  <time>2011-10-22T09:04:34Z</time>
</trkpt>
<trkpt lat="39.669185000" lon="-0.417985000">
  <ele>270.300000</ele>
  <time>2011-10-22T09:04:35Z</time>
</trkpt>
<trkpt lat="39.669134000" lon="-0.417976000">
  <ele>270.600000</ele>
  <time>2011-10-22T09:04:35Z</time>
</trkpt>
<trkpt lat="39.668911000" lon="-0.417965000">
  <ele>269.100000</ele>
  <time>2011-10-22T09:04:40Z</time>
</trkpt>
<trkpt lat="39.668860000" lon="-0.417968000">
  <ele>268.200000</ele>
  <time>2011-10-22T09:04:43Z</time>
</trkpt>
<trkpt lat="39.668810000" lon="-0.417976000">
  <ele>268.200000</ele>
  <time>2011-10-22T09:04:45Z</time>
</trkpt>
<trkpt lat="39.668784000" lon="-0.417983000">
  <ele>268.100000</ele>
  <time>2011-10-22T09:04:46Z</time>
</trkpt>
<trkpt lat="39.668729000" lon="-0.418013000">
  <ele>267.000000</ele>
  <time>2011-10-22T09:04:49Z</time>
</trkpt>
<trkpt lat="39.668631000" lon="-0.418066000">
  <ele>267.100000</ele>
  <time>2011-10-22T09:04:53Z</time>
</trkpt>
<trkpt lat="39.668616000" lon="-0.418066000">
  <ele>266.300000</ele>
  <time>2011-10-22T09:04:54Z</time>
</trkpt>
<trkpt lat="39.668592000" lon="-0.418081000">
  <ele>265.800000</ele>
  <time>2011-10-22T09:04:56Z</time>
</trkpt>
<trkpt lat="39.668571000" lon="-0.418093000">
  <ele>265.300000</ele>
  <time>2011-10-22T09:04:56Z</time>
</trkpt>
<trkpt lat="39.668543000" lon="-0.418102000">
  <ele>265.700000</ele>
  <time>2011-10-22T09:04:58Z</time>
</trkpt>
<trkpt lat="39.668528000" lon="-0.418114000">
  <ele>265.500000</ele>
  <time>2011-10-22T09:04:59Z</time>
</trkpt>
<trkpt lat="39.668522000" lon="-0.418130000">
  <ele>265.300000</ele>
  <time>2011-10-22T09:04:59Z</time>
</trkpt>
<trkpt lat="39.668524000" lon="-0.418160000">
  <ele>265.200000</ele>
  <time>2011-10-22T09:05:01Z</time>
</trkpt>
<trkpt lat="39.668525000" lon="-0.418193000">
  <ele>265.300000</ele>
  <time>2011-10-22T09:05:02Z</time>
</trkpt>
<trkpt lat="39.668524000" lon="-0.418328000">
  <ele>264.100000</ele>
  <time>2011-10-22T09:05:05Z</time>
</trkpt>
<trkpt lat="39.668517000" lon="-0.418354000">
  <ele>264.000000</ele>
  <time>2011-10-22T09:05:05Z</time>
</trkpt>
<trkpt lat="39.668495000" lon="-0.418410000">
  <ele>262.200000</ele>
  <time>2011-10-22T09:05:08Z</time>
</trkpt>
<trkpt lat="39.668477000" lon="-0.418433000">
  <ele>261.700000</ele>
  <time>2011-10-22T09:05:09Z</time>
</trkpt>
<trkpt lat="39.668391000" lon="-0.418473000">
  <ele>261.200000</ele>
  <time>2011-10-22T09:05:12Z</time>
</trkpt>
<trkpt lat="39.668317000" lon="-0.418483000">
  <ele>260.000000</ele>
  <time>2011-10-22T09:05:13Z</time>
</trkpt>
<trkpt lat="39.668244000" lon="-0.418469000">
  <ele>259.500000</ele>
  <time>2011-10-22T09:05:15Z</time>
</trkpt>
<trkpt lat="39.668146000" lon="-0.418469000">
  <ele>257.600000</ele>
  <time>2011-10-22T09:05:20Z</time>
</trkpt>
<trkpt lat="39.668117000" lon="-0.418471000">
  <ele>256.700000</ele>
  <time>2011-10-22T09:05:21Z</time>
</trkpt>
<trkpt lat="39.668057000" lon="-0.418486000">
  <ele>255.500000</ele>
  <time>2011-10-22T09:05:23Z</time>
</trkpt>
<trkpt lat="39.668042000" lon="-0.418499000">
  <ele>255.500000</ele>
  <time>2011-10-22T09:05:24Z</time>
</trkpt>
<trkpt lat="39.668007000" lon="-0.418515000">
  <ele>255.100000</ele>
  <time>2011-10-22T09:05:26Z</time>
</trkpt>
<trkpt lat="39.667961000" lon="-0.418520000">
  <ele>255.300000</ele>
  <time>2011-10-22T09:05:28Z</time>
</trkpt>
<trkpt lat="39.667907000" lon="-0.418523000">
  <ele>255.600000</ele>
  <time>2011-10-22T09:05:29Z</time>
</trkpt>
<trkpt lat="39.667888000" lon="-0.418535000">
  <ele>255.600000</ele>
  <time>2011-10-22T09:05:31Z</time>
</trkpt>
</trkseg>
</trk>
<trk>
  <name>2011-10-22-01_2490-2740</name>
  <desc>C:\Users\farnau\Documents\My Dropbox\Tracks\2011-10-22-01.gpx</desc>
<trkseg>
<trkpt lat="39.667888000" lon="-0.418535000">
  <ele>255.600000</ele>
  <time>2011-10-22T09:05:31Z</time>
</trkpt>
<trkpt lat="39.667875000" lon="-0.418545000">
  <ele>255.300000</ele>
  <time>2011-10-22T09:05:31Z</time>
</trkpt>
<trkpt lat="39.667865000" lon="-0.418561000">
  <ele>255.300000</ele>
  <time>2011-10-22T09:05:33Z</time>
</trkpt>
<trkpt lat="39.667852000" lon="-0.418571000">
  <ele>255.300000</ele>
  <time>2011-10-22T09:05:34Z</time>
</trkpt>
<trkpt lat="39.667811000" lon="-0.418569000">
  <ele>254.000000</ele>
  <time>2011-10-22T09:05:47Z</time>
</trkpt>
<trkpt lat="39.667792000" lon="-0.418573000">
  <ele>254.500000</ele>
  <time>2011-10-22T09:05:47Z</time>
</trkpt>
<trkpt lat="39.667777000" lon="-0.418576000">
  <ele>254.600000</ele>
  <time>2011-10-22T09:05:48Z</time>
</trkpt>
<trkpt lat="39.667772000" lon="-0.418569000">
  <ele>255.100000</ele>
  <time>2011-10-22T09:06:14Z</time>
</trkpt>
<trkpt lat="39.667762000" lon="-0.418563000">
  <ele>254.800000</ele>
  <time>2011-10-22T09:06:15Z</time>
</trkpt>
<trkpt lat="39.667756000" lon="-0.418557000">
  <ele>254.800000</ele>
  <time>2011-10-22T09:06:16Z</time>
</trkpt>
<trkpt lat="39.667753000" lon="-0.418538000">
  <ele>254.800000</ele>
  <time>2011-10-22T09:06:17Z</time>
</trkpt>
<trkpt lat="39.667752000" lon="-0.418478000">
  <ele>256.000000</ele>
  <time>2011-10-22T09:06:20Z</time>
</trkpt>
<trkpt lat="39.667755000" lon="-0.418461000">
  <ele>256.500000</ele>
  <time>2011-10-22T09:06:20Z</time>
</trkpt>
<trkpt lat="39.667757000" lon="-0.418452000">
  <ele>257.000000</ele>
  <time>2011-10-22T09:06:22Z</time>
</trkpt>
<trkpt lat="39.667760000" lon="-0.418447000">
  <ele>256.700000</ele>
  <time>2011-10-22T09:06:22Z</time>
</trkpt>
<trkpt lat="39.667777000" lon="-0.418410000">
  <ele>257.700000</ele>
  <time>2011-10-22T09:06:31Z</time>
</trkpt>
<trkpt lat="39.667782000" lon="-0.418397000">
  <ele>258.200000</ele>
  <time>2011-10-22T09:06:33Z</time>
</trkpt>
<trkpt lat="39.667788000" lon="-0.418389000">
  <ele>258.300000</ele>
  <time>2011-10-22T09:06:34Z</time>
</trkpt>
<trkpt lat="39.667878000" lon="-0.418246000">
  <ele>256.200000</ele>
  <time>2011-10-22T09:07:53Z</time>
</trkpt>
<trkpt lat="39.667881000" lon="-0.418234000">
  <ele>256.100000</ele>
  <time>2011-10-22T09:07:54Z</time>
</trkpt>
<trkpt lat="39.667883000" lon="-0.418224000">
  <ele>256.200000</ele>
  <time>2011-10-22T09:07:54Z</time>
</trkpt>
<trkpt lat="39.667890000" lon="-0.418197000">
  <ele>256.700000</ele>
  <time>2011-10-22T09:07:57Z</time>
</trkpt>
<trkpt lat="39.667892000" lon="-0.418181000">
  <ele>256.800000</ele>
  <time>2011-10-22T09:07:57Z</time>
</trkpt>
<trkpt lat="39.667898000" lon="-0.417990000">
  <ele>258.200000</ele>
  <time>2011-10-22T09:08:21Z</time>
</trkpt>
<trkpt lat="39.667899000" lon="-0.417969000">
  <ele>258.000000</ele>
  <time>2011-10-22T09:08:21Z</time>
</trkpt>
<trkpt lat="39.667902000" lon="-0.417949000">
  <ele>258.000000</ele>
  <time>2011-10-22T09:08:23Z</time>
</trkpt>
<trkpt lat="39.667901000" lon="-0.417932000">
  <ele>258.200000</ele>
  <time>2011-10-22T09:08:23Z</time>
</trkpt>
<trkpt lat="39.667903000" lon="-0.417910000">
  <ele>258.700000</ele>
  <time>2011-10-22T09:08:24Z</time>
</trkpt>
<trkpt lat="39.667906000" lon="-0.417713000">
  <ele>260.300000</ele>
  <time>2011-10-22T09:08:35Z</time>
</trkpt>
<trkpt lat="39.667908000" lon="-0.417623000">
  <ele>264.500000</ele>
  <time>2011-10-22T09:08:48Z</time>
</trkpt>
<trkpt lat="39.667912000" lon="-0.417611000">
  <ele>265.200000</ele>
  <time>2011-10-22T09:08:50Z</time>
</trkpt>
<trkpt lat="39.667914000" lon="-0.417596000">
  <ele>265.500000</ele>
  <time>2011-10-22T09:08:51Z</time>
</trkpt>
<trkpt lat="39.667915000" lon="-0.417584000">
  <ele>265.600000</ele>
  <time>2011-10-22T09:08:52Z</time>
</trkpt>
<trkpt lat="39.667917000" lon="-0.417574000">
  <ele>265.800000</ele>
  <time>2011-10-22T09:08:53Z</time>
</trkpt>
<trkpt lat="39.667915000" lon="-0.417560000">
  <ele>266.300000</ele>
  <time>2011-10-22T09:08:54Z</time>
</trkpt>
<trkpt lat="39.667914000" lon="-0.417547000">
  <ele>266.800000</ele>
  <time>2011-10-22T09:08:55Z</time>
</trkpt>
<trkpt lat="39.667914000" lon="-0.417537000">
  <ele>267.100000</ele>
  <time>2011-10-22T09:08:56Z</time>
</trkpt>
<trkpt lat="39.667914000" lon="-0.417527000">
  <ele>267.300000</ele>
  <time>2011-10-22T09:08:56Z</time>
</trkpt>
<trkpt lat="39.667911000" lon="-0.417514000">
  <ele>267.700000</ele>
  <time>2011-10-22T09:08:58Z</time>
</trkpt>
<trkpt lat="39.667911000" lon="-0.417509000">
  <ele>267.300000</ele>
  <time>2011-10-22T09:08:58Z</time>
</trkpt>
<trkpt lat="39.667911000" lon="-0.417500000">
  <ele>267.500000</ele>
  <time>2011-10-22T09:08:59Z</time>
</trkpt>
<trkpt lat="39.667908000" lon="-0.417491000">
  <ele>267.700000</ele>
  <time>2011-10-22T09:09:01Z</time>
</trkpt>
<trkpt lat="39.667906000" lon="-0.417480000">
  <ele>268.100000</ele>
  <time>2011-10-22T09:09:01Z</time>
</trkpt>
<trkpt lat="39.667905000" lon="-0.417471000">
  <ele>268.200000</ele>
  <time>2011-10-22T09:09:03Z</time>
</trkpt>
<trkpt lat="39.667903000" lon="-0.417462000">
  <ele>268.800000</ele>
  <time>2011-10-22T09:09:04Z</time>
</trkpt>
<trkpt lat="39.667902000" lon="-0.417455000">
  <ele>269.200000</ele>
  <time>2011-10-22T09:09:04Z</time>
</trkpt>
<trkpt lat="39.667899000" lon="-0.417447000">
  <ele>269.600000</ele>
  <time>2011-10-22T09:09:06Z</time>
</trkpt>
<trkpt lat="39.667896000" lon="-0.417446000">
  <ele>270.200000</ele>
  <time>2011-10-22T09:09:07Z</time>
</trkpt>
<trkpt lat="39.667895000" lon="-0.417445000">
  <ele>270.300000</ele>
  <time>2011-10-22T09:09:07Z</time>
</trkpt>
<trkpt lat="39.667895000" lon="-0.417444000">
  <ele>270.500000</ele>
  <time>2011-10-22T09:09:09Z</time>
</trkpt>
<trkpt lat="39.667898000" lon="-0.417439000">
  <ele>270.300000</ele>
  <time>2011-10-22T09:09:17Z</time>
</trkpt>
<trkpt lat="39.667918000" lon="-0.417130000">
  <ele>275.300000</ele>
  <time>2011-10-22T09:09:54Z</time>
</trkpt>
<trkpt lat="39.667915000" lon="-0.417121000">
  <ele>275.700000</ele>
  <time>2011-10-22T09:09:55Z</time>
</trkpt>
<trkpt lat="39.667913000" lon="-0.417110000">
  <ele>275.800000</ele>
  <time>2011-10-22T09:09:55Z</time>
</trkpt>
<trkpt lat="39.667875000" lon="-0.416995000">
  <ele>278.600000</ele>
  <time>2011-10-22T09:10:24Z</time>
</trkpt>
<trkpt lat="39.667865000" lon="-0.416983000">
  <ele>278.700000</ele>
  <time>2011-10-22T09:10:25Z</time>
</trkpt>
<trkpt lat="39.667826000" lon="-0.416915000">
  <ele>280.200000</ele>
  <time>2011-10-22T09:10:30Z</time>
</trkpt>
<trkpt lat="39.667822000" lon="-0.416898000">
  <ele>280.000000</ele>
  <time>2011-10-22T09:10:32Z</time>
</trkpt>
<trkpt lat="39.667773000" lon="-0.416705000">
  <ele>283.500000</ele>
  <time>2011-10-22T09:10:54Z</time>
</trkpt>
<trkpt lat="39.667773000" lon="-0.416696000">
  <ele>283.700000</ele>
  <time>2011-10-22T09:10:55Z</time>
</trkpt>
<trkpt lat="39.667773000" lon="-0.416686000">
  <ele>283.700000</ele>
  <time>2011-10-22T09:10:56Z</time>
</trkpt>
<trkpt lat="39.667772000" lon="-0.416674000">
  <ele>283.800000</ele>
  <time>2011-10-22T09:10:57Z</time>
</trkpt>
<trkpt lat="39.667771000" lon="-0.416638000">
  <ele>284.600000</ele>
  <time>2011-10-22T09:10:59Z</time>
</trkpt>
<trkpt lat="39.667771000" lon="-0.416623000">
  <ele>284.800000</ele>
  <time>2011-10-22T09:11:00Z</time>
</trkpt>
<trkpt lat="39.667770000" lon="-0.416611000">
  <ele>285.200000</ele>
  <time>2011-10-22T09:11:02Z</time>
</trkpt>
<trkpt lat="39.667770000" lon="-0.416599000">
  <ele>285.200000</ele>
  <time>2011-10-22T09:11:02Z</time>
</trkpt>
<trkpt lat="39.667768000" lon="-0.416588000">
  <ele>285.200000</ele>
  <time>2011-10-22T09:11:04Z</time>
</trkpt>
<trkpt lat="39.667767000" lon="-0.416586000">
  <ele>285.300000</ele>
  <time>2011-10-22T09:11:05Z</time>
</trkpt>
<trkpt lat="39.667766000" lon="-0.416590000">
  <ele>285.500000</ele>
  <time>2011-10-22T09:11:05Z</time>
</trkpt>
<trkpt lat="39.667767000" lon="-0.416595000">
  <ele>285.600000</ele>
  <time>2011-10-22T09:11:07Z</time>
</trkpt>
<trkpt lat="39.667764000" lon="-0.416596000">
  <ele>285.300000</ele>
  <time>2011-10-22T09:11:08Z</time>
</trkpt>
<trkpt lat="39.667763000" lon="-0.416597000">
  <ele>285.200000</ele>
  <time>2011-10-22T09:11:08Z</time>
</trkpt>
<trkpt lat="39.667764000" lon="-0.416597000">
  <ele>285.500000</ele>
  <time>2011-10-22T09:11:10Z</time>
</trkpt>
<trkpt lat="39.667763000" lon="-0.416597000">
  <ele>285.700000</ele>
  <time>2011-10-22T09:11:11Z</time>
</trkpt>
<trkpt lat="39.667763000" lon="-0.416595000">
  <ele>285.800000</ele>
  <time>2011-10-22T09:11:12Z</time>
</trkpt>
<trkpt lat="39.667762000" lon="-0.416594000">
  <ele>286.000000</ele>
  <time>2011-10-22T09:11:13Z</time>
</trkpt>
<trkpt lat="39.667761000" lon="-0.416595000">
  <ele>286.200000</ele>
  <time>2011-10-22T09:11:13Z</time>
</trkpt>
<trkpt lat="39.667761000" lon="-0.416595000">
  <ele>286.200000</ele>
  <time>2011-10-22T09:11:15Z</time>
</trkpt>
<trkpt lat="39.667761000" lon="-0.416595000">
  <ele>286.200000</ele>
  <time>2011-10-22T09:11:16Z</time>
</trkpt>
<trkpt lat="39.667762000" lon="-0.416588000">
  <ele>286.200000</ele>
  <time>2011-10-22T09:11:16Z</time>
</trkpt>
<trkpt lat="39.667760000" lon="-0.416574000">
  <ele>286.300000</ele>
  <time>2011-10-22T09:11:18Z</time>
</trkpt>
<trkpt lat="39.667760000" lon="-0.416562000">
  <ele>286.700000</ele>
  <time>2011-10-22T09:11:18Z</time>
</trkpt>
<trkpt lat="39.667761000" lon="-0.416543000">
  <ele>287.200000</ele>
  <time>2011-10-22T09:11:20Z</time>
</trkpt>
<trkpt lat="39.667761000" lon="-0.416524000">
  <ele>287.200000</ele>
  <time>2011-10-22T09:11:21Z</time>
</trkpt>
<trkpt lat="39.667762000" lon="-0.416511000">
  <ele>287.200000</ele>
  <time>2011-10-22T09:11:21Z</time>
</trkpt>
<trkpt lat="39.667767000" lon="-0.416495000">
  <ele>287.200000</ele>
  <time>2011-10-22T09:11:23Z</time>
</trkpt>
<trkpt lat="39.667859000" lon="-0.416182000">
  <ele>295.200000</ele>
  <time>2011-10-22T09:12:02Z</time>
</trkpt>
<trkpt lat="39.667861000" lon="-0.416173000">
  <ele>295.200000</ele>
  <time>2011-10-22T09:12:03Z</time>
</trkpt>
<trkpt lat="39.667861000" lon="-0.416162000">
  <ele>295.300000</ele>
  <time>2011-10-22T09:12:04Z</time>
</trkpt>
<trkpt lat="39.667857000" lon="-0.416081000">
  <ele>297.200000</ele>
  <time>2011-10-22T09:12:12Z</time>
</trkpt>
<trkpt lat="39.667855000" lon="-0.416068000">
  <ele>297.100000</ele>
  <time>2011-10-22T09:12:12Z</time>
</trkpt>
<trkpt lat="39.667851000" lon="-0.416057000">
  <ele>297.000000</ele>
  <time>2011-10-22T09:12:14Z</time>
</trkpt>
<trkpt lat="39.667845000" lon="-0.416047000">
  <ele>297.500000</ele>
  <time>2011-10-22T09:12:15Z</time>
</trkpt>
<trkpt lat="39.667829000" lon="-0.416028000">
  <ele>297.700000</ele>
  <time>2011-10-22T09:12:17Z</time>
</trkpt>
<trkpt lat="39.667669000" lon="-0.415841000">
  <ele>300.700000</ele>
  <time>2011-10-22T09:12:40Z</time>
</trkpt>
<trkpt lat="39.667664000" lon="-0.415830000">
  <ele>300.600000</ele>
  <time>2011-10-22T09:12:41Z</time>
</trkpt>
<trkpt lat="39.667616000" lon="-0.415702000">
  <ele>302.500000</ele>
  <time>2011-10-22T09:12:58Z</time>
</trkpt>
<trkpt lat="39.667615000" lon="-0.415651000">
  <ele>303.500000</ele>
  <time>2011-10-22T09:13:03Z</time>
</trkpt>
<trkpt lat="39.667614000" lon="-0.415638000">
  <ele>303.700000</ele>
  <time>2011-10-22T09:13:05Z</time>
</trkpt>
<trkpt lat="39.667668000" lon="-0.415389000">
  <ele>308.100000</ele>
  <time>2011-10-22T09:13:52Z</time>
</trkpt>
<trkpt lat="39.667670000" lon="-0.415377000">
  <ele>308.200000</ele>
  <time>2011-10-22T09:13:54Z</time>
</trkpt>
<trkpt lat="39.667674000" lon="-0.415367000">
  <ele>308.500000</ele>
  <time>2011-10-22T09:13:54Z</time>
</trkpt>
<trkpt lat="39.667740000" lon="-0.415207000">
  <ele>312.600000</ele>
  <time>2011-10-22T09:14:13Z</time>
</trkpt>
<trkpt lat="39.667745000" lon="-0.415201000">
  <ele>312.700000</ele>
  <time>2011-10-22T09:14:15Z</time>
</trkpt>
<trkpt lat="39.667748000" lon="-0.415195000">
  <ele>313.000000</ele>
  <time>2011-10-22T09:14:16Z</time>
</trkpt>
<trkpt lat="39.667752000" lon="-0.415189000">
  <ele>313.100000</ele>
  <time>2011-10-22T09:14:16Z</time>
</trkpt>
<trkpt lat="39.667756000" lon="-0.415181000">
  <ele>313.200000</ele>
  <time>2011-10-22T09:14:18Z</time>
</trkpt>
<trkpt lat="39.667760000" lon="-0.415171000">
  <ele>313.200000</ele>
  <time>2011-10-22T09:14:19Z</time>
</trkpt>
<trkpt lat="39.667762000" lon="-0.415162000">
  <ele>313.700000</ele>
  <time>2011-10-22T09:14:19Z</time>
</trkpt>
<trkpt lat="39.667765000" lon="-0.415154000">
  <ele>314.200000</ele>
  <time>2011-10-22T09:14:21Z</time>
</trkpt>
<trkpt lat="39.667769000" lon="-0.415153000">
  <ele>314.200000</ele>
  <time>2011-10-22T09:14:22Z</time>
</trkpt>
<trkpt lat="39.667777000" lon="-0.415163000">
  <ele>314.500000</ele>
  <time>2011-10-22T09:14:23Z</time>
</trkpt>
<trkpt lat="39.667779000" lon="-0.415164000">
  <ele>314.600000</ele>
  <time>2011-10-22T09:14:24Z</time>
</trkpt>
<trkpt lat="39.667779000" lon="-0.415163000">
  <ele>314.600000</ele>
  <time>2011-10-22T09:14:24Z</time>
</trkpt>
<trkpt lat="39.667777000" lon="-0.415163000">
  <ele>314.500000</ele>
  <time>2011-10-22T09:14:26Z</time>
</trkpt>
<trkpt lat="39.667777000" lon="-0.415162000">
  <ele>314.300000</ele>
  <time>2011-10-22T09:14:26Z</time>
</trkpt>
<trkpt lat="39.667776000" lon="-0.415162000">
  <ele>314.200000</ele>
  <time>2011-10-22T09:14:27Z</time>
</trkpt>
<trkpt lat="39.667776000" lon="-0.415162000">
  <ele>314.200000</ele>
  <time>2011-10-22T09:14:29Z</time>
</trkpt>
<trkpt lat="39.667780000" lon="-0.415152000">
  <ele>314.300000</ele>
  <time>2011-10-22T09:14:29Z</time>
</trkpt>
<trkpt lat="39.667796000" lon="-0.415029000">
  <ele>316.500000</ele>
  <time>2011-10-22T09:14:42Z</time>
</trkpt>
<trkpt lat="39.667795000" lon="-0.415015000">
  <ele>316.800000</ele>
  <time>2011-10-22T09:14:43Z</time>
</trkpt>
<trkpt lat="39.667797000" lon="-0.415004000">
  <ele>316.800000</ele>
  <time>2011-10-22T09:14:43Z</time>
</trkpt>
<trkpt lat="39.667797000" lon="-0.414993000">
  <ele>316.700000</ele>
  <time>2011-10-22T09:14:45Z</time>
</trkpt>
<trkpt lat="39.667803000" lon="-0.414956000">
  <ele>318.000000</ele>
  <time>2011-10-22T09:14:53Z</time>
</trkpt>
<trkpt lat="39.667795000" lon="-0.414945000">
  <ele>318.200000</ele>
  <time>2011-10-22T09:14:54Z</time>
</trkpt>
<trkpt lat="39.667791000" lon="-0.414937000">
  <ele>318.200000</ele>
  <time>2011-10-22T09:14:54Z</time>
</trkpt>
<trkpt lat="39.667778000" lon="-0.414885000">
  <ele>319.200000</ele>
  <time>2011-10-22T09:14:59Z</time>
</trkpt>
<trkpt lat="39.667774000" lon="-0.414871000">
  <ele>319.200000</ele>
  <time>2011-10-22T09:14:59Z</time>
</trkpt>
<trkpt lat="39.667773000" lon="-0.414854000">
  <ele>319.200000</ele>
  <time>2011-10-22T09:15:01Z</time>
</trkpt>
<trkpt lat="39.667763000" lon="-0.414807000">
  <ele>318.600000</ele>
  <time>2011-10-22T09:15:15Z</time>
</trkpt>
<trkpt lat="39.667760000" lon="-0.414793000">
  <ele>318.700000</ele>
  <time>2011-10-22T09:15:16Z</time>
</trkpt>
<trkpt lat="39.667764000" lon="-0.414760000">
  <ele>318.700000</ele>
  <time>2011-10-22T09:15:18Z</time>
</trkpt>
<trkpt lat="39.667764000" lon="-0.414744000">
  <ele>318.200000</ele>
  <time>2011-10-22T09:15:18Z</time>
</trkpt>
<trkpt lat="39.667764000" lon="-0.414379000">
  <ele>318.100000</ele>
  <time>2011-10-22T09:15:32Z</time>
</trkpt>
<trkpt lat="39.667759000" lon="-0.414349000">
  <ele>318.000000</ele>
  <time>2011-10-22T09:15:33Z</time>
</trkpt>
<trkpt lat="39.667756000" lon="-0.414290000">
  <ele>318.300000</ele>
  <time>2011-10-22T09:15:34Z</time>
</trkpt>
<trkpt lat="39.667758000" lon="-0.414183000">
  <ele>320.200000</ele>
  <time>2011-10-22T09:15:39Z</time>
</trkpt>
<trkpt lat="39.667762000" lon="-0.414159000">
  <ele>320.000000</ele>
  <time>2011-10-22T09:15:39Z</time>
</trkpt>
<trkpt lat="39.667778000" lon="-0.414029000">
  <ele>319.700000</ele>
  <time>2011-10-22T09:15:45Z</time>
</trkpt>
<trkpt lat="39.667790000" lon="-0.413964000">
  <ele>319.600000</ele>
  <time>2011-10-22T09:15:49Z</time>
</trkpt>
<trkpt lat="39.667788000" lon="-0.413938000">
  <ele>320.200000</ele>
  <time>2011-10-22T09:15:50Z</time>
</trkpt>
<trkpt lat="39.667791000" lon="-0.413863000">
  <ele>320.300000</ele>
  <time>2011-10-22T09:15:53Z</time>
</trkpt>
<trkpt lat="39.667797000" lon="-0.413838000">
  <ele>320.200000</ele>
  <time>2011-10-22T09:15:53Z</time>
</trkpt>
<trkpt lat="39.667797000" lon="-0.413811000">
  <ele>320.300000</ele>
  <time>2011-10-22T09:15:55Z</time>
</trkpt>
<trkpt lat="39.667790000" lon="-0.413552000">
  <ele>323.700000</ele>
  <time>2011-10-22T09:16:05Z</time>
</trkpt>
<trkpt lat="39.667792000" lon="-0.413503000">
  <ele>324.200000</ele>
  <time>2011-10-22T09:16:07Z</time>
</trkpt>
<trkpt lat="39.667805000" lon="-0.413411000">
  <ele>325.300000</ele>
  <time>2011-10-22T09:16:11Z</time>
</trkpt>
<trkpt lat="39.667826000" lon="-0.413277000">
  <ele>326.000000</ele>
  <time>2011-10-22T09:16:17Z</time>
</trkpt>
<trkpt lat="39.667830000" lon="-0.413258000">
  <ele>326.000000</ele>
  <time>2011-10-22T09:16:19Z</time>
</trkpt>
<trkpt lat="39.667841000" lon="-0.413213000">
  <ele>325.200000</ele>
  <time>2011-10-22T09:16:20Z</time>
</trkpt>
<trkpt lat="39.667889000" lon="-0.412929000">
  <ele>323.800000</ele>
  <time>2011-10-22T09:16:27Z</time>
</trkpt>
<trkpt lat="39.667915000" lon="-0.412855000">
  <ele>323.000000</ele>
  <time>2011-10-22T09:16:28Z</time>
</trkpt>
<trkpt lat="39.667935000" lon="-0.412773000">
  <ele>322.000000</ele>
  <time>2011-10-22T09:16:30Z</time>
</trkpt>
<trkpt lat="39.667962000" lon="-0.412603000">
  <ele>321.100000</ele>
  <time>2011-10-22T09:16:32Z</time>
</trkpt>
<trkpt lat="39.668015000" lon="-0.412234000">
  <ele>323.700000</ele>
  <time>2011-10-22T09:16:42Z</time>
</trkpt>
<trkpt lat="39.668013000" lon="-0.412208000">
  <ele>324.100000</ele>
  <time>2011-10-22T09:16:43Z</time>
</trkpt>
<trkpt lat="39.668018000" lon="-0.412083000">
  <ele>325.300000</ele>
  <time>2011-10-22T09:16:48Z</time>
</trkpt>
<trkpt lat="39.668031000" lon="-0.411839000">
  <ele>325.700000</ele>
  <time>2011-10-22T09:16:59Z</time>
</trkpt>
<trkpt lat="39.668025000" lon="-0.411819000">
  <ele>325.800000</ele>
  <time>2011-10-22T09:17:00Z</time>
</trkpt>
<trkpt lat="39.668021000" lon="-0.411802000">
  <ele>326.200000</ele>
  <time>2011-10-22T09:17:00Z</time>
</trkpt>
<trkpt lat="39.668021000" lon="-0.411781000">
  <ele>326.300000</ele>
  <time>2011-10-22T09:17:02Z</time>
</trkpt>
<trkpt lat="39.668025000" lon="-0.411761000">
  <ele>326.200000</ele>
  <time>2011-10-22T09:17:02Z</time>
</trkpt>
<trkpt lat="39.668028000" lon="-0.411741000">
  <ele>326.200000</ele>
  <time>2011-10-22T09:17:03Z</time>
</trkpt>
<trkpt lat="39.668049000" lon="-0.411644000">
  <ele>326.700000</ele>
  <time>2011-10-22T09:17:08Z</time>
</trkpt>
<trkpt lat="39.668073000" lon="-0.411577000">
  <ele>326.700000</ele>
  <time>2011-10-22T09:17:13Z</time>
</trkpt>
<trkpt lat="39.668086000" lon="-0.411531000">
  <ele>326.800000</ele>
  <time>2011-10-22T09:17:16Z</time>
</trkpt>
<trkpt lat="39.668098000" lon="-0.411484000">
  <ele>327.200000</ele>
  <time>2011-10-22T09:17:19Z</time>
</trkpt>
<trkpt lat="39.668106000" lon="-0.411472000">
  <ele>327.200000</ele>
  <time>2011-10-22T09:17:19Z</time>
</trkpt>
<trkpt lat="39.668151000" lon="-0.411407000">
  <ele>329.200000</ele>
  <time>2011-10-22T09:17:24Z</time>
</trkpt>
<trkpt lat="39.668155000" lon="-0.411394000">
  <ele>329.500000</ele>
  <time>2011-10-22T09:17:26Z</time>
</trkpt>
<trkpt lat="39.668323000" lon="-0.410931000">
  <ele>336.000000</ele>
  <time>2011-10-22T09:18:52Z</time>
</trkpt>
<trkpt lat="39.668323000" lon="-0.410918000">
  <ele>336.200000</ele>
  <time>2011-10-22T09:18:53Z</time>
</trkpt>
<trkpt lat="39.668318000" lon="-0.410891000">
  <ele>336.700000</ele>
  <time>2011-10-22T09:18:55Z</time>
</trkpt>
<trkpt lat="39.668306000" lon="-0.410866000">
  <ele>337.700000</ele>
  <time>2011-10-22T09:18:56Z</time>
</trkpt>
<trkpt lat="39.668293000" lon="-0.410842000">
  <ele>338.300000</ele>
  <time>2011-10-22T09:18:59Z</time>
</trkpt>
<trkpt lat="39.668268000" lon="-0.410757000">
  <ele>341.200000</ele>
  <time>2011-10-22T09:19:12Z</time>
</trkpt>
<trkpt lat="39.668267000" lon="-0.410743000">
  <ele>341.700000</ele>
  <time>2011-10-22T09:19:14Z</time>
</trkpt>
<trkpt lat="39.668265000" lon="-0.410700000">
  <ele>342.700000</ele>
  <time>2011-10-22T09:19:17Z</time>
</trkpt>
<trkpt lat="39.668267000" lon="-0.410686000">
  <ele>342.800000</ele>
  <time>2011-10-22T09:19:18Z</time>
</trkpt>
<trkpt lat="39.668277000" lon="-0.410606000">
  <ele>343.300000</ele>
  <time>2011-10-22T09:19:25Z</time>
</trkpt>
<trkpt lat="39.668280000" lon="-0.410594000">
  <ele>343.200000</ele>
  <time>2011-10-22T09:19:25Z</time>
</trkpt>
<trkpt lat="39.668296000" lon="-0.410557000">
  <ele>345.100000</ele>
  <time>2011-10-22T09:19:36Z</time>
</trkpt>
<trkpt lat="39.668311000" lon="-0.410514000">
  <ele>345.300000</ele>
  <time>2011-10-22T09:19:38Z</time>
</trkpt>
<trkpt lat="39.668311000" lon="-0.410498000">
  <ele>345.300000</ele>
  <time>2011-10-22T09:19:39Z</time>
</trkpt>
<trkpt lat="39.668314000" lon="-0.410482000">
  <ele>345.200000</ele>
  <time>2011-10-22T09:19:41Z</time>
</trkpt>
<trkpt lat="39.668321000" lon="-0.410467000">
  <ele>345.200000</ele>
  <time>2011-10-22T09:19:41Z</time>
</trkpt>
<trkpt lat="39.668372000" lon="-0.410379000">
  <ele>345.300000</ele>
  <time>2011-10-22T09:19:47Z</time>
</trkpt>
<trkpt lat="39.668381000" lon="-0.410366000">
  <ele>345.200000</ele>
  <time>2011-10-22T09:19:49Z</time>
</trkpt>
<trkpt lat="39.668442000" lon="-0.410268000">
  <ele>345.300000</ele>
  <time>2011-10-22T09:19:55Z</time>
</trkpt>
<trkpt lat="39.668450000" lon="-0.410250000">
  <ele>345.600000</ele>
  <time>2011-10-22T09:19:55Z</time>
</trkpt>
<trkpt lat="39.668462000" lon="-0.410239000">
  <ele>345.700000</ele>
  <time>2011-10-22T09:19:57Z</time>
</trkpt>
<trkpt lat="39.668505000" lon="-0.410180000">
  <ele>346.200000</ele>
  <time>2011-10-22T09:20:00Z</time>
</trkpt>
<trkpt lat="39.668510000" lon="-0.410161000">
  <ele>346.700000</ele>
  <time>2011-10-22T09:20:02Z</time>
</trkpt>
<trkpt lat="39.668519000" lon="-0.410140000">
  <ele>347.000000</ele>
  <time>2011-10-22T09:20:03Z</time>
</trkpt>
<trkpt lat="39.668545000" lon="-0.410087000">
  <ele>347.200000</ele>
  <time>2011-10-22T09:20:06Z</time>
</trkpt>
<trkpt lat="39.668578000" lon="-0.410038000">
  <ele>348.000000</ele>
  <time>2011-10-22T09:20:09Z</time>
</trkpt>
<trkpt lat="39.668634000" lon="-0.409972000">
  <ele>347.800000</ele>
  <time>2011-10-22T09:20:13Z</time>
</trkpt>
<trkpt lat="39.668671000" lon="-0.409938000">
  <ele>347.600000</ele>
  <time>2011-10-22T09:20:14Z</time>
</trkpt>
<trkpt lat="39.668780000" lon="-0.409826000">
  <ele>347.700000</ele>
  <time>2011-10-22T09:20:19Z</time>
</trkpt>
<trkpt lat="39.668795000" lon="-0.409799000">
  <ele>347.700000</ele>
  <time>2011-10-22T09:20:21Z</time>
</trkpt>
<trkpt lat="39.668803000" lon="-0.409772000">
  <ele>347.700000</ele>
  <time>2011-10-22T09:20:22Z</time>
</trkpt>
<trkpt lat="39.668826000" lon="-0.409675000">
  <ele>347.700000</ele>
  <time>2011-10-22T09:20:25Z</time>
</trkpt>
<trkpt lat="39.668830000" lon="-0.409639000">
  <ele>347.700000</ele>
  <time>2011-10-22T09:20:26Z</time>
</trkpt>
<trkpt lat="39.668825000" lon="-0.409535000">
  <ele>347.500000</ele>
  <time>2011-10-22T09:20:29Z</time>
</trkpt>
<trkpt lat="39.668810000" lon="-0.409468000">
  <ele>347.700000</ele>
  <time>2011-10-22T09:20:30Z</time>
</trkpt>
<trkpt lat="39.668794000" lon="-0.409435000">
  <ele>347.800000</ele>
  <time>2011-10-22T09:20:32Z</time>
</trkpt>
<trkpt lat="39.668743000" lon="-0.409314000">
  <ele>347.200000</ele>
  <time>2011-10-22T09:20:35Z</time>
</trkpt>
<trkpt lat="39.668732000" lon="-0.409262000">
  <ele>346.700000</ele>
  <time>2011-10-22T09:20:35Z</time>
</trkpt>
<trkpt lat="39.668727000" lon="-0.409204000">
  <ele>346.200000</ele>
  <time>2011-10-22T09:20:37Z</time>
</trkpt>
<trkpt lat="39.668710000" lon="-0.409073000">
  <ele>345.000000</ele>
  <time>2011-10-22T09:20:38Z</time>
</trkpt>
<trkpt lat="39.668696000" lon="-0.409009000">
  <ele>344.700000</ele>
  <time>2011-10-22T09:20:40Z</time>
</trkpt>
<trkpt lat="39.668652000" lon="-0.408907000">
  <ele>344.000000</ele>
  <time>2011-10-22T09:20:42Z</time>
</trkpt>
<trkpt lat="39.668552000" lon="-0.408743000">
  <ele>342.200000</ele>
  <time>2011-10-22T09:20:45Z</time>
</trkpt>
<trkpt lat="39.668437000" lon="-0.408595000">
  <ele>342.800000</ele>
  <time>2011-10-22T09:20:48Z</time>
</trkpt>
<trkpt lat="39.668343000" lon="-0.408469000">
  <ele>346.000000</ele>
  <time>2011-10-22T09:20:54Z</time>
</trkpt>
<trkpt lat="39.668330000" lon="-0.408449000">
  <ele>346.000000</ele>
  <time>2011-10-22T09:20:56Z</time>
</trkpt>
<trkpt lat="39.668319000" lon="-0.408425000">
  <ele>345.600000</ele>
  <time>2011-10-22T09:20:57Z</time>
</trkpt>
<trkpt lat="39.668313000" lon="-0.408400000">
  <ele>345.100000</ele>
  <time>2011-10-22T09:20:57Z</time>
</trkpt>
<trkpt lat="39.668264000" lon="-0.408228000">
  <ele>345.500000</ele>
  <time>2011-10-22T09:21:02Z</time>
</trkpt>
<trkpt lat="39.668254000" lon="-0.408175000">
  <ele>344.700000</ele>
  <time>2011-10-22T09:21:04Z</time>
</trkpt>
<trkpt lat="39.668150000" lon="-0.407574000">
  <ele>341.200000</ele>
  <time>2011-10-22T09:21:12Z</time>
</trkpt>
<trkpt lat="39.668156000" lon="-0.407510000">
  <ele>341.000000</ele>
  <time>2011-10-22T09:21:13Z</time>
</trkpt>
<trkpt lat="39.668175000" lon="-0.407443000">
  <ele>340.700000</ele>
  <time>2011-10-22T09:21:13Z</time>
</trkpt>
<trkpt lat="39.668202000" lon="-0.407376000">
  <ele>340.500000</ele>
  <time>2011-10-22T09:21:15Z</time>
</trkpt>
<trkpt lat="39.668273000" lon="-0.407252000">
  <ele>340.200000</ele>
  <time>2011-10-22T09:21:17Z</time>
</trkpt>
<trkpt lat="39.668313000" lon="-0.407196000">
  <ele>339.800000</ele>
  <time>2011-10-22T09:21:18Z</time>
</trkpt>
<trkpt lat="39.668385000" lon="-0.407093000">
  <ele>338.600000</ele>
  <time>2011-10-22T09:21:20Z</time>
</trkpt>
<trkpt lat="39.668399000" lon="-0.407028000">
  <ele>338.100000</ele>
  <time>2011-10-22T09:21:21Z</time>
</trkpt>
<trkpt lat="39.668400000" lon="-0.406968000">
  <ele>337.700000</ele>
  <time>2011-10-22T09:21:21Z</time>
</trkpt>
<trkpt lat="39.668394000" lon="-0.406912000">
  <ele>337.700000</ele>
  <time>2011-10-22T09:21:23Z</time>
</trkpt>
<trkpt lat="39.668374000" lon="-0.406828000">
  <ele>339.000000</ele>
  <time>2011-10-22T09:21:25Z</time>
</trkpt>
<trkpt lat="39.668326000" lon="-0.406716000">
  <ele>340.600000</ele>
  <time>2011-10-22T09:21:28Z</time>
</trkpt>
<trkpt lat="39.668302000" lon="-0.406693000">
  <ele>340.700000</ele>
  <time>2011-10-22T09:21:29Z</time>
</trkpt>
<trkpt lat="39.668255000" lon="-0.406657000">
  <ele>341.000000</ele>
  <time>2011-10-22T09:21:31Z</time>
</trkpt>
<trkpt lat="39.668180000" lon="-0.406597000">
  <ele>341.100000</ele>
  <time>2011-10-22T09:21:35Z</time>
</trkpt>
<trkpt lat="39.668156000" lon="-0.406583000">
  <ele>341.500000</ele>
  <time>2011-10-22T09:21:36Z</time>
</trkpt>
<trkpt lat="39.668051000" lon="-0.406509000">
  <ele>342.000000</ele>
  <time>2011-10-22T09:21:40Z</time>
</trkpt>
<trkpt lat="39.667995000" lon="-0.406456000">
  <ele>342.100000</ele>
  <time>2011-10-22T09:21:44Z</time>
</trkpt>
<trkpt lat="39.667959000" lon="-0.406424000">
  <ele>342.100000</ele>
  <time>2011-10-22T09:21:45Z</time>
</trkpt>
<trkpt lat="39.667942000" lon="-0.406414000">
  <ele>342.100000</ele>
  <time>2011-10-22T09:21:47Z</time>
</trkpt>
<trkpt lat="39.667854000" lon="-0.406360000">
  <ele>343.500000</ele>
  <time>2011-10-22T09:21:52Z</time>
</trkpt>
<trkpt lat="39.667834000" lon="-0.406356000">
  <ele>343.700000</ele>
  <time>2011-10-22T09:21:53Z</time>
</trkpt>
<trkpt lat="39.667795000" lon="-0.406360000">
  <ele>343.000000</ele>
  <time>2011-10-22T09:21:55Z</time>
</trkpt>
<trkpt lat="39.667777000" lon="-0.406366000">
  <ele>342.500000</ele>
  <time>2011-10-22T09:21:56Z</time>
</trkpt>
<trkpt lat="39.667755000" lon="-0.406377000">
  <ele>342.700000</ele>
  <time>2011-10-22T09:21:56Z</time>
</trkpt>
<trkpt lat="39.667737000" lon="-0.406392000">
  <ele>343.200000</ele>
  <time>2011-10-22T09:21:58Z</time>
</trkpt>
<trkpt lat="39.667719000" lon="-0.406399000">
  <ele>343.500000</ele>
  <time>2011-10-22T09:21:58Z</time>
</trkpt>
<trkpt lat="39.667679000" lon="-0.406402000">
  <ele>343.800000</ele>
  <time>2011-10-22T09:22:01Z</time>
</trkpt>
<trkpt lat="39.667657000" lon="-0.406397000">
  <ele>344.500000</ele>
  <time>2011-10-22T09:22:01Z</time>
</trkpt>
<trkpt lat="39.667636000" lon="-0.406386000">
  <ele>345.000000</ele>
  <time>2011-10-22T09:22:03Z</time>
</trkpt>
</trkseg>
</trk>
<trk>
  <name>2011-10-22-01_2739-2989</name>
  <desc>C:\Users\farnau\Documents\My Dropbox\Tracks\2011-10-22-01.gpx</desc>
<trkseg>
<trkpt lat="39.667636000" lon="-0.406386000">
  <ele>345.000000</ele>
  <time>2011-10-22T09:22:03Z</time>
</trkpt>
<trkpt lat="39.667596000" lon="-0.406360000">
  <ele>345.800000</ele>
  <time>2011-10-22T09:22:04Z</time>
</trkpt>
<trkpt lat="39.667563000" lon="-0.406333000">
  <ele>345.800000</ele>
  <time>2011-10-22T09:22:07Z</time>
</trkpt>
<trkpt lat="39.667549000" lon="-0.406317000">
  <ele>346.000000</ele>
  <time>2011-10-22T09:22:08Z</time>
</trkpt>
<trkpt lat="39.667487000" lon="-0.406238000">
  <ele>346.700000</ele>
  <time>2011-10-22T09:22:12Z</time>
</trkpt>
<trkpt lat="39.667475000" lon="-0.406218000">
  <ele>347.200000</ele>
  <time>2011-10-22T09:22:14Z</time>
</trkpt>
<trkpt lat="39.667434000" lon="-0.406160000">
  <ele>348.700000</ele>
  <time>2011-10-22T09:22:17Z</time>
</trkpt>
<trkpt lat="39.667385000" lon="-0.406101000">
  <ele>350.100000</ele>
  <time>2011-10-22T09:22:22Z</time>
</trkpt>
<trkpt lat="39.667370000" lon="-0.406088000">
  <ele>350.000000</ele>
  <time>2011-10-22T09:22:23Z</time>
</trkpt>
<trkpt lat="39.667263000" lon="-0.405984000">
  <ele>349.800000</ele>
  <time>2011-10-22T09:22:28Z</time>
</trkpt>
<trkpt lat="39.667225000" lon="-0.405938000">
  <ele>350.700000</ele>
  <time>2011-10-22T09:22:31Z</time>
</trkpt>
<trkpt lat="39.667087000" lon="-0.405762000">
  <ele>350.200000</ele>
  <time>2011-10-22T09:22:38Z</time>
</trkpt>
<trkpt lat="39.666948000" lon="-0.405578000">
  <ele>349.100000</ele>
  <time>2011-10-22T09:22:42Z</time>
</trkpt>
<trkpt lat="39.666920000" lon="-0.405512000">
  <ele>348.700000</ele>
  <time>2011-10-22T09:22:43Z</time>
</trkpt>
<trkpt lat="39.666887000" lon="-0.405402000">
  <ele>348.300000</ele>
  <time>2011-10-22T09:22:45Z</time>
</trkpt>
<trkpt lat="39.666886000" lon="-0.405358000">
  <ele>348.200000</ele>
  <time>2011-10-22T09:22:46Z</time>
</trkpt>
<trkpt lat="39.666871000" lon="-0.405139000">
  <ele>350.500000</ele>
  <time>2011-10-22T09:22:52Z</time>
</trkpt>
<trkpt lat="39.666860000" lon="-0.405119000">
  <ele>350.200000</ele>
  <time>2011-10-22T09:22:54Z</time>
</trkpt>
<trkpt lat="39.666835000" lon="-0.405076000">
  <ele>351.300000</ele>
  <time>2011-10-22T09:22:55Z</time>
</trkpt>
<trkpt lat="39.666812000" lon="-0.405028000">
  <ele>352.200000</ele>
  <time>2011-10-22T09:22:58Z</time>
</trkpt>
<trkpt lat="39.666811000" lon="-0.405008000">
  <ele>352.200000</ele>
  <time>2011-10-22T09:22:58Z</time>
</trkpt>
<trkpt lat="39.666814000" lon="-0.404983000">
  <ele>352.500000</ele>
  <time>2011-10-22T09:23:00Z</time>
</trkpt>
<trkpt lat="39.666818000" lon="-0.404960000">
  <ele>353.600000</ele>
  <time>2011-10-22T09:23:01Z</time>
</trkpt>
<trkpt lat="39.666837000" lon="-0.404858000">
  <ele>355.700000</ele>
  <time>2011-10-22T09:23:05Z</time>
</trkpt>
<trkpt lat="39.666835000" lon="-0.404830000">
  <ele>355.300000</ele>
  <time>2011-10-22T09:23:05Z</time>
</trkpt>
<trkpt lat="39.666824000" lon="-0.404806000">
  <ele>355.500000</ele>
  <time>2011-10-22T09:23:06Z</time>
</trkpt>
<trkpt lat="39.666809000" lon="-0.404784000">
  <ele>355.800000</ele>
  <time>2011-10-22T09:23:08Z</time>
</trkpt>
<trkpt lat="39.666792000" lon="-0.404767000">
  <ele>356.300000</ele>
  <time>2011-10-22T09:23:08Z</time>
</trkpt>
<trkpt lat="39.666771000" lon="-0.404757000">
  <ele>356.700000</ele>
  <time>2011-10-22T09:23:10Z</time>
</trkpt>
<trkpt lat="39.666753000" lon="-0.404750000">
  <ele>357.000000</ele>
  <time>2011-10-22T09:23:11Z</time>
</trkpt>
<trkpt lat="39.666734000" lon="-0.404749000">
  <ele>357.200000</ele>
  <time>2011-10-22T09:23:11Z</time>
</trkpt>
<trkpt lat="39.666712000" lon="-0.404751000">
  <ele>357.800000</ele>
  <time>2011-10-22T09:23:13Z</time>
</trkpt>
<trkpt lat="39.666659000" lon="-0.404753000">
  <ele>357.800000</ele>
  <time>2011-10-22T09:23:16Z</time>
</trkpt>
<trkpt lat="39.666641000" lon="-0.404747000">
  <ele>357.800000</ele>
  <time>2011-10-22T09:23:17Z</time>
</trkpt>
<trkpt lat="39.666626000" lon="-0.404736000">
  <ele>357.700000</ele>
  <time>2011-10-22T09:23:18Z</time>
</trkpt>
<trkpt lat="39.666619000" lon="-0.404725000">
  <ele>357.700000</ele>
  <time>2011-10-22T09:23:19Z</time>
</trkpt>
<trkpt lat="39.666615000" lon="-0.404711000">
  <ele>357.800000</ele>
  <time>2011-10-22T09:23:20Z</time>
</trkpt>
<trkpt lat="39.666617000" lon="-0.404696000">
  <ele>357.700000</ele>
  <time>2011-10-22T09:23:21Z</time>
</trkpt>
<trkpt lat="39.666632000" lon="-0.404680000">
  <ele>357.600000</ele>
  <time>2011-10-22T09:23:22Z</time>
</trkpt>
<trkpt lat="39.666662000" lon="-0.404647000">
  <ele>358.600000</ele>
  <time>2011-10-22T09:23:24Z</time>
</trkpt>
<trkpt lat="39.666680000" lon="-0.404633000">
  <ele>358.600000</ele>
  <time>2011-10-22T09:23:24Z</time>
</trkpt>
<trkpt lat="39.666699000" lon="-0.404621000">
  <ele>358.700000</ele>
  <time>2011-10-22T09:23:26Z</time>
</trkpt>
<trkpt lat="39.666740000" lon="-0.404606000">
  <ele>358.800000</ele>
  <time>2011-10-22T09:23:27Z</time>
</trkpt>
<trkpt lat="39.666797000" lon="-0.404577000">
  <ele>359.200000</ele>
  <time>2011-10-22T09:23:30Z</time>
</trkpt>
<trkpt lat="39.666816000" lon="-0.404563000">
  <ele>359.500000</ele>
  <time>2011-10-22T09:23:32Z</time>
</trkpt>
<trkpt lat="39.666895000" lon="-0.404490000">
  <ele>360.700000</ele>
  <time>2011-10-22T09:23:37Z</time>
</trkpt>
<trkpt lat="39.666938000" lon="-0.404458000">
  <ele>361.100000</ele>
  <time>2011-10-22T09:23:40Z</time>
</trkpt>
<trkpt lat="39.666956000" lon="-0.404451000">
  <ele>361.100000</ele>
  <time>2011-10-22T09:23:40Z</time>
</trkpt>
<trkpt lat="39.667053000" lon="-0.404424000">
  <ele>362.200000</ele>
  <time>2011-10-22T09:23:46Z</time>
</trkpt>
<trkpt lat="39.667114000" lon="-0.404404000">
  <ele>362.000000</ele>
  <time>2011-10-22T09:23:49Z</time>
</trkpt>
<trkpt lat="39.667155000" lon="-0.404391000">
  <ele>362.000000</ele>
  <time>2011-10-22T09:23:51Z</time>
</trkpt>
<trkpt lat="39.667172000" lon="-0.404370000">
  <ele>362.100000</ele>
  <time>2011-10-22T09:23:52Z</time>
</trkpt>
<trkpt lat="39.667202000" lon="-0.404324000">
  <ele>362.700000</ele>
  <time>2011-10-22T09:23:54Z</time>
</trkpt>
<trkpt lat="39.667214000" lon="-0.404298000">
  <ele>362.700000</ele>
  <time>2011-10-22T09:23:55Z</time>
</trkpt>
<trkpt lat="39.667224000" lon="-0.404273000">
  <ele>362.700000</ele>
  <time>2011-10-22T09:23:56Z</time>
</trkpt>
<trkpt lat="39.667233000" lon="-0.404246000">
  <ele>362.800000</ele>
  <time>2011-10-22T09:23:57Z</time>
</trkpt>
<trkpt lat="39.667310000" lon="-0.404008000">
  <ele>359.700000</ele>
  <time>2011-10-22T09:24:04Z</time>
</trkpt>
<trkpt lat="39.667330000" lon="-0.403962000">
  <ele>359.500000</ele>
  <time>2011-10-22T09:24:05Z</time>
</trkpt>
<trkpt lat="39.667372000" lon="-0.403798000">
  <ele>359.600000</ele>
  <time>2011-10-22T09:24:08Z</time>
</trkpt>
<trkpt lat="39.667357000" lon="-0.403695000">
  <ele>359.000000</ele>
  <time>2011-10-22T09:24:10Z</time>
</trkpt>
<trkpt lat="39.667324000" lon="-0.403618000">
  <ele>358.700000</ele>
  <time>2011-10-22T09:24:12Z</time>
</trkpt>
<trkpt lat="39.667276000" lon="-0.403587000">
  <ele>359.700000</ele>
  <time>2011-10-22T09:24:13Z</time>
</trkpt>
<trkpt lat="39.667253000" lon="-0.403576000">
  <ele>360.000000</ele>
  <time>2011-10-22T09:24:15Z</time>
</trkpt>
<trkpt lat="39.667231000" lon="-0.403558000">
  <ele>360.000000</ele>
  <time>2011-10-22T09:24:15Z</time>
</trkpt>
<trkpt lat="39.667194000" lon="-0.403553000">
  <ele>361.700000</ele>
  <time>2011-10-22T09:24:16Z</time>
</trkpt>
<trkpt lat="39.667167000" lon="-0.403537000">
  <ele>362.200000</ele>
  <time>2011-10-22T09:24:18Z</time>
</trkpt>
<trkpt lat="39.667106000" lon="-0.403492000">
  <ele>362.100000</ele>
  <time>2011-10-22T09:24:20Z</time>
</trkpt>
<trkpt lat="39.667079000" lon="-0.403461000">
  <ele>361.200000</ele>
  <time>2011-10-22T09:24:21Z</time>
</trkpt>
<trkpt lat="39.667041000" lon="-0.403386000">
  <ele>360.100000</ele>
  <time>2011-10-22T09:24:23Z</time>
</trkpt>
<trkpt lat="39.667022000" lon="-0.403339000">
  <ele>359.800000</ele>
  <time>2011-10-22T09:24:24Z</time>
</trkpt>
<trkpt lat="39.667011000" lon="-0.403296000">
  <ele>359.500000</ele>
  <time>2011-10-22T09:24:24Z</time>
</trkpt>
<trkpt lat="39.667004000" lon="-0.403247000">
  <ele>359.100000</ele>
  <time>2011-10-22T09:24:26Z</time>
</trkpt>
<trkpt lat="39.666997000" lon="-0.403147000">
  <ele>358.500000</ele>
  <time>2011-10-22T09:24:28Z</time>
</trkpt>
<trkpt lat="39.667001000" lon="-0.402986000">
  <ele>357.600000</ele>
  <time>2011-10-22T09:24:31Z</time>
</trkpt>
<trkpt lat="39.667007000" lon="-0.402928000">
  <ele>357.700000</ele>
  <time>2011-10-22T09:24:32Z</time>
</trkpt>
<trkpt lat="39.667031000" lon="-0.402815000">
  <ele>358.000000</ele>
  <time>2011-10-22T09:24:34Z</time>
</trkpt>
<trkpt lat="39.667051000" lon="-0.402759000">
  <ele>358.100000</ele>
  <time>2011-10-22T09:24:34Z</time>
</trkpt>
<trkpt lat="39.667136000" lon="-0.402547000">
  <ele>356.200000</ele>
  <time>2011-10-22T09:24:39Z</time>
</trkpt>
<trkpt lat="39.667150000" lon="-0.402494000">
  <ele>355.300000</ele>
  <time>2011-10-22T09:24:40Z</time>
</trkpt>
<trkpt lat="39.667180000" lon="-0.402400000">
  <ele>355.000000</ele>
  <time>2011-10-22T09:24:42Z</time>
</trkpt>
<trkpt lat="39.667202000" lon="-0.402365000">
  <ele>355.300000</ele>
  <time>2011-10-22T09:24:43Z</time>
</trkpt>
<trkpt lat="39.667276000" lon="-0.402357000">
  <ele>355.300000</ele>
  <time>2011-10-22T09:24:45Z</time>
</trkpt>
<trkpt lat="39.667388000" lon="-0.402373000">
  <ele>354.700000</ele>
  <time>2011-10-22T09:24:48Z</time>
</trkpt>
<trkpt lat="39.667580000" lon="-0.402397000">
  <ele>352.500000</ele>
  <time>2011-10-22T09:24:53Z</time>
</trkpt>
<trkpt lat="39.667735000" lon="-0.402414000">
  <ele>352.500000</ele>
  <time>2011-10-22T09:24:56Z</time>
</trkpt>
<trkpt lat="39.667771000" lon="-0.402418000">
  <ele>352.200000</ele>
  <time>2011-10-22T09:24:58Z</time>
</trkpt>
<trkpt lat="39.667798000" lon="-0.402413000">
  <ele>353.000000</ele>
  <time>2011-10-22T09:24:59Z</time>
</trkpt>
<trkpt lat="39.667944000" lon="-0.402402000">
  <ele>353.600000</ele>
  <time>2011-10-22T09:25:03Z</time>
</trkpt>
<trkpt lat="39.667972000" lon="-0.402408000">
  <ele>353.200000</ele>
  <time>2011-10-22T09:25:04Z</time>
</trkpt>
<trkpt lat="39.667997000" lon="-0.402413000">
  <ele>352.000000</ele>
  <time>2011-10-22T09:25:44Z</time>
</trkpt>
<trkpt lat="39.668009000" lon="-0.402411000">
  <ele>351.700000</ele>
  <time>2011-10-22T09:25:44Z</time>
</trkpt>
<trkpt lat="39.668018000" lon="-0.402410000">
  <ele>351.700000</ele>
  <time>2011-10-22T09:25:46Z</time>
</trkpt>
<trkpt lat="39.668034000" lon="-0.402407000">
  <ele>351.500000</ele>
  <time>2011-10-22T09:25:47Z</time>
</trkpt>
<trkpt lat="39.668054000" lon="-0.402405000">
  <ele>350.700000</ele>
  <time>2011-10-22T09:25:47Z</time>
</trkpt>
<trkpt lat="39.668124000" lon="-0.402389000">
  <ele>350.700000</ele>
  <time>2011-10-22T09:25:50Z</time>
</trkpt>
<trkpt lat="39.668159000" lon="-0.402376000">
  <ele>350.500000</ele>
  <time>2011-10-22T09:25:52Z</time>
</trkpt>
<trkpt lat="39.668190000" lon="-0.402355000">
  <ele>350.000000</ele>
  <time>2011-10-22T09:25:53Z</time>
</trkpt>
<trkpt lat="39.668216000" lon="-0.402329000">
  <ele>349.300000</ele>
  <time>2011-10-22T09:25:54Z</time>
</trkpt>
<trkpt lat="39.668236000" lon="-0.402302000">
  <ele>349.100000</ele>
  <time>2011-10-22T09:25:55Z</time>
</trkpt>
<trkpt lat="39.668253000" lon="-0.402265000">
  <ele>348.700000</ele>
  <time>2011-10-22T09:25:56Z</time>
</trkpt>
<trkpt lat="39.668360000" lon="-0.401956000">
  <ele>348.200000</ele>
  <time>2011-10-22T09:26:02Z</time>
</trkpt>
<trkpt lat="39.668373000" lon="-0.401885000">
  <ele>348.300000</ele>
  <time>2011-10-22T09:26:03Z</time>
</trkpt>
<trkpt lat="39.668393000" lon="-0.401812000">
  <ele>348.700000</ele>
  <time>2011-10-22T09:26:03Z</time>
</trkpt>
<trkpt lat="39.668425000" lon="-0.401757000">
  <ele>348.200000</ele>
  <time>2011-10-22T09:26:05Z</time>
</trkpt>
<trkpt lat="39.668504000" lon="-0.401659000">
  <ele>347.500000</ele>
  <time>2011-10-22T09:26:06Z</time>
</trkpt>
<trkpt lat="39.668615000" lon="-0.401536000">
  <ele>347.200000</ele>
  <time>2011-10-22T09:26:09Z</time>
</trkpt>
<trkpt lat="39.668656000" lon="-0.401503000">
  <ele>347.000000</ele>
  <time>2011-10-22T09:26:11Z</time>
</trkpt>
<trkpt lat="39.668727000" lon="-0.401460000">
  <ele>346.700000</ele>
  <time>2011-10-22T09:26:13Z</time>
</trkpt>
<trkpt lat="39.668843000" lon="-0.401401000">
  <ele>346.200000</ele>
  <time>2011-10-22T09:26:16Z</time>
</trkpt>
<trkpt lat="39.668875000" lon="-0.401395000">
  <ele>346.200000</ele>
  <time>2011-10-22T09:26:17Z</time>
</trkpt>
<trkpt lat="39.668914000" lon="-0.401390000">
  <ele>346.200000</ele>
  <time>2011-10-22T09:26:19Z</time>
</trkpt>
<trkpt lat="39.668987000" lon="-0.401386000">
  <ele>346.200000</ele>
  <time>2011-10-22T09:26:21Z</time>
</trkpt>
<trkpt lat="39.669024000" lon="-0.401387000">
  <ele>346.200000</ele>
  <time>2011-10-22T09:26:22Z</time>
</trkpt>
<trkpt lat="39.669211000" lon="-0.401407000">
  <ele>345.100000</ele>
  <time>2011-10-22T09:26:27Z</time>
</trkpt>
<trkpt lat="39.669250000" lon="-0.401402000">
  <ele>345.000000</ele>
  <time>2011-10-22T09:26:28Z</time>
</trkpt>
<trkpt lat="39.669312000" lon="-0.401353000">
  <ele>344.200000</ele>
  <time>2011-10-22T09:26:30Z</time>
</trkpt>
<trkpt lat="39.669322000" lon="-0.401302000">
  <ele>343.200000</ele>
  <time>2011-10-22T09:26:31Z</time>
</trkpt>
<trkpt lat="39.669310000" lon="-0.401122000">
  <ele>341.600000</ele>
  <time>2011-10-22T09:26:33Z</time>
</trkpt>
<trkpt lat="39.669291000" lon="-0.400975000">
  <ele>340.300000</ele>
  <time>2011-10-22T09:26:35Z</time>
</trkpt>
<trkpt lat="39.669265000" lon="-0.400753000">
  <ele>339.500000</ele>
  <time>2011-10-22T09:26:38Z</time>
</trkpt>
<trkpt lat="39.669283000" lon="-0.400680000">
  <ele>339.500000</ele>
  <time>2011-10-22T09:26:38Z</time>
</trkpt>
<trkpt lat="39.669293000" lon="-0.400602000">
  <ele>339.000000</ele>
  <time>2011-10-22T09:26:40Z</time>
</trkpt>
<trkpt lat="39.669292000" lon="-0.400430000">
  <ele>337.100000</ele>
  <time>2011-10-22T09:26:41Z</time>
</trkpt>
<trkpt lat="39.669284000" lon="-0.399949000">
  <ele>335.000000</ele>
  <time>2011-10-22T09:26:49Z</time>
</trkpt>
<trkpt lat="39.669287000" lon="-0.399897000">
  <ele>334.100000</ele>
  <time>2011-10-22T09:26:49Z</time>
</trkpt>
<trkpt lat="39.669297000" lon="-0.399537000">
  <ele>332.100000</ele>
  <time>2011-10-22T09:26:57Z</time>
</trkpt>
<trkpt lat="39.669306000" lon="-0.399491000">
  <ele>332.100000</ele>
  <time>2011-10-22T09:26:57Z</time>
</trkpt>
<trkpt lat="39.669322000" lon="-0.399447000">
  <ele>332.000000</ele>
  <time>2011-10-22T09:26:59Z</time>
</trkpt>
<trkpt lat="39.669337000" lon="-0.399404000">
  <ele>332.000000</ele>
  <time>2011-10-22T09:27:00Z</time>
</trkpt>
<trkpt lat="39.669395000" lon="-0.399237000">
  <ele>330.700000</ele>
  <time>2011-10-22T09:27:04Z</time>
</trkpt>
<trkpt lat="39.669405000" lon="-0.399191000">
  <ele>330.500000</ele>
  <time>2011-10-22T09:27:05Z</time>
</trkpt>
<trkpt lat="39.669423000" lon="-0.399102000">
  <ele>330.600000</ele>
  <time>2011-10-22T09:27:07Z</time>
</trkpt>
<trkpt lat="39.669443000" lon="-0.399009000">
  <ele>330.000000</ele>
  <time>2011-10-22T09:27:08Z</time>
</trkpt>
<trkpt lat="39.669445000" lon="-0.398959000">
  <ele>329.700000</ele>
  <time>2011-10-22T09:27:10Z</time>
</trkpt>
<trkpt lat="39.669448000" lon="-0.398673000">
  <ele>328.300000</ele>
  <time>2011-10-22T09:27:15Z</time>
</trkpt>
<trkpt lat="39.669436000" lon="-0.398616000">
  <ele>327.500000</ele>
  <time>2011-10-22T09:27:16Z</time>
</trkpt>
<trkpt lat="39.669405000" lon="-0.398430000">
  <ele>327.600000</ele>
  <time>2011-10-22T09:27:20Z</time>
</trkpt>
<trkpt lat="39.669376000" lon="-0.398300000">
  <ele>329.100000</ele>
  <time>2011-10-22T09:27:24Z</time>
</trkpt>
<trkpt lat="39.669368000" lon="-0.398275000">
  <ele>329.700000</ele>
  <time>2011-10-22T09:27:24Z</time>
</trkpt>
<trkpt lat="39.669357000" lon="-0.398195000">
  <ele>328.600000</ele>
  <time>2011-10-22T09:27:40Z</time>
</trkpt>
<trkpt lat="39.669349000" lon="-0.398171000">
  <ele>327.600000</ele>
  <time>2011-10-22T09:27:42Z</time>
</trkpt>
<trkpt lat="39.669337000" lon="-0.398155000">
  <ele>327.100000</ele>
  <time>2011-10-22T09:27:42Z</time>
</trkpt>
<trkpt lat="39.669246000" lon="-0.398074000">
  <ele>327.200000</ele>
  <time>2011-10-22T09:27:48Z</time>
</trkpt>
<trkpt lat="39.669212000" lon="-0.398062000">
  <ele>327.500000</ele>
  <time>2011-10-22T09:27:48Z</time>
</trkpt>
<trkpt lat="39.669187000" lon="-0.398046000">
  <ele>327.300000</ele>
  <time>2011-10-22T09:27:50Z</time>
</trkpt>
<trkpt lat="39.669162000" lon="-0.398030000">
  <ele>327.700000</ele>
  <time>2011-10-22T09:27:51Z</time>
</trkpt>
<trkpt lat="39.669072000" lon="-0.397928000">
  <ele>328.500000</ele>
  <time>2011-10-22T09:27:55Z</time>
</trkpt>
<trkpt lat="39.669054000" lon="-0.397910000">
  <ele>328.600000</ele>
  <time>2011-10-22T09:27:56Z</time>
</trkpt>
<trkpt lat="39.669044000" lon="-0.397882000">
  <ele>328.300000</ele>
  <time>2011-10-22T09:27:57Z</time>
</trkpt>
<trkpt lat="39.669031000" lon="-0.397857000">
  <ele>328.200000</ele>
  <time>2011-10-22T09:27:58Z</time>
</trkpt>
<trkpt lat="39.668977000" lon="-0.397703000">
  <ele>325.700000</ele>
  <time>2011-10-22T09:28:01Z</time>
</trkpt>
<trkpt lat="39.668941000" lon="-0.397499000">
  <ele>324.000000</ele>
  <time>2011-10-22T09:28:07Z</time>
</trkpt>
<trkpt lat="39.668930000" lon="-0.397428000">
  <ele>324.300000</ele>
  <time>2011-10-22T09:28:10Z</time>
</trkpt>
<trkpt lat="39.668933000" lon="-0.397392000">
  <ele>324.700000</ele>
  <time>2011-10-22T09:28:10Z</time>
</trkpt>
<trkpt lat="39.668943000" lon="-0.397342000">
  <ele>325.200000</ele>
  <time>2011-10-22T09:28:12Z</time>
</trkpt>
<trkpt lat="39.668955000" lon="-0.397302000">
  <ele>325.000000</ele>
  <time>2011-10-22T09:28:13Z</time>
</trkpt>
<trkpt lat="39.669006000" lon="-0.397159000">
  <ele>325.800000</ele>
  <time>2011-10-22T09:28:17Z</time>
</trkpt>
<trkpt lat="39.669122000" lon="-0.396903000">
  <ele>328.200000</ele>
  <time>2011-10-22T09:28:23Z</time>
</trkpt>
<trkpt lat="39.669215000" lon="-0.396683000">
  <ele>329.200000</ele>
  <time>2011-10-22T09:28:30Z</time>
</trkpt>
<trkpt lat="39.669225000" lon="-0.396643000">
  <ele>329.300000</ele>
  <time>2011-10-22T09:28:31Z</time>
</trkpt>
<trkpt lat="39.669246000" lon="-0.396508000">
  <ele>331.000000</ele>
  <time>2011-10-22T09:28:34Z</time>
</trkpt>
<trkpt lat="39.669246000" lon="-0.396487000">
  <ele>331.000000</ele>
  <time>2011-10-22T09:28:36Z</time>
</trkpt>
<trkpt lat="39.669218000" lon="-0.396419000">
  <ele>332.200000</ele>
  <time>2011-10-22T09:28:39Z</time>
</trkpt>
<trkpt lat="39.669201000" lon="-0.396401000">
  <ele>332.700000</ele>
  <time>2011-10-22T09:28:39Z</time>
</trkpt>
<trkpt lat="39.669183000" lon="-0.396391000">
  <ele>333.000000</ele>
  <time>2011-10-22T09:28:41Z</time>
</trkpt>
<trkpt lat="39.669145000" lon="-0.396355000">
  <ele>333.600000</ele>
  <time>2011-10-22T09:28:44Z</time>
</trkpt>
<trkpt lat="39.669137000" lon="-0.396339000">
  <ele>334.200000</ele>
  <time>2011-10-22T09:28:45Z</time>
</trkpt>
<trkpt lat="39.669132000" lon="-0.396317000">
  <ele>333.600000</ele>
  <time>2011-10-22T09:28:46Z</time>
</trkpt>
<trkpt lat="39.669115000" lon="-0.396239000">
  <ele>334.000000</ele>
  <time>2011-10-22T09:28:49Z</time>
</trkpt>
<trkpt lat="39.669114000" lon="-0.396211000">
  <ele>333.800000</ele>
  <time>2011-10-22T09:28:50Z</time>
</trkpt>
<trkpt lat="39.669107000" lon="-0.396087000">
  <ele>334.800000</ele>
  <time>2011-10-22T09:28:55Z</time>
</trkpt>
<trkpt lat="39.669094000" lon="-0.396067000">
  <ele>335.300000</ele>
  <time>2011-10-22T09:28:55Z</time>
</trkpt>
<trkpt lat="39.669078000" lon="-0.396050000">
  <ele>335.700000</ele>
  <time>2011-10-22T09:28:57Z</time>
</trkpt>
<trkpt lat="39.669061000" lon="-0.396040000">
  <ele>335.500000</ele>
  <time>2011-10-22T09:28:58Z</time>
</trkpt>
<trkpt lat="39.668824000" lon="-0.395922000">
  <ele>331.700000</ele>
  <time>2011-10-22T09:29:06Z</time>
</trkpt>
<trkpt lat="39.668731000" lon="-0.395893000">
  <ele>330.800000</ele>
  <time>2011-10-22T09:29:08Z</time>
</trkpt>
<trkpt lat="39.668677000" lon="-0.395887000">
  <ele>330.200000</ele>
  <time>2011-10-22T09:29:09Z</time>
</trkpt>
<trkpt lat="39.668495000" lon="-0.395888000">
  <ele>328.100000</ele>
  <time>2011-10-22T09:29:11Z</time>
</trkpt>
<trkpt lat="39.668071000" lon="-0.395908000">
  <ele>325.500000</ele>
  <time>2011-10-22T09:29:17Z</time>
</trkpt>
<trkpt lat="39.668008000" lon="-0.395890000">
  <ele>325.300000</ele>
  <time>2011-10-22T09:29:19Z</time>
</trkpt>
<trkpt lat="39.667951000" lon="-0.395862000">
  <ele>325.000000</ele>
  <time>2011-10-22T09:29:20Z</time>
</trkpt>
<trkpt lat="39.667903000" lon="-0.395827000">
  <ele>324.700000</ele>
  <time>2011-10-22T09:29:21Z</time>
</trkpt>
<trkpt lat="39.667871000" lon="-0.395774000">
  <ele>324.600000</ele>
  <time>2011-10-22T09:29:22Z</time>
</trkpt>
<trkpt lat="39.667862000" lon="-0.395706000">
  <ele>324.100000</ele>
  <time>2011-10-22T09:29:23Z</time>
</trkpt>
<trkpt lat="39.667844000" lon="-0.395481000">
  <ele>325.200000</ele>
  <time>2011-10-22T09:29:27Z</time>
</trkpt>
<trkpt lat="39.667850000" lon="-0.395443000">
  <ele>325.000000</ele>
  <time>2011-10-22T09:29:27Z</time>
</trkpt>
<trkpt lat="39.667918000" lon="-0.395136000">
  <ele>325.300000</ele>
  <time>2011-10-22T09:29:35Z</time>
</trkpt>
<trkpt lat="39.667954000" lon="-0.394996000">
  <ele>325.200000</ele>
  <time>2011-10-22T09:29:38Z</time>
</trkpt>
<trkpt lat="39.667954000" lon="-0.394944000">
  <ele>325.500000</ele>
  <time>2011-10-22T09:29:39Z</time>
</trkpt>
<trkpt lat="39.667941000" lon="-0.394899000">
  <ele>325.700000</ele>
  <time>2011-10-22T09:29:40Z</time>
</trkpt>
<trkpt lat="39.667925000" lon="-0.394854000">
  <ele>325.600000</ele>
  <time>2011-10-22T09:29:41Z</time>
</trkpt>
<trkpt lat="39.667883000" lon="-0.394777000">
  <ele>325.800000</ele>
  <time>2011-10-22T09:29:43Z</time>
</trkpt>
<trkpt lat="39.667851000" lon="-0.394750000">
  <ele>326.100000</ele>
  <time>2011-10-22T09:29:43Z</time>
</trkpt>
<trkpt lat="39.667810000" lon="-0.394737000">
  <ele>326.100000</ele>
  <time>2011-10-22T09:29:44Z</time>
</trkpt>
<trkpt lat="39.667600000" lon="-0.394675000">
  <ele>325.500000</ele>
  <time>2011-10-22T09:29:49Z</time>
</trkpt>
<trkpt lat="39.667559000" lon="-0.394654000">
  <ele>325.500000</ele>
  <time>2011-10-22T09:29:51Z</time>
</trkpt>
<trkpt lat="39.667485000" lon="-0.394591000">
  <ele>325.100000</ele>
  <time>2011-10-22T09:29:52Z</time>
</trkpt>
<trkpt lat="39.667450000" lon="-0.394557000">
  <ele>325.000000</ele>
  <time>2011-10-22T09:29:54Z</time>
</trkpt>
<trkpt lat="39.667425000" lon="-0.394518000">
  <ele>324.200000</ele>
  <time>2011-10-22T09:29:55Z</time>
</trkpt>
<trkpt lat="39.667402000" lon="-0.394477000">
  <ele>323.700000</ele>
  <time>2011-10-22T09:29:56Z</time>
</trkpt>
<trkpt lat="39.667383000" lon="-0.394430000">
  <ele>323.700000</ele>
  <time>2011-10-22T09:29:57Z</time>
</trkpt>
<trkpt lat="39.667323000" lon="-0.394256000">
  <ele>323.800000</ele>
  <time>2011-10-22T09:30:00Z</time>
</trkpt>
<trkpt lat="39.667312000" lon="-0.394210000">
  <ele>324.000000</ele>
  <time>2011-10-22T09:30:02Z</time>
</trkpt>
<trkpt lat="39.667264000" lon="-0.394019000">
  <ele>322.700000</ele>
  <time>2011-10-22T09:30:05Z</time>
</trkpt>
<trkpt lat="39.667238000" lon="-0.393974000">
  <ele>322.300000</ele>
  <time>2011-10-22T09:30:07Z</time>
</trkpt>
<trkpt lat="39.667167000" lon="-0.393901000">
  <ele>321.600000</ele>
  <time>2011-10-22T09:30:08Z</time>
</trkpt>
<trkpt lat="39.667121000" lon="-0.393877000">
  <ele>321.200000</ele>
  <time>2011-10-22T09:30:10Z</time>
</trkpt>
<trkpt lat="39.667072000" lon="-0.393857000">
  <ele>320.700000</ele>
  <time>2011-10-22T09:30:11Z</time>
</trkpt>
<trkpt lat="39.667014000" lon="-0.393844000">
  <ele>320.300000</ele>
  <time>2011-10-22T09:30:11Z</time>
</trkpt>
<trkpt lat="39.666949000" lon="-0.393838000">
  <ele>320.100000</ele>
  <time>2011-10-22T09:30:13Z</time>
</trkpt>
<trkpt lat="39.666670000" lon="-0.393811000">
  <ele>319.000000</ele>
  <time>2011-10-22T09:30:16Z</time>
</trkpt>
<trkpt lat="39.666608000" lon="-0.393786000">
  <ele>318.800000</ele>
  <time>2011-10-22T09:30:18Z</time>
</trkpt>
<trkpt lat="39.666577000" lon="-0.393708000">
  <ele>318.700000</ele>
  <time>2011-10-22T09:30:18Z</time>
</trkpt>
<trkpt lat="39.666552000" lon="-0.393636000">
  <ele>318.700000</ele>
  <time>2011-10-22T09:30:19Z</time>
</trkpt>
<trkpt lat="39.666542000" lon="-0.393483000">
  <ele>319.800000</ele>
  <time>2011-10-22T09:30:21Z</time>
</trkpt>
<trkpt lat="39.666593000" lon="-0.393394000">
  <ele>318.700000</ele>
  <time>2011-10-22T09:30:23Z</time>
</trkpt>
<trkpt lat="39.666616000" lon="-0.393302000">
  <ele>317.600000</ele>
  <time>2011-10-22T09:30:24Z</time>
</trkpt>
<trkpt lat="39.666633000" lon="-0.393205000">
  <ele>316.800000</ele>
  <time>2011-10-22T09:30:24Z</time>
</trkpt>
<trkpt lat="39.666665000" lon="-0.392994000">
  <ele>315.700000</ele>
  <time>2011-10-22T09:30:27Z</time>
</trkpt>
<trkpt lat="39.666659000" lon="-0.392889000">
  <ele>315.000000</ele>
  <time>2011-10-22T09:30:27Z</time>
</trkpt>
<trkpt lat="39.666635000" lon="-0.392781000">
  <ele>314.600000</ele>
  <time>2011-10-22T09:30:29Z</time>
</trkpt>
<trkpt lat="39.666536000" lon="-0.392248000">
  <ele>311.200000</ele>
  <time>2011-10-22T09:30:34Z</time>
</trkpt>
<trkpt lat="39.666535000" lon="-0.392168000">
  <ele>310.200000</ele>
  <time>2011-10-22T09:30:35Z</time>
</trkpt>
<trkpt lat="39.666511000" lon="-0.391816000">
  <ele>306.000000</ele>
  <time>2011-10-22T09:30:39Z</time>
</trkpt>
<trkpt lat="39.666488000" lon="-0.391710000">
  <ele>304.600000</ele>
  <time>2011-10-22T09:30:40Z</time>
</trkpt>
<trkpt lat="39.666448000" lon="-0.391593000">
  <ele>304.100000</ele>
  <time>2011-10-22T09:30:40Z</time>
</trkpt>
<trkpt lat="39.666048000" lon="-0.390597000">
  <ele>299.700000</ele>
  <time>2011-10-22T09:30:49Z</time>
</trkpt>
<trkpt lat="39.665986000" lon="-0.390493000">
  <ele>299.100000</ele>
  <time>2011-10-22T09:30:50Z</time>
</trkpt>
<trkpt lat="39.665864000" lon="-0.390326000">
  <ele>298.500000</ele>
  <time>2011-10-22T09:30:51Z</time>
</trkpt>
<trkpt lat="39.665817000" lon="-0.390300000">
  <ele>298.200000</ele>
  <time>2011-10-22T09:30:53Z</time>
</trkpt>
<trkpt lat="39.665764000" lon="-0.390267000">
  <ele>298.000000</ele>
  <time>2011-10-22T09:30:53Z</time>
</trkpt>
<trkpt lat="39.665664000" lon="-0.390294000">
  <ele>297.700000</ele>
  <time>2011-10-22T09:30:56Z</time>
</trkpt>
<trkpt lat="39.665614000" lon="-0.390378000">
  <ele>296.800000</ele>
  <time>2011-10-22T09:30:56Z</time>
</trkpt>
<trkpt lat="39.665560000" lon="-0.390412000">
  <ele>296.200000</ele>
  <time>2011-10-22T09:30:58Z</time>
</trkpt>
<trkpt lat="39.665500000" lon="-0.390444000">
  <ele>295.700000</ele>
  <time>2011-10-22T09:30:59Z</time>
</trkpt>
<trkpt lat="39.665377000" lon="-0.390516000">
  <ele>294.300000</ele>
  <time>2011-10-22T09:31:01Z</time>
</trkpt>
<trkpt lat="39.665310000" lon="-0.390541000">
  <ele>293.700000</ele>
  <time>2011-10-22T09:31:02Z</time>
</trkpt>
<trkpt lat="39.665248000" lon="-0.390531000">
  <ele>293.100000</ele>
  <time>2011-10-22T09:31:02Z</time>
</trkpt>
<trkpt lat="39.665138000" lon="-0.390480000">
  <ele>292.500000</ele>
  <time>2011-10-22T09:31:05Z</time>
</trkpt>
<trkpt lat="39.665124000" lon="-0.390372000">
  <ele>292.500000</ele>
  <time>2011-10-22T09:31:06Z</time>
</trkpt>
<trkpt lat="39.665096000" lon="-0.390315000">
  <ele>292.200000</ele>
  <time>2011-10-22T09:31:07Z</time>
</trkpt>
<trkpt lat="39.665064000" lon="-0.390263000">
  <ele>292.200000</ele>
  <time>2011-10-22T09:31:08Z</time>
</trkpt>
<trkpt lat="39.665031000" lon="-0.390231000">
  <ele>291.700000</ele>
  <time>2011-10-22T09:31:09Z</time>
</trkpt>
<trkpt lat="39.664930000" lon="-0.390107000">
  <ele>290.200000</ele>
  <time>2011-10-22T09:31:12Z</time>
</trkpt>
<trkpt lat="39.664901000" lon="-0.390052000">
  <ele>289.200000</ele>
  <time>2011-10-22T09:31:12Z</time>
</trkpt>
<trkpt lat="39.664884000" lon="-0.389990000">
  <ele>288.700000</ele>
  <time>2011-10-22T09:31:14Z</time>
</trkpt>
<trkpt lat="39.664876000" lon="-0.389927000">
  <ele>287.700000</ele>
  <time>2011-10-22T09:31:15Z</time>
</trkpt>
<trkpt lat="39.664864000" lon="-0.389880000">
  <ele>287.200000</ele>
  <time>2011-10-22T09:31:15Z</time>
</trkpt>
<trkpt lat="39.664823000" lon="-0.389782000">
  <ele>285.800000</ele>
  <time>2011-10-22T09:31:18Z</time>
</trkpt>
<trkpt lat="39.664647000" lon="-0.389417000">
  <ele>282.700000</ele>
  <time>2011-10-22T09:31:24Z</time>
</trkpt>
</trkseg>
</trk>
<trk>
  <name>2011-10-22-01_2988-3238</name>
  <desc>C:\Users\farnau\Documents\My Dropbox\Tracks\2011-10-22-01.gpx</desc>
<trkseg>
<trkpt lat="39.664647000" lon="-0.389417000">
  <ele>282.700000</ele>
  <time>2011-10-22T09:31:24Z</time>
</trkpt>
<trkpt lat="39.664601000" lon="-0.389384000">
  <ele>282.200000</ele>
  <time>2011-10-22T09:31:25Z</time>
</trkpt>
<trkpt lat="39.664459000" lon="-0.389326000">
  <ele>280.200000</ele>
  <time>2011-10-22T09:31:28Z</time>
</trkpt>
<trkpt lat="39.664385000" lon="-0.389393000">
  <ele>280.300000</ele>
  <time>2011-10-22T09:31:28Z</time>
</trkpt>
<trkpt lat="39.664330000" lon="-0.389437000">
  <ele>280.300000</ele>
  <time>2011-10-22T09:31:29Z</time>
</trkpt>
<trkpt lat="39.664274000" lon="-0.389460000">
  <ele>280.000000</ele>
  <time>2011-10-22T09:31:31Z</time>
</trkpt>
<trkpt lat="39.664176000" lon="-0.389465000">
  <ele>279.600000</ele>
  <time>2011-10-22T09:31:33Z</time>
</trkpt>
<trkpt lat="39.664114000" lon="-0.389354000">
  <ele>279.200000</ele>
  <time>2011-10-22T09:31:34Z</time>
</trkpt>
<trkpt lat="39.663990000" lon="-0.389042000">
  <ele>276.700000</ele>
  <time>2011-10-22T09:31:40Z</time>
</trkpt>
<trkpt lat="39.663880000" lon="-0.388732000">
  <ele>273.200000</ele>
  <time>2011-10-22T09:31:44Z</time>
</trkpt>
<trkpt lat="39.663880000" lon="-0.388667000">
  <ele>272.200000</ele>
  <time>2011-10-22T09:31:45Z</time>
</trkpt>
<trkpt lat="39.663885000" lon="-0.388609000">
  <ele>271.100000</ele>
  <time>2011-10-22T09:31:47Z</time>
</trkpt>
<trkpt lat="39.663930000" lon="-0.388192000">
  <ele>263.300000</ele>
  <time>2011-10-22T09:31:53Z</time>
</trkpt>
<trkpt lat="39.663919000" lon="-0.388121000">
  <ele>262.700000</ele>
  <time>2011-10-22T09:31:53Z</time>
</trkpt>
<trkpt lat="39.663901000" lon="-0.388052000">
  <ele>262.000000</ele>
  <time>2011-10-22T09:31:55Z</time>
</trkpt>
<trkpt lat="39.663879000" lon="-0.387989000">
  <ele>260.800000</ele>
  <time>2011-10-22T09:31:56Z</time>
</trkpt>
<trkpt lat="39.663826000" lon="-0.387882000">
  <ele>259.800000</ele>
  <time>2011-10-22T09:31:58Z</time>
</trkpt>
<trkpt lat="39.663796000" lon="-0.387822000">
  <ele>258.700000</ele>
  <time>2011-10-22T09:31:59Z</time>
</trkpt>
<trkpt lat="39.663757000" lon="-0.387696000">
  <ele>257.800000</ele>
  <time>2011-10-22T09:32:01Z</time>
</trkpt>
<trkpt lat="39.663744000" lon="-0.387567000">
  <ele>257.700000</ele>
  <time>2011-10-22T09:32:03Z</time>
</trkpt>
<trkpt lat="39.663764000" lon="-0.387522000">
  <ele>257.200000</ele>
  <time>2011-10-22T09:32:03Z</time>
</trkpt>
<trkpt lat="39.663868000" lon="-0.387258000">
  <ele>253.300000</ele>
  <time>2011-10-22T09:32:09Z</time>
</trkpt>
<trkpt lat="39.663876000" lon="-0.387203000">
  <ele>252.100000</ele>
  <time>2011-10-22T09:32:11Z</time>
</trkpt>
<trkpt lat="39.663868000" lon="-0.387137000">
  <ele>251.300000</ele>
  <time>2011-10-22T09:32:12Z</time>
</trkpt>
<trkpt lat="39.663855000" lon="-0.387071000">
  <ele>250.800000</ele>
  <time>2011-10-22T09:32:12Z</time>
</trkpt>
<trkpt lat="39.663824000" lon="-0.386994000">
  <ele>250.500000</ele>
  <time>2011-10-22T09:32:14Z</time>
</trkpt>
<trkpt lat="39.663766000" lon="-0.386837000">
  <ele>250.600000</ele>
  <time>2011-10-22T09:32:16Z</time>
</trkpt>
<trkpt lat="39.663702000" lon="-0.386612000">
  <ele>249.100000</ele>
  <time>2011-10-22T09:32:20Z</time>
</trkpt>
<trkpt lat="39.663702000" lon="-0.386585000">
  <ele>249.600000</ele>
  <time>2011-10-22T09:32:22Z</time>
</trkpt>
<trkpt lat="39.663711000" lon="-0.386594000">
  <ele>248.300000</ele>
  <time>2011-10-22T09:33:06Z</time>
</trkpt>
<trkpt lat="39.663701000" lon="-0.386599000">
  <ele>248.500000</ele>
  <time>2011-10-22T09:33:07Z</time>
</trkpt>
<trkpt lat="39.663700000" lon="-0.386599000">
  <ele>248.300000</ele>
  <time>2011-10-22T09:33:08Z</time>
</trkpt>
<trkpt lat="39.663700000" lon="-0.386599000">
  <ele>248.300000</ele>
  <time>2011-10-22T09:33:09Z</time>
</trkpt>
<trkpt lat="39.663710000" lon="-0.386595000">
  <ele>248.300000</ele>
  <time>2011-10-22T09:33:10Z</time>
</trkpt>
<trkpt lat="39.663720000" lon="-0.386601000">
  <ele>248.800000</ele>
  <time>2011-10-22T09:33:11Z</time>
</trkpt>
<trkpt lat="39.663739000" lon="-0.386622000">
  <ele>248.800000</ele>
  <time>2011-10-22T09:33:11Z</time>
</trkpt>
<trkpt lat="39.663757000" lon="-0.386640000">
  <ele>248.600000</ele>
  <time>2011-10-22T09:33:13Z</time>
</trkpt>
<trkpt lat="39.663948000" lon="-0.386838000">
  <ele>246.300000</ele>
  <time>2011-10-22T09:33:21Z</time>
</trkpt>
<trkpt lat="39.663971000" lon="-0.386873000">
  <ele>245.600000</ele>
  <time>2011-10-22T09:33:22Z</time>
</trkpt>
<trkpt lat="39.663991000" lon="-0.386912000">
  <ele>245.100000</ele>
  <time>2011-10-22T09:33:23Z</time>
</trkpt>
<trkpt lat="39.663996000" lon="-0.386948000">
  <ele>245.300000</ele>
  <time>2011-10-22T09:33:24Z</time>
</trkpt>
<trkpt lat="39.664030000" lon="-0.387075000">
  <ele>246.100000</ele>
  <time>2011-10-22T09:33:27Z</time>
</trkpt>
<trkpt lat="39.664067000" lon="-0.387161000">
  <ele>245.100000</ele>
  <time>2011-10-22T09:33:30Z</time>
</trkpt>
<trkpt lat="39.664081000" lon="-0.387188000">
  <ele>244.300000</ele>
  <time>2011-10-22T09:33:32Z</time>
</trkpt>
<trkpt lat="39.664137000" lon="-0.387265000">
  <ele>243.000000</ele>
  <time>2011-10-22T09:33:35Z</time>
</trkpt>
<trkpt lat="39.664307000" lon="-0.387454000">
  <ele>241.600000</ele>
  <time>2011-10-22T09:33:40Z</time>
</trkpt>
<trkpt lat="39.664377000" lon="-0.387491000">
  <ele>241.800000</ele>
  <time>2011-10-22T09:33:42Z</time>
</trkpt>
<trkpt lat="39.664596000" lon="-0.387562000">
  <ele>241.800000</ele>
  <time>2011-10-22T09:33:48Z</time>
</trkpt>
<trkpt lat="39.664621000" lon="-0.387569000">
  <ele>241.800000</ele>
  <time>2011-10-22T09:33:48Z</time>
</trkpt>
<trkpt lat="39.664655000" lon="-0.387565000">
  <ele>244.100000</ele>
  <time>2011-10-22T09:33:51Z</time>
</trkpt>
<trkpt lat="39.664688000" lon="-0.387563000">
  <ele>245.100000</ele>
  <time>2011-10-22T09:33:54Z</time>
</trkpt>
<trkpt lat="39.664699000" lon="-0.387562000">
  <ele>245.300000</ele>
  <time>2011-10-22T09:33:54Z</time>
</trkpt>
<trkpt lat="39.664721000" lon="-0.387565000">
  <ele>245.100000</ele>
  <time>2011-10-22T09:33:57Z</time>
</trkpt>
<trkpt lat="39.664805000" lon="-0.387581000">
  <ele>246.000000</ele>
  <time>2011-10-22T09:34:02Z</time>
</trkpt>
<trkpt lat="39.664818000" lon="-0.387596000">
  <ele>245.800000</ele>
  <time>2011-10-22T09:34:04Z</time>
</trkpt>
<trkpt lat="39.664836000" lon="-0.387604000">
  <ele>245.800000</ele>
  <time>2011-10-22T09:34:04Z</time>
</trkpt>
<trkpt lat="39.664848000" lon="-0.387614000">
  <ele>246.100000</ele>
  <time>2011-10-22T09:34:05Z</time>
</trkpt>
<trkpt lat="39.664855000" lon="-0.387623000">
  <ele>246.100000</ele>
  <time>2011-10-22T09:34:07Z</time>
</trkpt>
<trkpt lat="39.664864000" lon="-0.387630000">
  <ele>246.600000</ele>
  <time>2011-10-22T09:34:07Z</time>
</trkpt>
<trkpt lat="39.664892000" lon="-0.387627000">
  <ele>244.800000</ele>
  <time>2011-10-22T09:34:10Z</time>
</trkpt>
<trkpt lat="39.664899000" lon="-0.387619000">
  <ele>244.300000</ele>
  <time>2011-10-22T09:34:12Z</time>
</trkpt>
<trkpt lat="39.664907000" lon="-0.387616000">
  <ele>243.800000</ele>
  <time>2011-10-22T09:34:13Z</time>
</trkpt>
<trkpt lat="39.664914000" lon="-0.387610000">
  <ele>243.600000</ele>
  <time>2011-10-22T09:34:13Z</time>
</trkpt>
<trkpt lat="39.664917000" lon="-0.387605000">
  <ele>244.100000</ele>
  <time>2011-10-22T09:34:15Z</time>
</trkpt>
<trkpt lat="39.664922000" lon="-0.387604000">
  <ele>244.100000</ele>
  <time>2011-10-22T09:34:16Z</time>
</trkpt>
<trkpt lat="39.665040000" lon="-0.387656000">
  <ele>247.300000</ele>
  <time>2011-10-22T09:34:39Z</time>
</trkpt>
<trkpt lat="39.665058000" lon="-0.387657000">
  <ele>246.000000</ele>
  <time>2011-10-22T09:34:39Z</time>
</trkpt>
<trkpt lat="39.665092000" lon="-0.387664000">
  <ele>245.600000</ele>
  <time>2011-10-22T09:34:42Z</time>
</trkpt>
<trkpt lat="39.665130000" lon="-0.387670000">
  <ele>247.300000</ele>
  <time>2011-10-22T09:34:45Z</time>
</trkpt>
<trkpt lat="39.665160000" lon="-0.387679000">
  <ele>248.000000</ele>
  <time>2011-10-22T09:34:47Z</time>
</trkpt>
<trkpt lat="39.665233000" lon="-0.387680000">
  <ele>251.100000</ele>
  <time>2011-10-22T09:34:52Z</time>
</trkpt>
<trkpt lat="39.665250000" lon="-0.387688000">
  <ele>251.500000</ele>
  <time>2011-10-22T09:34:53Z</time>
</trkpt>
<trkpt lat="39.665317000" lon="-0.387704000">
  <ele>253.500000</ele>
  <time>2011-10-22T09:34:56Z</time>
</trkpt>
<trkpt lat="39.665334000" lon="-0.387714000">
  <ele>253.800000</ele>
  <time>2011-10-22T09:34:58Z</time>
</trkpt>
<trkpt lat="39.665427000" lon="-0.387749000">
  <ele>254.500000</ele>
  <time>2011-10-22T09:35:04Z</time>
</trkpt>
<trkpt lat="39.665440000" lon="-0.387755000">
  <ele>255.300000</ele>
  <time>2011-10-22T09:35:04Z</time>
</trkpt>
<trkpt lat="39.665487000" lon="-0.387780000">
  <ele>257.700000</ele>
  <time>2011-10-22T09:35:09Z</time>
</trkpt>
<trkpt lat="39.665499000" lon="-0.387781000">
  <ele>258.100000</ele>
  <time>2011-10-22T09:35:10Z</time>
</trkpt>
<trkpt lat="39.665510000" lon="-0.387781000">
  <ele>258.700000</ele>
  <time>2011-10-22T09:35:11Z</time>
</trkpt>
<trkpt lat="39.665524000" lon="-0.387777000">
  <ele>259.200000</ele>
  <time>2011-10-22T09:35:12Z</time>
</trkpt>
<trkpt lat="39.665548000" lon="-0.387782000">
  <ele>258.500000</ele>
  <time>2011-10-22T09:35:14Z</time>
</trkpt>
<trkpt lat="39.665559000" lon="-0.387787000">
  <ele>258.800000</ele>
  <time>2011-10-22T09:35:14Z</time>
</trkpt>
<trkpt lat="39.665582000" lon="-0.387793000">
  <ele>259.600000</ele>
  <time>2011-10-22T09:35:17Z</time>
</trkpt>
<trkpt lat="39.665611000" lon="-0.387796000">
  <ele>259.800000</ele>
  <time>2011-10-22T09:35:19Z</time>
</trkpt>
<trkpt lat="39.665625000" lon="-0.387803000">
  <ele>260.100000</ele>
  <time>2011-10-22T09:35:20Z</time>
</trkpt>
<trkpt lat="39.665636000" lon="-0.387808000">
  <ele>260.800000</ele>
  <time>2011-10-22T09:35:20Z</time>
</trkpt>
<trkpt lat="39.665645000" lon="-0.387817000">
  <ele>261.500000</ele>
  <time>2011-10-22T09:35:22Z</time>
</trkpt>
<trkpt lat="39.665660000" lon="-0.387821000">
  <ele>261.700000</ele>
  <time>2011-10-22T09:35:23Z</time>
</trkpt>
<trkpt lat="39.665724000" lon="-0.387837000">
  <ele>261.600000</ele>
  <time>2011-10-22T09:35:28Z</time>
</trkpt>
<trkpt lat="39.665734000" lon="-0.387839000">
  <ele>262.000000</ele>
  <time>2011-10-22T09:35:28Z</time>
</trkpt>
<trkpt lat="39.665756000" lon="-0.387840000">
  <ele>262.500000</ele>
  <time>2011-10-22T09:35:30Z</time>
</trkpt>
<trkpt lat="39.665765000" lon="-0.387838000">
  <ele>263.000000</ele>
  <time>2011-10-22T09:35:31Z</time>
</trkpt>
<trkpt lat="39.665823000" lon="-0.387824000">
  <ele>263.500000</ele>
  <time>2011-10-22T09:35:38Z</time>
</trkpt>
<trkpt lat="39.665835000" lon="-0.387822000">
  <ele>263.100000</ele>
  <time>2011-10-22T09:35:39Z</time>
</trkpt>
<trkpt lat="39.665836000" lon="-0.387818000">
  <ele>262.800000</ele>
  <time>2011-10-22T09:35:39Z</time>
</trkpt>
<trkpt lat="39.665836000" lon="-0.387817000">
  <ele>263.000000</ele>
  <time>2011-10-22T09:35:41Z</time>
</trkpt>
<trkpt lat="39.665836000" lon="-0.387817000">
  <ele>263.000000</ele>
  <time>2011-10-22T09:35:42Z</time>
</trkpt>
<trkpt lat="39.665836000" lon="-0.387817000">
  <ele>263.100000</ele>
  <time>2011-10-22T09:35:43Z</time>
</trkpt>
<trkpt lat="39.665837000" lon="-0.387818000">
  <ele>262.800000</ele>
  <time>2011-10-22T09:35:44Z</time>
</trkpt>
<trkpt lat="39.665841000" lon="-0.387814000">
  <ele>262.000000</ele>
  <time>2011-10-22T09:35:45Z</time>
</trkpt>
<trkpt lat="39.665847000" lon="-0.387813000">
  <ele>261.100000</ele>
  <time>2011-10-22T09:35:46Z</time>
</trkpt>
<trkpt lat="39.665851000" lon="-0.387815000">
  <ele>260.300000</ele>
  <time>2011-10-22T09:35:47Z</time>
</trkpt>
<trkpt lat="39.665852000" lon="-0.387815000">
  <ele>260.100000</ele>
  <time>2011-10-22T09:35:47Z</time>
</trkpt>
<trkpt lat="39.665875000" lon="-0.387811000">
  <ele>256.600000</ele>
  <time>2011-10-22T09:35:54Z</time>
</trkpt>
<trkpt lat="39.665880000" lon="-0.387800000">
  <ele>257.200000</ele>
  <time>2011-10-22T09:35:55Z</time>
</trkpt>
<trkpt lat="39.665885000" lon="-0.387788000">
  <ele>257.800000</ele>
  <time>2011-10-22T09:35:55Z</time>
</trkpt>
<trkpt lat="39.665889000" lon="-0.387779000">
  <ele>258.300000</ele>
  <time>2011-10-22T09:35:57Z</time>
</trkpt>
<trkpt lat="39.665894000" lon="-0.387768000">
  <ele>258.700000</ele>
  <time>2011-10-22T09:35:58Z</time>
</trkpt>
<trkpt lat="39.665897000" lon="-0.387759000">
  <ele>259.100000</ele>
  <time>2011-10-22T09:35:59Z</time>
</trkpt>
<trkpt lat="39.665901000" lon="-0.387748000">
  <ele>259.500000</ele>
  <time>2011-10-22T09:36:00Z</time>
</trkpt>
<trkpt lat="39.665909000" lon="-0.387739000">
  <ele>259.600000</ele>
  <time>2011-10-22T09:36:01Z</time>
</trkpt>
<trkpt lat="39.665915000" lon="-0.387730000">
  <ele>259.800000</ele>
  <time>2011-10-22T09:36:02Z</time>
</trkpt>
<trkpt lat="39.665924000" lon="-0.387666000">
  <ele>261.600000</ele>
  <time>2011-10-22T09:36:30Z</time>
</trkpt>
<trkpt lat="39.665939000" lon="-0.387656000">
  <ele>262.000000</ele>
  <time>2011-10-22T09:36:32Z</time>
</trkpt>
<trkpt lat="39.665945000" lon="-0.387647000">
  <ele>262.700000</ele>
  <time>2011-10-22T09:36:33Z</time>
</trkpt>
<trkpt lat="39.665987000" lon="-0.387609000">
  <ele>263.200000</ele>
  <time>2011-10-22T09:36:37Z</time>
</trkpt>
<trkpt lat="39.665994000" lon="-0.387595000">
  <ele>263.700000</ele>
  <time>2011-10-22T09:36:38Z</time>
</trkpt>
<trkpt lat="39.666020000" lon="-0.387552000">
  <ele>264.200000</ele>
  <time>2011-10-22T09:36:42Z</time>
</trkpt>
<trkpt lat="39.666039000" lon="-0.387525000">
  <ele>264.300000</ele>
  <time>2011-10-22T09:36:43Z</time>
</trkpt>
<trkpt lat="39.666059000" lon="-0.387501000">
  <ele>264.200000</ele>
  <time>2011-10-22T09:36:46Z</time>
</trkpt>
<trkpt lat="39.666136000" lon="-0.387426000">
  <ele>264.300000</ele>
  <time>2011-10-22T09:36:53Z</time>
</trkpt>
<trkpt lat="39.666235000" lon="-0.387322000">
  <ele>266.300000</ele>
  <time>2011-10-22T09:37:02Z</time>
</trkpt>
<trkpt lat="39.666290000" lon="-0.387263000">
  <ele>267.600000</ele>
  <time>2011-10-22T09:37:07Z</time>
</trkpt>
<trkpt lat="39.666337000" lon="-0.387213000">
  <ele>266.100000</ele>
  <time>2011-10-22T09:37:11Z</time>
</trkpt>
<trkpt lat="39.666372000" lon="-0.387172000">
  <ele>266.200000</ele>
  <time>2011-10-22T09:37:13Z</time>
</trkpt>
<trkpt lat="39.666447000" lon="-0.387083000">
  <ele>264.800000</ele>
  <time>2011-10-22T09:37:21Z</time>
</trkpt>
<trkpt lat="39.666467000" lon="-0.387059000">
  <ele>264.500000</ele>
  <time>2011-10-22T09:37:23Z</time>
</trkpt>
<trkpt lat="39.666531000" lon="-0.386966000">
  <ele>265.800000</ele>
  <time>2011-10-22T09:37:29Z</time>
</trkpt>
<trkpt lat="39.666609000" lon="-0.386856000">
  <ele>268.800000</ele>
  <time>2011-10-22T09:37:37Z</time>
</trkpt>
<trkpt lat="39.666620000" lon="-0.386842000">
  <ele>269.200000</ele>
  <time>2011-10-22T09:37:39Z</time>
</trkpt>
<trkpt lat="39.666676000" lon="-0.386744000">
  <ele>272.300000</ele>
  <time>2011-10-22T09:37:46Z</time>
</trkpt>
<trkpt lat="39.666684000" lon="-0.386729000">
  <ele>272.800000</ele>
  <time>2011-10-22T09:37:47Z</time>
</trkpt>
<trkpt lat="39.666719000" lon="-0.386667000">
  <ele>273.600000</ele>
  <time>2011-10-22T09:37:50Z</time>
</trkpt>
<trkpt lat="39.666739000" lon="-0.386609000">
  <ele>274.800000</ele>
  <time>2011-10-22T09:37:53Z</time>
</trkpt>
<trkpt lat="39.666733000" lon="-0.386589000">
  <ele>276.700000</ele>
  <time>2011-10-22T09:37:55Z</time>
</trkpt>
<trkpt lat="39.666726000" lon="-0.386570000">
  <ele>278.800000</ele>
  <time>2011-10-22T09:37:56Z</time>
</trkpt>
<trkpt lat="39.666720000" lon="-0.386552000">
  <ele>280.200000</ele>
  <time>2011-10-22T09:37:56Z</time>
</trkpt>
<trkpt lat="39.666707000" lon="-0.386536000">
  <ele>281.200000</ele>
  <time>2011-10-22T09:37:58Z</time>
</trkpt>
<trkpt lat="39.666668000" lon="-0.386490000">
  <ele>282.200000</ele>
  <time>2011-10-22T09:38:01Z</time>
</trkpt>
<trkpt lat="39.666654000" lon="-0.386482000">
  <ele>282.700000</ele>
  <time>2011-10-22T09:38:02Z</time>
</trkpt>
<trkpt lat="39.666600000" lon="-0.386451000">
  <ele>283.100000</ele>
  <time>2011-10-22T09:38:06Z</time>
</trkpt>
<trkpt lat="39.666559000" lon="-0.386421000">
  <ele>282.800000</ele>
  <time>2011-10-22T09:38:09Z</time>
</trkpt>
<trkpt lat="39.666531000" lon="-0.386403000">
  <ele>283.000000</ele>
  <time>2011-10-22T09:38:12Z</time>
</trkpt>
<trkpt lat="39.666430000" lon="-0.386327000">
  <ele>284.200000</ele>
  <time>2011-10-22T09:38:20Z</time>
</trkpt>
<trkpt lat="39.666417000" lon="-0.386314000">
  <ele>284.200000</ele>
  <time>2011-10-22T09:38:20Z</time>
</trkpt>
<trkpt lat="39.666181000" lon="-0.386092000">
  <ele>289.700000</ele>
  <time>2011-10-22T09:38:38Z</time>
</trkpt>
<trkpt lat="39.666151000" lon="-0.386068000">
  <ele>290.600000</ele>
  <time>2011-10-22T09:38:39Z</time>
</trkpt>
<trkpt lat="39.666134000" lon="-0.386064000">
  <ele>291.000000</ele>
  <time>2011-10-22T09:38:41Z</time>
</trkpt>
<trkpt lat="39.666078000" lon="-0.386052000">
  <ele>291.300000</ele>
  <time>2011-10-22T09:38:44Z</time>
</trkpt>
<trkpt lat="39.666065000" lon="-0.386046000">
  <ele>291.000000</ele>
  <time>2011-10-22T09:38:46Z</time>
</trkpt>
<trkpt lat="39.665883000" lon="-0.385975000">
  <ele>292.600000</ele>
  <time>2011-10-22T09:38:58Z</time>
</trkpt>
<trkpt lat="39.665869000" lon="-0.385961000">
  <ele>292.500000</ele>
  <time>2011-10-22T09:39:00Z</time>
</trkpt>
<trkpt lat="39.665764000" lon="-0.385889000">
  <ele>293.600000</ele>
  <time>2011-10-22T09:39:06Z</time>
</trkpt>
<trkpt lat="39.665750000" lon="-0.385873000">
  <ele>294.200000</ele>
  <time>2011-10-22T09:39:06Z</time>
</trkpt>
<trkpt lat="39.665736000" lon="-0.385857000">
  <ele>294.500000</ele>
  <time>2011-10-22T09:39:08Z</time>
</trkpt>
<trkpt lat="39.665723000" lon="-0.385837000">
  <ele>295.500000</ele>
  <time>2011-10-22T09:39:09Z</time>
</trkpt>
<trkpt lat="39.665709000" lon="-0.385820000">
  <ele>295.600000</ele>
  <time>2011-10-22T09:39:10Z</time>
</trkpt>
<trkpt lat="39.665697000" lon="-0.385800000">
  <ele>295.800000</ele>
  <time>2011-10-22T09:39:11Z</time>
</trkpt>
<trkpt lat="39.665657000" lon="-0.385740000">
  <ele>298.200000</ele>
  <time>2011-10-22T09:39:14Z</time>
</trkpt>
<trkpt lat="39.665656000" lon="-0.385723000">
  <ele>298.100000</ele>
  <time>2011-10-22T09:39:16Z</time>
</trkpt>
<trkpt lat="39.665653000" lon="-0.385705000">
  <ele>298.000000</ele>
  <time>2011-10-22T09:39:16Z</time>
</trkpt>
<trkpt lat="39.665647000" lon="-0.385689000">
  <ele>299.000000</ele>
  <time>2011-10-22T09:39:18Z</time>
</trkpt>
<trkpt lat="39.665635000" lon="-0.385653000">
  <ele>300.500000</ele>
  <time>2011-10-22T09:39:53Z</time>
</trkpt>
<trkpt lat="39.665642000" lon="-0.385647000">
  <ele>300.600000</ele>
  <time>2011-10-22T09:39:54Z</time>
</trkpt>
<trkpt lat="39.665651000" lon="-0.385643000">
  <ele>300.700000</ele>
  <time>2011-10-22T09:39:54Z</time>
</trkpt>
<trkpt lat="39.665663000" lon="-0.385648000">
  <ele>301.200000</ele>
  <time>2011-10-22T09:39:56Z</time>
</trkpt>
<trkpt lat="39.665676000" lon="-0.385662000">
  <ele>301.200000</ele>
  <time>2011-10-22T09:39:57Z</time>
</trkpt>
<trkpt lat="39.665689000" lon="-0.385680000">
  <ele>300.700000</ele>
  <time>2011-10-22T09:39:57Z</time>
</trkpt>
<trkpt lat="39.665698000" lon="-0.385698000">
  <ele>300.700000</ele>
  <time>2011-10-22T09:39:59Z</time>
</trkpt>
<trkpt lat="39.665765000" lon="-0.385817000">
  <ele>302.200000</ele>
  <time>2011-10-22T09:40:05Z</time>
</trkpt>
<trkpt lat="39.665776000" lon="-0.385830000">
  <ele>302.500000</ele>
  <time>2011-10-22T09:40:07Z</time>
</trkpt>
<trkpt lat="39.665789000" lon="-0.385844000">
  <ele>302.700000</ele>
  <time>2011-10-22T09:40:07Z</time>
</trkpt>
<trkpt lat="39.665818000" lon="-0.385866000">
  <ele>302.200000</ele>
  <time>2011-10-22T09:40:10Z</time>
</trkpt>
<trkpt lat="39.665859000" lon="-0.385891000">
  <ele>302.200000</ele>
  <time>2011-10-22T09:40:13Z</time>
</trkpt>
<trkpt lat="39.665872000" lon="-0.385892000">
  <ele>302.600000</ele>
  <time>2011-10-22T09:40:13Z</time>
</trkpt>
<trkpt lat="39.665923000" lon="-0.385900000">
  <ele>303.600000</ele>
  <time>2011-10-22T09:40:16Z</time>
</trkpt>
<trkpt lat="39.665938000" lon="-0.385904000">
  <ele>303.600000</ele>
  <time>2011-10-22T09:40:18Z</time>
</trkpt>
<trkpt lat="39.665950000" lon="-0.385908000">
  <ele>303.700000</ele>
  <time>2011-10-22T09:40:19Z</time>
</trkpt>
<trkpt lat="39.665966000" lon="-0.385908000">
  <ele>304.000000</ele>
  <time>2011-10-22T09:40:20Z</time>
</trkpt>
<trkpt lat="39.666015000" lon="-0.385907000">
  <ele>304.600000</ele>
  <time>2011-10-22T09:40:23Z</time>
</trkpt>
<trkpt lat="39.666050000" lon="-0.385907000">
  <ele>304.200000</ele>
  <time>2011-10-22T09:40:24Z</time>
</trkpt>
<trkpt lat="39.666098000" lon="-0.385910000">
  <ele>305.100000</ele>
  <time>2011-10-22T09:40:28Z</time>
</trkpt>
<trkpt lat="39.666144000" lon="-0.385918000">
  <ele>306.200000</ele>
  <time>2011-10-22T09:40:31Z</time>
</trkpt>
<trkpt lat="39.666161000" lon="-0.385923000">
  <ele>306.700000</ele>
  <time>2011-10-22T09:40:32Z</time>
</trkpt>
<trkpt lat="39.666174000" lon="-0.385928000">
  <ele>307.300000</ele>
  <time>2011-10-22T09:40:32Z</time>
</trkpt>
<trkpt lat="39.666204000" lon="-0.385943000">
  <ele>307.800000</ele>
  <time>2011-10-22T09:40:35Z</time>
</trkpt>
<trkpt lat="39.666252000" lon="-0.385970000">
  <ele>308.000000</ele>
  <time>2011-10-22T09:40:38Z</time>
</trkpt>
<trkpt lat="39.666314000" lon="-0.386015000">
  <ele>308.800000</ele>
  <time>2011-10-22T09:40:42Z</time>
</trkpt>
<trkpt lat="39.666450000" lon="-0.386114000">
  <ele>309.300000</ele>
  <time>2011-10-22T09:40:51Z</time>
</trkpt>
<trkpt lat="39.666481000" lon="-0.386124000">
  <ele>309.800000</ele>
  <time>2011-10-22T09:40:53Z</time>
</trkpt>
<trkpt lat="39.666497000" lon="-0.386129000">
  <ele>309.700000</ele>
  <time>2011-10-22T09:40:54Z</time>
</trkpt>
<trkpt lat="39.666516000" lon="-0.386130000">
  <ele>309.700000</ele>
  <time>2011-10-22T09:40:55Z</time>
</trkpt>
<trkpt lat="39.666587000" lon="-0.386141000">
  <ele>310.200000</ele>
  <time>2011-10-22T09:40:58Z</time>
</trkpt>
<trkpt lat="39.666600000" lon="-0.386143000">
  <ele>310.600000</ele>
  <time>2011-10-22T09:40:59Z</time>
</trkpt>
<trkpt lat="39.666640000" lon="-0.386147000">
  <ele>310.200000</ele>
  <time>2011-10-22T09:41:01Z</time>
</trkpt>
<trkpt lat="39.666659000" lon="-0.386147000">
  <ele>310.300000</ele>
  <time>2011-10-22T09:41:03Z</time>
</trkpt>
<trkpt lat="39.666673000" lon="-0.386146000">
  <ele>310.700000</ele>
  <time>2011-10-22T09:41:04Z</time>
</trkpt>
<trkpt lat="39.666715000" lon="-0.386146000">
  <ele>312.200000</ele>
  <time>2011-10-22T09:41:07Z</time>
</trkpt>
<trkpt lat="39.666733000" lon="-0.386150000">
  <ele>312.700000</ele>
  <time>2011-10-22T09:41:07Z</time>
</trkpt>
<trkpt lat="39.666791000" lon="-0.386164000">
  <ele>314.100000</ele>
  <time>2011-10-22T09:41:12Z</time>
</trkpt>
<trkpt lat="39.666806000" lon="-0.386174000">
  <ele>314.200000</ele>
  <time>2011-10-22T09:41:13Z</time>
</trkpt>
<trkpt lat="39.666842000" lon="-0.386203000">
  <ele>316.200000</ele>
  <time>2011-10-22T09:41:15Z</time>
</trkpt>
<trkpt lat="39.666869000" lon="-0.386224000">
  <ele>317.000000</ele>
  <time>2011-10-22T09:41:17Z</time>
</trkpt>
<trkpt lat="39.666881000" lon="-0.386235000">
  <ele>317.500000</ele>
  <time>2011-10-22T09:41:19Z</time>
</trkpt>
<trkpt lat="39.666892000" lon="-0.386251000">
  <ele>317.700000</ele>
  <time>2011-10-22T09:41:20Z</time>
</trkpt>
<trkpt lat="39.666904000" lon="-0.386269000">
  <ele>317.700000</ele>
  <time>2011-10-22T09:41:20Z</time>
</trkpt>
<trkpt lat="39.666914000" lon="-0.386287000">
  <ele>317.700000</ele>
  <time>2011-10-22T09:41:22Z</time>
</trkpt>
<trkpt lat="39.666964000" lon="-0.386376000">
  <ele>319.700000</ele>
  <time>2011-10-22T09:41:26Z</time>
</trkpt>
<trkpt lat="39.667053000" lon="-0.386499000">
  <ele>322.200000</ele>
  <time>2011-10-22T09:41:34Z</time>
</trkpt>
<trkpt lat="39.667068000" lon="-0.386513000">
  <ele>322.200000</ele>
  <time>2011-10-22T09:41:36Z</time>
</trkpt>
<trkpt lat="39.667096000" lon="-0.386536000">
  <ele>322.200000</ele>
  <time>2011-10-22T09:41:38Z</time>
</trkpt>
<trkpt lat="39.667111000" lon="-0.386546000">
  <ele>321.700000</ele>
  <time>2011-10-22T09:41:39Z</time>
</trkpt>
<trkpt lat="39.667186000" lon="-0.386589000">
  <ele>321.500000</ele>
  <time>2011-10-22T09:41:44Z</time>
</trkpt>
<trkpt lat="39.667257000" lon="-0.386622000">
  <ele>322.800000</ele>
  <time>2011-10-22T09:41:49Z</time>
</trkpt>
<trkpt lat="39.667336000" lon="-0.386661000">
  <ele>322.600000</ele>
  <time>2011-10-22T09:41:54Z</time>
</trkpt>
<trkpt lat="39.667352000" lon="-0.386672000">
  <ele>322.500000</ele>
  <time>2011-10-22T09:41:55Z</time>
</trkpt>
<trkpt lat="39.667365000" lon="-0.386684000">
  <ele>322.700000</ele>
  <time>2011-10-22T09:41:55Z</time>
</trkpt>
<trkpt lat="39.667426000" lon="-0.386738000">
  <ele>322.800000</ele>
  <time>2011-10-22T09:42:00Z</time>
</trkpt>
<trkpt lat="39.667440000" lon="-0.386751000">
  <ele>323.100000</ele>
  <time>2011-10-22T09:42:01Z</time>
</trkpt>
<trkpt lat="39.667470000" lon="-0.386784000">
  <ele>322.700000</ele>
  <time>2011-10-22T09:42:03Z</time>
</trkpt>
<trkpt lat="39.667483000" lon="-0.386800000">
  <ele>322.700000</ele>
  <time>2011-10-22T09:42:04Z</time>
</trkpt>
<trkpt lat="39.667495000" lon="-0.386817000">
  <ele>322.600000</ele>
  <time>2011-10-22T09:42:05Z</time>
</trkpt>
<trkpt lat="39.667642000" lon="-0.387023000">
  <ele>322.100000</ele>
  <time>2011-10-22T09:42:17Z</time>
</trkpt>
<trkpt lat="39.667668000" lon="-0.387049000">
  <ele>322.200000</ele>
  <time>2011-10-22T09:42:20Z</time>
</trkpt>
<trkpt lat="39.667681000" lon="-0.387057000">
  <ele>322.200000</ele>
  <time>2011-10-22T09:42:21Z</time>
</trkpt>
<trkpt lat="39.667694000" lon="-0.387069000">
  <ele>322.200000</ele>
  <time>2011-10-22T09:42:22Z</time>
</trkpt>
<trkpt lat="39.667707000" lon="-0.387079000">
  <ele>322.700000</ele>
  <time>2011-10-22T09:42:23Z</time>
</trkpt>
<trkpt lat="39.667720000" lon="-0.387087000">
  <ele>323.200000</ele>
  <time>2011-10-22T09:42:24Z</time>
</trkpt>
<trkpt lat="39.667733000" lon="-0.387086000">
  <ele>324.200000</ele>
  <time>2011-10-22T09:42:25Z</time>
</trkpt>
<trkpt lat="39.667759000" lon="-0.387083000">
  <ele>325.000000</ele>
  <time>2011-10-22T09:42:27Z</time>
</trkpt>
<trkpt lat="39.667771000" lon="-0.387079000">
  <ele>325.100000</ele>
  <time>2011-10-22T09:42:27Z</time>
</trkpt>
<trkpt lat="39.667785000" lon="-0.387074000">
  <ele>325.200000</ele>
  <time>2011-10-22T09:42:29Z</time>
</trkpt>
<trkpt lat="39.667799000" lon="-0.387066000">
  <ele>325.500000</ele>
  <time>2011-10-22T09:42:30Z</time>
</trkpt>
<trkpt lat="39.667811000" lon="-0.387056000">
  <ele>325.700000</ele>
  <time>2011-10-22T09:42:30Z</time>
</trkpt>
<trkpt lat="39.667818000" lon="-0.387045000">
  <ele>325.500000</ele>
  <time>2011-10-22T09:42:32Z</time>
</trkpt>
<trkpt lat="39.667824000" lon="-0.387033000">
  <ele>325.300000</ele>
  <time>2011-10-22T09:42:33Z</time>
</trkpt>
<trkpt lat="39.667837000" lon="-0.386999000">
  <ele>325.000000</ele>
  <time>2011-10-22T09:42:35Z</time>
</trkpt>
<trkpt lat="39.667843000" lon="-0.386958000">
  <ele>325.100000</ele>
  <time>2011-10-22T09:42:37Z</time>
</trkpt>
<trkpt lat="39.667855000" lon="-0.386908000">
  <ele>324.600000</ele>
  <time>2011-10-22T09:42:40Z</time>
</trkpt>
<trkpt lat="39.667868000" lon="-0.386870000">
  <ele>324.300000</ele>
  <time>2011-10-22T09:42:41Z</time>
</trkpt>
<trkpt lat="39.667870000" lon="-0.386851000">
  <ele>324.600000</ele>
  <time>2011-10-22T09:42:43Z</time>
</trkpt>
<trkpt lat="39.667871000" lon="-0.386831000">
  <ele>324.600000</ele>
  <time>2011-10-22T09:42:43Z</time>
</trkpt>
<trkpt lat="39.667863000" lon="-0.386686000">
  <ele>324.300000</ele>
  <time>2011-10-22T09:42:52Z</time>
</trkpt>
<trkpt lat="39.667863000" lon="-0.386613000">
  <ele>324.200000</ele>
  <time>2011-10-22T09:42:56Z</time>
</trkpt>
<trkpt lat="39.667859000" lon="-0.386593000">
  <ele>324.600000</ele>
  <time>2011-10-22T09:42:57Z</time>
</trkpt>
<trkpt lat="39.667852000" lon="-0.386576000">
  <ele>324.300000</ele>
  <time>2011-10-22T09:42:57Z</time>
</trkpt>
<trkpt lat="39.667837000" lon="-0.386543000">
  <ele>324.100000</ele>
  <time>2011-10-22T09:42:59Z</time>
</trkpt>
<trkpt lat="39.667835000" lon="-0.386524000">
  <ele>324.300000</ele>
  <time>2011-10-22T09:43:00Z</time>
</trkpt>
<trkpt lat="39.667836000" lon="-0.386505000">
  <ele>324.300000</ele>
  <time>2011-10-22T09:43:02Z</time>
</trkpt>
<trkpt lat="39.667841000" lon="-0.386325000">
  <ele>324.600000</ele>
  <time>2011-10-22T09:43:12Z</time>
</trkpt>
</trkseg>
</trk>
<trk>
  <name>2011-10-22-01_3237-3487</name>
  <desc>C:\Users\farnau\Documents\My Dropbox\Tracks\2011-10-22-01.gpx</desc>
<trkseg>
<trkpt lat="39.667841000" lon="-0.386325000">
  <ele>324.600000</ele>
  <time>2011-10-22T09:43:12Z</time>
</trkpt>
<trkpt lat="39.667844000" lon="-0.386308000">
  <ele>324.600000</ele>
  <time>2011-10-22T09:43:13Z</time>
</trkpt>
<trkpt lat="39.667848000" lon="-0.386267000">
  <ele>325.100000</ele>
  <time>2011-10-22T09:43:15Z</time>
</trkpt>
<trkpt lat="39.667846000" lon="-0.386227000">
  <ele>325.600000</ele>
  <time>2011-10-22T09:43:16Z</time>
</trkpt>
<trkpt lat="39.667843000" lon="-0.386207000">
  <ele>325.800000</ele>
  <time>2011-10-22T09:43:18Z</time>
</trkpt>
<trkpt lat="39.667845000" lon="-0.386188000">
  <ele>325.700000</ele>
  <time>2011-10-22T09:43:18Z</time>
</trkpt>
<trkpt lat="39.667853000" lon="-0.386102000">
  <ele>326.700000</ele>
  <time>2011-10-22T09:43:24Z</time>
</trkpt>
<trkpt lat="39.667864000" lon="-0.385982000">
  <ele>328.700000</ele>
  <time>2011-10-22T09:43:31Z</time>
</trkpt>
<trkpt lat="39.667870000" lon="-0.385966000">
  <ele>328.300000</ele>
  <time>2011-10-22T09:43:32Z</time>
</trkpt>
<trkpt lat="39.667889000" lon="-0.385920000">
  <ele>327.200000</ele>
  <time>2011-10-22T09:43:34Z</time>
</trkpt>
<trkpt lat="39.667897000" lon="-0.385886000">
  <ele>327.300000</ele>
  <time>2011-10-22T09:43:37Z</time>
</trkpt>
<trkpt lat="39.667899000" lon="-0.385867000">
  <ele>327.700000</ele>
  <time>2011-10-22T09:43:37Z</time>
</trkpt>
<trkpt lat="39.667905000" lon="-0.385835000">
  <ele>327.200000</ele>
  <time>2011-10-22T09:43:40Z</time>
</trkpt>
<trkpt lat="39.667914000" lon="-0.385803000">
  <ele>327.100000</ele>
  <time>2011-10-22T09:43:42Z</time>
</trkpt>
<trkpt lat="39.667930000" lon="-0.385736000">
  <ele>326.700000</ele>
  <time>2011-10-22T09:43:46Z</time>
</trkpt>
<trkpt lat="39.667943000" lon="-0.385677000">
  <ele>327.700000</ele>
  <time>2011-10-22T09:43:49Z</time>
</trkpt>
<trkpt lat="39.667952000" lon="-0.385661000">
  <ele>327.700000</ele>
  <time>2011-10-22T09:43:50Z</time>
</trkpt>
<trkpt lat="39.667958000" lon="-0.385649000">
  <ele>326.700000</ele>
  <time>2011-10-22T09:43:51Z</time>
</trkpt>
<trkpt lat="39.668006000" lon="-0.385538000">
  <ele>327.300000</ele>
  <time>2011-10-22T09:43:56Z</time>
</trkpt>
<trkpt lat="39.668013000" lon="-0.385520000">
  <ele>327.200000</ele>
  <time>2011-10-22T09:43:58Z</time>
</trkpt>
<trkpt lat="39.668019000" lon="-0.385476000">
  <ele>328.600000</ele>
  <time>2011-10-22T09:43:59Z</time>
</trkpt>
<trkpt lat="39.668032000" lon="-0.385418000">
  <ele>329.300000</ele>
  <time>2011-10-22T09:44:02Z</time>
</trkpt>
<trkpt lat="39.668070000" lon="-0.385269000">
  <ele>330.600000</ele>
  <time>2011-10-22T09:44:10Z</time>
</trkpt>
<trkpt lat="39.668094000" lon="-0.385108000">
  <ele>330.500000</ele>
  <time>2011-10-22T09:44:20Z</time>
</trkpt>
<trkpt lat="39.668165000" lon="-0.384653000">
  <ele>335.800000</ele>
  <time>2011-10-22T09:44:42Z</time>
</trkpt>
<trkpt lat="39.668193000" lon="-0.384416000">
  <ele>336.200000</ele>
  <time>2011-10-22T09:44:55Z</time>
</trkpt>
<trkpt lat="39.668201000" lon="-0.384337000">
  <ele>336.800000</ele>
  <time>2011-10-22T09:44:58Z</time>
</trkpt>
<trkpt lat="39.668204000" lon="-0.384318000">
  <ele>337.600000</ele>
  <time>2011-10-22T09:45:00Z</time>
</trkpt>
<trkpt lat="39.668207000" lon="-0.384252000">
  <ele>338.700000</ele>
  <time>2011-10-22T09:45:03Z</time>
</trkpt>
<trkpt lat="39.668209000" lon="-0.384233000">
  <ele>338.700000</ele>
  <time>2011-10-22T09:45:03Z</time>
</trkpt>
<trkpt lat="39.668218000" lon="-0.384082000">
  <ele>344.100000</ele>
  <time>2011-10-22T09:45:11Z</time>
</trkpt>
<trkpt lat="39.668216000" lon="-0.384062000">
  <ele>344.200000</ele>
  <time>2011-10-22T09:45:12Z</time>
</trkpt>
<trkpt lat="39.668205000" lon="-0.383960000">
  <ele>345.300000</ele>
  <time>2011-10-22T09:45:17Z</time>
</trkpt>
<trkpt lat="39.668206000" lon="-0.383939000">
  <ele>345.300000</ele>
  <time>2011-10-22T09:45:17Z</time>
</trkpt>
<trkpt lat="39.668207000" lon="-0.383790000">
  <ele>346.200000</ele>
  <time>2011-10-22T09:45:25Z</time>
</trkpt>
<trkpt lat="39.668193000" lon="-0.383712000">
  <ele>347.200000</ele>
  <time>2011-10-22T09:45:28Z</time>
</trkpt>
<trkpt lat="39.668171000" lon="-0.383610000">
  <ele>348.200000</ele>
  <time>2011-10-22T09:45:33Z</time>
</trkpt>
<trkpt lat="39.668139000" lon="-0.383500000">
  <ele>349.200000</ele>
  <time>2011-10-22T09:45:40Z</time>
</trkpt>
<trkpt lat="39.668130000" lon="-0.383481000">
  <ele>349.600000</ele>
  <time>2011-10-22T09:45:41Z</time>
</trkpt>
<trkpt lat="39.668063000" lon="-0.383340000">
  <ele>349.200000</ele>
  <time>2011-10-22T09:45:49Z</time>
</trkpt>
<trkpt lat="39.668047000" lon="-0.383300000">
  <ele>349.100000</ele>
  <time>2011-10-22T09:45:51Z</time>
</trkpt>
<trkpt lat="39.668011000" lon="-0.383189000">
  <ele>350.100000</ele>
  <time>2011-10-22T09:45:57Z</time>
</trkpt>
<trkpt lat="39.668003000" lon="-0.383134000">
  <ele>351.000000</ele>
  <time>2011-10-22T09:46:00Z</time>
</trkpt>
<trkpt lat="39.668003000" lon="-0.383117000">
  <ele>351.000000</ele>
  <time>2011-10-22T09:46:00Z</time>
</trkpt>
<trkpt lat="39.668006000" lon="-0.383076000">
  <ele>351.200000</ele>
  <time>2011-10-22T09:46:03Z</time>
</trkpt>
<trkpt lat="39.668010000" lon="-0.382964000">
  <ele>353.000000</ele>
  <time>2011-10-22T09:46:08Z</time>
</trkpt>
<trkpt lat="39.668019000" lon="-0.382791000">
  <ele>356.100000</ele>
  <time>2011-10-22T09:46:16Z</time>
</trkpt>
<trkpt lat="39.668024000" lon="-0.382751000">
  <ele>357.500000</ele>
  <time>2011-10-22T09:46:18Z</time>
</trkpt>
<trkpt lat="39.668029000" lon="-0.382730000">
  <ele>357.700000</ele>
  <time>2011-10-22T09:46:19Z</time>
</trkpt>
<trkpt lat="39.668041000" lon="-0.382691000">
  <ele>358.100000</ele>
  <time>2011-10-22T09:46:21Z</time>
</trkpt>
<trkpt lat="39.668068000" lon="-0.382595000">
  <ele>359.000000</ele>
  <time>2011-10-22T09:46:26Z</time>
</trkpt>
<trkpt lat="39.668070000" lon="-0.382577000">
  <ele>359.200000</ele>
  <time>2011-10-22T09:46:27Z</time>
</trkpt>
<trkpt lat="39.668076000" lon="-0.382538000">
  <ele>360.200000</ele>
  <time>2011-10-22T09:46:29Z</time>
</trkpt>
<trkpt lat="39.668085000" lon="-0.382500000">
  <ele>360.800000</ele>
  <time>2011-10-22T09:46:31Z</time>
</trkpt>
<trkpt lat="39.668097000" lon="-0.382463000">
  <ele>361.000000</ele>
  <time>2011-10-22T09:46:32Z</time>
</trkpt>
<trkpt lat="39.668122000" lon="-0.382370000">
  <ele>362.100000</ele>
  <time>2011-10-22T09:46:38Z</time>
</trkpt>
<trkpt lat="39.668125000" lon="-0.382350000">
  <ele>362.600000</ele>
  <time>2011-10-22T09:46:39Z</time>
</trkpt>
<trkpt lat="39.668128000" lon="-0.382332000">
  <ele>362.700000</ele>
  <time>2011-10-22T09:46:40Z</time>
</trkpt>
<trkpt lat="39.668134000" lon="-0.382313000">
  <ele>363.500000</ele>
  <time>2011-10-22T09:46:41Z</time>
</trkpt>
<trkpt lat="39.668157000" lon="-0.382222000">
  <ele>363.700000</ele>
  <time>2011-10-22T09:46:45Z</time>
</trkpt>
<trkpt lat="39.668162000" lon="-0.382208000">
  <ele>363.200000</ele>
  <time>2011-10-22T09:46:46Z</time>
</trkpt>
<trkpt lat="39.668181000" lon="-0.382142000">
  <ele>362.100000</ele>
  <time>2011-10-22T09:46:51Z</time>
</trkpt>
<trkpt lat="39.668204000" lon="-0.382034000">
  <ele>364.800000</ele>
  <time>2011-10-22T09:46:57Z</time>
</trkpt>
<trkpt lat="39.668229000" lon="-0.381932000">
  <ele>367.800000</ele>
  <time>2011-10-22T09:47:02Z</time>
</trkpt>
<trkpt lat="39.668235000" lon="-0.381911000">
  <ele>368.000000</ele>
  <time>2011-10-22T09:47:02Z</time>
</trkpt>
<trkpt lat="39.668313000" lon="-0.381691000">
  <ele>371.000000</ele>
  <time>2011-10-22T09:47:15Z</time>
</trkpt>
<trkpt lat="39.668318000" lon="-0.381675000">
  <ele>371.100000</ele>
  <time>2011-10-22T09:47:16Z</time>
</trkpt>
<trkpt lat="39.668327000" lon="-0.381657000">
  <ele>371.200000</ele>
  <time>2011-10-22T09:47:17Z</time>
</trkpt>
<trkpt lat="39.668413000" lon="-0.381508000">
  <ele>372.500000</ele>
  <time>2011-10-22T09:47:26Z</time>
</trkpt>
<trkpt lat="39.668470000" lon="-0.381430000">
  <ele>374.200000</ele>
  <time>2011-10-22T09:47:32Z</time>
</trkpt>
<trkpt lat="39.668480000" lon="-0.381419000">
  <ele>374.700000</ele>
  <time>2011-10-22T09:47:33Z</time>
</trkpt>
<trkpt lat="39.668505000" lon="-0.381391000">
  <ele>374.800000</ele>
  <time>2011-10-22T09:47:34Z</time>
</trkpt>
<trkpt lat="39.668513000" lon="-0.381374000">
  <ele>375.100000</ele>
  <time>2011-10-22T09:47:36Z</time>
</trkpt>
<trkpt lat="39.668524000" lon="-0.381358000">
  <ele>375.200000</ele>
  <time>2011-10-22T09:47:36Z</time>
</trkpt>
<trkpt lat="39.668555000" lon="-0.381314000">
  <ele>375.500000</ele>
  <time>2011-10-22T09:47:39Z</time>
</trkpt>
<trkpt lat="39.668586000" lon="-0.381280000">
  <ele>377.200000</ele>
  <time>2011-10-22T09:47:42Z</time>
</trkpt>
<trkpt lat="39.668628000" lon="-0.381252000">
  <ele>378.100000</ele>
  <time>2011-10-22T09:47:45Z</time>
</trkpt>
<trkpt lat="39.668646000" lon="-0.381245000">
  <ele>378.300000</ele>
  <time>2011-10-22T09:47:47Z</time>
</trkpt>
<trkpt lat="39.668658000" lon="-0.381241000">
  <ele>378.800000</ele>
  <time>2011-10-22T09:47:48Z</time>
</trkpt>
<trkpt lat="39.668670000" lon="-0.381233000">
  <ele>379.200000</ele>
  <time>2011-10-22T09:47:49Z</time>
</trkpt>
<trkpt lat="39.668742000" lon="-0.381181000">
  <ele>382.500000</ele>
  <time>2011-10-22T09:47:55Z</time>
</trkpt>
<trkpt lat="39.668803000" lon="-0.381120000">
  <ele>384.800000</ele>
  <time>2011-10-22T09:48:01Z</time>
</trkpt>
<trkpt lat="39.668810000" lon="-0.381104000">
  <ele>385.000000</ele>
  <time>2011-10-22T09:48:03Z</time>
</trkpt>
<trkpt lat="39.668820000" lon="-0.381091000">
  <ele>385.100000</ele>
  <time>2011-10-22T09:48:04Z</time>
</trkpt>
<trkpt lat="39.668839000" lon="-0.381069000">
  <ele>385.700000</ele>
  <time>2011-10-22T09:49:13Z</time>
</trkpt>
<trkpt lat="39.668847000" lon="-0.381046000">
  <ele>385.700000</ele>
  <time>2011-10-22T09:49:14Z</time>
</trkpt>
<trkpt lat="39.668870000" lon="-0.380976000">
  <ele>385.700000</ele>
  <time>2011-10-22T09:49:17Z</time>
</trkpt>
<trkpt lat="39.668866000" lon="-0.380955000">
  <ele>385.800000</ele>
  <time>2011-10-22T09:49:18Z</time>
</trkpt>
<trkpt lat="39.668868000" lon="-0.380933000">
  <ele>385.800000</ele>
  <time>2011-10-22T09:49:19Z</time>
</trkpt>
<trkpt lat="39.668871000" lon="-0.380912000">
  <ele>386.000000</ele>
  <time>2011-10-22T09:49:19Z</time>
</trkpt>
<trkpt lat="39.668869000" lon="-0.380890000">
  <ele>385.700000</ele>
  <time>2011-10-22T09:49:21Z</time>
</trkpt>
<trkpt lat="39.668871000" lon="-0.380839000">
  <ele>385.600000</ele>
  <time>2011-10-22T09:49:22Z</time>
</trkpt>
<trkpt lat="39.668880000" lon="-0.380744000">
  <ele>384.800000</ele>
  <time>2011-10-22T09:49:26Z</time>
</trkpt>
<trkpt lat="39.668874000" lon="-0.380708000">
  <ele>385.300000</ele>
  <time>2011-10-22T09:49:27Z</time>
</trkpt>
<trkpt lat="39.668859000" lon="-0.380604000">
  <ele>385.800000</ele>
  <time>2011-10-22T09:49:30Z</time>
</trkpt>
<trkpt lat="39.668831000" lon="-0.380379000">
  <ele>388.700000</ele>
  <time>2011-10-22T09:49:37Z</time>
</trkpt>
<trkpt lat="39.668833000" lon="-0.380348000">
  <ele>389.000000</ele>
  <time>2011-10-22T09:49:38Z</time>
</trkpt>
<trkpt lat="39.668852000" lon="-0.380258000">
  <ele>389.200000</ele>
  <time>2011-10-22T09:49:40Z</time>
</trkpt>
<trkpt lat="39.668888000" lon="-0.380147000">
  <ele>389.700000</ele>
  <time>2011-10-22T09:49:45Z</time>
</trkpt>
<trkpt lat="39.668902000" lon="-0.380120000">
  <ele>390.200000</ele>
  <time>2011-10-22T09:49:46Z</time>
</trkpt>
<trkpt lat="39.668928000" lon="-0.380061000">
  <ele>390.600000</ele>
  <time>2011-10-22T09:49:48Z</time>
</trkpt>
<trkpt lat="39.668948000" lon="-0.379999000">
  <ele>391.000000</ele>
  <time>2011-10-22T09:49:50Z</time>
</trkpt>
<trkpt lat="39.668970000" lon="-0.379910000">
  <ele>391.200000</ele>
  <time>2011-10-22T09:49:53Z</time>
</trkpt>
<trkpt lat="39.668975000" lon="-0.379878000">
  <ele>391.200000</ele>
  <time>2011-10-22T09:49:54Z</time>
</trkpt>
<trkpt lat="39.668977000" lon="-0.379814000">
  <ele>391.300000</ele>
  <time>2011-10-22T09:49:56Z</time>
</trkpt>
<trkpt lat="39.668972000" lon="-0.379783000">
  <ele>391.600000</ele>
  <time>2011-10-22T09:49:56Z</time>
</trkpt>
<trkpt lat="39.668971000" lon="-0.379689000">
  <ele>391.200000</ele>
  <time>2011-10-22T09:49:59Z</time>
</trkpt>
<trkpt lat="39.668977000" lon="-0.379603000">
  <ele>391.200000</ele>
  <time>2011-10-22T09:50:02Z</time>
</trkpt>
<trkpt lat="39.668991000" lon="-0.379514000">
  <ele>391.600000</ele>
  <time>2011-10-22T09:50:05Z</time>
</trkpt>
<trkpt lat="39.669023000" lon="-0.379351000">
  <ele>392.300000</ele>
  <time>2011-10-22T09:50:10Z</time>
</trkpt>
<trkpt lat="39.669029000" lon="-0.379315000">
  <ele>392.200000</ele>
  <time>2011-10-22T09:50:12Z</time>
</trkpt>
<trkpt lat="39.669073000" lon="-0.378969000">
  <ele>393.100000</ele>
  <time>2011-10-22T09:50:23Z</time>
</trkpt>
<trkpt lat="39.669075000" lon="-0.378938000">
  <ele>393.200000</ele>
  <time>2011-10-22T09:50:24Z</time>
</trkpt>
<trkpt lat="39.669087000" lon="-0.378842000">
  <ele>393.600000</ele>
  <time>2011-10-22T09:50:27Z</time>
</trkpt>
<trkpt lat="39.669103000" lon="-0.378779000">
  <ele>394.200000</ele>
  <time>2011-10-22T09:50:29Z</time>
</trkpt>
<trkpt lat="39.669132000" lon="-0.378726000">
  <ele>394.500000</ele>
  <time>2011-10-22T09:50:31Z</time>
</trkpt>
<trkpt lat="39.669152000" lon="-0.378700000">
  <ele>394.600000</ele>
  <time>2011-10-22T09:50:31Z</time>
</trkpt>
<trkpt lat="39.669242000" lon="-0.378623000">
  <ele>395.600000</ele>
  <time>2011-10-22T09:50:36Z</time>
</trkpt>
<trkpt lat="39.669607000" lon="-0.378315000">
  <ele>394.700000</ele>
  <time>2011-10-22T09:50:50Z</time>
</trkpt>
<trkpt lat="39.669627000" lon="-0.378283000">
  <ele>394.700000</ele>
  <time>2011-10-22T09:50:50Z</time>
</trkpt>
<trkpt lat="39.669671000" lon="-0.378160000">
  <ele>395.100000</ele>
  <time>2011-10-22T09:50:55Z</time>
</trkpt>
<trkpt lat="39.669736000" lon="-0.377966000">
  <ele>396.700000</ele>
  <time>2011-10-22T09:51:01Z</time>
</trkpt>
<trkpt lat="39.669755000" lon="-0.377937000">
  <ele>396.500000</ele>
  <time>2011-10-22T09:51:02Z</time>
</trkpt>
<trkpt lat="39.669770000" lon="-0.377907000">
  <ele>396.600000</ele>
  <time>2011-10-22T09:51:03Z</time>
</trkpt>
<trkpt lat="39.669900000" lon="-0.377616000">
  <ele>400.000000</ele>
  <time>2011-10-22T09:51:12Z</time>
</trkpt>
<trkpt lat="39.669907000" lon="-0.377584000">
  <ele>400.300000</ele>
  <time>2011-10-22T09:51:12Z</time>
</trkpt>
<trkpt lat="39.669983000" lon="-0.377313000">
  <ele>401.800000</ele>
  <time>2011-10-22T09:51:20Z</time>
</trkpt>
<trkpt lat="39.670073000" lon="-0.376999000">
  <ele>403.000000</ele>
  <time>2011-10-22T09:51:30Z</time>
</trkpt>
<trkpt lat="39.670085000" lon="-0.376962000">
  <ele>403.100000</ele>
  <time>2011-10-22T09:51:31Z</time>
</trkpt>
<trkpt lat="39.670224000" lon="-0.376568000">
  <ele>404.200000</ele>
  <time>2011-10-22T09:51:41Z</time>
</trkpt>
<trkpt lat="39.670228000" lon="-0.376530000">
  <ele>404.200000</ele>
  <time>2011-10-22T09:51:43Z</time>
</trkpt>
<trkpt lat="39.670235000" lon="-0.376062000">
  <ele>406.100000</ele>
  <time>2011-10-22T09:51:55Z</time>
</trkpt>
<trkpt lat="39.670237000" lon="-0.375926000">
  <ele>406.300000</ele>
  <time>2011-10-22T09:51:58Z</time>
</trkpt>
<trkpt lat="39.670224000" lon="-0.375739000">
  <ele>406.800000</ele>
  <time>2011-10-22T09:52:05Z</time>
</trkpt>
<trkpt lat="39.670205000" lon="-0.375611000">
  <ele>407.700000</ele>
  <time>2011-10-22T09:52:09Z</time>
</trkpt>
<trkpt lat="39.670190000" lon="-0.375449000">
  <ele>408.200000</ele>
  <time>2011-10-22T09:52:13Z</time>
</trkpt>
<trkpt lat="39.670192000" lon="-0.375422000">
  <ele>408.500000</ele>
  <time>2011-10-22T09:52:14Z</time>
</trkpt>
<trkpt lat="39.670203000" lon="-0.375325000">
  <ele>408.500000</ele>
  <time>2011-10-22T09:52:18Z</time>
</trkpt>
<trkpt lat="39.670211000" lon="-0.375292000">
  <ele>408.600000</ele>
  <time>2011-10-22T09:52:19Z</time>
</trkpt>
<trkpt lat="39.670219000" lon="-0.375255000">
  <ele>408.500000</ele>
  <time>2011-10-22T09:52:19Z</time>
</trkpt>
<trkpt lat="39.670231000" lon="-0.375220000">
  <ele>408.500000</ele>
  <time>2011-10-22T09:52:21Z</time>
</trkpt>
<trkpt lat="39.670329000" lon="-0.375040000">
  <ele>407.800000</ele>
  <time>2011-10-22T09:52:26Z</time>
</trkpt>
<trkpt lat="39.670355000" lon="-0.375010000">
  <ele>407.700000</ele>
  <time>2011-10-22T09:52:27Z</time>
</trkpt>
<trkpt lat="39.670445000" lon="-0.374897000">
  <ele>406.200000</ele>
  <time>2011-10-22T09:52:30Z</time>
</trkpt>
<trkpt lat="39.670641000" lon="-0.374561000">
  <ele>404.700000</ele>
  <time>2011-10-22T09:52:35Z</time>
</trkpt>
<trkpt lat="39.670667000" lon="-0.374494000">
  <ele>404.200000</ele>
  <time>2011-10-22T09:52:37Z</time>
</trkpt>
<trkpt lat="39.670775000" lon="-0.374299000">
  <ele>404.200000</ele>
  <time>2011-10-22T09:52:40Z</time>
</trkpt>
<trkpt lat="39.670824000" lon="-0.374247000">
  <ele>404.200000</ele>
  <time>2011-10-22T09:52:41Z</time>
</trkpt>
<trkpt lat="39.670926000" lon="-0.374200000">
  <ele>403.500000</ele>
  <time>2011-10-22T09:52:43Z</time>
</trkpt>
<trkpt lat="39.671164000" lon="-0.374096000">
  <ele>404.100000</ele>
  <time>2011-10-22T09:52:49Z</time>
</trkpt>
<trkpt lat="39.671197000" lon="-0.374070000">
  <ele>404.700000</ele>
  <time>2011-10-22T09:52:51Z</time>
</trkpt>
<trkpt lat="39.671230000" lon="-0.374041000">
  <ele>404.700000</ele>
  <time>2011-10-22T09:52:51Z</time>
</trkpt>
<trkpt lat="39.671257000" lon="-0.374005000">
  <ele>404.700000</ele>
  <time>2011-10-22T09:52:53Z</time>
</trkpt>
<trkpt lat="39.671312000" lon="-0.373931000">
  <ele>404.700000</ele>
  <time>2011-10-22T09:52:54Z</time>
</trkpt>
<trkpt lat="39.671333000" lon="-0.373884000">
  <ele>404.700000</ele>
  <time>2011-10-22T09:52:56Z</time>
</trkpt>
<trkpt lat="39.671353000" lon="-0.373787000">
  <ele>404.600000</ele>
  <time>2011-10-22T09:52:57Z</time>
</trkpt>
<trkpt lat="39.671351000" lon="-0.373735000">
  <ele>405.000000</ele>
  <time>2011-10-22T09:52:59Z</time>
</trkpt>
<trkpt lat="39.671339000" lon="-0.373637000">
  <ele>405.500000</ele>
  <time>2011-10-22T09:53:01Z</time>
</trkpt>
<trkpt lat="39.671295000" lon="-0.373327000">
  <ele>405.100000</ele>
  <time>2011-10-22T09:53:10Z</time>
</trkpt>
<trkpt lat="39.671279000" lon="-0.373292000">
  <ele>404.700000</ele>
  <time>2011-10-22T09:53:10Z</time>
</trkpt>
<trkpt lat="39.671176000" lon="-0.373129000">
  <ele>404.100000</ele>
  <time>2011-10-22T09:53:15Z</time>
</trkpt>
<trkpt lat="39.671110000" lon="-0.373012000">
  <ele>403.700000</ele>
  <time>2011-10-22T09:53:17Z</time>
</trkpt>
<trkpt lat="39.671076000" lon="-0.372934000">
  <ele>403.700000</ele>
  <time>2011-10-22T09:53:18Z</time>
</trkpt>
<trkpt lat="39.671059000" lon="-0.372845000">
  <ele>403.800000</ele>
  <time>2011-10-22T09:53:19Z</time>
</trkpt>
<trkpt lat="39.671053000" lon="-0.372758000">
  <ele>403.600000</ele>
  <time>2011-10-22T09:53:20Z</time>
</trkpt>
<trkpt lat="39.671074000" lon="-0.372489000">
  <ele>402.700000</ele>
  <time>2011-10-22T09:53:23Z</time>
</trkpt>
<trkpt lat="39.671084000" lon="-0.372430000">
  <ele>403.100000</ele>
  <time>2011-10-22T09:53:24Z</time>
</trkpt>
<trkpt lat="39.671111000" lon="-0.372316000">
  <ele>403.700000</ele>
  <time>2011-10-22T09:53:26Z</time>
</trkpt>
<trkpt lat="39.671117000" lon="-0.372276000">
  <ele>404.600000</ele>
  <time>2011-10-22T09:53:28Z</time>
</trkpt>
<trkpt lat="39.671111000" lon="-0.372238000">
  <ele>404.800000</ele>
  <time>2011-10-22T09:53:29Z</time>
</trkpt>
<trkpt lat="39.671094000" lon="-0.372131000">
  <ele>404.700000</ele>
  <time>2011-10-22T09:53:32Z</time>
</trkpt>
<trkpt lat="39.671079000" lon="-0.372096000">
  <ele>404.300000</ele>
  <time>2011-10-22T09:53:32Z</time>
</trkpt>
<trkpt lat="39.671060000" lon="-0.372069000">
  <ele>404.100000</ele>
  <time>2011-10-22T09:53:34Z</time>
</trkpt>
<trkpt lat="39.670984000" lon="-0.371933000">
  <ele>403.600000</ele>
  <time>2011-10-22T09:53:39Z</time>
</trkpt>
<trkpt lat="39.670985000" lon="-0.371896000">
  <ele>404.500000</ele>
  <time>2011-10-22T09:53:40Z</time>
</trkpt>
<trkpt lat="39.670998000" lon="-0.371824000">
  <ele>404.700000</ele>
  <time>2011-10-22T09:53:42Z</time>
</trkpt>
<trkpt lat="39.671007000" lon="-0.371795000">
  <ele>405.000000</ele>
  <time>2011-10-22T09:53:42Z</time>
</trkpt>
<trkpt lat="39.671020000" lon="-0.371771000">
  <ele>405.200000</ele>
  <time>2011-10-22T09:53:44Z</time>
</trkpt>
<trkpt lat="39.671095000" lon="-0.371635000">
  <ele>405.600000</ele>
  <time>2011-10-22T09:53:48Z</time>
</trkpt>
<trkpt lat="39.671139000" lon="-0.371581000">
  <ele>406.100000</ele>
  <time>2011-10-22T09:53:51Z</time>
</trkpt>
<trkpt lat="39.671208000" lon="-0.371477000">
  <ele>409.200000</ele>
  <time>2011-10-22T09:53:55Z</time>
</trkpt>
<trkpt lat="39.671217000" lon="-0.371450000">
  <ele>409.200000</ele>
  <time>2011-10-22T09:53:56Z</time>
</trkpt>
<trkpt lat="39.671325000" lon="-0.371108000">
  <ele>409.600000</ele>
  <time>2011-10-22T09:54:06Z</time>
</trkpt>
<trkpt lat="39.671327000" lon="-0.371074000">
  <ele>409.700000</ele>
  <time>2011-10-22T09:54:07Z</time>
</trkpt>
<trkpt lat="39.671338000" lon="-0.371044000">
  <ele>409.300000</ele>
  <time>2011-10-22T09:54:07Z</time>
</trkpt>
<trkpt lat="39.671344000" lon="-0.371010000">
  <ele>409.500000</ele>
  <time>2011-10-22T09:54:09Z</time>
</trkpt>
<trkpt lat="39.671451000" lon="-0.370478000">
  <ele>409.600000</ele>
  <time>2011-10-22T09:54:23Z</time>
</trkpt>
<trkpt lat="39.671482000" lon="-0.370348000">
  <ele>409.200000</ele>
  <time>2011-10-22T09:54:27Z</time>
</trkpt>
<trkpt lat="39.671478000" lon="-0.370301000">
  <ele>409.100000</ele>
  <time>2011-10-22T09:54:28Z</time>
</trkpt>
<trkpt lat="39.671434000" lon="-0.370204000">
  <ele>408.300000</ele>
  <time>2011-10-22T09:54:30Z</time>
</trkpt>
<trkpt lat="39.671334000" lon="-0.370081000">
  <ele>407.700000</ele>
  <time>2011-10-22T09:54:31Z</time>
</trkpt>
<trkpt lat="39.671295000" lon="-0.370011000">
  <ele>407.500000</ele>
  <time>2011-10-22T09:54:33Z</time>
</trkpt>
<trkpt lat="39.671238000" lon="-0.369834000">
  <ele>407.800000</ele>
  <time>2011-10-22T09:54:35Z</time>
</trkpt>
<trkpt lat="39.671223000" lon="-0.369741000">
  <ele>407.800000</ele>
  <time>2011-10-22T09:54:36Z</time>
</trkpt>
<trkpt lat="39.671223000" lon="-0.369663000">
  <ele>407.300000</ele>
  <time>2011-10-22T09:54:36Z</time>
</trkpt>
<trkpt lat="39.671250000" lon="-0.369405000">
  <ele>406.000000</ele>
  <time>2011-10-22T09:54:39Z</time>
</trkpt>
<trkpt lat="39.671271000" lon="-0.369322000">
  <ele>405.800000</ele>
  <time>2011-10-22T09:54:41Z</time>
</trkpt>
<trkpt lat="39.671316000" lon="-0.369194000">
  <ele>406.100000</ele>
  <time>2011-10-22T09:54:42Z</time>
</trkpt>
<trkpt lat="39.671359000" lon="-0.369126000">
  <ele>405.800000</ele>
  <time>2011-10-22T09:54:44Z</time>
</trkpt>
<trkpt lat="39.671428000" lon="-0.368977000">
  <ele>404.700000</ele>
  <time>2011-10-22T09:54:46Z</time>
</trkpt>
<trkpt lat="39.671444000" lon="-0.368889000">
  <ele>404.700000</ele>
  <time>2011-10-22T09:54:47Z</time>
</trkpt>
<trkpt lat="39.671457000" lon="-0.368739000">
  <ele>405.300000</ele>
  <time>2011-10-22T09:54:49Z</time>
</trkpt>
<trkpt lat="39.671455000" lon="-0.368669000">
  <ele>405.500000</ele>
  <time>2011-10-22T09:54:49Z</time>
</trkpt>
<trkpt lat="39.671456000" lon="-0.368441000">
  <ele>406.100000</ele>
  <time>2011-10-22T09:54:54Z</time>
</trkpt>
<trkpt lat="39.671467000" lon="-0.368249000">
  <ele>405.800000</ele>
  <time>2011-10-22T09:54:58Z</time>
</trkpt>
<trkpt lat="39.671510000" lon="-0.368029000">
  <ele>403.300000</ele>
  <time>2011-10-22T09:55:02Z</time>
</trkpt>
<trkpt lat="39.671525000" lon="-0.367967000">
  <ele>403.200000</ele>
  <time>2011-10-22T09:55:03Z</time>
</trkpt>
<trkpt lat="39.671552000" lon="-0.367915000">
  <ele>402.000000</ele>
  <time>2011-10-22T09:55:04Z</time>
</trkpt>
<trkpt lat="39.671687000" lon="-0.367675000">
  <ele>400.300000</ele>
  <time>2011-10-22T09:55:08Z</time>
</trkpt>
<trkpt lat="39.671741000" lon="-0.367657000">
  <ele>400.300000</ele>
  <time>2011-10-22T09:55:08Z</time>
</trkpt>
<trkpt lat="39.672022000" lon="-0.367604000">
  <ele>399.200000</ele>
  <time>2011-10-22T09:55:13Z</time>
</trkpt>
<trkpt lat="39.672584000" lon="-0.367460000">
  <ele>398.200000</ele>
  <time>2011-10-22T09:55:21Z</time>
</trkpt>
<trkpt lat="39.672718000" lon="-0.367404000">
  <ele>398.300000</ele>
  <time>2011-10-22T09:55:22Z</time>
</trkpt>
<trkpt lat="39.672822000" lon="-0.367328000">
  <ele>398.200000</ele>
  <time>2011-10-22T09:55:24Z</time>
</trkpt>
<trkpt lat="39.672957000" lon="-0.367222000">
  <ele>397.600000</ele>
  <time>2011-10-22T09:55:29Z</time>
</trkpt>
<trkpt lat="39.673109000" lon="-0.367070000">
  <ele>398.500000</ele>
  <time>2011-10-22T09:55:36Z</time>
</trkpt>
<trkpt lat="39.673127000" lon="-0.367030000">
  <ele>398.300000</ele>
  <time>2011-10-22T09:55:37Z</time>
</trkpt>
<trkpt lat="39.673177000" lon="-0.366939000">
  <ele>396.500000</ele>
  <time>2011-10-22T09:55:39Z</time>
</trkpt>
<trkpt lat="39.673208000" lon="-0.366903000">
  <ele>395.700000</ele>
  <time>2011-10-22T09:55:40Z</time>
</trkpt>
<trkpt lat="39.673616000" lon="-0.366384000">
  <ele>391.700000</ele>
  <time>2011-10-22T09:55:54Z</time>
</trkpt>
<trkpt lat="39.673637000" lon="-0.366345000">
  <ele>391.200000</ele>
  <time>2011-10-22T09:55:55Z</time>
</trkpt>
<trkpt lat="39.673754000" lon="-0.366066000">
  <ele>391.700000</ele>
  <time>2011-10-22T09:56:02Z</time>
</trkpt>
<trkpt lat="39.673776000" lon="-0.365989000">
  <ele>392.100000</ele>
  <time>2011-10-22T09:56:04Z</time>
</trkpt>
<trkpt lat="39.673877000" lon="-0.365750000">
  <ele>392.600000</ele>
  <time>2011-10-22T09:56:10Z</time>
</trkpt>
<trkpt lat="39.673898000" lon="-0.365708000">
  <ele>392.500000</ele>
  <time>2011-10-22T09:56:11Z</time>
</trkpt>
<trkpt lat="39.673927000" lon="-0.365678000">
  <ele>392.700000</ele>
  <time>2011-10-22T09:56:12Z</time>
</trkpt>
<trkpt lat="39.673991000" lon="-0.365638000">
  <ele>393.200000</ele>
  <time>2011-10-22T09:56:13Z</time>
</trkpt>
<trkpt lat="39.674106000" lon="-0.365583000">
  <ele>392.300000</ele>
  <time>2011-10-22T09:56:16Z</time>
</trkpt>
<trkpt lat="39.674150000" lon="-0.365577000">
  <ele>392.700000</ele>
  <time>2011-10-22T09:56:18Z</time>
</trkpt>
<trkpt lat="39.674337000" lon="-0.365504000">
  <ele>392.200000</ele>
  <time>2011-10-22T09:56:21Z</time>
</trkpt>
<trkpt lat="39.674397000" lon="-0.365466000">
  <ele>392.100000</ele>
  <time>2011-10-22T09:56:21Z</time>
</trkpt>
<trkpt lat="39.674524000" lon="-0.365399000">
  <ele>393.100000</ele>
  <time>2011-10-22T09:56:24Z</time>
</trkpt>
<trkpt lat="39.674585000" lon="-0.365378000">
  <ele>393.100000</ele>
  <time>2011-10-22T09:56:24Z</time>
</trkpt>
<trkpt lat="39.674852000" lon="-0.365276000">
  <ele>392.100000</ele>
  <time>2011-10-22T09:56:30Z</time>
</trkpt>
<trkpt lat="39.675163000" lon="-0.365113000">
  <ele>389.100000</ele>
  <time>2011-10-22T09:56:34Z</time>
</trkpt>
<trkpt lat="39.675616000" lon="-0.364853000">
  <ele>387.600000</ele>
  <time>2011-10-22T09:56:43Z</time>
</trkpt>
<trkpt lat="39.675887000" lon="-0.364653000">
  <ele>385.100000</ele>
  <time>2011-10-22T09:56:47Z</time>
</trkpt>
<trkpt lat="39.676020000" lon="-0.364517000">
  <ele>384.200000</ele>
  <time>2011-10-22T09:56:48Z</time>
</trkpt>
<trkpt lat="39.676382000" lon="-0.364119000">
  <ele>382.800000</ele>
  <time>2011-10-22T09:56:55Z</time>
</trkpt>
<trkpt lat="39.676429000" lon="-0.364037000">
  <ele>382.300000</ele>
  <time>2011-10-22T09:56:56Z</time>
</trkpt>
<trkpt lat="39.676461000" lon="-0.363940000">
  <ele>382.200000</ele>
  <time>2011-10-22T09:56:56Z</time>
</trkpt>
<trkpt lat="39.676596000" lon="-0.363583000">
  <ele>381.800000</ele>
  <time>2011-10-22T09:57:01Z</time>
</trkpt>
<trkpt lat="39.676630000" lon="-0.363535000">
  <ele>382.200000</ele>
  <time>2011-10-22T09:57:02Z</time>
</trkpt>
<trkpt lat="39.676688000" lon="-0.363461000">
  <ele>382.600000</ele>
  <time>2011-10-22T09:57:04Z</time>
</trkpt>
<trkpt lat="39.676739000" lon="-0.363407000">
  <ele>382.300000</ele>
  <time>2011-10-22T09:57:06Z</time>
</trkpt>
<trkpt lat="39.676787000" lon="-0.363367000">
  <ele>382.200000</ele>
  <time>2011-10-22T09:57:07Z</time>
</trkpt>
<trkpt lat="39.676977000" lon="-0.363227000">
  <ele>382.800000</ele>
  <time>2011-10-22T09:57:15Z</time>
</trkpt>
<trkpt lat="39.677010000" lon="-0.363213000">
  <ele>383.000000</ele>
  <time>2011-10-22T09:57:15Z</time>
</trkpt>
<trkpt lat="39.677131000" lon="-0.363165000">
  <ele>383.600000</ele>
  <time>2011-10-22T09:57:20Z</time>
</trkpt>
<trkpt lat="39.677160000" lon="-0.363159000">
  <ele>383.600000</ele>
  <time>2011-10-22T09:57:21Z</time>
</trkpt>
</trkseg>
</trk>
<trk>
  <name>2011-10-22-01_3486-3736</name>
  <desc>C:\Users\farnau\Documents\My Dropbox\Tracks\2011-10-22-01.gpx</desc>
<trkseg>
<trkpt lat="39.677160000" lon="-0.363159000">
  <ele>383.600000</ele>
  <time>2011-10-22T09:57:21Z</time>
</trkpt>
<trkpt lat="39.677248000" lon="-0.363155000">
  <ele>383.500000</ele>
  <time>2011-10-22T09:57:23Z</time>
</trkpt>
<trkpt lat="39.677348000" lon="-0.363153000">
  <ele>384.200000</ele>
  <time>2011-10-22T09:57:26Z</time>
</trkpt>
<trkpt lat="39.677382000" lon="-0.363156000">
  <ele>383.800000</ele>
  <time>2011-10-22T09:57:28Z</time>
</trkpt>
<trkpt lat="39.677551000" lon="-0.363168000">
  <ele>386.000000</ele>
  <time>2011-10-22T09:57:34Z</time>
</trkpt>
<trkpt lat="39.677581000" lon="-0.363168000">
  <ele>385.700000</ele>
  <time>2011-10-22T09:57:34Z</time>
</trkpt>
<trkpt lat="39.677790000" lon="-0.363140000">
  <ele>385.300000</ele>
  <time>2011-10-22T09:57:41Z</time>
</trkpt>
<trkpt lat="39.677820000" lon="-0.363121000">
  <ele>385.600000</ele>
  <time>2011-10-22T09:57:42Z</time>
</trkpt>
<trkpt lat="39.678154000" lon="-0.362943000">
  <ele>387.700000</ele>
  <time>2011-10-22T09:57:53Z</time>
</trkpt>
<trkpt lat="39.678187000" lon="-0.362936000">
  <ele>388.000000</ele>
  <time>2011-10-22T09:57:54Z</time>
</trkpt>
<trkpt lat="39.678442000" lon="-0.362904000">
  <ele>390.000000</ele>
  <time>2011-10-22T09:58:03Z</time>
</trkpt>
<trkpt lat="39.678470000" lon="-0.362903000">
  <ele>390.000000</ele>
  <time>2011-10-22T09:58:03Z</time>
</trkpt>
<trkpt lat="39.678642000" lon="-0.362829000">
  <ele>389.100000</ele>
  <time>2011-10-22T09:58:09Z</time>
</trkpt>
<trkpt lat="39.678668000" lon="-0.362797000">
  <ele>389.100000</ele>
  <time>2011-10-22T09:58:09Z</time>
</trkpt>
<trkpt lat="39.678682000" lon="-0.362754000">
  <ele>388.700000</ele>
  <time>2011-10-22T09:58:11Z</time>
</trkpt>
<trkpt lat="39.678660000" lon="-0.362654000">
  <ele>388.700000</ele>
  <time>2011-10-22T09:58:13Z</time>
</trkpt>
<trkpt lat="39.678651000" lon="-0.362610000">
  <ele>389.000000</ele>
  <time>2011-10-22T09:58:14Z</time>
</trkpt>
<trkpt lat="39.678629000" lon="-0.362574000">
  <ele>389.200000</ele>
  <time>2011-10-22T09:58:15Z</time>
</trkpt>
<trkpt lat="39.678604000" lon="-0.362550000">
  <ele>389.600000</ele>
  <time>2011-10-22T09:58:16Z</time>
</trkpt>
<trkpt lat="39.678578000" lon="-0.362523000">
  <ele>389.700000</ele>
  <time>2011-10-22T09:58:17Z</time>
</trkpt>
<trkpt lat="39.678565000" lon="-0.362491000">
  <ele>389.200000</ele>
  <time>2011-10-22T09:58:17Z</time>
</trkpt>
<trkpt lat="39.678554000" lon="-0.362452000">
  <ele>389.300000</ele>
  <time>2011-10-22T09:58:19Z</time>
</trkpt>
<trkpt lat="39.678465000" lon="-0.362116000">
  <ele>391.200000</ele>
  <time>2011-10-22T09:58:29Z</time>
</trkpt>
<trkpt lat="39.678458000" lon="-0.362078000">
  <ele>391.200000</ele>
  <time>2011-10-22T09:58:30Z</time>
</trkpt>
<trkpt lat="39.678456000" lon="-0.362030000">
  <ele>391.800000</ele>
  <time>2011-10-22T09:58:31Z</time>
</trkpt>
<trkpt lat="39.678458000" lon="-0.361943000">
  <ele>392.200000</ele>
  <time>2011-10-22T09:58:33Z</time>
</trkpt>
<trkpt lat="39.678463000" lon="-0.361898000">
  <ele>392.700000</ele>
  <time>2011-10-22T09:58:33Z</time>
</trkpt>
<trkpt lat="39.678462000" lon="-0.361740000">
  <ele>392.800000</ele>
  <time>2011-10-22T09:58:38Z</time>
</trkpt>
<trkpt lat="39.678458000" lon="-0.361369000">
  <ele>392.100000</ele>
  <time>2011-10-22T09:58:46Z</time>
</trkpt>
<trkpt lat="39.678450000" lon="-0.361321000">
  <ele>392.200000</ele>
  <time>2011-10-22T09:58:47Z</time>
</trkpt>
<trkpt lat="39.678430000" lon="-0.361281000">
  <ele>392.000000</ele>
  <time>2011-10-22T09:58:48Z</time>
</trkpt>
<trkpt lat="39.678358000" lon="-0.361191000">
  <ele>392.300000</ele>
  <time>2011-10-22T09:58:51Z</time>
</trkpt>
<trkpt lat="39.678299000" lon="-0.361154000">
  <ele>392.200000</ele>
  <time>2011-10-22T09:58:52Z</time>
</trkpt>
<trkpt lat="39.678252000" lon="-0.361155000">
  <ele>392.100000</ele>
  <time>2011-10-22T09:58:54Z</time>
</trkpt>
<trkpt lat="39.678218000" lon="-0.361155000">
  <ele>393.300000</ele>
  <time>2011-10-22T09:58:56Z</time>
</trkpt>
<trkpt lat="39.678031000" lon="-0.361201000">
  <ele>395.200000</ele>
  <time>2011-10-22T09:59:00Z</time>
</trkpt>
<trkpt lat="39.677904000" lon="-0.361233000">
  <ele>394.800000</ele>
  <time>2011-10-22T09:59:05Z</time>
</trkpt>
<trkpt lat="39.677870000" lon="-0.361233000">
  <ele>394.700000</ele>
  <time>2011-10-22T09:59:06Z</time>
</trkpt>
<trkpt lat="39.677805000" lon="-0.361237000">
  <ele>395.100000</ele>
  <time>2011-10-22T09:59:08Z</time>
</trkpt>
<trkpt lat="39.677770000" lon="-0.361233000">
  <ele>395.600000</ele>
  <time>2011-10-22T09:59:08Z</time>
</trkpt>
<trkpt lat="39.677729000" lon="-0.361237000">
  <ele>395.800000</ele>
  <time>2011-10-22T09:59:10Z</time>
</trkpt>
<trkpt lat="39.677608000" lon="-0.361241000">
  <ele>396.300000</ele>
  <time>2011-10-22T09:59:13Z</time>
</trkpt>
<trkpt lat="39.677564000" lon="-0.361233000">
  <ele>397.300000</ele>
  <time>2011-10-22T09:59:13Z</time>
</trkpt>
<trkpt lat="39.677528000" lon="-0.361217000">
  <ele>397.800000</ele>
  <time>2011-10-22T09:59:15Z</time>
</trkpt>
<trkpt lat="39.677445000" lon="-0.361173000">
  <ele>398.600000</ele>
  <time>2011-10-22T09:59:18Z</time>
</trkpt>
<trkpt lat="39.677420000" lon="-0.361159000">
  <ele>399.200000</ele>
  <time>2011-10-22T09:59:19Z</time>
</trkpt>
<trkpt lat="39.677353000" lon="-0.361111000">
  <ele>401.800000</ele>
  <time>2011-10-22T09:59:22Z</time>
</trkpt>
<trkpt lat="39.677305000" lon="-0.361072000">
  <ele>401.700000</ele>
  <time>2011-10-22T09:59:24Z</time>
</trkpt>
<trkpt lat="39.677251000" lon="-0.361019000">
  <ele>401.700000</ele>
  <time>2011-10-22T09:59:26Z</time>
</trkpt>
<trkpt lat="39.677170000" lon="-0.360923000">
  <ele>401.200000</ele>
  <time>2011-10-22T09:59:29Z</time>
</trkpt>
<trkpt lat="39.677016000" lon="-0.360709000">
  <ele>398.300000</ele>
  <time>2011-10-22T09:59:32Z</time>
</trkpt>
<trkpt lat="39.676848000" lon="-0.360419000">
  <ele>395.700000</ele>
  <time>2011-10-22T09:59:37Z</time>
</trkpt>
<trkpt lat="39.676774000" lon="-0.360236000">
  <ele>395.200000</ele>
  <time>2011-10-22T09:59:39Z</time>
</trkpt>
<trkpt lat="39.676731000" lon="-0.359979000">
  <ele>394.600000</ele>
  <time>2011-10-22T09:59:42Z</time>
</trkpt>
<trkpt lat="39.676761000" lon="-0.359923000">
  <ele>393.500000</ele>
  <time>2011-10-22T09:59:43Z</time>
</trkpt>
<trkpt lat="39.676856000" lon="-0.359872000">
  <ele>393.100000</ele>
  <time>2011-10-22T09:59:43Z</time>
</trkpt>
<trkpt lat="39.676897000" lon="-0.359828000">
  <ele>392.300000</ele>
  <time>2011-10-22T09:59:45Z</time>
</trkpt>
<trkpt lat="39.676925000" lon="-0.359785000">
  <ele>391.700000</ele>
  <time>2011-10-22T09:59:45Z</time>
</trkpt>
<trkpt lat="39.677028000" lon="-0.359685000">
  <ele>390.000000</ele>
  <time>2011-10-22T09:59:48Z</time>
</trkpt>
<trkpt lat="39.677333000" lon="-0.359362000">
  <ele>388.100000</ele>
  <time>2011-10-22T09:59:59Z</time>
</trkpt>
<trkpt lat="39.677359000" lon="-0.359324000">
  <ele>388.200000</ele>
  <time>2011-10-22T09:59:59Z</time>
</trkpt>
<trkpt lat="39.677406000" lon="-0.359243000">
  <ele>388.100000</ele>
  <time>2011-10-22T10:00:01Z</time>
</trkpt>
<trkpt lat="39.677453000" lon="-0.359126000">
  <ele>388.300000</ele>
  <time>2011-10-22T10:00:04Z</time>
</trkpt>
<trkpt lat="39.677464000" lon="-0.359086000">
  <ele>388.200000</ele>
  <time>2011-10-22T10:00:06Z</time>
</trkpt>
<trkpt lat="39.677475000" lon="-0.359047000">
  <ele>388.000000</ele>
  <time>2011-10-22T10:00:07Z</time>
</trkpt>
<trkpt lat="39.677526000" lon="-0.358554000">
  <ele>385.800000</ele>
  <time>2011-10-22T10:00:15Z</time>
</trkpt>
<trkpt lat="39.677598000" lon="-0.357980000">
  <ele>383.600000</ele>
  <time>2011-10-22T10:00:22Z</time>
</trkpt>
<trkpt lat="39.677643000" lon="-0.357902000">
  <ele>383.600000</ele>
  <time>2011-10-22T10:00:23Z</time>
</trkpt>
<trkpt lat="39.678011000" lon="-0.357167000">
  <ele>381.700000</ele>
  <time>2011-10-22T10:00:36Z</time>
</trkpt>
<trkpt lat="39.678179000" lon="-0.356767000">
  <ele>380.700000</ele>
  <time>2011-10-22T10:00:42Z</time>
</trkpt>
<trkpt lat="39.678500000" lon="-0.355667000">
  <ele>377.100000</ele>
  <time>2011-10-22T10:00:55Z</time>
</trkpt>
<trkpt lat="39.678512000" lon="-0.355566000">
  <ele>375.500000</ele>
  <time>2011-10-22T10:00:55Z</time>
</trkpt>
<trkpt lat="39.678581000" lon="-0.355198000">
  <ele>373.300000</ele>
  <time>2011-10-22T10:01:00Z</time>
</trkpt>
<trkpt lat="39.678623000" lon="-0.355115000">
  <ele>373.500000</ele>
  <time>2011-10-22T10:01:01Z</time>
</trkpt>
<trkpt lat="39.678763000" lon="-0.355028000">
  <ele>371.800000</ele>
  <time>2011-10-22T10:01:03Z</time>
</trkpt>
<trkpt lat="39.678871000" lon="-0.354939000">
  <ele>370.500000</ele>
  <time>2011-10-22T10:01:06Z</time>
</trkpt>
<trkpt lat="39.678880000" lon="-0.354911000">
  <ele>370.000000</ele>
  <time>2011-10-22T10:01:07Z</time>
</trkpt>
<trkpt lat="39.678855000" lon="-0.354880000">
  <ele>370.100000</ele>
  <time>2011-10-22T10:01:08Z</time>
</trkpt>
<trkpt lat="39.678842000" lon="-0.354841000">
  <ele>369.500000</ele>
  <time>2011-10-22T10:01:09Z</time>
</trkpt>
<trkpt lat="39.678836000" lon="-0.354791000">
  <ele>369.100000</ele>
  <time>2011-10-22T10:01:09Z</time>
</trkpt>
<trkpt lat="39.678837000" lon="-0.354740000">
  <ele>368.800000</ele>
  <time>2011-10-22T10:01:11Z</time>
</trkpt>
<trkpt lat="39.678838000" lon="-0.354682000">
  <ele>368.500000</ele>
  <time>2011-10-22T10:01:11Z</time>
</trkpt>
<trkpt lat="39.678855000" lon="-0.354558000">
  <ele>366.000000</ele>
  <time>2011-10-22T10:01:14Z</time>
</trkpt>
<trkpt lat="39.678880000" lon="-0.354169000">
  <ele>362.200000</ele>
  <time>2011-10-22T10:01:19Z</time>
</trkpt>
<trkpt lat="39.678914000" lon="-0.353641000">
  <ele>359.700000</ele>
  <time>2011-10-22T10:01:25Z</time>
</trkpt>
<trkpt lat="39.678933000" lon="-0.353572000">
  <ele>359.700000</ele>
  <time>2011-10-22T10:01:25Z</time>
</trkpt>
<trkpt lat="39.679012000" lon="-0.353300000">
  <ele>358.100000</ele>
  <time>2011-10-22T10:01:30Z</time>
</trkpt>
<trkpt lat="39.679029000" lon="-0.353260000">
  <ele>358.000000</ele>
  <time>2011-10-22T10:01:30Z</time>
</trkpt>
<trkpt lat="39.679075000" lon="-0.353192000">
  <ele>357.500000</ele>
  <time>2011-10-22T10:01:33Z</time>
</trkpt>
<trkpt lat="39.679199000" lon="-0.353021000">
  <ele>358.700000</ele>
  <time>2011-10-22T10:01:43Z</time>
</trkpt>
<trkpt lat="39.679259000" lon="-0.352947000">
  <ele>360.000000</ele>
  <time>2011-10-22T10:01:46Z</time>
</trkpt>
<trkpt lat="39.679312000" lon="-0.352881000">
  <ele>361.200000</ele>
  <time>2011-10-22T10:01:49Z</time>
</trkpt>
<trkpt lat="39.679322000" lon="-0.352861000">
  <ele>361.500000</ele>
  <time>2011-10-22T10:01:51Z</time>
</trkpt>
<trkpt lat="39.679330000" lon="-0.352842000">
  <ele>361.700000</ele>
  <time>2011-10-22T10:01:52Z</time>
</trkpt>
<trkpt lat="39.679342000" lon="-0.352823000">
  <ele>362.100000</ele>
  <time>2011-10-22T10:01:52Z</time>
</trkpt>
<trkpt lat="39.679377000" lon="-0.352773000">
  <ele>361.600000</ele>
  <time>2011-10-22T10:01:55Z</time>
</trkpt>
<trkpt lat="39.679393000" lon="-0.352760000">
  <ele>361.500000</ele>
  <time>2011-10-22T10:01:57Z</time>
</trkpt>
<trkpt lat="39.679432000" lon="-0.352728000">
  <ele>362.500000</ele>
  <time>2011-10-22T10:02:00Z</time>
</trkpt>
<trkpt lat="39.679527000" lon="-0.352643000">
  <ele>361.800000</ele>
  <time>2011-10-22T10:02:05Z</time>
</trkpt>
<trkpt lat="39.679536000" lon="-0.352629000">
  <ele>362.100000</ele>
  <time>2011-10-22T10:02:07Z</time>
</trkpt>
<trkpt lat="39.679546000" lon="-0.352587000">
  <ele>361.300000</ele>
  <time>2011-10-22T10:02:32Z</time>
</trkpt>
<trkpt lat="39.679543000" lon="-0.352562000">
  <ele>360.700000</ele>
  <time>2011-10-22T10:02:33Z</time>
</trkpt>
<trkpt lat="39.679546000" lon="-0.352529000">
  <ele>360.100000</ele>
  <time>2011-10-22T10:02:34Z</time>
</trkpt>
<trkpt lat="39.679547000" lon="-0.352480000">
  <ele>359.700000</ele>
  <time>2011-10-22T10:02:35Z</time>
</trkpt>
<trkpt lat="39.679566000" lon="-0.352239000">
  <ele>359.700000</ele>
  <time>2011-10-22T10:02:38Z</time>
</trkpt>
<trkpt lat="39.679584000" lon="-0.352168000">
  <ele>360.500000</ele>
  <time>2011-10-22T10:02:40Z</time>
</trkpt>
<trkpt lat="39.679627000" lon="-0.351955000">
  <ele>360.300000</ele>
  <time>2011-10-22T10:02:43Z</time>
</trkpt>
<trkpt lat="39.679628000" lon="-0.351880000">
  <ele>360.200000</ele>
  <time>2011-10-22T10:02:43Z</time>
</trkpt>
<trkpt lat="39.679623000" lon="-0.351335000">
  <ele>359.100000</ele>
  <time>2011-10-22T10:02:51Z</time>
</trkpt>
<trkpt lat="39.679603000" lon="-0.351243000">
  <ele>359.000000</ele>
  <time>2011-10-22T10:02:51Z</time>
</trkpt>
<trkpt lat="39.679542000" lon="-0.350921000">
  <ele>358.700000</ele>
  <time>2011-10-22T10:02:54Z</time>
</trkpt>
<trkpt lat="39.679349000" lon="-0.349762000">
  <ele>356.300000</ele>
  <time>2011-10-22T10:03:06Z</time>
</trkpt>
<trkpt lat="39.679359000" lon="-0.349632000">
  <ele>355.000000</ele>
  <time>2011-10-22T10:03:07Z</time>
</trkpt>
<trkpt lat="39.679420000" lon="-0.348772000">
  <ele>346.200000</ele>
  <time>2011-10-22T10:03:13Z</time>
</trkpt>
<trkpt lat="39.679452000" lon="-0.348671000">
  <ele>345.200000</ele>
  <time>2011-10-22T10:03:15Z</time>
</trkpt>
<trkpt lat="39.679569000" lon="-0.348387000">
  <ele>345.000000</ele>
  <time>2011-10-22T10:03:18Z</time>
</trkpt>
<trkpt lat="39.679625000" lon="-0.348324000">
  <ele>344.700000</ele>
  <time>2011-10-22T10:03:18Z</time>
</trkpt>
<trkpt lat="39.679726000" lon="-0.348179000">
  <ele>343.600000</ele>
  <time>2011-10-22T10:03:21Z</time>
</trkpt>
<trkpt lat="39.679771000" lon="-0.348094000">
  <ele>343.000000</ele>
  <time>2011-10-22T10:03:21Z</time>
</trkpt>
<trkpt lat="39.679891000" lon="-0.347803000">
  <ele>340.700000</ele>
  <time>2011-10-22T10:03:25Z</time>
</trkpt>
<trkpt lat="39.679937000" lon="-0.347612000">
  <ele>338.200000</ele>
  <time>2011-10-22T10:03:26Z</time>
</trkpt>
<trkpt lat="39.680049000" lon="-0.347241000">
  <ele>336.200000</ele>
  <time>2011-10-22T10:03:31Z</time>
</trkpt>
<trkpt lat="39.680087000" lon="-0.347185000">
  <ele>336.200000</ele>
  <time>2011-10-22T10:03:31Z</time>
</trkpt>
<trkpt lat="39.680135000" lon="-0.347150000">
  <ele>336.200000</ele>
  <time>2011-10-22T10:03:33Z</time>
</trkpt>
<trkpt lat="39.680190000" lon="-0.347138000">
  <ele>335.300000</ele>
  <time>2011-10-22T10:03:34Z</time>
</trkpt>
<trkpt lat="39.680488000" lon="-0.347040000">
  <ele>334.200000</ele>
  <time>2011-10-22T10:03:40Z</time>
</trkpt>
<trkpt lat="39.680660000" lon="-0.346992000">
  <ele>334.000000</ele>
  <time>2011-10-22T10:03:43Z</time>
</trkpt>
<trkpt lat="39.680714000" lon="-0.346996000">
  <ele>334.000000</ele>
  <time>2011-10-22T10:03:44Z</time>
</trkpt>
<trkpt lat="39.680826000" lon="-0.347038000">
  <ele>329.800000</ele>
  <time>2011-10-22T10:03:59Z</time>
</trkpt>
<trkpt lat="39.680825000" lon="-0.347054000">
  <ele>330.000000</ele>
  <time>2011-10-22T10:04:00Z</time>
</trkpt>
<trkpt lat="39.680819000" lon="-0.347069000">
  <ele>330.300000</ele>
  <time>2011-10-22T10:04:01Z</time>
</trkpt>
<trkpt lat="39.680821000" lon="-0.347092000">
  <ele>330.500000</ele>
  <time>2011-10-22T10:04:01Z</time>
</trkpt>
<trkpt lat="39.680818000" lon="-0.347194000">
  <ele>329.300000</ele>
  <time>2011-10-22T10:04:04Z</time>
</trkpt>
<trkpt lat="39.680817000" lon="-0.347288000">
  <ele>329.200000</ele>
  <time>2011-10-22T10:04:06Z</time>
</trkpt>
<trkpt lat="39.680829000" lon="-0.347458000">
  <ele>328.300000</ele>
  <time>2011-10-22T10:04:09Z</time>
</trkpt>
<trkpt lat="39.680842000" lon="-0.347507000">
  <ele>328.100000</ele>
  <time>2011-10-22T10:04:11Z</time>
</trkpt>
<trkpt lat="39.680852000" lon="-0.347575000">
  <ele>327.300000</ele>
  <time>2011-10-22T10:04:12Z</time>
</trkpt>
<trkpt lat="39.680904000" lon="-0.347939000">
  <ele>321.100000</ele>
  <time>2011-10-22T10:04:17Z</time>
</trkpt>
<trkpt lat="39.680939000" lon="-0.348218000">
  <ele>317.500000</ele>
  <time>2011-10-22T10:04:20Z</time>
</trkpt>
<trkpt lat="39.680972000" lon="-0.348319000">
  <ele>316.200000</ele>
  <time>2011-10-22T10:04:20Z</time>
</trkpt>
<trkpt lat="39.681035000" lon="-0.348596000">
  <ele>313.700000</ele>
  <time>2011-10-22T10:04:24Z</time>
</trkpt>
<trkpt lat="39.681091000" lon="-0.348819000">
  <ele>312.200000</ele>
  <time>2011-10-22T10:04:27Z</time>
</trkpt>
<trkpt lat="39.681119000" lon="-0.348880000">
  <ele>312.100000</ele>
  <time>2011-10-22T10:04:28Z</time>
</trkpt>
<trkpt lat="39.681178000" lon="-0.348985000">
  <ele>311.600000</ele>
  <time>2011-10-22T10:04:30Z</time>
</trkpt>
<trkpt lat="39.681222000" lon="-0.349013000">
  <ele>311.000000</ele>
  <time>2011-10-22T10:04:31Z</time>
</trkpt>
<trkpt lat="39.681349000" lon="-0.348995000">
  <ele>310.100000</ele>
  <time>2011-10-22T10:04:33Z</time>
</trkpt>
<trkpt lat="39.681423000" lon="-0.348959000">
  <ele>309.800000</ele>
  <time>2011-10-22T10:04:34Z</time>
</trkpt>
<trkpt lat="39.681464000" lon="-0.348936000">
  <ele>309.300000</ele>
  <time>2011-10-22T10:04:35Z</time>
</trkpt>
<trkpt lat="39.681585000" lon="-0.348933000">
  <ele>307.200000</ele>
  <time>2011-10-22T10:04:38Z</time>
</trkpt>
<trkpt lat="39.681619000" lon="-0.348956000">
  <ele>307.100000</ele>
  <time>2011-10-22T10:04:38Z</time>
</trkpt>
<trkpt lat="39.681643000" lon="-0.348992000">
  <ele>306.700000</ele>
  <time>2011-10-22T10:04:39Z</time>
</trkpt>
<trkpt lat="39.681662000" lon="-0.349040000">
  <ele>306.600000</ele>
  <time>2011-10-22T10:04:41Z</time>
</trkpt>
<trkpt lat="39.681669000" lon="-0.349090000">
  <ele>306.200000</ele>
  <time>2011-10-22T10:04:41Z</time>
</trkpt>
<trkpt lat="39.681668000" lon="-0.349164000">
  <ele>305.500000</ele>
  <time>2011-10-22T10:04:43Z</time>
</trkpt>
<trkpt lat="39.681661000" lon="-0.349356000">
  <ele>303.600000</ele>
  <time>2011-10-22T10:04:46Z</time>
</trkpt>
<trkpt lat="39.681645000" lon="-0.349413000">
  <ele>302.700000</ele>
  <time>2011-10-22T10:04:47Z</time>
</trkpt>
<trkpt lat="39.681625000" lon="-0.349476000">
  <ele>300.800000</ele>
  <time>2011-10-22T10:04:47Z</time>
</trkpt>
<trkpt lat="39.681602000" lon="-0.349531000">
  <ele>299.500000</ele>
  <time>2011-10-22T10:04:49Z</time>
</trkpt>
<trkpt lat="39.681570000" lon="-0.349594000">
  <ele>298.700000</ele>
  <time>2011-10-22T10:04:50Z</time>
</trkpt>
<trkpt lat="39.681531000" lon="-0.349659000">
  <ele>298.000000</ele>
  <time>2011-10-22T10:04:51Z</time>
</trkpt>
<trkpt lat="39.681486000" lon="-0.349722000">
  <ele>297.500000</ele>
  <time>2011-10-22T10:04:52Z</time>
</trkpt>
<trkpt lat="39.681435000" lon="-0.349771000">
  <ele>296.200000</ele>
  <time>2011-10-22T10:04:53Z</time>
</trkpt>
<trkpt lat="39.681378000" lon="-0.349857000">
  <ele>295.200000</ele>
  <time>2011-10-22T10:04:55Z</time>
</trkpt>
<trkpt lat="39.681364000" lon="-0.349913000">
  <ele>294.300000</ele>
  <time>2011-10-22T10:04:55Z</time>
</trkpt>
<trkpt lat="39.681387000" lon="-0.350066000">
  <ele>292.500000</ele>
  <time>2011-10-22T10:04:57Z</time>
</trkpt>
<trkpt lat="39.681423000" lon="-0.350149000">
  <ele>292.500000</ele>
  <time>2011-10-22T10:04:59Z</time>
</trkpt>
<trkpt lat="39.681529000" lon="-0.350372000">
  <ele>294.100000</ele>
  <time>2011-10-22T10:05:03Z</time>
</trkpt>
<trkpt lat="39.681588000" lon="-0.350449000">
  <ele>294.300000</ele>
  <time>2011-10-22T10:05:06Z</time>
</trkpt>
<trkpt lat="39.681810000" lon="-0.350721000">
  <ele>294.500000</ele>
  <time>2011-10-22T10:05:16Z</time>
</trkpt>
<trkpt lat="39.681840000" lon="-0.350776000">
  <ele>293.200000</ele>
  <time>2011-10-22T10:05:16Z</time>
</trkpt>
<trkpt lat="39.681981000" lon="-0.350955000">
  <ele>291.200000</ele>
  <time>2011-10-22T10:05:19Z</time>
</trkpt>
<trkpt lat="39.682337000" lon="-0.351345000">
  <ele>287.000000</ele>
  <time>2011-10-22T10:05:26Z</time>
</trkpt>
<trkpt lat="39.682408000" lon="-0.351408000">
  <ele>286.100000</ele>
  <time>2011-10-22T10:05:27Z</time>
</trkpt>
<trkpt lat="39.682482000" lon="-0.351457000">
  <ele>285.200000</ele>
  <time>2011-10-22T10:05:27Z</time>
</trkpt>
<trkpt lat="39.682574000" lon="-0.351491000">
  <ele>284.500000</ele>
  <time>2011-10-22T10:05:29Z</time>
</trkpt>
<trkpt lat="39.682879000" lon="-0.351560000">
  <ele>282.800000</ele>
  <time>2011-10-22T10:05:32Z</time>
</trkpt>
<trkpt lat="39.682930000" lon="-0.351563000">
  <ele>282.300000</ele>
  <time>2011-10-22T10:05:34Z</time>
</trkpt>
<trkpt lat="39.682961000" lon="-0.351558000">
  <ele>282.000000</ele>
  <time>2011-10-22T10:05:35Z</time>
</trkpt>
<trkpt lat="39.682995000" lon="-0.351540000">
  <ele>281.200000</ele>
  <time>2011-10-22T10:05:35Z</time>
</trkpt>
<trkpt lat="39.683017000" lon="-0.351495000">
  <ele>280.700000</ele>
  <time>2011-10-22T10:05:37Z</time>
</trkpt>
<trkpt lat="39.683039000" lon="-0.351435000">
  <ele>279.800000</ele>
  <time>2011-10-22T10:05:38Z</time>
</trkpt>
<trkpt lat="39.683068000" lon="-0.351277000">
  <ele>277.200000</ele>
  <time>2011-10-22T10:05:40Z</time>
</trkpt>
<trkpt lat="39.683071000" lon="-0.351184000">
  <ele>276.600000</ele>
  <time>2011-10-22T10:05:41Z</time>
</trkpt>
<trkpt lat="39.683061000" lon="-0.351098000">
  <ele>276.100000</ele>
  <time>2011-10-22T10:05:42Z</time>
</trkpt>
<trkpt lat="39.683041000" lon="-0.351020000">
  <ele>276.000000</ele>
  <time>2011-10-22T10:05:43Z</time>
</trkpt>
<trkpt lat="39.683010000" lon="-0.350944000">
  <ele>276.200000</ele>
  <time>2011-10-22T10:05:44Z</time>
</trkpt>
<trkpt lat="39.682952000" lon="-0.350767000">
  <ele>276.100000</ele>
  <time>2011-10-22T10:05:46Z</time>
</trkpt>
<trkpt lat="39.682939000" lon="-0.350680000">
  <ele>276.000000</ele>
  <time>2011-10-22T10:05:46Z</time>
</trkpt>
<trkpt lat="39.682948000" lon="-0.350599000">
  <ele>275.700000</ele>
  <time>2011-10-22T10:05:48Z</time>
</trkpt>
<trkpt lat="39.683015000" lon="-0.350459000">
  <ele>275.700000</ele>
  <time>2011-10-22T10:05:50Z</time>
</trkpt>
<trkpt lat="39.683153000" lon="-0.350326000">
  <ele>271.200000</ele>
  <time>2011-10-22T10:05:51Z</time>
</trkpt>
<trkpt lat="39.683206000" lon="-0.350259000">
  <ele>270.200000</ele>
  <time>2011-10-22T10:05:53Z</time>
</trkpt>
<trkpt lat="39.683232000" lon="-0.350182000">
  <ele>269.000000</ele>
  <time>2011-10-22T10:05:54Z</time>
</trkpt>
<trkpt lat="39.683251000" lon="-0.350105000">
  <ele>268.100000</ele>
  <time>2011-10-22T10:05:54Z</time>
</trkpt>
<trkpt lat="39.683264000" lon="-0.350040000">
  <ele>267.300000</ele>
  <time>2011-10-22T10:05:56Z</time>
</trkpt>
<trkpt lat="39.683267000" lon="-0.349966000">
  <ele>266.700000</ele>
  <time>2011-10-22T10:05:57Z</time>
</trkpt>
<trkpt lat="39.683247000" lon="-0.349917000">
  <ele>266.500000</ele>
  <time>2011-10-22T10:05:57Z</time>
</trkpt>
<trkpt lat="39.683218000" lon="-0.349883000">
  <ele>265.800000</ele>
  <time>2011-10-22T10:05:59Z</time>
</trkpt>
<trkpt lat="39.683186000" lon="-0.349830000">
  <ele>265.600000</ele>
  <time>2011-10-22T10:06:00Z</time>
</trkpt>
<trkpt lat="39.683157000" lon="-0.349766000">
  <ele>265.200000</ele>
  <time>2011-10-22T10:06:01Z</time>
</trkpt>
<trkpt lat="39.683133000" lon="-0.349698000">
  <ele>265.100000</ele>
  <time>2011-10-22T10:06:02Z</time>
</trkpt>
<trkpt lat="39.683133000" lon="-0.349625000">
  <ele>265.100000</ele>
  <time>2011-10-22T10:06:02Z</time>
</trkpt>
<trkpt lat="39.683177000" lon="-0.349488000">
  <ele>264.700000</ele>
  <time>2011-10-22T10:06:04Z</time>
</trkpt>
<trkpt lat="39.683219000" lon="-0.349431000">
  <ele>264.600000</ele>
  <time>2011-10-22T10:06:05Z</time>
</trkpt>
<trkpt lat="39.683330000" lon="-0.349290000">
  <ele>264.700000</ele>
  <time>2011-10-22T10:06:09Z</time>
</trkpt>
<trkpt lat="39.683416000" lon="-0.349206000">
  <ele>265.000000</ele>
  <time>2011-10-22T10:06:10Z</time>
</trkpt>
<trkpt lat="39.683519000" lon="-0.349108000">
  <ele>263.000000</ele>
  <time>2011-10-22T10:06:13Z</time>
</trkpt>
<trkpt lat="39.683686000" lon="-0.348996000">
  <ele>262.000000</ele>
  <time>2011-10-22T10:06:17Z</time>
</trkpt>
<trkpt lat="39.683798000" lon="-0.348935000">
  <ele>260.100000</ele>
  <time>2011-10-22T10:06:19Z</time>
</trkpt>
<trkpt lat="39.684067000" lon="-0.348798000">
  <ele>256.100000</ele>
  <time>2011-10-22T10:06:23Z</time>
</trkpt>
<trkpt lat="39.684111000" lon="-0.348744000">
  <ele>256.100000</ele>
  <time>2011-10-22T10:06:25Z</time>
</trkpt>
<trkpt lat="39.684447000" lon="-0.348356000">
  <ele>251.600000</ele>
  <time>2011-10-22T10:06:31Z</time>
</trkpt>
<trkpt lat="39.684504000" lon="-0.348304000">
  <ele>251.800000</ele>
  <time>2011-10-22T10:06:32Z</time>
</trkpt>
<trkpt lat="39.684524000" lon="-0.348261000">
  <ele>250.600000</ele>
  <time>2011-10-22T10:06:32Z</time>
</trkpt>
<trkpt lat="39.684555000" lon="-0.348221000">
  <ele>249.100000</ele>
  <time>2011-10-22T10:06:34Z</time>
</trkpt>
<trkpt lat="39.684677000" lon="-0.348025000">
  <ele>247.000000</ele>
  <time>2011-10-22T10:06:37Z</time>
</trkpt>
<trkpt lat="39.684722000" lon="-0.347959000">
  <ele>246.800000</ele>
  <time>2011-10-22T10:06:39Z</time>
</trkpt>
<trkpt lat="39.684851000" lon="-0.347876000">
  <ele>247.500000</ele>
  <time>2011-10-22T10:06:40Z</time>
</trkpt>
<trkpt lat="39.684905000" lon="-0.347850000">
  <ele>247.300000</ele>
  <time>2011-10-22T10:06:42Z</time>
</trkpt>
<trkpt lat="39.684961000" lon="-0.347834000">
  <ele>246.800000</ele>
  <time>2011-10-22T10:06:42Z</time>
</trkpt>
<trkpt lat="39.685058000" lon="-0.347770000">
  <ele>245.300000</ele>
  <time>2011-10-22T10:06:45Z</time>
</trkpt>
<trkpt lat="39.685100000" lon="-0.347716000">
  <ele>244.300000</ele>
  <time>2011-10-22T10:06:45Z</time>
</trkpt>
<trkpt lat="39.685230000" lon="-0.347608000">
  <ele>242.100000</ele>
  <time>2011-10-22T10:06:48Z</time>
</trkpt>
<trkpt lat="39.685276000" lon="-0.347562000">
  <ele>241.100000</ele>
  <time>2011-10-22T10:06:48Z</time>
</trkpt>
<trkpt lat="39.685350000" lon="-0.347494000">
  <ele>239.300000</ele>
  <time>2011-10-22T10:06:51Z</time>
</trkpt>
<trkpt lat="39.685398000" lon="-0.347473000">
  <ele>238.300000</ele>
  <time>2011-10-22T10:06:52Z</time>
</trkpt>
<trkpt lat="39.685443000" lon="-0.347457000">
  <ele>237.800000</ele>
  <time>2011-10-22T10:06:53Z</time>
</trkpt>
<trkpt lat="39.685489000" lon="-0.347456000">
  <ele>237.100000</ele>
  <time>2011-10-22T10:06:54Z</time>
</trkpt>
<trkpt lat="39.685532000" lon="-0.347474000">
  <ele>236.300000</ele>
  <time>2011-10-22T10:06:55Z</time>
</trkpt>
<trkpt lat="39.685706000" lon="-0.347532000">
  <ele>233.300000</ele>
  <time>2011-10-22T10:06:58Z</time>
</trkpt>
<trkpt lat="39.685750000" lon="-0.347528000">
  <ele>233.100000</ele>
  <time>2011-10-22T10:07:00Z</time>
</trkpt>
<trkpt lat="39.685823000" lon="-0.347489000">
  <ele>231.600000</ele>
  <time>2011-10-22T10:07:01Z</time>
</trkpt>
<trkpt lat="39.685868000" lon="-0.347458000">
  <ele>231.100000</ele>
  <time>2011-10-22T10:07:03Z</time>
</trkpt>
<trkpt lat="39.685878000" lon="-0.347420000">
  <ele>231.100000</ele>
  <time>2011-10-22T10:07:04Z</time>
</trkpt>
<trkpt lat="39.685874000" lon="-0.347380000">
  <ele>230.600000</ele>
  <time>2011-10-22T10:07:04Z</time>
</trkpt>
<trkpt lat="39.685856000" lon="-0.347345000">
  <ele>230.300000</ele>
  <time>2011-10-22T10:07:06Z</time>
</trkpt>
<trkpt lat="39.685786000" lon="-0.347195000">
  <ele>230.000000</ele>
  <time>2011-10-22T10:07:09Z</time>
</trkpt>
<trkpt lat="39.685770000" lon="-0.347133000">
  <ele>229.500000</ele>
  <time>2011-10-22T10:07:10Z</time>
</trkpt>
<trkpt lat="39.685707000" lon="-0.346886000">
  <ele>227.800000</ele>
  <time>2011-10-22T10:07:14Z</time>
</trkpt>
<trkpt lat="39.685714000" lon="-0.346803000">
  <ele>227.100000</ele>
  <time>2011-10-22T10:07:14Z</time>
</trkpt>
<trkpt lat="39.685794000" lon="-0.346655000">
  <ele>226.600000</ele>
  <time>2011-10-22T10:07:17Z</time>
</trkpt>
<trkpt lat="39.685849000" lon="-0.346604000">
  <ele>226.300000</ele>
  <time>2011-10-22T10:07:17Z</time>
</trkpt>
<trkpt lat="39.685928000" lon="-0.346553000">
  <ele>225.800000</ele>
  <time>2011-10-22T10:07:19Z</time>
</trkpt>
<trkpt lat="39.686004000" lon="-0.346504000">
  <ele>225.100000</ele>
  <time>2011-10-22T10:07:20Z</time>
</trkpt>
<trkpt lat="39.686070000" lon="-0.346480000">
  <ele>225.100000</ele>
  <time>2011-10-22T10:07:20Z</time>
</trkpt>
<trkpt lat="39.686468000" lon="-0.346319000">
  <ele>219.800000</ele>
  <time>2011-10-22T10:07:28Z</time>
</trkpt>
<trkpt lat="39.686510000" lon="-0.346300000">
  <ele>218.800000</ele>
  <time>2011-10-22T10:07:28Z</time>
</trkpt>
<trkpt lat="39.686549000" lon="-0.346260000">
  <ele>217.800000</ele>
  <time>2011-10-22T10:07:30Z</time>
</trkpt>
<trkpt lat="39.686602000" lon="-0.346176000">
  <ele>216.000000</ele>
  <time>2011-10-22T10:07:31Z</time>
</trkpt>
<trkpt lat="39.686792000" lon="-0.345921000">
  <ele>210.500000</ele>
  <time>2011-10-22T10:07:36Z</time>
</trkpt>
</trkseg>
</trk>
<trk>
  <name>2011-10-22-01_3735-3985</name>
  <desc>C:\Users\farnau\Documents\My Dropbox\Tracks\2011-10-22-01.gpx</desc>
<trkseg>
<trkpt lat="39.686792000" lon="-0.345921000">
  <ele>210.500000</ele>
  <time>2011-10-22T10:07:36Z</time>
</trkpt>
<trkpt lat="39.687045000" lon="-0.345625000">
  <ele>205.100000</ele>
  <time>2011-10-22T10:07:41Z</time>
</trkpt>
<trkpt lat="39.687096000" lon="-0.345577000">
  <ele>204.300000</ele>
  <time>2011-10-22T10:07:42Z</time>
</trkpt>
<trkpt lat="39.687173000" lon="-0.345548000">
  <ele>204.000000</ele>
  <time>2011-10-22T10:07:44Z</time>
</trkpt>
<trkpt lat="39.687178000" lon="-0.345550000">
  <ele>204.300000</ele>
  <time>2011-10-22T10:07:45Z</time>
</trkpt>
<trkpt lat="39.687176000" lon="-0.345551000">
  <ele>204.100000</ele>
  <time>2011-10-22T10:07:46Z</time>
</trkpt>
<trkpt lat="39.687177000" lon="-0.345553000">
  <ele>204.300000</ele>
  <time>2011-10-22T10:07:47Z</time>
</trkpt>
<trkpt lat="39.687177000" lon="-0.345558000">
  <ele>204.000000</ele>
  <time>2011-10-22T10:07:47Z</time>
</trkpt>
<trkpt lat="39.687176000" lon="-0.345559000">
  <ele>204.100000</ele>
  <time>2011-10-22T10:07:49Z</time>
</trkpt>
<trkpt lat="39.687176000" lon="-0.345557000">
  <ele>204.000000</ele>
  <time>2011-10-22T10:07:49Z</time>
</trkpt>
<trkpt lat="39.687175000" lon="-0.345557000">
  <ele>204.100000</ele>
  <time>2011-10-22T10:07:50Z</time>
</trkpt>
<trkpt lat="39.687176000" lon="-0.345554000">
  <ele>203.800000</ele>
  <time>2011-10-22T10:07:52Z</time>
</trkpt>
<trkpt lat="39.687177000" lon="-0.345550000">
  <ele>203.600000</ele>
  <time>2011-10-22T10:07:52Z</time>
</trkpt>
<trkpt lat="39.687176000" lon="-0.345550000">
  <ele>203.500000</ele>
  <time>2011-10-22T10:07:54Z</time>
</trkpt>
<trkpt lat="39.687177000" lon="-0.345551000">
  <ele>203.500000</ele>
  <time>2011-10-22T10:07:55Z</time>
</trkpt>
<trkpt lat="39.687178000" lon="-0.345551000">
  <ele>203.500000</ele>
  <time>2011-10-22T10:07:55Z</time>
</trkpt>
<trkpt lat="39.687177000" lon="-0.345552000">
  <ele>203.300000</ele>
  <time>2011-10-22T10:08:26Z</time>
</trkpt>
<trkpt lat="39.687174000" lon="-0.345571000">
  <ele>203.500000</ele>
  <time>2011-10-22T10:08:27Z</time>
</trkpt>
<trkpt lat="39.687172000" lon="-0.345580000">
  <ele>203.100000</ele>
  <time>2011-10-22T10:08:27Z</time>
</trkpt>
<trkpt lat="39.687168000" lon="-0.345585000">
  <ele>203.100000</ele>
  <time>2011-10-22T10:08:29Z</time>
</trkpt>
<trkpt lat="39.687169000" lon="-0.345589000">
  <ele>203.100000</ele>
  <time>2011-10-22T10:08:30Z</time>
</trkpt>
<trkpt lat="39.687168000" lon="-0.345589000">
  <ele>203.100000</ele>
  <time>2011-10-22T10:08:30Z</time>
</trkpt>
<trkpt lat="39.687168000" lon="-0.345590000">
  <ele>203.100000</ele>
  <time>2011-10-22T10:08:32Z</time>
</trkpt>
<trkpt lat="39.687167000" lon="-0.345590000">
  <ele>203.100000</ele>
  <time>2011-10-22T10:08:33Z</time>
</trkpt>
<trkpt lat="39.687167000" lon="-0.345589000">
  <ele>203.100000</ele>
  <time>2011-10-22T10:08:33Z</time>
</trkpt>
<trkpt lat="39.687166000" lon="-0.345589000">
  <ele>203.100000</ele>
  <time>2011-10-22T10:08:35Z</time>
</trkpt>
<trkpt lat="39.687166000" lon="-0.345589000">
  <ele>203.100000</ele>
  <time>2011-10-22T10:08:36Z</time>
</trkpt>
<trkpt lat="39.687166000" lon="-0.345589000">
  <ele>203.100000</ele>
  <time>2011-10-22T10:08:37Z</time>
</trkpt>
<trkpt lat="39.687167000" lon="-0.345589000">
  <ele>203.000000</ele>
  <time>2011-10-22T10:08:38Z</time>
</trkpt>
<trkpt lat="39.687164000" lon="-0.345628000">
  <ele>202.000000</ele>
  <time>2011-10-22T10:09:01Z</time>
</trkpt>
<trkpt lat="39.687169000" lon="-0.345660000">
  <ele>201.500000</ele>
  <time>2011-10-22T10:09:02Z</time>
</trkpt>
<trkpt lat="39.687222000" lon="-0.345830000">
  <ele>198.500000</ele>
  <time>2011-10-22T10:09:05Z</time>
</trkpt>
<trkpt lat="39.687230000" lon="-0.345881000">
  <ele>197.100000</ele>
  <time>2011-10-22T10:09:05Z</time>
</trkpt>
<trkpt lat="39.687228000" lon="-0.345930000">
  <ele>196.300000</ele>
  <time>2011-10-22T10:09:07Z</time>
</trkpt>
<trkpt lat="39.687231000" lon="-0.346123000">
  <ele>194.100000</ele>
  <time>2011-10-22T10:09:11Z</time>
</trkpt>
<trkpt lat="39.687252000" lon="-0.346202000">
  <ele>194.000000</ele>
  <time>2011-10-22T10:09:13Z</time>
</trkpt>
<trkpt lat="39.687293000" lon="-0.346226000">
  <ele>194.300000</ele>
  <time>2011-10-22T10:09:13Z</time>
</trkpt>
<trkpt lat="39.687422000" lon="-0.346209000">
  <ele>194.500000</ele>
  <time>2011-10-22T10:09:15Z</time>
</trkpt>
<trkpt lat="39.687467000" lon="-0.346213000">
  <ele>193.800000</ele>
  <time>2011-10-22T10:09:16Z</time>
</trkpt>
<trkpt lat="39.687510000" lon="-0.346223000">
  <ele>193.600000</ele>
  <time>2011-10-22T10:09:18Z</time>
</trkpt>
<trkpt lat="39.687586000" lon="-0.346261000">
  <ele>193.600000</ele>
  <time>2011-10-22T10:09:20Z</time>
</trkpt>
<trkpt lat="39.687617000" lon="-0.346290000">
  <ele>193.300000</ele>
  <time>2011-10-22T10:09:21Z</time>
</trkpt>
<trkpt lat="39.687675000" lon="-0.346384000">
  <ele>193.100000</ele>
  <time>2011-10-22T10:09:23Z</time>
</trkpt>
<trkpt lat="39.687743000" lon="-0.346572000">
  <ele>190.300000</ele>
  <time>2011-10-22T10:09:27Z</time>
</trkpt>
<trkpt lat="39.687741000" lon="-0.346621000">
  <ele>189.300000</ele>
  <time>2011-10-22T10:09:28Z</time>
</trkpt>
<trkpt lat="39.687737000" lon="-0.346658000">
  <ele>188.800000</ele>
  <time>2011-10-22T10:09:29Z</time>
</trkpt>
<trkpt lat="39.687709000" lon="-0.346956000">
  <ele>185.800000</ele>
  <time>2011-10-22T10:09:34Z</time>
</trkpt>
<trkpt lat="39.687712000" lon="-0.347254000">
  <ele>183.300000</ele>
  <time>2011-10-22T10:09:39Z</time>
</trkpt>
<trkpt lat="39.687726000" lon="-0.347326000">
  <ele>182.800000</ele>
  <time>2011-10-22T10:09:40Z</time>
</trkpt>
<trkpt lat="39.687753000" lon="-0.347387000">
  <ele>182.100000</ele>
  <time>2011-10-22T10:09:40Z</time>
</trkpt>
<trkpt lat="39.687785000" lon="-0.347447000">
  <ele>181.300000</ele>
  <time>2011-10-22T10:09:42Z</time>
</trkpt>
<trkpt lat="39.687871000" lon="-0.347563000">
  <ele>180.300000</ele>
  <time>2011-10-22T10:09:44Z</time>
</trkpt>
<trkpt lat="39.688038000" lon="-0.347763000">
  <ele>177.800000</ele>
  <time>2011-10-22T10:09:48Z</time>
</trkpt>
<trkpt lat="39.688215000" lon="-0.347956000">
  <ele>175.300000</ele>
  <time>2011-10-22T10:09:51Z</time>
</trkpt>
<trkpt lat="39.688248000" lon="-0.348020000">
  <ele>174.300000</ele>
  <time>2011-10-22T10:09:53Z</time>
</trkpt>
<trkpt lat="39.688277000" lon="-0.348091000">
  <ele>174.100000</ele>
  <time>2011-10-22T10:09:53Z</time>
</trkpt>
<trkpt lat="39.688304000" lon="-0.348247000">
  <ele>173.300000</ele>
  <time>2011-10-22T10:09:56Z</time>
</trkpt>
<trkpt lat="39.688308000" lon="-0.348349000">
  <ele>172.300000</ele>
  <time>2011-10-22T10:09:56Z</time>
</trkpt>
<trkpt lat="39.688274000" lon="-0.348438000">
  <ele>170.800000</ele>
  <time>2011-10-22T10:09:58Z</time>
</trkpt>
<trkpt lat="39.688213000" lon="-0.348712000">
  <ele>166.500000</ele>
  <time>2011-10-22T10:10:02Z</time>
</trkpt>
<trkpt lat="39.688221000" lon="-0.348761000">
  <ele>165.800000</ele>
  <time>2011-10-22T10:10:03Z</time>
</trkpt>
<trkpt lat="39.688255000" lon="-0.348865000">
  <ele>165.300000</ele>
  <time>2011-10-22T10:10:04Z</time>
</trkpt>
<trkpt lat="39.688285000" lon="-0.348921000">
  <ele>165.100000</ele>
  <time>2011-10-22T10:10:06Z</time>
</trkpt>
<trkpt lat="39.688362000" lon="-0.349061000">
  <ele>162.100000</ele>
  <time>2011-10-22T10:10:07Z</time>
</trkpt>
<trkpt lat="39.688384000" lon="-0.349145000">
  <ele>161.800000</ele>
  <time>2011-10-22T10:10:09Z</time>
</trkpt>
<trkpt lat="39.688471000" lon="-0.349454000">
  <ele>160.500000</ele>
  <time>2011-10-22T10:10:12Z</time>
</trkpt>
<trkpt lat="39.688584000" lon="-0.349896000">
  <ele>158.300000</ele>
  <time>2011-10-22T10:10:18Z</time>
</trkpt>
<trkpt lat="39.688614000" lon="-0.350095000">
  <ele>158.500000</ele>
  <time>2011-10-22T10:10:20Z</time>
</trkpt>
<trkpt lat="39.688610000" lon="-0.350264000">
  <ele>158.100000</ele>
  <time>2011-10-22T10:10:22Z</time>
</trkpt>
<trkpt lat="39.688575000" lon="-0.350624000">
  <ele>155.800000</ele>
  <time>2011-10-22T10:10:25Z</time>
</trkpt>
<trkpt lat="39.688509000" lon="-0.351190000">
  <ele>156.300000</ele>
  <time>2011-10-22T10:10:34Z</time>
</trkpt>
<trkpt lat="39.688547000" lon="-0.351217000">
  <ele>156.800000</ele>
  <time>2011-10-22T10:10:36Z</time>
</trkpt>
<trkpt lat="39.688563000" lon="-0.351247000">
  <ele>157.100000</ele>
  <time>2011-10-22T10:10:37Z</time>
</trkpt>
<trkpt lat="39.688586000" lon="-0.351274000">
  <ele>157.800000</ele>
  <time>2011-10-22T10:10:38Z</time>
</trkpt>
<trkpt lat="39.688649000" lon="-0.351374000">
  <ele>158.600000</ele>
  <time>2011-10-22T10:10:39Z</time>
</trkpt>
<trkpt lat="39.688845000" lon="-0.351693000">
  <ele>159.000000</ele>
  <time>2011-10-22T10:10:46Z</time>
</trkpt>
<trkpt lat="39.688881000" lon="-0.351730000">
  <ele>159.000000</ele>
  <time>2011-10-22T10:10:47Z</time>
</trkpt>
<trkpt lat="39.688937000" lon="-0.351751000">
  <ele>159.000000</ele>
  <time>2011-10-22T10:10:47Z</time>
</trkpt>
<trkpt lat="39.689045000" lon="-0.351744000">
  <ele>158.800000</ele>
  <time>2011-10-22T10:10:50Z</time>
</trkpt>
<trkpt lat="39.689082000" lon="-0.351746000">
  <ele>158.100000</ele>
  <time>2011-10-22T10:10:50Z</time>
</trkpt>
<trkpt lat="39.689166000" lon="-0.351750000">
  <ele>157.100000</ele>
  <time>2011-10-22T10:10:53Z</time>
</trkpt>
<trkpt lat="39.689294000" lon="-0.351760000">
  <ele>156.100000</ele>
  <time>2011-10-22T10:10:56Z</time>
</trkpt>
<trkpt lat="39.689325000" lon="-0.351766000">
  <ele>155.800000</ele>
  <time>2011-10-22T10:10:57Z</time>
</trkpt>
<trkpt lat="39.689345000" lon="-0.351777000">
  <ele>155.800000</ele>
  <time>2011-10-22T10:10:58Z</time>
</trkpt>
<trkpt lat="39.689378000" lon="-0.351784000">
  <ele>155.800000</ele>
  <time>2011-10-22T10:10:58Z</time>
</trkpt>
<trkpt lat="39.689405000" lon="-0.351806000">
  <ele>155.800000</ele>
  <time>2011-10-22T10:11:00Z</time>
</trkpt>
<trkpt lat="39.689424000" lon="-0.351808000">
  <ele>155.600000</ele>
  <time>2011-10-22T10:11:00Z</time>
</trkpt>
<trkpt lat="39.689448000" lon="-0.351826000">
  <ele>155.600000</ele>
  <time>2011-10-22T10:11:02Z</time>
</trkpt>
<trkpt lat="39.689511000" lon="-0.351832000">
  <ele>155.100000</ele>
  <time>2011-10-22T10:11:03Z</time>
</trkpt>
<trkpt lat="39.689548000" lon="-0.351843000">
  <ele>154.800000</ele>
  <time>2011-10-22T10:11:03Z</time>
</trkpt>
<trkpt lat="39.689579000" lon="-0.351843000">
  <ele>154.300000</ele>
  <time>2011-10-22T10:11:05Z</time>
</trkpt>
<trkpt lat="39.689608000" lon="-0.351834000">
  <ele>154.000000</ele>
  <time>2011-10-22T10:11:06Z</time>
</trkpt>
<trkpt lat="39.689772000" lon="-0.351678000">
  <ele>154.300000</ele>
  <time>2011-10-22T10:11:16Z</time>
</trkpt>
<trkpt lat="39.689789000" lon="-0.351665000">
  <ele>154.100000</ele>
  <time>2011-10-22T10:11:16Z</time>
</trkpt>
<trkpt lat="39.689841000" lon="-0.351608000">
  <ele>153.800000</ele>
  <time>2011-10-22T10:11:19Z</time>
</trkpt>
<trkpt lat="39.689853000" lon="-0.351557000">
  <ele>153.300000</ele>
  <time>2011-10-22T10:11:22Z</time>
</trkpt>
<trkpt lat="39.689870000" lon="-0.351542000">
  <ele>152.800000</ele>
  <time>2011-10-22T10:11:22Z</time>
</trkpt>
<trkpt lat="39.689887000" lon="-0.351527000">
  <ele>153.000000</ele>
  <time>2011-10-22T10:11:24Z</time>
</trkpt>
<trkpt lat="39.689917000" lon="-0.351501000">
  <ele>154.100000</ele>
  <time>2011-10-22T10:11:25Z</time>
</trkpt>
<trkpt lat="39.690010000" lon="-0.351408000">
  <ele>151.100000</ele>
  <time>2011-10-22T10:11:33Z</time>
</trkpt>
<trkpt lat="39.690033000" lon="-0.351370000">
  <ele>151.000000</ele>
  <time>2011-10-22T10:11:35Z</time>
</trkpt>
<trkpt lat="39.690052000" lon="-0.351311000">
  <ele>150.500000</ele>
  <time>2011-10-22T10:11:38Z</time>
</trkpt>
<trkpt lat="39.690060000" lon="-0.351217000">
  <ele>150.000000</ele>
  <time>2011-10-22T10:11:44Z</time>
</trkpt>
<trkpt lat="39.690069000" lon="-0.351197000">
  <ele>150.100000</ele>
  <time>2011-10-22T10:11:45Z</time>
</trkpt>
<trkpt lat="39.690083000" lon="-0.351172000">
  <ele>150.100000</ele>
  <time>2011-10-22T10:11:46Z</time>
</trkpt>
<trkpt lat="39.690090000" lon="-0.351142000">
  <ele>149.800000</ele>
  <time>2011-10-22T10:11:47Z</time>
</trkpt>
<trkpt lat="39.690108000" lon="-0.351107000">
  <ele>150.100000</ele>
  <time>2011-10-22T10:11:48Z</time>
</trkpt>
<trkpt lat="39.690177000" lon="-0.350998000">
  <ele>151.000000</ele>
  <time>2011-10-22T10:11:51Z</time>
</trkpt>
<trkpt lat="39.690208000" lon="-0.350961000">
  <ele>150.800000</ele>
  <time>2011-10-22T10:11:54Z</time>
</trkpt>
<trkpt lat="39.690231000" lon="-0.350952000">
  <ele>152.600000</ele>
  <time>2011-10-22T10:11:54Z</time>
</trkpt>
<trkpt lat="39.690249000" lon="-0.350943000">
  <ele>154.100000</ele>
  <time>2011-10-22T10:11:56Z</time>
</trkpt>
<trkpt lat="39.690306000" lon="-0.350902000">
  <ele>154.800000</ele>
  <time>2011-10-22T10:11:59Z</time>
</trkpt>
<trkpt lat="39.690350000" lon="-0.350839000">
  <ele>154.100000</ele>
  <time>2011-10-22T10:12:03Z</time>
</trkpt>
<trkpt lat="39.690468000" lon="-0.350651000">
  <ele>149.600000</ele>
  <time>2011-10-22T10:12:19Z</time>
</trkpt>
<trkpt lat="39.690471000" lon="-0.350636000">
  <ele>149.500000</ele>
  <time>2011-10-22T10:12:20Z</time>
</trkpt>
<trkpt lat="39.690483000" lon="-0.350616000">
  <ele>149.300000</ele>
  <time>2011-10-22T10:12:21Z</time>
</trkpt>
<trkpt lat="39.690492000" lon="-0.350591000">
  <ele>148.600000</ele>
  <time>2011-10-22T10:12:22Z</time>
</trkpt>
<trkpt lat="39.690515000" lon="-0.350566000">
  <ele>148.500000</ele>
  <time>2011-10-22T10:12:23Z</time>
</trkpt>
<trkpt lat="39.690559000" lon="-0.350553000">
  <ele>148.100000</ele>
  <time>2011-10-22T10:12:24Z</time>
</trkpt>
<trkpt lat="39.690722000" lon="-0.350497000">
  <ele>149.500000</ele>
  <time>2011-10-22T10:12:29Z</time>
</trkpt>
<trkpt lat="39.690763000" lon="-0.350466000">
  <ele>150.300000</ele>
  <time>2011-10-22T10:12:31Z</time>
</trkpt>
<trkpt lat="39.691054000" lon="-0.350210000">
  <ele>149.300000</ele>
  <time>2011-10-22T10:12:45Z</time>
</trkpt>
<trkpt lat="39.691092000" lon="-0.350198000">
  <ele>149.300000</ele>
  <time>2011-10-22T10:12:45Z</time>
</trkpt>
<trkpt lat="39.691233000" lon="-0.350142000">
  <ele>147.300000</ele>
  <time>2011-10-22T10:12:51Z</time>
</trkpt>
<trkpt lat="39.691253000" lon="-0.350134000">
  <ele>147.000000</ele>
  <time>2011-10-22T10:12:51Z</time>
</trkpt>
<trkpt lat="39.691297000" lon="-0.350124000">
  <ele>146.100000</ele>
  <time>2011-10-22T10:12:54Z</time>
</trkpt>
<trkpt lat="39.691387000" lon="-0.350079000">
  <ele>145.000000</ele>
  <time>2011-10-22T10:12:57Z</time>
</trkpt>
<trkpt lat="39.691410000" lon="-0.350063000">
  <ele>144.100000</ele>
  <time>2011-10-22T10:12:58Z</time>
</trkpt>
<trkpt lat="39.691434000" lon="-0.350042000">
  <ele>143.100000</ele>
  <time>2011-10-22T10:12:59Z</time>
</trkpt>
<trkpt lat="39.691480000" lon="-0.350018000">
  <ele>142.600000</ele>
  <time>2011-10-22T10:13:01Z</time>
</trkpt>
<trkpt lat="39.691499000" lon="-0.350016000">
  <ele>142.300000</ele>
  <time>2011-10-22T10:13:01Z</time>
</trkpt>
<trkpt lat="39.691502000" lon="-0.350017000">
  <ele>142.600000</ele>
  <time>2011-10-22T10:13:03Z</time>
</trkpt>
<trkpt lat="39.691503000" lon="-0.350017000">
  <ele>142.600000</ele>
  <time>2011-10-22T10:13:04Z</time>
</trkpt>
<trkpt lat="39.691499000" lon="-0.350013000">
  <ele>142.100000</ele>
  <time>2011-10-22T10:13:26Z</time>
</trkpt>
<trkpt lat="39.691502000" lon="-0.350035000">
  <ele>144.500000</ele>
  <time>2011-10-22T10:13:28Z</time>
</trkpt>
<trkpt lat="39.691514000" lon="-0.350026000">
  <ele>144.600000</ele>
  <time>2011-10-22T10:13:29Z</time>
</trkpt>
<trkpt lat="39.691568000" lon="-0.349975000">
  <ele>145.600000</ele>
  <time>2011-10-22T10:13:33Z</time>
</trkpt>
<trkpt lat="39.691591000" lon="-0.349945000">
  <ele>145.600000</ele>
  <time>2011-10-22T10:13:34Z</time>
</trkpt>
<trkpt lat="39.691661000" lon="-0.349835000">
  <ele>144.800000</ele>
  <time>2011-10-22T10:13:38Z</time>
</trkpt>
<trkpt lat="39.691743000" lon="-0.349718000">
  <ele>142.800000</ele>
  <time>2011-10-22T10:13:42Z</time>
</trkpt>
<trkpt lat="39.691770000" lon="-0.349694000">
  <ele>142.800000</ele>
  <time>2011-10-22T10:13:42Z</time>
</trkpt>
<trkpt lat="39.691830000" lon="-0.349658000">
  <ele>143.300000</ele>
  <time>2011-10-22T10:13:45Z</time>
</trkpt>
<trkpt lat="39.691988000" lon="-0.349595000">
  <ele>144.100000</ele>
  <time>2011-10-22T10:13:49Z</time>
</trkpt>
<trkpt lat="39.692360000" lon="-0.349500000">
  <ele>143.800000</ele>
  <time>2011-10-22T10:13:55Z</time>
</trkpt>
<trkpt lat="39.692472000" lon="-0.349423000">
  <ele>140.100000</ele>
  <time>2011-10-22T10:13:58Z</time>
</trkpt>
<trkpt lat="39.692515000" lon="-0.349377000">
  <ele>139.500000</ele>
  <time>2011-10-22T10:13:58Z</time>
</trkpt>
<trkpt lat="39.692542000" lon="-0.349328000">
  <ele>139.500000</ele>
  <time>2011-10-22T10:14:00Z</time>
</trkpt>
<trkpt lat="39.692583000" lon="-0.349204000">
  <ele>136.800000</ele>
  <time>2011-10-22T10:14:03Z</time>
</trkpt>
<trkpt lat="39.692609000" lon="-0.349172000">
  <ele>137.000000</ele>
  <time>2011-10-22T10:14:04Z</time>
</trkpt>
<trkpt lat="39.692635000" lon="-0.349155000">
  <ele>137.100000</ele>
  <time>2011-10-22T10:14:05Z</time>
</trkpt>
<trkpt lat="39.692664000" lon="-0.349146000">
  <ele>137.300000</ele>
  <time>2011-10-22T10:14:06Z</time>
</trkpt>
<trkpt lat="39.692692000" lon="-0.349149000">
  <ele>136.600000</ele>
  <time>2011-10-22T10:14:06Z</time>
</trkpt>
<trkpt lat="39.692725000" lon="-0.349162000">
  <ele>136.100000</ele>
  <time>2011-10-22T10:14:08Z</time>
</trkpt>
<trkpt lat="39.692914000" lon="-0.349272000">
  <ele>137.300000</ele>
  <time>2011-10-22T10:14:13Z</time>
</trkpt>
<trkpt lat="39.692935000" lon="-0.349299000">
  <ele>137.300000</ele>
  <time>2011-10-22T10:14:14Z</time>
</trkpt>
<trkpt lat="39.692953000" lon="-0.349320000">
  <ele>136.600000</ele>
  <time>2011-10-22T10:14:14Z</time>
</trkpt>
<trkpt lat="39.692973000" lon="-0.349334000">
  <ele>137.100000</ele>
  <time>2011-10-22T10:14:16Z</time>
</trkpt>
<trkpt lat="39.693053000" lon="-0.349374000">
  <ele>136.800000</ele>
  <time>2011-10-22T10:14:17Z</time>
</trkpt>
<trkpt lat="39.693315000" lon="-0.349525000">
  <ele>133.800000</ele>
  <time>2011-10-22T10:14:25Z</time>
</trkpt>
<trkpt lat="39.693317000" lon="-0.349516000">
  <ele>132.300000</ele>
  <time>2011-10-22T10:14:25Z</time>
</trkpt>
<trkpt lat="39.693329000" lon="-0.349507000">
  <ele>132.300000</ele>
  <time>2011-10-22T10:14:27Z</time>
</trkpt>
<trkpt lat="39.693342000" lon="-0.349488000">
  <ele>131.800000</ele>
  <time>2011-10-22T10:14:27Z</time>
</trkpt>
<trkpt lat="39.693353000" lon="-0.349466000">
  <ele>130.800000</ele>
  <time>2011-10-22T10:14:28Z</time>
</trkpt>
<trkpt lat="39.693356000" lon="-0.349445000">
  <ele>129.800000</ele>
  <time>2011-10-22T10:14:30Z</time>
</trkpt>
<trkpt lat="39.693365000" lon="-0.349423000">
  <ele>128.800000</ele>
  <time>2011-10-22T10:14:30Z</time>
</trkpt>
<trkpt lat="39.693386000" lon="-0.349388000">
  <ele>126.500000</ele>
  <time>2011-10-22T10:14:33Z</time>
</trkpt>
<trkpt lat="39.693392000" lon="-0.349358000">
  <ele>125.500000</ele>
  <time>2011-10-22T10:14:33Z</time>
</trkpt>
<trkpt lat="39.693398000" lon="-0.349298000">
  <ele>124.300000</ele>
  <time>2011-10-22T10:14:36Z</time>
</trkpt>
<trkpt lat="39.693395000" lon="-0.349262000">
  <ele>124.500000</ele>
  <time>2011-10-22T10:14:36Z</time>
</trkpt>
<trkpt lat="39.693386000" lon="-0.349193000">
  <ele>124.500000</ele>
  <time>2011-10-22T10:14:39Z</time>
</trkpt>
<trkpt lat="39.693375000" lon="-0.349158000">
  <ele>124.300000</ele>
  <time>2011-10-22T10:14:40Z</time>
</trkpt>
<trkpt lat="39.693360000" lon="-0.349129000">
  <ele>124.100000</ele>
  <time>2011-10-22T10:14:41Z</time>
</trkpt>
<trkpt lat="39.693340000" lon="-0.349069000">
  <ele>124.000000</ele>
  <time>2011-10-22T10:14:43Z</time>
</trkpt>
<trkpt lat="39.693338000" lon="-0.349002000">
  <ele>123.100000</ele>
  <time>2011-10-22T10:14:44Z</time>
</trkpt>
<trkpt lat="39.693332000" lon="-0.348971000">
  <ele>123.000000</ele>
  <time>2011-10-22T10:14:46Z</time>
</trkpt>
<trkpt lat="39.693329000" lon="-0.348863000">
  <ele>121.500000</ele>
  <time>2011-10-22T10:14:49Z</time>
</trkpt>
<trkpt lat="39.693329000" lon="-0.348811000">
  <ele>120.100000</ele>
  <time>2011-10-22T10:14:52Z</time>
</trkpt>
<trkpt lat="39.693322000" lon="-0.348783000">
  <ele>120.000000</ele>
  <time>2011-10-22T10:14:52Z</time>
</trkpt>
<trkpt lat="39.693299000" lon="-0.348617000">
  <ele>118.500000</ele>
  <time>2011-10-22T10:14:59Z</time>
</trkpt>
<trkpt lat="39.693273000" lon="-0.348464000">
  <ele>116.900000</ele>
  <time>2011-10-22T10:15:05Z</time>
</trkpt>
<trkpt lat="39.693260000" lon="-0.348440000">
  <ele>116.900000</ele>
  <time>2011-10-22T10:15:05Z</time>
</trkpt>
<trkpt lat="39.693252000" lon="-0.348415000">
  <ele>117.100000</ele>
  <time>2011-10-22T10:15:07Z</time>
</trkpt>
<trkpt lat="39.693196000" lon="-0.348191000">
  <ele>116.500000</ele>
  <time>2011-10-22T10:15:14Z</time>
</trkpt>
<trkpt lat="39.693151000" lon="-0.348052000">
  <ele>116.000000</ele>
  <time>2011-10-22T10:15:18Z</time>
</trkpt>
<trkpt lat="39.693130000" lon="-0.348001000">
  <ele>116.000000</ele>
  <time>2011-10-22T10:15:21Z</time>
</trkpt>
<trkpt lat="39.693114000" lon="-0.347977000">
  <ele>116.500000</ele>
  <time>2011-10-22T10:15:21Z</time>
</trkpt>
<trkpt lat="39.693100000" lon="-0.347960000">
  <ele>116.500000</ele>
  <time>2011-10-22T10:15:23Z</time>
</trkpt>
<trkpt lat="39.693049000" lon="-0.347892000">
  <ele>116.300000</ele>
  <time>2011-10-22T10:15:27Z</time>
</trkpt>
<trkpt lat="39.693033000" lon="-0.347885000">
  <ele>115.900000</ele>
  <time>2011-10-22T10:15:27Z</time>
</trkpt>
<trkpt lat="39.693021000" lon="-0.347874000">
  <ele>116.300000</ele>
  <time>2011-10-22T10:15:43Z</time>
</trkpt>
<trkpt lat="39.693011000" lon="-0.347855000">
  <ele>117.000000</ele>
  <time>2011-10-22T10:15:43Z</time>
</trkpt>
<trkpt lat="39.692999000" lon="-0.347836000">
  <ele>117.100000</ele>
  <time>2011-10-22T10:15:45Z</time>
</trkpt>
<trkpt lat="39.692956000" lon="-0.347791000">
  <ele>117.800000</ele>
  <time>2011-10-22T10:15:48Z</time>
</trkpt>
<trkpt lat="39.692941000" lon="-0.347766000">
  <ele>117.800000</ele>
  <time>2011-10-22T10:15:49Z</time>
</trkpt>
<trkpt lat="39.692774000" lon="-0.347488000">
  <ele>115.300000</ele>
  <time>2011-10-22T10:15:58Z</time>
</trkpt>
<trkpt lat="39.692765000" lon="-0.347448000">
  <ele>115.500000</ele>
  <time>2011-10-22T10:15:59Z</time>
</trkpt>
<trkpt lat="39.692748000" lon="-0.347424000">
  <ele>115.000000</ele>
  <time>2011-10-22T10:15:59Z</time>
</trkpt>
<trkpt lat="39.692671000" lon="-0.347226000">
  <ele>115.600000</ele>
  <time>2011-10-22T10:16:06Z</time>
</trkpt>
<trkpt lat="39.692661000" lon="-0.347185000">
  <ele>115.500000</ele>
  <time>2011-10-22T10:16:07Z</time>
</trkpt>
<trkpt lat="39.692647000" lon="-0.347110000">
  <ele>114.800000</ele>
  <time>2011-10-22T10:16:09Z</time>
</trkpt>
<trkpt lat="39.692650000" lon="-0.347063000">
  <ele>114.800000</ele>
  <time>2011-10-22T10:16:10Z</time>
</trkpt>
<trkpt lat="39.692645000" lon="-0.347024000">
  <ele>115.100000</ele>
  <time>2011-10-22T10:16:10Z</time>
</trkpt>
<trkpt lat="39.692640000" lon="-0.346936000">
  <ele>116.000000</ele>
  <time>2011-10-22T10:16:14Z</time>
</trkpt>
<trkpt lat="39.692632000" lon="-0.346757000">
  <ele>120.600000</ele>
  <time>2011-10-22T10:16:22Z</time>
</trkpt>
<trkpt lat="39.692629000" lon="-0.346744000">
  <ele>121.000000</ele>
  <time>2011-10-22T10:16:23Z</time>
</trkpt>
<trkpt lat="39.692612000" lon="-0.346770000">
  <ele>120.500000</ele>
  <time>2011-10-22T10:16:25Z</time>
</trkpt>
<trkpt lat="39.692611000" lon="-0.346789000">
  <ele>120.400000</ele>
  <time>2011-10-22T10:16:26Z</time>
</trkpt>
<trkpt lat="39.692609000" lon="-0.346801000">
  <ele>120.400000</ele>
  <time>2011-10-22T10:16:26Z</time>
</trkpt>
<trkpt lat="39.692622000" lon="-0.346835000">
  <ele>120.300000</ele>
  <time>2011-10-22T10:16:28Z</time>
</trkpt>
<trkpt lat="39.692629000" lon="-0.346855000">
  <ele>120.000000</ele>
  <time>2011-10-22T10:16:29Z</time>
</trkpt>
<trkpt lat="39.692630000" lon="-0.346882000">
  <ele>119.900000</ele>
  <time>2011-10-22T10:16:31Z</time>
</trkpt>
<trkpt lat="39.692623000" lon="-0.346943000">
  <ele>120.500000</ele>
  <time>2011-10-22T10:16:31Z</time>
</trkpt>
<trkpt lat="39.692620000" lon="-0.347066000">
  <ele>120.100000</ele>
  <time>2011-10-22T10:16:34Z</time>
</trkpt>
<trkpt lat="39.692629000" lon="-0.347128000">
  <ele>119.500000</ele>
  <time>2011-10-22T10:16:34Z</time>
</trkpt>
<trkpt lat="39.692659000" lon="-0.347204000">
  <ele>118.800000</ele>
  <time>2011-10-22T10:16:36Z</time>
</trkpt>
<trkpt lat="39.692691000" lon="-0.347302000">
  <ele>118.300000</ele>
  <time>2011-10-22T10:16:37Z</time>
</trkpt>
<trkpt lat="39.692721000" lon="-0.347367000">
  <ele>117.400000</ele>
  <time>2011-10-22T10:16:44Z</time>
</trkpt>
<trkpt lat="39.692719000" lon="-0.347353000">
  <ele>117.600000</ele>
  <time>2011-10-22T10:16:44Z</time>
</trkpt>
<trkpt lat="39.692717000" lon="-0.347353000">
  <ele>117.600000</ele>
  <time>2011-10-22T10:16:45Z</time>
</trkpt>
<trkpt lat="39.692717000" lon="-0.347353000">
  <ele>117.600000</ele>
  <time>2011-10-22T10:16:47Z</time>
</trkpt>
<trkpt lat="39.692709000" lon="-0.347336000">
  <ele>116.900000</ele>
  <time>2011-10-22T10:16:47Z</time>
</trkpt>
<trkpt lat="39.692707000" lon="-0.347337000">
  <ele>116.900000</ele>
  <time>2011-10-22T10:16:49Z</time>
</trkpt>
<trkpt lat="39.692703000" lon="-0.347337000">
  <ele>116.500000</ele>
  <time>2011-10-22T10:16:50Z</time>
</trkpt>
<trkpt lat="39.692704000" lon="-0.347340000">
  <ele>116.300000</ele>
  <time>2011-10-22T10:16:50Z</time>
</trkpt>
<trkpt lat="39.692704000" lon="-0.347341000">
  <ele>116.000000</ele>
  <time>2011-10-22T10:16:52Z</time>
</trkpt>
<trkpt lat="39.692706000" lon="-0.347344000">
  <ele>115.600000</ele>
  <time>2011-10-22T10:16:53Z</time>
</trkpt>
<trkpt lat="39.692707000" lon="-0.347344000">
  <ele>115.500000</ele>
  <time>2011-10-22T10:16:53Z</time>
</trkpt>
<trkpt lat="39.692708000" lon="-0.347359000">
  <ele>116.100000</ele>
  <time>2011-10-22T10:17:54Z</time>
</trkpt>
<trkpt lat="39.692709000" lon="-0.347345000">
  <ele>116.400000</ele>
  <time>2011-10-22T10:17:55Z</time>
</trkpt>
<trkpt lat="39.692709000" lon="-0.347328000">
  <ele>116.800000</ele>
  <time>2011-10-22T10:17:57Z</time>
</trkpt>
<trkpt lat="39.692706000" lon="-0.347309000">
  <ele>116.500000</ele>
  <time>2011-10-22T10:17:57Z</time>
</trkpt>
<trkpt lat="39.692691000" lon="-0.347266000">
  <ele>116.500000</ele>
  <time>2011-10-22T10:18:00Z</time>
</trkpt>
<trkpt lat="39.692727000" lon="-0.347243000">
  <ele>116.900000</ele>
  <time>2011-10-22T10:18:00Z</time>
</trkpt>
<trkpt lat="39.692739000" lon="-0.347223000">
  <ele>116.300000</ele>
  <time>2011-10-22T10:18:02Z</time>
</trkpt>
<trkpt lat="39.692756000" lon="-0.347177000">
  <ele>115.000000</ele>
  <time>2011-10-22T10:18:03Z</time>
</trkpt>
<trkpt lat="39.692743000" lon="-0.347147000">
  <ele>115.100000</ele>
  <time>2011-10-22T10:18:05Z</time>
</trkpt>
<trkpt lat="39.692741000" lon="-0.347118000">
  <ele>114.600000</ele>
  <time>2011-10-22T10:18:06Z</time>
</trkpt>
<trkpt lat="39.692745000" lon="-0.347087000">
  <ele>113.800000</ele>
  <time>2011-10-22T10:18:07Z</time>
</trkpt>
<trkpt lat="39.692743000" lon="-0.347038000">
  <ele>113.600000</ele>
  <time>2011-10-22T10:18:09Z</time>
</trkpt>
<trkpt lat="39.692746000" lon="-0.346923000">
  <ele>115.000000</ele>
  <time>2011-10-22T10:18:13Z</time>
</trkpt>
<trkpt lat="39.692751000" lon="-0.346896000">
  <ele>114.500000</ele>
  <time>2011-10-22T10:18:13Z</time>
</trkpt>
<trkpt lat="39.692760000" lon="-0.346840000">
  <ele>114.100000</ele>
  <time>2011-10-22T10:18:16Z</time>
</trkpt>
<trkpt lat="39.692764000" lon="-0.346815000">
  <ele>114.100000</ele>
  <time>2011-10-22T10:18:16Z</time>
</trkpt>
<trkpt lat="39.692762000" lon="-0.346791000">
  <ele>114.000000</ele>
  <time>2011-10-22T10:18:18Z</time>
</trkpt>
<trkpt lat="39.692754000" lon="-0.346699000">
  <ele>115.100000</ele>
  <time>2011-10-22T10:18:45Z</time>
</trkpt>
<trkpt lat="39.692748000" lon="-0.346684000">
  <ele>115.100000</ele>
  <time>2011-10-22T10:18:46Z</time>
</trkpt>
<trkpt lat="39.692765000" lon="-0.346679000">
  <ele>113.300000</ele>
  <time>2011-10-22T10:18:46Z</time>
</trkpt>
<trkpt lat="39.692774000" lon="-0.346655000">
  <ele>114.800000</ele>
  <time>2011-10-22T10:18:48Z</time>
</trkpt>
<trkpt lat="39.692780000" lon="-0.346638000">
  <ele>114.900000</ele>
  <time>2011-10-22T10:18:48Z</time>
</trkpt>
<trkpt lat="39.692769000" lon="-0.346615000">
  <ele>115.800000</ele>
  <time>2011-10-22T10:18:50Z</time>
</trkpt>
</trkseg>
</trk>
<trk>
  <name>2011-10-22-01_3984-4234</name>
  <desc>C:\Users\farnau\Documents\My Dropbox\Tracks\2011-10-22-01.gpx</desc>
<trkseg>
<trkpt lat="39.692769000" lon="-0.346615000">
  <ele>115.800000</ele>
  <time>2011-10-22T10:18:50Z</time>
</trkpt>
<trkpt lat="39.692757000" lon="-0.346584000">
  <ele>115.100000</ele>
  <time>2011-10-22T10:18:51Z</time>
</trkpt>
<trkpt lat="39.692750000" lon="-0.346552000">
  <ele>115.100000</ele>
  <time>2011-10-22T10:18:51Z</time>
</trkpt>
<trkpt lat="39.692734000" lon="-0.346390000">
  <ele>116.000000</ele>
  <time>2011-10-22T10:18:57Z</time>
</trkpt>
<trkpt lat="39.692744000" lon="-0.346352000">
  <ele>116.500000</ele>
  <time>2011-10-22T10:18:58Z</time>
</trkpt>
<trkpt lat="39.692750000" lon="-0.346284000">
  <ele>116.100000</ele>
  <time>2011-10-22T10:19:00Z</time>
</trkpt>
<trkpt lat="39.692761000" lon="-0.346255000">
  <ele>116.300000</ele>
  <time>2011-10-22T10:19:01Z</time>
</trkpt>
<trkpt lat="39.692781000" lon="-0.346151000">
  <ele>115.600000</ele>
  <time>2011-10-22T10:19:04Z</time>
</trkpt>
<trkpt lat="39.692792000" lon="-0.346130000">
  <ele>114.800000</ele>
  <time>2011-10-22T10:19:05Z</time>
</trkpt>
<trkpt lat="39.692824000" lon="-0.346040000">
  <ele>113.600000</ele>
  <time>2011-10-22T10:19:09Z</time>
</trkpt>
<trkpt lat="39.692820000" lon="-0.345992000">
  <ele>113.900000</ele>
  <time>2011-10-22T10:19:10Z</time>
</trkpt>
<trkpt lat="39.692822000" lon="-0.345704000">
  <ele>113.300000</ele>
  <time>2011-10-22T10:19:18Z</time>
</trkpt>
<trkpt lat="39.692831000" lon="-0.345650000">
  <ele>115.100000</ele>
  <time>2011-10-22T10:19:20Z</time>
</trkpt>
<trkpt lat="39.692858000" lon="-0.345424000">
  <ele>118.400000</ele>
  <time>2011-10-22T10:19:28Z</time>
</trkpt>
<trkpt lat="39.692853000" lon="-0.345385000">
  <ele>118.900000</ele>
  <time>2011-10-22T10:19:29Z</time>
</trkpt>
<trkpt lat="39.692841000" lon="-0.345311000">
  <ele>118.000000</ele>
  <time>2011-10-22T10:19:31Z</time>
</trkpt>
<trkpt lat="39.692828000" lon="-0.344999000">
  <ele>119.500000</ele>
  <time>2011-10-22T10:19:41Z</time>
</trkpt>
<trkpt lat="39.692837000" lon="-0.344984000">
  <ele>119.500000</ele>
  <time>2011-10-22T10:19:42Z</time>
</trkpt>
<trkpt lat="39.692856000" lon="-0.344956000">
  <ele>120.000000</ele>
  <time>2011-10-22T10:19:42Z</time>
</trkpt>
<trkpt lat="39.692865000" lon="-0.344933000">
  <ele>120.000000</ele>
  <time>2011-10-22T10:19:44Z</time>
</trkpt>
<trkpt lat="39.692919000" lon="-0.344719000">
  <ele>123.000000</ele>
  <time>2011-10-22T10:19:50Z</time>
</trkpt>
<trkpt lat="39.692958000" lon="-0.344422000">
  <ele>120.000000</ele>
  <time>2011-10-22T10:19:58Z</time>
</trkpt>
<trkpt lat="39.692943000" lon="-0.344394000">
  <ele>120.500000</ele>
  <time>2011-10-22T10:19:58Z</time>
</trkpt>
<trkpt lat="39.692939000" lon="-0.344355000">
  <ele>120.900000</ele>
  <time>2011-10-22T10:20:00Z</time>
</trkpt>
<trkpt lat="39.692940000" lon="-0.344315000">
  <ele>120.000000</ele>
  <time>2011-10-22T10:20:01Z</time>
</trkpt>
<trkpt lat="39.692949000" lon="-0.344221000">
  <ele>120.000000</ele>
  <time>2011-10-22T10:20:04Z</time>
</trkpt>
<trkpt lat="39.692965000" lon="-0.344186000">
  <ele>120.800000</ele>
  <time>2011-10-22T10:20:04Z</time>
</trkpt>
<trkpt lat="39.692982000" lon="-0.344170000">
  <ele>120.500000</ele>
  <time>2011-10-22T10:20:06Z</time>
</trkpt>
<trkpt lat="39.693009000" lon="-0.344153000">
  <ele>120.900000</ele>
  <time>2011-10-22T10:20:07Z</time>
</trkpt>
<trkpt lat="39.693037000" lon="-0.344140000">
  <ele>120.600000</ele>
  <time>2011-10-22T10:20:08Z</time>
</trkpt>
<trkpt lat="39.693122000" lon="-0.344115000">
  <ele>120.400000</ele>
  <time>2011-10-22T10:20:10Z</time>
</trkpt>
<trkpt lat="39.693185000" lon="-0.344115000">
  <ele>120.500000</ele>
  <time>2011-10-22T10:20:11Z</time>
</trkpt>
<trkpt lat="39.693245000" lon="-0.344122000">
  <ele>120.400000</ele>
  <time>2011-10-22T10:20:12Z</time>
</trkpt>
<trkpt lat="39.693301000" lon="-0.344148000">
  <ele>120.500000</ele>
  <time>2011-10-22T10:20:12Z</time>
</trkpt>
<trkpt lat="39.693403000" lon="-0.344210000">
  <ele>121.500000</ele>
  <time>2011-10-22T10:20:14Z</time>
</trkpt>
<trkpt lat="39.693531000" lon="-0.344310000">
  <ele>122.600000</ele>
  <time>2011-10-22T10:20:17Z</time>
</trkpt>
<trkpt lat="39.693565000" lon="-0.344352000">
  <ele>123.000000</ele>
  <time>2011-10-22T10:20:19Z</time>
</trkpt>
<trkpt lat="39.693575000" lon="-0.344397000">
  <ele>123.100000</ele>
  <time>2011-10-22T10:20:20Z</time>
</trkpt>
<trkpt lat="39.693607000" lon="-0.344436000">
  <ele>122.500000</ele>
  <time>2011-10-22T10:20:20Z</time>
</trkpt>
<trkpt lat="39.693630000" lon="-0.344472000">
  <ele>122.600000</ele>
  <time>2011-10-22T10:20:22Z</time>
</trkpt>
<trkpt lat="39.693713000" lon="-0.344585000">
  <ele>122.000000</ele>
  <time>2011-10-22T10:20:25Z</time>
</trkpt>
<trkpt lat="39.693738000" lon="-0.344634000">
  <ele>122.000000</ele>
  <time>2011-10-22T10:20:26Z</time>
</trkpt>
<trkpt lat="39.693857000" lon="-0.344824000">
  <ele>121.900000</ele>
  <time>2011-10-22T10:20:30Z</time>
</trkpt>
<trkpt lat="39.693896000" lon="-0.344862000">
  <ele>121.900000</ele>
  <time>2011-10-22T10:20:30Z</time>
</trkpt>
<trkpt lat="39.694015000" lon="-0.344917000">
  <ele>121.800000</ele>
  <time>2011-10-22T10:20:33Z</time>
</trkpt>
<trkpt lat="39.694140000" lon="-0.345002000">
  <ele>120.800000</ele>
  <time>2011-10-22T10:20:35Z</time>
</trkpt>
<trkpt lat="39.694259000" lon="-0.345055000">
  <ele>120.100000</ele>
  <time>2011-10-22T10:20:36Z</time>
</trkpt>
<trkpt lat="39.694337000" lon="-0.345070000">
  <ele>120.000000</ele>
  <time>2011-10-22T10:20:38Z</time>
</trkpt>
<trkpt lat="39.694387000" lon="-0.345074000">
  <ele>119.100000</ele>
  <time>2011-10-22T10:20:39Z</time>
</trkpt>
<trkpt lat="39.694441000" lon="-0.345066000">
  <ele>119.300000</ele>
  <time>2011-10-22T10:20:39Z</time>
</trkpt>
<trkpt lat="39.694547000" lon="-0.345036000">
  <ele>120.000000</ele>
  <time>2011-10-22T10:20:42Z</time>
</trkpt>
<trkpt lat="39.694600000" lon="-0.345010000">
  <ele>120.000000</ele>
  <time>2011-10-22T10:20:43Z</time>
</trkpt>
<trkpt lat="39.694646000" lon="-0.344981000">
  <ele>120.000000</ele>
  <time>2011-10-22T10:20:44Z</time>
</trkpt>
<trkpt lat="39.694685000" lon="-0.344944000">
  <ele>120.400000</ele>
  <time>2011-10-22T10:20:45Z</time>
</trkpt>
<trkpt lat="39.694726000" lon="-0.344898000">
  <ele>120.300000</ele>
  <time>2011-10-22T10:20:46Z</time>
</trkpt>
<trkpt lat="39.694794000" lon="-0.344793000">
  <ele>120.100000</ele>
  <time>2011-10-22T10:20:47Z</time>
</trkpt>
<trkpt lat="39.695018000" lon="-0.344471000">
  <ele>119.500000</ele>
  <time>2011-10-22T10:20:55Z</time>
</trkpt>
<trkpt lat="39.695059000" lon="-0.344440000">
  <ele>119.100000</ele>
  <time>2011-10-22T10:20:55Z</time>
</trkpt>
<trkpt lat="39.695095000" lon="-0.344427000">
  <ele>118.800000</ele>
  <time>2011-10-22T10:20:57Z</time>
</trkpt>
<trkpt lat="39.695140000" lon="-0.344425000">
  <ele>118.500000</ele>
  <time>2011-10-22T10:20:58Z</time>
</trkpt>
<trkpt lat="39.695185000" lon="-0.344439000">
  <ele>118.000000</ele>
  <time>2011-10-22T10:20:59Z</time>
</trkpt>
<trkpt lat="39.695222000" lon="-0.344483000">
  <ele>118.000000</ele>
  <time>2011-10-22T10:21:00Z</time>
</trkpt>
<trkpt lat="39.695266000" lon="-0.344608000">
  <ele>118.000000</ele>
  <time>2011-10-22T10:21:02Z</time>
</trkpt>
<trkpt lat="39.695274000" lon="-0.344721000">
  <ele>118.100000</ele>
  <time>2011-10-22T10:21:03Z</time>
</trkpt>
<trkpt lat="39.695289000" lon="-0.344831000">
  <ele>117.500000</ele>
  <time>2011-10-22T10:21:03Z</time>
</trkpt>
<trkpt lat="39.695333000" lon="-0.345034000">
  <ele>116.500000</ele>
  <time>2011-10-22T10:21:05Z</time>
</trkpt>
<trkpt lat="39.695450000" lon="-0.345355000">
  <ele>114.800000</ele>
  <time>2011-10-22T10:21:08Z</time>
</trkpt>
<trkpt lat="39.695608000" lon="-0.345670000">
  <ele>112.900000</ele>
  <time>2011-10-22T10:21:11Z</time>
</trkpt>
<trkpt lat="39.695777000" lon="-0.345931000">
  <ele>112.000000</ele>
  <time>2011-10-22T10:21:16Z</time>
</trkpt>
<trkpt lat="39.695813000" lon="-0.345958000">
  <ele>112.000000</ele>
  <time>2011-10-22T10:21:17Z</time>
</trkpt>
<trkpt lat="39.695846000" lon="-0.345969000">
  <ele>111.800000</ele>
  <time>2011-10-22T10:21:18Z</time>
</trkpt>
<trkpt lat="39.695877000" lon="-0.345970000">
  <ele>111.500000</ele>
  <time>2011-10-22T10:21:19Z</time>
</trkpt>
<trkpt lat="39.695923000" lon="-0.345945000">
  <ele>111.500000</ele>
  <time>2011-10-22T10:21:19Z</time>
</trkpt>
<trkpt lat="39.696211000" lon="-0.345760000">
  <ele>110.900000</ele>
  <time>2011-10-22T10:21:27Z</time>
</trkpt>
<trkpt lat="39.696449000" lon="-0.345572000">
  <ele>112.000000</ele>
  <time>2011-10-22T10:21:33Z</time>
</trkpt>
<trkpt lat="39.696549000" lon="-0.345467000">
  <ele>112.500000</ele>
  <time>2011-10-22T10:21:36Z</time>
</trkpt>
<trkpt lat="39.696749000" lon="-0.345226000">
  <ele>111.800000</ele>
  <time>2011-10-22T10:21:43Z</time>
</trkpt>
<trkpt lat="39.696774000" lon="-0.345214000">
  <ele>111.500000</ele>
  <time>2011-10-22T10:21:45Z</time>
</trkpt>
<trkpt lat="39.696807000" lon="-0.345211000">
  <ele>111.500000</ele>
  <time>2011-10-22T10:21:46Z</time>
</trkpt>
<trkpt lat="39.696836000" lon="-0.345222000">
  <ele>111.500000</ele>
  <time>2011-10-22T10:21:46Z</time>
</trkpt>
<trkpt lat="39.696867000" lon="-0.345248000">
  <ele>111.500000</ele>
  <time>2011-10-22T10:21:48Z</time>
</trkpt>
<trkpt lat="39.696894000" lon="-0.345277000">
  <ele>111.600000</ele>
  <time>2011-10-22T10:21:49Z</time>
</trkpt>
<trkpt lat="39.696913000" lon="-0.345316000">
  <ele>111.800000</ele>
  <time>2011-10-22T10:21:49Z</time>
</trkpt>
<trkpt lat="39.696934000" lon="-0.345352000">
  <ele>112.300000</ele>
  <time>2011-10-22T10:21:51Z</time>
</trkpt>
<trkpt lat="39.696958000" lon="-0.345383000">
  <ele>112.800000</ele>
  <time>2011-10-22T10:21:52Z</time>
</trkpt>
<trkpt lat="39.696982000" lon="-0.345412000">
  <ele>112.900000</ele>
  <time>2011-10-22T10:21:53Z</time>
</trkpt>
<trkpt lat="39.697009000" lon="-0.345437000">
  <ele>113.000000</ele>
  <time>2011-10-22T10:21:54Z</time>
</trkpt>
<trkpt lat="39.697044000" lon="-0.345454000">
  <ele>113.100000</ele>
  <time>2011-10-22T10:21:54Z</time>
</trkpt>
<trkpt lat="39.697080000" lon="-0.345468000">
  <ele>113.500000</ele>
  <time>2011-10-22T10:21:56Z</time>
</trkpt>
<trkpt lat="39.697178000" lon="-0.345487000">
  <ele>113.300000</ele>
  <time>2011-10-22T10:21:59Z</time>
</trkpt>
<trkpt lat="39.697247000" lon="-0.345490000">
  <ele>113.400000</ele>
  <time>2011-10-22T10:22:01Z</time>
</trkpt>
<trkpt lat="39.697281000" lon="-0.345477000">
  <ele>113.500000</ele>
  <time>2011-10-22T10:22:02Z</time>
</trkpt>
<trkpt lat="39.697348000" lon="-0.345442000">
  <ele>113.000000</ele>
  <time>2011-10-22T10:22:04Z</time>
</trkpt>
<trkpt lat="39.697383000" lon="-0.345419000">
  <ele>112.900000</ele>
  <time>2011-10-22T10:22:05Z</time>
</trkpt>
<trkpt lat="39.697476000" lon="-0.345336000">
  <ele>112.100000</ele>
  <time>2011-10-22T10:22:08Z</time>
</trkpt>
<trkpt lat="39.697505000" lon="-0.345303000">
  <ele>112.100000</ele>
  <time>2011-10-22T10:22:09Z</time>
</trkpt>
<trkpt lat="39.697537000" lon="-0.345275000">
  <ele>112.100000</ele>
  <time>2011-10-22T10:22:10Z</time>
</trkpt>
<trkpt lat="39.697840000" lon="-0.345059000">
  <ele>112.500000</ele>
  <time>2011-10-22T10:22:18Z</time>
</trkpt>
<trkpt lat="39.697885000" lon="-0.345036000">
  <ele>112.100000</ele>
  <time>2011-10-22T10:22:18Z</time>
</trkpt>
<trkpt lat="39.697978000" lon="-0.344991000">
  <ele>111.800000</ele>
  <time>2011-10-22T10:22:21Z</time>
</trkpt>
<trkpt lat="39.698028000" lon="-0.344979000">
  <ele>112.000000</ele>
  <time>2011-10-22T10:22:21Z</time>
</trkpt>
<trkpt lat="39.698515000" lon="-0.344861000">
  <ele>112.500000</ele>
  <time>2011-10-22T10:22:31Z</time>
</trkpt>
<trkpt lat="39.698881000" lon="-0.344749000">
  <ele>110.600000</ele>
  <time>2011-10-22T10:22:39Z</time>
</trkpt>
<trkpt lat="39.698937000" lon="-0.344755000">
  <ele>110.500000</ele>
  <time>2011-10-22T10:22:40Z</time>
</trkpt>
<trkpt lat="39.698991000" lon="-0.344771000">
  <ele>110.500000</ele>
  <time>2011-10-22T10:22:40Z</time>
</trkpt>
<trkpt lat="39.699040000" lon="-0.344799000">
  <ele>111.000000</ele>
  <time>2011-10-22T10:22:42Z</time>
</trkpt>
<trkpt lat="39.699084000" lon="-0.344823000">
  <ele>111.300000</ele>
  <time>2011-10-22T10:22:43Z</time>
</trkpt>
<trkpt lat="39.699171000" lon="-0.344889000">
  <ele>111.400000</ele>
  <time>2011-10-22T10:22:45Z</time>
</trkpt>
<trkpt lat="39.700146000" lon="-0.345740000">
  <ele>112.100000</ele>
  <time>2011-10-22T10:23:09Z</time>
</trkpt>
<trkpt lat="39.700180000" lon="-0.345776000">
  <ele>112.500000</ele>
  <time>2011-10-22T10:23:11Z</time>
</trkpt>
<trkpt lat="39.702330000" lon="-0.347627000">
  <ele>111.300000</ele>
  <time>2011-10-22T10:24:03Z</time>
</trkpt>
<trkpt lat="39.702716000" lon="-0.347941000">
  <ele>112.500000</ele>
  <time>2011-10-22T10:24:11Z</time>
</trkpt>
<trkpt lat="39.702758000" lon="-0.347986000">
  <ele>112.500000</ele>
  <time>2011-10-22T10:24:12Z</time>
</trkpt>
<trkpt lat="39.704419000" lon="-0.349472000">
  <ele>118.000000</ele>
  <time>2011-10-22T10:24:54Z</time>
</trkpt>
<trkpt lat="39.704471000" lon="-0.349491000">
  <ele>118.000000</ele>
  <time>2011-10-22T10:24:56Z</time>
</trkpt>
<trkpt lat="39.704518000" lon="-0.349519000">
  <ele>118.000000</ele>
  <time>2011-10-22T10:24:57Z</time>
</trkpt>
<trkpt lat="39.704556000" lon="-0.349528000">
  <ele>117.900000</ele>
  <time>2011-10-22T10:24:57Z</time>
</trkpt>
<trkpt lat="39.704611000" lon="-0.349536000">
  <ele>117.800000</ele>
  <time>2011-10-22T10:24:59Z</time>
</trkpt>
<trkpt lat="39.704722000" lon="-0.349561000">
  <ele>117.600000</ele>
  <time>2011-10-22T10:25:01Z</time>
</trkpt>
<trkpt lat="39.704914000" lon="-0.349583000">
  <ele>117.100000</ele>
  <time>2011-10-22T10:25:05Z</time>
</trkpt>
<trkpt lat="39.704947000" lon="-0.349561000">
  <ele>117.000000</ele>
  <time>2011-10-22T10:25:05Z</time>
</trkpt>
<trkpt lat="39.705159000" lon="-0.349341000">
  <ele>116.900000</ele>
  <time>2011-10-22T10:25:10Z</time>
</trkpt>
<trkpt lat="39.705099000" lon="-0.349224000">
  <ele>116.100000</ele>
  <time>2011-10-22T10:25:12Z</time>
</trkpt>
<trkpt lat="39.705106000" lon="-0.349178000">
  <ele>115.600000</ele>
  <time>2011-10-22T10:25:13Z</time>
</trkpt>
<trkpt lat="39.705143000" lon="-0.349144000">
  <ele>116.000000</ele>
  <time>2011-10-22T10:25:13Z</time>
</trkpt>
<trkpt lat="39.705188000" lon="-0.349109000">
  <ele>115.900000</ele>
  <time>2011-10-22T10:25:15Z</time>
</trkpt>
<trkpt lat="39.705229000" lon="-0.349104000">
  <ele>114.600000</ele>
  <time>2011-10-22T10:25:16Z</time>
</trkpt>
<trkpt lat="39.705267000" lon="-0.349115000">
  <ele>114.000000</ele>
  <time>2011-10-22T10:25:16Z</time>
</trkpt>
<trkpt lat="39.705351000" lon="-0.349148000">
  <ele>114.300000</ele>
  <time>2011-10-22T10:25:19Z</time>
</trkpt>
<trkpt lat="39.708224000" lon="-0.350271000">
  <ele>113.500000</ele>
  <time>2011-10-22T10:26:17Z</time>
</trkpt>
<trkpt lat="39.708261000" lon="-0.350303000">
  <ele>113.500000</ele>
  <time>2011-10-22T10:26:17Z</time>
</trkpt>
<trkpt lat="39.708311000" lon="-0.350335000">
  <ele>113.500000</ele>
  <time>2011-10-22T10:26:19Z</time>
</trkpt>
<trkpt lat="39.709218000" lon="-0.350964000">
  <ele>118.300000</ele>
  <time>2011-10-22T10:26:41Z</time>
</trkpt>
<trkpt lat="39.709287000" lon="-0.351026000">
  <ele>118.900000</ele>
  <time>2011-10-22T10:26:42Z</time>
</trkpt>
<trkpt lat="39.709610000" lon="-0.351270000">
  <ele>119.100000</ele>
  <time>2011-10-22T10:26:52Z</time>
</trkpt>
<trkpt lat="39.709639000" lon="-0.351278000">
  <ele>119.400000</ele>
  <time>2011-10-22T10:26:54Z</time>
</trkpt>
<trkpt lat="39.709671000" lon="-0.351270000">
  <ele>119.800000</ele>
  <time>2011-10-22T10:26:55Z</time>
</trkpt>
<trkpt lat="39.709729000" lon="-0.351229000">
  <ele>119.900000</ele>
  <time>2011-10-22T10:26:57Z</time>
</trkpt>
<trkpt lat="39.709749000" lon="-0.351195000">
  <ele>120.000000</ele>
  <time>2011-10-22T10:26:58Z</time>
</trkpt>
<trkpt lat="39.709811000" lon="-0.351076000">
  <ele>118.500000</ele>
  <time>2011-10-22T10:27:01Z</time>
</trkpt>
<trkpt lat="39.709841000" lon="-0.351057000">
  <ele>117.800000</ele>
  <time>2011-10-22T10:27:02Z</time>
</trkpt>
<trkpt lat="39.709867000" lon="-0.351053000">
  <ele>118.100000</ele>
  <time>2011-10-22T10:27:03Z</time>
</trkpt>
<trkpt lat="39.709932000" lon="-0.351066000">
  <ele>119.000000</ele>
  <time>2011-10-22T10:27:05Z</time>
</trkpt>
<trkpt lat="39.709949000" lon="-0.351112000">
  <ele>119.000000</ele>
  <time>2011-10-22T10:27:06Z</time>
</trkpt>
<trkpt lat="39.709969000" lon="-0.351152000">
  <ele>118.900000</ele>
  <time>2011-10-22T10:27:06Z</time>
</trkpt>
<trkpt lat="39.710001000" lon="-0.351254000">
  <ele>118.600000</ele>
  <time>2011-10-22T10:27:08Z</time>
</trkpt>
<trkpt lat="39.710194000" lon="-0.351763000">
  <ele>119.000000</ele>
  <time>2011-10-22T10:27:20Z</time>
</trkpt>
<trkpt lat="39.710213000" lon="-0.351798000">
  <ele>119.300000</ele>
  <time>2011-10-22T10:27:21Z</time>
</trkpt>
<trkpt lat="39.710236000" lon="-0.351825000">
  <ele>119.400000</ele>
  <time>2011-10-22T10:27:22Z</time>
</trkpt>
<trkpt lat="39.710287000" lon="-0.351850000">
  <ele>119.600000</ele>
  <time>2011-10-22T10:27:23Z</time>
</trkpt>
<trkpt lat="39.710320000" lon="-0.351879000">
  <ele>120.000000</ele>
  <time>2011-10-22T10:27:24Z</time>
</trkpt>
<trkpt lat="39.710508000" lon="-0.351995000">
  <ele>121.000000</ele>
  <time>2011-10-22T10:27:29Z</time>
</trkpt>
<trkpt lat="39.710615000" lon="-0.352086000">
  <ele>121.500000</ele>
  <time>2011-10-22T10:27:32Z</time>
</trkpt>
<trkpt lat="39.711497000" lon="-0.352865000">
  <ele>122.900000</ele>
  <time>2011-10-22T10:27:57Z</time>
</trkpt>
<trkpt lat="39.711522000" lon="-0.352904000">
  <ele>123.000000</ele>
  <time>2011-10-22T10:27:59Z</time>
</trkpt>
<trkpt lat="39.711551000" lon="-0.352939000">
  <ele>122.800000</ele>
  <time>2011-10-22T10:27:59Z</time>
</trkpt>
<trkpt lat="39.711837000" lon="-0.353283000">
  <ele>126.500000</ele>
  <time>2011-10-22T10:28:11Z</time>
</trkpt>
<trkpt lat="39.711862000" lon="-0.353302000">
  <ele>126.100000</ele>
  <time>2011-10-22T10:28:12Z</time>
</trkpt>
<trkpt lat="39.711920000" lon="-0.353322000">
  <ele>126.500000</ele>
  <time>2011-10-22T10:28:14Z</time>
</trkpt>
<trkpt lat="39.712356000" lon="-0.353399000">
  <ele>127.100000</ele>
  <time>2011-10-22T10:28:27Z</time>
</trkpt>
<trkpt lat="39.712342000" lon="-0.353397000">
  <ele>126.500000</ele>
  <time>2011-10-22T10:28:27Z</time>
</trkpt>
<trkpt lat="39.712353000" lon="-0.353372000">
  <ele>125.900000</ele>
  <time>2011-10-22T10:28:29Z</time>
</trkpt>
<trkpt lat="39.712370000" lon="-0.353340000">
  <ele>125.000000</ele>
  <time>2011-10-22T10:28:31Z</time>
</trkpt>
<trkpt lat="39.712370000" lon="-0.353331000">
  <ele>124.500000</ele>
  <time>2011-10-22T10:28:32Z</time>
</trkpt>
<trkpt lat="39.712374000" lon="-0.353323000">
  <ele>123.500000</ele>
  <time>2011-10-22T10:28:32Z</time>
</trkpt>
<trkpt lat="39.712377000" lon="-0.353319000">
  <ele>123.900000</ele>
  <time>2011-10-22T10:28:34Z</time>
</trkpt>
<trkpt lat="39.712377000" lon="-0.353318000">
  <ele>123.100000</ele>
  <time>2011-10-22T10:28:34Z</time>
</trkpt>
<trkpt lat="39.712382000" lon="-0.353312000">
  <ele>123.500000</ele>
  <time>2011-10-22T10:28:35Z</time>
</trkpt>
<trkpt lat="39.712428000" lon="-0.353270000">
  <ele>123.500000</ele>
  <time>2011-10-22T10:28:53Z</time>
</trkpt>
<trkpt lat="39.712466000" lon="-0.353238000">
  <ele>123.500000</ele>
  <time>2011-10-22T10:28:56Z</time>
</trkpt>
<trkpt lat="39.712476000" lon="-0.353232000">
  <ele>123.500000</ele>
  <time>2011-10-22T10:28:58Z</time>
</trkpt>
<trkpt lat="39.712486000" lon="-0.353230000">
  <ele>123.500000</ele>
  <time>2011-10-22T10:28:59Z</time>
</trkpt>
<trkpt lat="39.712519000" lon="-0.353245000">
  <ele>121.100000</ele>
  <time>2011-10-22T10:29:04Z</time>
</trkpt>
<trkpt lat="39.712554000" lon="-0.353245000">
  <ele>121.000000</ele>
  <time>2011-10-22T10:29:06Z</time>
</trkpt>
<trkpt lat="39.712573000" lon="-0.353247000">
  <ele>120.900000</ele>
  <time>2011-10-22T10:29:07Z</time>
</trkpt>
<trkpt lat="39.712794000" lon="-0.353276000">
  <ele>121.000000</ele>
  <time>2011-10-22T10:29:17Z</time>
</trkpt>
<trkpt lat="39.712820000" lon="-0.353273000">
  <ele>120.500000</ele>
  <time>2011-10-22T10:29:18Z</time>
</trkpt>
<trkpt lat="39.712838000" lon="-0.353252000">
  <ele>120.000000</ele>
  <time>2011-10-22T10:29:18Z</time>
</trkpt>
<trkpt lat="39.712857000" lon="-0.353192000">
  <ele>118.900000</ele>
  <time>2011-10-22T10:29:21Z</time>
</trkpt>
<trkpt lat="39.712881000" lon="-0.353057000">
  <ele>118.900000</ele>
  <time>2011-10-22T10:29:24Z</time>
</trkpt>
<trkpt lat="39.712878000" lon="-0.353024000">
  <ele>119.400000</ele>
  <time>2011-10-22T10:29:25Z</time>
</trkpt>
<trkpt lat="39.712872000" lon="-0.353025000">
  <ele>119.500000</ele>
  <time>2011-10-22T10:29:26Z</time>
</trkpt>
<trkpt lat="39.712865000" lon="-0.353016000">
  <ele>119.800000</ele>
  <time>2011-10-22T10:29:26Z</time>
</trkpt>
<trkpt lat="39.712814000" lon="-0.352956000">
  <ele>120.500000</ele>
  <time>2011-10-22T10:29:31Z</time>
</trkpt>
<trkpt lat="39.712801000" lon="-0.352943000">
  <ele>120.100000</ele>
  <time>2011-10-22T10:29:33Z</time>
</trkpt>
<trkpt lat="39.712785000" lon="-0.352914000">
  <ele>119.600000</ele>
  <time>2011-10-22T10:29:34Z</time>
</trkpt>
<trkpt lat="39.712786000" lon="-0.352917000">
  <ele>119.000000</ele>
  <time>2011-10-22T10:29:36Z</time>
</trkpt>
<trkpt lat="39.712786000" lon="-0.352916000">
  <ele>118.900000</ele>
  <time>2011-10-22T10:29:37Z</time>
</trkpt>
<trkpt lat="39.712783000" lon="-0.352918000">
  <ele>119.000000</ele>
  <time>2011-10-22T10:29:38Z</time>
</trkpt>
<trkpt lat="39.712783000" lon="-0.352922000">
  <ele>119.000000</ele>
  <time>2011-10-22T10:29:39Z</time>
</trkpt>
<trkpt lat="39.712784000" lon="-0.352924000">
  <ele>119.100000</ele>
  <time>2011-10-22T10:29:40Z</time>
</trkpt>
<trkpt lat="39.712783000" lon="-0.352924000">
  <ele>119.600000</ele>
  <time>2011-10-22T10:29:41Z</time>
</trkpt>
<trkpt lat="39.712783000" lon="-0.352927000">
  <ele>119.500000</ele>
  <time>2011-10-22T10:29:42Z</time>
</trkpt>
<trkpt lat="39.712784000" lon="-0.352928000">
  <ele>120.000000</ele>
  <time>2011-10-22T10:29:42Z</time>
</trkpt>
<trkpt lat="39.712783000" lon="-0.352930000">
  <ele>120.300000</ele>
  <time>2011-10-22T10:29:44Z</time>
</trkpt>
<trkpt lat="39.712783000" lon="-0.352930000">
  <ele>120.300000</ele>
  <time>2011-10-22T10:29:44Z</time>
</trkpt>
<trkpt lat="39.712783000" lon="-0.352930000">
  <ele>120.300000</ele>
  <time>2011-10-22T10:29:45Z</time>
</trkpt>
<trkpt lat="39.712783000" lon="-0.352930000">
  <ele>120.300000</ele>
  <time>2011-10-22T10:29:47Z</time>
</trkpt>
<trkpt lat="39.712783000" lon="-0.352929000">
  <ele>120.300000</ele>
  <time>2011-10-22T10:29:47Z</time>
</trkpt>
<trkpt lat="39.712783000" lon="-0.352930000">
  <ele>120.300000</ele>
  <time>2011-10-22T10:29:49Z</time>
</trkpt>
<trkpt lat="39.712783000" lon="-0.352930000">
  <ele>120.300000</ele>
  <time>2011-10-22T10:29:50Z</time>
</trkpt>
<trkpt lat="39.712783000" lon="-0.352930000">
  <ele>120.300000</ele>
  <time>2011-10-22T10:29:50Z</time>
</trkpt>
<trkpt lat="39.712783000" lon="-0.352930000">
  <ele>120.300000</ele>
  <time>2011-10-22T10:29:52Z</time>
</trkpt>
<trkpt lat="39.712778000" lon="-0.352928000">
  <ele>120.300000</ele>
  <time>2011-10-22T10:29:53Z</time>
</trkpt>
<trkpt lat="39.712771000" lon="-0.352919000">
  <ele>120.300000</ele>
  <time>2011-10-22T10:29:53Z</time>
</trkpt>
<trkpt lat="39.712647000" lon="-0.352760000">
  <ele>120.000000</ele>
  <time>2011-10-22T10:30:00Z</time>
</trkpt>
<trkpt lat="39.712632000" lon="-0.352729000">
  <ele>120.000000</ele>
  <time>2011-10-22T10:30:01Z</time>
</trkpt>
<trkpt lat="39.712594000" lon="-0.352623000">
  <ele>119.600000</ele>
  <time>2011-10-22T10:30:03Z</time>
</trkpt>
<trkpt lat="39.712583000" lon="-0.352590000">
  <ele>119.600000</ele>
  <time>2011-10-22T10:30:05Z</time>
</trkpt>
<trkpt lat="39.712577000" lon="-0.352554000">
  <ele>119.400000</ele>
  <time>2011-10-22T10:30:06Z</time>
</trkpt>
<trkpt lat="39.712570000" lon="-0.352440000">
  <ele>118.100000</ele>
  <time>2011-10-22T10:30:09Z</time>
</trkpt>
<trkpt lat="39.712575000" lon="-0.352356000">
  <ele>117.500000</ele>
  <time>2011-10-22T10:30:11Z</time>
</trkpt>
<trkpt lat="39.712600000" lon="-0.352145000">
  <ele>116.400000</ele>
  <time>2011-10-22T10:30:15Z</time>
</trkpt>
<trkpt lat="39.712647000" lon="-0.351985000">
  <ele>115.800000</ele>
  <time>2011-10-22T10:30:17Z</time>
</trkpt>
<trkpt lat="39.712690000" lon="-0.351895000">
  <ele>115.000000</ele>
  <time>2011-10-22T10:30:19Z</time>
</trkpt>
<trkpt lat="39.712710000" lon="-0.351861000">
  <ele>114.800000</ele>
  <time>2011-10-22T10:30:20Z</time>
</trkpt>
<trkpt lat="39.712731000" lon="-0.351835000">
  <ele>114.800000</ele>
  <time>2011-10-22T10:30:22Z</time>
</trkpt>
<trkpt lat="39.712752000" lon="-0.351817000">
  <ele>114.400000</ele>
  <time>2011-10-22T10:30:22Z</time>
</trkpt>
<trkpt lat="39.712813000" lon="-0.351744000">
  <ele>114.100000</ele>
  <time>2011-10-22T10:30:25Z</time>
</trkpt>
<trkpt lat="39.712830000" lon="-0.351708000">
  <ele>114.000000</ele>
  <time>2011-10-22T10:30:27Z</time>
</trkpt>
<trkpt lat="39.712842000" lon="-0.351653000">
  <ele>113.500000</ele>
  <time>2011-10-22T10:30:28Z</time>
</trkpt>
<trkpt lat="39.712912000" lon="-0.351167000">
  <ele>109.900000</ele>
  <time>2011-10-22T10:30:38Z</time>
</trkpt>
<trkpt lat="39.712918000" lon="-0.351117000">
  <ele>109.600000</ele>
  <time>2011-10-22T10:30:38Z</time>
</trkpt>
<trkpt lat="39.712910000" lon="-0.350659000">
  <ele>103.500000</ele>
  <time>2011-10-22T10:30:50Z</time>
</trkpt>
<trkpt lat="39.712912000" lon="-0.350496000">
  <ele>100.000000</ele>
  <time>2011-10-22T10:30:52Z</time>
</trkpt>
<trkpt lat="39.712917000" lon="-0.350449000">
  <ele>99.100000</ele>
  <time>2011-10-22T10:30:54Z</time>
</trkpt>
<trkpt lat="39.712932000" lon="-0.350314000">
  <ele>98.800000</ele>
  <time>2011-10-22T10:30:57Z</time>
</trkpt>
<trkpt lat="39.712920000" lon="-0.350273000">
  <ele>98.500000</ele>
  <time>2011-10-22T10:30:57Z</time>
</trkpt>
<trkpt lat="39.712916000" lon="-0.350227000">
  <ele>99.100000</ele>
  <time>2011-10-22T10:30:59Z</time>
</trkpt>
<trkpt lat="39.712876000" lon="-0.350005000">
  <ele>99.500000</ele>
  <time>2011-10-22T10:31:05Z</time>
</trkpt>
<trkpt lat="39.712865000" lon="-0.349973000">
  <ele>99.600000</ele>
  <time>2011-10-22T10:31:06Z</time>
</trkpt>
<trkpt lat="39.712850000" lon="-0.349947000">
  <ele>99.600000</ele>
  <time>2011-10-22T10:31:07Z</time>
</trkpt>
<trkpt lat="39.712807000" lon="-0.349881000">
  <ele>99.900000</ele>
  <time>2011-10-22T10:31:10Z</time>
</trkpt>
<trkpt lat="39.712749000" lon="-0.349815000">
  <ele>101.500000</ele>
  <time>2011-10-22T10:31:13Z</time>
</trkpt>
<trkpt lat="39.712722000" lon="-0.349809000">
  <ele>102.100000</ele>
  <time>2011-10-22T10:31:15Z</time>
</trkpt>
<trkpt lat="39.712702000" lon="-0.349798000">
  <ele>102.500000</ele>
  <time>2011-10-22T10:31:16Z</time>
</trkpt>
<trkpt lat="39.712685000" lon="-0.349784000">
  <ele>103.100000</ele>
  <time>2011-10-22T10:31:16Z</time>
</trkpt>
<trkpt lat="39.712652000" lon="-0.349760000">
  <ele>104.500000</ele>
  <time>2011-10-22T10:31:19Z</time>
</trkpt>
<trkpt lat="39.712631000" lon="-0.349752000">
  <ele>104.800000</ele>
  <time>2011-10-22T10:31:19Z</time>
</trkpt>
<trkpt lat="39.712559000" lon="-0.349704000">
  <ele>105.600000</ele>
  <time>2011-10-22T10:31:24Z</time>
</trkpt>
<trkpt lat="39.712514000" lon="-0.349680000">
  <ele>105.500000</ele>
  <time>2011-10-22T10:31:26Z</time>
</trkpt>
<trkpt lat="39.712218000" lon="-0.349509000">
  <ele>109.600000</ele>
  <time>2011-10-22T10:31:41Z</time>
</trkpt>
<trkpt lat="39.712201000" lon="-0.349499000">
  <ele>109.500000</ele>
  <time>2011-10-22T10:31:42Z</time>
</trkpt>
<trkpt lat="39.712167000" lon="-0.349472000">
  <ele>109.100000</ele>
  <time>2011-10-22T10:31:45Z</time>
</trkpt>
<trkpt lat="39.712174000" lon="-0.349454000">
  <ele>109.500000</ele>
  <time>2011-10-22T10:31:45Z</time>
</trkpt>
<trkpt lat="39.712180000" lon="-0.349439000">
  <ele>110.100000</ele>
  <time>2011-10-22T10:31:46Z</time>
</trkpt>
<trkpt lat="39.712217000" lon="-0.349400000">
  <ele>110.500000</ele>
  <time>2011-10-22T10:31:48Z</time>
</trkpt>
<trkpt lat="39.712233000" lon="-0.349370000">
  <ele>110.800000</ele>
  <time>2011-10-22T10:31:48Z</time>
</trkpt>
<trkpt lat="39.712260000" lon="-0.349323000">
  <ele>112.400000</ele>
  <time>2011-10-22T10:31:51Z</time>
</trkpt>
<trkpt lat="39.712277000" lon="-0.349301000">
  <ele>112.900000</ele>
  <time>2011-10-22T10:31:51Z</time>
</trkpt>
</trkseg>
</trk>
<trk>
  <name>2011-10-22-01_4233-4282</name>
  <desc>C:\Users\farnau\Documents\My Dropbox\Tracks\2011-10-22-01.gpx</desc>
<trkseg>
<trkpt lat="39.712277000" lon="-0.349301000">
  <ele>112.900000</ele>
  <time>2011-10-22T10:31:51Z</time>
</trkpt>
<trkpt lat="39.712361000" lon="-0.349194000">
  <ele>114.400000</ele>
  <time>2011-10-22T10:31:58Z</time>
</trkpt>
<trkpt lat="39.712363000" lon="-0.349190000">
  <ele>114.800000</ele>
  <time>2011-10-22T10:31:59Z</time>
</trkpt>
<trkpt lat="39.712351000" lon="-0.349169000">
  <ele>114.500000</ele>
  <time>2011-10-22T10:32:00Z</time>
</trkpt>
<trkpt lat="39.712326000" lon="-0.349120000">
  <ele>114.300000</ele>
  <time>2011-10-22T10:32:01Z</time>
</trkpt>
<trkpt lat="39.712315000" lon="-0.349093000">
  <ele>114.000000</ele>
  <time>2011-10-22T10:32:02Z</time>
</trkpt>
<trkpt lat="39.712241000" lon="-0.349031000">
  <ele>110.600000</ele>
  <time>2011-10-22T10:32:02Z</time>
</trkpt>
<trkpt lat="39.712217000" lon="-0.348997000">
  <ele>110.000000</ele>
  <time>2011-10-22T10:32:04Z</time>
</trkpt>
<trkpt lat="39.712185000" lon="-0.348939000">
  <ele>110.500000</ele>
  <time>2011-10-22T10:32:06Z</time>
</trkpt>
<trkpt lat="39.712186000" lon="-0.348908000">
  <ele>110.500000</ele>
  <time>2011-10-22T10:32:07Z</time>
</trkpt>
<trkpt lat="39.712224000" lon="-0.348828000">
  <ele>111.800000</ele>
  <time>2011-10-22T10:32:09Z</time>
</trkpt>
<trkpt lat="39.712337000" lon="-0.348679000">
  <ele>112.800000</ele>
  <time>2011-10-22T10:32:12Z</time>
</trkpt>
<trkpt lat="39.712405000" lon="-0.348600000">
  <ele>112.600000</ele>
  <time>2011-10-22T10:32:14Z</time>
</trkpt>
<trkpt lat="39.712440000" lon="-0.348563000">
  <ele>111.800000</ele>
  <time>2011-10-22T10:32:15Z</time>
</trkpt>
<trkpt lat="39.712483000" lon="-0.348557000">
  <ele>112.600000</ele>
  <time>2011-10-22T10:32:16Z</time>
</trkpt>
<trkpt lat="39.712542000" lon="-0.348567000">
  <ele>113.600000</ele>
  <time>2011-10-22T10:32:18Z</time>
</trkpt>
<trkpt lat="39.712586000" lon="-0.348595000">
  <ele>114.900000</ele>
  <time>2011-10-22T10:32:18Z</time>
</trkpt>
<trkpt lat="39.712975000" lon="-0.348860000">
  <ele>117.800000</ele>
  <time>2011-10-22T10:32:26Z</time>
</trkpt>
<trkpt lat="39.713014000" lon="-0.348883000">
  <ele>118.000000</ele>
  <time>2011-10-22T10:32:28Z</time>
</trkpt>
<trkpt lat="39.713065000" lon="-0.348906000">
  <ele>118.500000</ele>
  <time>2011-10-22T10:32:29Z</time>
</trkpt>
<trkpt lat="39.713390000" lon="-0.349081000">
  <ele>117.600000</ele>
  <time>2011-10-22T10:32:34Z</time>
</trkpt>
<trkpt lat="39.714059000" lon="-0.349510000">
  <ele>118.000000</ele>
  <time>2011-10-22T10:32:48Z</time>
</trkpt>
<trkpt lat="39.714135000" lon="-0.349504000">
  <ele>118.600000</ele>
  <time>2011-10-22T10:32:49Z</time>
</trkpt>
<trkpt lat="39.714640000" lon="-0.349464000">
  <ele>117.300000</ele>
  <time>2011-10-22T10:32:58Z</time>
</trkpt>
<trkpt lat="39.714681000" lon="-0.349466000">
  <ele>117.600000</ele>
  <time>2011-10-22T10:33:00Z</time>
</trkpt>
<trkpt lat="39.714750000" lon="-0.349488000">
  <ele>117.900000</ele>
  <time>2011-10-22T10:33:01Z</time>
</trkpt>
<trkpt lat="39.714783000" lon="-0.349514000">
  <ele>116.900000</ele>
  <time>2011-10-22T10:33:03Z</time>
</trkpt>
<trkpt lat="39.714864000" lon="-0.349615000">
  <ele>117.500000</ele>
  <time>2011-10-22T10:33:06Z</time>
</trkpt>
<trkpt lat="39.714849000" lon="-0.349676000">
  <ele>117.000000</ele>
  <time>2011-10-22T10:33:07Z</time>
</trkpt>
<trkpt lat="39.714849000" lon="-0.349726000">
  <ele>118.000000</ele>
  <time>2011-10-22T10:33:08Z</time>
</trkpt>
<trkpt lat="39.714812000" lon="-0.350560000">
  <ele>119.400000</ele>
  <time>2011-10-22T10:33:22Z</time>
</trkpt>
<trkpt lat="39.714792000" lon="-0.350648000">
  <ele>119.100000</ele>
  <time>2011-10-22T10:33:24Z</time>
</trkpt>
<trkpt lat="39.714755000" lon="-0.350687000">
  <ele>118.300000</ele>
  <time>2011-10-22T10:33:25Z</time>
</trkpt>
<trkpt lat="39.714612000" lon="-0.350830000">
  <ele>119.100000</ele>
  <time>2011-10-22T10:33:30Z</time>
</trkpt>
<trkpt lat="39.714592000" lon="-0.350833000">
  <ele>119.000000</ele>
  <time>2011-10-22T10:33:30Z</time>
</trkpt>
<trkpt lat="39.714560000" lon="-0.350832000">
  <ele>118.900000</ele>
  <time>2011-10-22T10:33:33Z</time>
</trkpt>
<trkpt lat="39.714575000" lon="-0.350823000">
  <ele>118.600000</ele>
  <time>2011-10-22T10:33:33Z</time>
</trkpt>
<trkpt lat="39.714577000" lon="-0.350822000">
  <ele>118.500000</ele>
  <time>2011-10-22T10:33:35Z</time>
</trkpt>
<trkpt lat="39.714580000" lon="-0.350818000">
  <ele>118.600000</ele>
  <time>2011-10-22T10:33:36Z</time>
</trkpt>
<trkpt lat="39.714583000" lon="-0.350814000">
  <ele>118.500000</ele>
  <time>2011-10-22T10:33:36Z</time>
</trkpt>
<trkpt lat="39.714585000" lon="-0.350811000">
  <ele>118.600000</ele>
  <time>2011-10-22T10:33:38Z</time>
</trkpt>
<trkpt lat="39.714584000" lon="-0.350811000">
  <ele>118.800000</ele>
  <time>2011-10-22T10:33:39Z</time>
</trkpt>
<trkpt lat="39.714583000" lon="-0.350812000">
  <ele>118.800000</ele>
  <time>2011-10-22T10:33:39Z</time>
</trkpt>
<trkpt lat="39.714582000" lon="-0.350813000">
  <ele>118.900000</ele>
  <time>2011-10-22T10:33:41Z</time>
</trkpt>
<trkpt lat="39.714581000" lon="-0.350812000">
  <ele>119.000000</ele>
  <time>2011-10-22T10:33:42Z</time>
</trkpt>
<trkpt lat="39.714581000" lon="-0.350812000">
  <ele>119.100000</ele>
  <time>2011-10-22T10:33:43Z</time>
</trkpt>
<trkpt lat="39.714581000" lon="-0.350811000">
  <ele>119.100000</ele>
  <time>2011-10-22T10:33:44Z</time>
</trkpt>
<trkpt lat="39.714581000" lon="-0.350811000">
  <ele>119.100000</ele>
  <time>2011-10-22T10:33:44Z</time>
</trkpt>
<trkpt lat="39.714581000" lon="-0.350811000">
  <ele>119.100000</ele>
  <time>2011-10-22T10:34:08Z</time>
</trkpt>
</trkseg>
</trk>
</gpx>
